<?xml version="1.0" encoding="UTF-8"?>
<gpx xmlns="http://www.topografix.com/GPX/1/1"
     creator="GpsDumpMac 0.29"
     version="1.1"
     xmlns:xsi="http://www.w3.org/2001/XMLSchema-instance"
     xsi:schemaLocation="http://www.topografix.com/GPX/1/1 http://www.topografix.com/GPX/1/1/gpx.xsd">
  <metadata>
    <link href="http://www.gethome.no/stein.sorensen/">
      <text>GPS dump for www.flightlog.org</text>
    </link>
    <time>2016-07-28T11:37:51Z</time>
    <bounds minlat="40.246150" minlon="-4.909783" maxlat="40.322100" maxlon="-4.745983"/>
  </metadata>
  <trk>
    <name>Track 001</name>
    <trkseg>
      <trkpt lat="40.256117" lon="-4.905900">
        <ele>1253.0</ele>
        <time>2016-03-13T12:50:54Z</time>
      </trkpt>
      <trkpt lat="40.256067" lon="-4.905917">
        <ele>1254.0</ele>
        <time>2016-03-13T12:50:55Z</time>
      </trkpt>
      <trkpt lat="40.256017" lon="-4.905933">
        <ele>1256.0</ele>
        <time>2016-03-13T12:50:56Z</time>
      </trkpt>
      <trkpt lat="40.255967" lon="-4.905933">
        <ele>1257.0</ele>
        <time>2016-03-13T12:50:57Z</time>
      </trkpt>
      <trkpt lat="40.255933" lon="-4.905950">
        <ele>1258.0</ele>
        <time>2016-03-13T12:50:58Z</time>
      </trkpt>
      <trkpt lat="40.255917" lon="-4.905983">
        <ele>1259.0</ele>
        <time>2016-03-13T12:50:59Z</time>
      </trkpt>
      <trkpt lat="40.255900" lon="-4.906000">
        <ele>1259.0</ele>
        <time>2016-03-13T12:51:00Z</time>
      </trkpt>
      <trkpt lat="40.255850" lon="-4.906033">
        <ele>1259.0</ele>
        <time>2016-03-13T12:51:01Z</time>
      </trkpt>
      <trkpt lat="40.255800" lon="-4.906033">
        <ele>1260.0</ele>
        <time>2016-03-13T12:51:02Z</time>
      </trkpt>
      <trkpt lat="40.255750" lon="-4.906033">
        <ele>1261.0</ele>
        <time>2016-03-13T12:51:03Z</time>
      </trkpt>
      <trkpt lat="40.255700" lon="-4.906033">
        <ele>1262.0</ele>
        <time>2016-03-13T12:51:04Z</time>
      </trkpt>
      <trkpt lat="40.255667" lon="-4.906017">
        <ele>1263.0</ele>
        <time>2016-03-13T12:51:05Z</time>
      </trkpt>
      <trkpt lat="40.255633" lon="-4.906000">
        <ele>1264.0</ele>
        <time>2016-03-13T12:51:06Z</time>
      </trkpt>
      <trkpt lat="40.255600" lon="-4.906000">
        <ele>1264.0</ele>
        <time>2016-03-13T12:51:07Z</time>
      </trkpt>
      <trkpt lat="40.255567" lon="-4.906000">
        <ele>1263.0</ele>
        <time>2016-03-13T12:51:08Z</time>
      </trkpt>
      <trkpt lat="40.255500" lon="-4.906033">
        <ele>1263.0</ele>
        <time>2016-03-13T12:51:09Z</time>
      </trkpt>
      <trkpt lat="40.255450" lon="-4.906067">
        <ele>1263.0</ele>
        <time>2016-03-13T12:51:10Z</time>
      </trkpt>
      <trkpt lat="40.255400" lon="-4.906100">
        <ele>1264.0</ele>
        <time>2016-03-13T12:51:11Z</time>
      </trkpt>
      <trkpt lat="40.255350" lon="-4.906133">
        <ele>1264.0</ele>
        <time>2016-03-13T12:51:12Z</time>
      </trkpt>
      <trkpt lat="40.255283" lon="-4.906150">
        <ele>1264.0</ele>
        <time>2016-03-13T12:51:13Z</time>
      </trkpt>
      <trkpt lat="40.255233" lon="-4.906150">
        <ele>1264.0</ele>
        <time>2016-03-13T12:51:14Z</time>
      </trkpt>
      <trkpt lat="40.255200" lon="-4.906150">
        <ele>1264.0</ele>
        <time>2016-03-13T12:51:15Z</time>
      </trkpt>
      <trkpt lat="40.255167" lon="-4.906133">
        <ele>1264.0</ele>
        <time>2016-03-13T12:51:16Z</time>
      </trkpt>
      <trkpt lat="40.255117" lon="-4.906100">
        <ele>1263.0</ele>
        <time>2016-03-13T12:51:17Z</time>
      </trkpt>
      <trkpt lat="40.255083" lon="-4.906050">
        <ele>1262.0</ele>
        <time>2016-03-13T12:51:18Z</time>
      </trkpt>
      <trkpt lat="40.255050" lon="-4.906000">
        <ele>1261.0</ele>
        <time>2016-03-13T12:51:19Z</time>
      </trkpt>
      <trkpt lat="40.255017" lon="-4.905933">
        <ele>1261.0</ele>
        <time>2016-03-13T12:51:20Z</time>
      </trkpt>
      <trkpt lat="40.255000" lon="-4.905867">
        <ele>1260.0</ele>
        <time>2016-03-13T12:51:21Z</time>
      </trkpt>
      <trkpt lat="40.254983" lon="-4.905800">
        <ele>1259.0</ele>
        <time>2016-03-13T12:51:22Z</time>
      </trkpt>
      <trkpt lat="40.254950" lon="-4.905733">
        <ele>1258.0</ele>
        <time>2016-03-13T12:51:23Z</time>
      </trkpt>
      <trkpt lat="40.254900" lon="-4.905700">
        <ele>1257.0</ele>
        <time>2016-03-13T12:51:24Z</time>
      </trkpt>
      <trkpt lat="40.254817" lon="-4.905667">
        <ele>1256.0</ele>
        <time>2016-03-13T12:51:25Z</time>
      </trkpt>
      <trkpt lat="40.254750" lon="-4.905650">
        <ele>1256.0</ele>
        <time>2016-03-13T12:51:26Z</time>
      </trkpt>
      <trkpt lat="40.254700" lon="-4.905633">
        <ele>1258.0</ele>
        <time>2016-03-13T12:51:27Z</time>
      </trkpt>
      <trkpt lat="40.254667" lon="-4.905600">
        <ele>1259.0</ele>
        <time>2016-03-13T12:51:28Z</time>
      </trkpt>
      <trkpt lat="40.254650" lon="-4.905567">
        <ele>1259.0</ele>
        <time>2016-03-13T12:51:29Z</time>
      </trkpt>
      <trkpt lat="40.254633" lon="-4.905533">
        <ele>1258.0</ele>
        <time>2016-03-13T12:51:30Z</time>
      </trkpt>
      <trkpt lat="40.254617" lon="-4.905517">
        <ele>1256.0</ele>
        <time>2016-03-13T12:51:31Z</time>
      </trkpt>
      <trkpt lat="40.254550" lon="-4.905517">
        <ele>1254.0</ele>
        <time>2016-03-13T12:51:32Z</time>
      </trkpt>
      <trkpt lat="40.254500" lon="-4.905550">
        <ele>1254.0</ele>
        <time>2016-03-13T12:51:33Z</time>
      </trkpt>
      <trkpt lat="40.254433" lon="-4.905567">
        <ele>1256.0</ele>
        <time>2016-03-13T12:51:34Z</time>
      </trkpt>
      <trkpt lat="40.254400" lon="-4.905583">
        <ele>1257.0</ele>
        <time>2016-03-13T12:51:35Z</time>
      </trkpt>
      <trkpt lat="40.254367" lon="-4.905583">
        <ele>1257.0</ele>
        <time>2016-03-13T12:51:36Z</time>
      </trkpt>
      <trkpt lat="40.254333" lon="-4.905583">
        <ele>1254.0</ele>
        <time>2016-03-13T12:51:37Z</time>
      </trkpt>
      <trkpt lat="40.254300" lon="-4.905567">
        <ele>1252.0</ele>
        <time>2016-03-13T12:51:38Z</time>
      </trkpt>
      <trkpt lat="40.254250" lon="-4.905550">
        <ele>1249.0</ele>
        <time>2016-03-13T12:51:39Z</time>
      </trkpt>
      <trkpt lat="40.254200" lon="-4.905533">
        <ele>1248.0</ele>
        <time>2016-03-13T12:51:40Z</time>
      </trkpt>
      <trkpt lat="40.254133" lon="-4.905500">
        <ele>1246.0</ele>
        <time>2016-03-13T12:51:41Z</time>
      </trkpt>
      <trkpt lat="40.254100" lon="-4.905483">
        <ele>1246.0</ele>
        <time>2016-03-13T12:51:42Z</time>
      </trkpt>
      <trkpt lat="40.254050" lon="-4.905517">
        <ele>1245.0</ele>
        <time>2016-03-13T12:51:43Z</time>
      </trkpt>
      <trkpt lat="40.254017" lon="-4.905600">
        <ele>1243.0</ele>
        <time>2016-03-13T12:51:44Z</time>
      </trkpt>
      <trkpt lat="40.254033" lon="-4.905700">
        <ele>1242.0</ele>
        <time>2016-03-13T12:51:45Z</time>
      </trkpt>
      <trkpt lat="40.254067" lon="-4.905817">
        <ele>1242.0</ele>
        <time>2016-03-13T12:51:46Z</time>
      </trkpt>
      <trkpt lat="40.254100" lon="-4.905900">
        <ele>1241.0</ele>
        <time>2016-03-13T12:51:47Z</time>
      </trkpt>
      <trkpt lat="40.254167" lon="-4.905983">
        <ele>1239.0</ele>
        <time>2016-03-13T12:51:48Z</time>
      </trkpt>
      <trkpt lat="40.254233" lon="-4.906033">
        <ele>1236.0</ele>
        <time>2016-03-13T12:51:49Z</time>
      </trkpt>
      <trkpt lat="40.254317" lon="-4.906083">
        <ele>1234.0</ele>
        <time>2016-03-13T12:51:50Z</time>
      </trkpt>
      <trkpt lat="40.254417" lon="-4.906117">
        <ele>1231.0</ele>
        <time>2016-03-13T12:51:51Z</time>
      </trkpt>
      <trkpt lat="40.254533" lon="-4.906133">
        <ele>1227.0</ele>
        <time>2016-03-13T12:51:52Z</time>
      </trkpt>
      <trkpt lat="40.254667" lon="-4.906150">
        <ele>1225.0</ele>
        <time>2016-03-13T12:51:53Z</time>
      </trkpt>
      <trkpt lat="40.254800" lon="-4.906150">
        <ele>1223.0</ele>
        <time>2016-03-13T12:51:54Z</time>
      </trkpt>
      <trkpt lat="40.254900" lon="-4.906167">
        <ele>1223.0</ele>
        <time>2016-03-13T12:51:55Z</time>
      </trkpt>
      <trkpt lat="40.255000" lon="-4.906200">
        <ele>1222.0</ele>
        <time>2016-03-13T12:51:56Z</time>
      </trkpt>
      <trkpt lat="40.255100" lon="-4.906233">
        <ele>1220.0</ele>
        <time>2016-03-13T12:51:57Z</time>
      </trkpt>
      <trkpt lat="40.255183" lon="-4.906283">
        <ele>1218.0</ele>
        <time>2016-03-13T12:51:58Z</time>
      </trkpt>
      <trkpt lat="40.255283" lon="-4.906367">
        <ele>1216.0</ele>
        <time>2016-03-13T12:51:59Z</time>
      </trkpt>
      <trkpt lat="40.255367" lon="-4.906450">
        <ele>1214.0</ele>
        <time>2016-03-13T12:52:00Z</time>
      </trkpt>
      <trkpt lat="40.255450" lon="-4.906567">
        <ele>1214.0</ele>
        <time>2016-03-13T12:52:01Z</time>
      </trkpt>
      <trkpt lat="40.255533" lon="-4.906650">
        <ele>1216.0</ele>
        <time>2016-03-13T12:52:02Z</time>
      </trkpt>
      <trkpt lat="40.255617" lon="-4.906717">
        <ele>1220.0</ele>
        <time>2016-03-13T12:52:03Z</time>
      </trkpt>
      <trkpt lat="40.255667" lon="-4.906783">
        <ele>1222.0</ele>
        <time>2016-03-13T12:52:04Z</time>
      </trkpt>
      <trkpt lat="40.255717" lon="-4.906867">
        <ele>1222.0</ele>
        <time>2016-03-13T12:52:05Z</time>
      </trkpt>
      <trkpt lat="40.255750" lon="-4.906950">
        <ele>1222.0</ele>
        <time>2016-03-13T12:52:06Z</time>
      </trkpt>
      <trkpt lat="40.255800" lon="-4.907033">
        <ele>1222.0</ele>
        <time>2016-03-13T12:52:07Z</time>
      </trkpt>
      <trkpt lat="40.255833" lon="-4.907117">
        <ele>1222.0</ele>
        <time>2016-03-13T12:52:08Z</time>
      </trkpt>
      <trkpt lat="40.255900" lon="-4.907183">
        <ele>1222.0</ele>
        <time>2016-03-13T12:52:09Z</time>
      </trkpt>
      <trkpt lat="40.255967" lon="-4.907250">
        <ele>1222.0</ele>
        <time>2016-03-13T12:52:10Z</time>
      </trkpt>
      <trkpt lat="40.256050" lon="-4.907300">
        <ele>1223.0</ele>
        <time>2016-03-13T12:52:11Z</time>
      </trkpt>
      <trkpt lat="40.256117" lon="-4.907367">
        <ele>1222.0</ele>
        <time>2016-03-13T12:52:12Z</time>
      </trkpt>
      <trkpt lat="40.256183" lon="-4.907433">
        <ele>1222.0</ele>
        <time>2016-03-13T12:52:13Z</time>
      </trkpt>
      <trkpt lat="40.256233" lon="-4.907517">
        <ele>1221.0</ele>
        <time>2016-03-13T12:52:14Z</time>
      </trkpt>
      <trkpt lat="40.256283" lon="-4.907600">
        <ele>1219.0</ele>
        <time>2016-03-13T12:52:15Z</time>
      </trkpt>
      <trkpt lat="40.256317" lon="-4.907700">
        <ele>1218.0</ele>
        <time>2016-03-13T12:52:16Z</time>
      </trkpt>
      <trkpt lat="40.256333" lon="-4.907800">
        <ele>1217.0</ele>
        <time>2016-03-13T12:52:17Z</time>
      </trkpt>
      <trkpt lat="40.256350" lon="-4.907900">
        <ele>1216.0</ele>
        <time>2016-03-13T12:52:18Z</time>
      </trkpt>
      <trkpt lat="40.256350" lon="-4.908000">
        <ele>1215.0</ele>
        <time>2016-03-13T12:52:19Z</time>
      </trkpt>
      <trkpt lat="40.256333" lon="-4.908083">
        <ele>1215.0</ele>
        <time>2016-03-13T12:52:20Z</time>
      </trkpt>
      <trkpt lat="40.256333" lon="-4.908183">
        <ele>1216.0</ele>
        <time>2016-03-13T12:52:21Z</time>
      </trkpt>
      <trkpt lat="40.256317" lon="-4.908283">
        <ele>1217.0</ele>
        <time>2016-03-13T12:52:22Z</time>
      </trkpt>
      <trkpt lat="40.256333" lon="-4.908383">
        <ele>1217.0</ele>
        <time>2016-03-13T12:52:23Z</time>
      </trkpt>
      <trkpt lat="40.256383" lon="-4.908483">
        <ele>1217.0</ele>
        <time>2016-03-13T12:52:24Z</time>
      </trkpt>
      <trkpt lat="40.256450" lon="-4.908583">
        <ele>1218.0</ele>
        <time>2016-03-13T12:52:25Z</time>
      </trkpt>
      <trkpt lat="40.256500" lon="-4.908667">
        <ele>1218.0</ele>
        <time>2016-03-13T12:52:26Z</time>
      </trkpt>
      <trkpt lat="40.256533" lon="-4.908750">
        <ele>1218.0</ele>
        <time>2016-03-13T12:52:27Z</time>
      </trkpt>
      <trkpt lat="40.256550" lon="-4.908833">
        <ele>1217.0</ele>
        <time>2016-03-13T12:52:28Z</time>
      </trkpt>
      <trkpt lat="40.256550" lon="-4.908933">
        <ele>1216.0</ele>
        <time>2016-03-13T12:52:29Z</time>
      </trkpt>
      <trkpt lat="40.256517" lon="-4.909033">
        <ele>1215.0</ele>
        <time>2016-03-13T12:52:30Z</time>
      </trkpt>
      <trkpt lat="40.256500" lon="-4.909117">
        <ele>1214.0</ele>
        <time>2016-03-13T12:52:31Z</time>
      </trkpt>
      <trkpt lat="40.256483" lon="-4.909200">
        <ele>1214.0</ele>
        <time>2016-03-13T12:52:32Z</time>
      </trkpt>
      <trkpt lat="40.256467" lon="-4.909300">
        <ele>1214.0</ele>
        <time>2016-03-13T12:52:33Z</time>
      </trkpt>
      <trkpt lat="40.256450" lon="-4.909417">
        <ele>1213.0</ele>
        <time>2016-03-13T12:52:34Z</time>
      </trkpt>
      <trkpt lat="40.256433" lon="-4.909517">
        <ele>1213.0</ele>
        <time>2016-03-13T12:52:35Z</time>
      </trkpt>
      <trkpt lat="40.256417" lon="-4.909617">
        <ele>1213.0</ele>
        <time>2016-03-13T12:52:36Z</time>
      </trkpt>
      <trkpt lat="40.256383" lon="-4.909700">
        <ele>1213.0</ele>
        <time>2016-03-13T12:52:37Z</time>
      </trkpt>
      <trkpt lat="40.256333" lon="-4.909767">
        <ele>1213.0</ele>
        <time>2016-03-13T12:52:38Z</time>
      </trkpt>
      <trkpt lat="40.256267" lon="-4.909783">
        <ele>1212.0</ele>
        <time>2016-03-13T12:52:39Z</time>
      </trkpt>
      <trkpt lat="40.256200" lon="-4.909750">
        <ele>1211.0</ele>
        <time>2016-03-13T12:52:40Z</time>
      </trkpt>
      <trkpt lat="40.256150" lon="-4.909667">
        <ele>1209.0</ele>
        <time>2016-03-13T12:52:41Z</time>
      </trkpt>
      <trkpt lat="40.256117" lon="-4.909550">
        <ele>1207.0</ele>
        <time>2016-03-13T12:52:42Z</time>
      </trkpt>
      <trkpt lat="40.256117" lon="-4.909417">
        <ele>1206.0</ele>
        <time>2016-03-13T12:52:43Z</time>
      </trkpt>
      <trkpt lat="40.256150" lon="-4.909283">
        <ele>1207.0</ele>
        <time>2016-03-13T12:52:44Z</time>
      </trkpt>
      <trkpt lat="40.256217" lon="-4.909167">
        <ele>1208.0</ele>
        <time>2016-03-13T12:52:45Z</time>
      </trkpt>
      <trkpt lat="40.256267" lon="-4.909067">
        <ele>1210.0</ele>
        <time>2016-03-13T12:52:46Z</time>
      </trkpt>
      <trkpt lat="40.256300" lon="-4.908967">
        <ele>1211.0</ele>
        <time>2016-03-13T12:52:47Z</time>
      </trkpt>
      <trkpt lat="40.256333" lon="-4.908883">
        <ele>1210.0</ele>
        <time>2016-03-13T12:52:48Z</time>
      </trkpt>
      <trkpt lat="40.256350" lon="-4.908783">
        <ele>1208.0</ele>
        <time>2016-03-13T12:52:49Z</time>
      </trkpt>
      <trkpt lat="40.256350" lon="-4.908667">
        <ele>1207.0</ele>
        <time>2016-03-13T12:52:50Z</time>
      </trkpt>
      <trkpt lat="40.256300" lon="-4.908583">
        <ele>1204.0</ele>
        <time>2016-03-13T12:52:51Z</time>
      </trkpt>
      <trkpt lat="40.256217" lon="-4.908533">
        <ele>1201.0</ele>
        <time>2016-03-13T12:52:52Z</time>
      </trkpt>
      <trkpt lat="40.256133" lon="-4.908517">
        <ele>1199.0</ele>
        <time>2016-03-13T12:52:53Z</time>
      </trkpt>
      <trkpt lat="40.256067" lon="-4.908500">
        <ele>1198.0</ele>
        <time>2016-03-13T12:52:54Z</time>
      </trkpt>
      <trkpt lat="40.255983" lon="-4.908483">
        <ele>1198.0</ele>
        <time>2016-03-13T12:52:55Z</time>
      </trkpt>
      <trkpt lat="40.255933" lon="-4.908400">
        <ele>1197.0</ele>
        <time>2016-03-13T12:52:56Z</time>
      </trkpt>
      <trkpt lat="40.255883" lon="-4.908300">
        <ele>1197.0</ele>
        <time>2016-03-13T12:52:57Z</time>
      </trkpt>
      <trkpt lat="40.255850" lon="-4.908200">
        <ele>1198.0</ele>
        <time>2016-03-13T12:52:58Z</time>
      </trkpt>
      <trkpt lat="40.255800" lon="-4.908117">
        <ele>1198.0</ele>
        <time>2016-03-13T12:52:59Z</time>
      </trkpt>
      <trkpt lat="40.255750" lon="-4.908033">
        <ele>1199.0</ele>
        <time>2016-03-13T12:53:00Z</time>
      </trkpt>
      <trkpt lat="40.255700" lon="-4.907967">
        <ele>1199.0</ele>
        <time>2016-03-13T12:53:01Z</time>
      </trkpt>
      <trkpt lat="40.255650" lon="-4.907900">
        <ele>1199.0</ele>
        <time>2016-03-13T12:53:02Z</time>
      </trkpt>
      <trkpt lat="40.255583" lon="-4.907850">
        <ele>1200.0</ele>
        <time>2016-03-13T12:53:03Z</time>
      </trkpt>
      <trkpt lat="40.255517" lon="-4.907817">
        <ele>1200.0</ele>
        <time>2016-03-13T12:53:04Z</time>
      </trkpt>
      <trkpt lat="40.255450" lon="-4.907800">
        <ele>1200.0</ele>
        <time>2016-03-13T12:53:05Z</time>
      </trkpt>
      <trkpt lat="40.255383" lon="-4.907833">
        <ele>1200.0</ele>
        <time>2016-03-13T12:53:06Z</time>
      </trkpt>
      <trkpt lat="40.255317" lon="-4.907900">
        <ele>1200.0</ele>
        <time>2016-03-13T12:53:07Z</time>
      </trkpt>
      <trkpt lat="40.255283" lon="-4.908000">
        <ele>1200.0</ele>
        <time>2016-03-13T12:53:08Z</time>
      </trkpt>
      <trkpt lat="40.255300" lon="-4.908117">
        <ele>1199.0</ele>
        <time>2016-03-13T12:53:09Z</time>
      </trkpt>
      <trkpt lat="40.255333" lon="-4.908233">
        <ele>1199.0</ele>
        <time>2016-03-13T12:53:10Z</time>
      </trkpt>
      <trkpt lat="40.255383" lon="-4.908317">
        <ele>1202.0</ele>
        <time>2016-03-13T12:53:11Z</time>
      </trkpt>
      <trkpt lat="40.255450" lon="-4.908383">
        <ele>1204.0</ele>
        <time>2016-03-13T12:53:12Z</time>
      </trkpt>
      <trkpt lat="40.255500" lon="-4.908450">
        <ele>1204.0</ele>
        <time>2016-03-13T12:53:13Z</time>
      </trkpt>
      <trkpt lat="40.255550" lon="-4.908517">
        <ele>1204.0</ele>
        <time>2016-03-13T12:53:14Z</time>
      </trkpt>
      <trkpt lat="40.255600" lon="-4.908600">
        <ele>1203.0</ele>
        <time>2016-03-13T12:53:15Z</time>
      </trkpt>
      <trkpt lat="40.255617" lon="-4.908683">
        <ele>1201.0</ele>
        <time>2016-03-13T12:53:16Z</time>
      </trkpt>
      <trkpt lat="40.255600" lon="-4.908783">
        <ele>1200.0</ele>
        <time>2016-03-13T12:53:17Z</time>
      </trkpt>
      <trkpt lat="40.255550" lon="-4.908833">
        <ele>1198.0</ele>
        <time>2016-03-13T12:53:18Z</time>
      </trkpt>
      <trkpt lat="40.255467" lon="-4.908867">
        <ele>1196.0</ele>
        <time>2016-03-13T12:53:19Z</time>
      </trkpt>
      <trkpt lat="40.255383" lon="-4.908850">
        <ele>1195.0</ele>
        <time>2016-03-13T12:53:20Z</time>
      </trkpt>
      <trkpt lat="40.255300" lon="-4.908817">
        <ele>1196.0</ele>
        <time>2016-03-13T12:53:21Z</time>
      </trkpt>
      <trkpt lat="40.255233" lon="-4.908800">
        <ele>1199.0</ele>
        <time>2016-03-13T12:53:22Z</time>
      </trkpt>
      <trkpt lat="40.255167" lon="-4.908800">
        <ele>1201.0</ele>
        <time>2016-03-13T12:53:23Z</time>
      </trkpt>
      <trkpt lat="40.255117" lon="-4.908800">
        <ele>1203.0</ele>
        <time>2016-03-13T12:53:24Z</time>
      </trkpt>
      <trkpt lat="40.255083" lon="-4.908783">
        <ele>1204.0</ele>
        <time>2016-03-13T12:53:25Z</time>
      </trkpt>
      <trkpt lat="40.255050" lon="-4.908733">
        <ele>1203.0</ele>
        <time>2016-03-13T12:53:26Z</time>
      </trkpt>
      <trkpt lat="40.255033" lon="-4.908650">
        <ele>1201.0</ele>
        <time>2016-03-13T12:53:27Z</time>
      </trkpt>
      <trkpt lat="40.255033" lon="-4.908550">
        <ele>1199.0</ele>
        <time>2016-03-13T12:53:28Z</time>
      </trkpt>
      <trkpt lat="40.255033" lon="-4.908450">
        <ele>1198.0</ele>
        <time>2016-03-13T12:53:29Z</time>
      </trkpt>
      <trkpt lat="40.255017" lon="-4.908333">
        <ele>1199.0</ele>
        <time>2016-03-13T12:53:30Z</time>
      </trkpt>
      <trkpt lat="40.255000" lon="-4.908250">
        <ele>1199.0</ele>
        <time>2016-03-13T12:53:31Z</time>
      </trkpt>
      <trkpt lat="40.254950" lon="-4.908167">
        <ele>1198.0</ele>
        <time>2016-03-13T12:53:32Z</time>
      </trkpt>
      <trkpt lat="40.254900" lon="-4.908117">
        <ele>1198.0</ele>
        <time>2016-03-13T12:53:33Z</time>
      </trkpt>
      <trkpt lat="40.254850" lon="-4.908083">
        <ele>1196.0</ele>
        <time>2016-03-13T12:53:34Z</time>
      </trkpt>
      <trkpt lat="40.254767" lon="-4.908067">
        <ele>1195.0</ele>
        <time>2016-03-13T12:53:35Z</time>
      </trkpt>
      <trkpt lat="40.254700" lon="-4.908067">
        <ele>1194.0</ele>
        <time>2016-03-13T12:53:36Z</time>
      </trkpt>
      <trkpt lat="40.254617" lon="-4.908067">
        <ele>1195.0</ele>
        <time>2016-03-13T12:53:37Z</time>
      </trkpt>
      <trkpt lat="40.254550" lon="-4.908033">
        <ele>1196.0</ele>
        <time>2016-03-13T12:53:38Z</time>
      </trkpt>
      <trkpt lat="40.254483" lon="-4.907983">
        <ele>1198.0</ele>
        <time>2016-03-13T12:53:39Z</time>
      </trkpt>
      <trkpt lat="40.254417" lon="-4.907933">
        <ele>1199.0</ele>
        <time>2016-03-13T12:53:40Z</time>
      </trkpt>
      <trkpt lat="40.254350" lon="-4.907900">
        <ele>1200.0</ele>
        <time>2016-03-13T12:53:41Z</time>
      </trkpt>
      <trkpt lat="40.254283" lon="-4.907900">
        <ele>1200.0</ele>
        <time>2016-03-13T12:53:42Z</time>
      </trkpt>
      <trkpt lat="40.254217" lon="-4.907900">
        <ele>1200.0</ele>
        <time>2016-03-13T12:53:43Z</time>
      </trkpt>
      <trkpt lat="40.254167" lon="-4.907933">
        <ele>1199.0</ele>
        <time>2016-03-13T12:53:44Z</time>
      </trkpt>
      <trkpt lat="40.254117" lon="-4.907983">
        <ele>1198.0</ele>
        <time>2016-03-13T12:53:45Z</time>
      </trkpt>
      <trkpt lat="40.254050" lon="-4.908050">
        <ele>1197.0</ele>
        <time>2016-03-13T12:53:46Z</time>
      </trkpt>
      <trkpt lat="40.253983" lon="-4.908117">
        <ele>1196.0</ele>
        <time>2016-03-13T12:53:47Z</time>
      </trkpt>
      <trkpt lat="40.253900" lon="-4.908133">
        <ele>1196.0</ele>
        <time>2016-03-13T12:53:48Z</time>
      </trkpt>
      <trkpt lat="40.253833" lon="-4.908133">
        <ele>1195.0</ele>
        <time>2016-03-13T12:53:49Z</time>
      </trkpt>
      <trkpt lat="40.253750" lon="-4.908100">
        <ele>1195.0</ele>
        <time>2016-03-13T12:53:50Z</time>
      </trkpt>
      <trkpt lat="40.253683" lon="-4.908017">
        <ele>1194.0</ele>
        <time>2016-03-13T12:53:51Z</time>
      </trkpt>
      <trkpt lat="40.253633" lon="-4.907950">
        <ele>1193.0</ele>
        <time>2016-03-13T12:53:52Z</time>
      </trkpt>
      <trkpt lat="40.253567" lon="-4.907867">
        <ele>1192.0</ele>
        <time>2016-03-13T12:53:53Z</time>
      </trkpt>
      <trkpt lat="40.253500" lon="-4.907817">
        <ele>1192.0</ele>
        <time>2016-03-13T12:53:54Z</time>
      </trkpt>
      <trkpt lat="40.253450" lon="-4.907767">
        <ele>1192.0</ele>
        <time>2016-03-13T12:53:55Z</time>
      </trkpt>
      <trkpt lat="40.253383" lon="-4.907717">
        <ele>1191.0</ele>
        <time>2016-03-13T12:53:56Z</time>
      </trkpt>
      <trkpt lat="40.253333" lon="-4.907650">
        <ele>1190.0</ele>
        <time>2016-03-13T12:53:57Z</time>
      </trkpt>
      <trkpt lat="40.253283" lon="-4.907583">
        <ele>1189.0</ele>
        <time>2016-03-13T12:53:58Z</time>
      </trkpt>
      <trkpt lat="40.253233" lon="-4.907517">
        <ele>1188.0</ele>
        <time>2016-03-13T12:53:59Z</time>
      </trkpt>
      <trkpt lat="40.253167" lon="-4.907450">
        <ele>1186.0</ele>
        <time>2016-03-13T12:54:00Z</time>
      </trkpt>
      <trkpt lat="40.253100" lon="-4.907417">
        <ele>1186.0</ele>
        <time>2016-03-13T12:54:01Z</time>
      </trkpt>
      <trkpt lat="40.253017" lon="-4.907417">
        <ele>1186.0</ele>
        <time>2016-03-13T12:54:02Z</time>
      </trkpt>
      <trkpt lat="40.252950" lon="-4.907433">
        <ele>1186.0</ele>
        <time>2016-03-13T12:54:03Z</time>
      </trkpt>
      <trkpt lat="40.252883" lon="-4.907450">
        <ele>1186.0</ele>
        <time>2016-03-13T12:54:04Z</time>
      </trkpt>
      <trkpt lat="40.252833" lon="-4.907467">
        <ele>1185.0</ele>
        <time>2016-03-13T12:54:05Z</time>
      </trkpt>
      <trkpt lat="40.252767" lon="-4.907483">
        <ele>1184.0</ele>
        <time>2016-03-13T12:54:06Z</time>
      </trkpt>
      <trkpt lat="40.252683" lon="-4.907500">
        <ele>1182.0</ele>
        <time>2016-03-13T12:54:07Z</time>
      </trkpt>
      <trkpt lat="40.252600" lon="-4.907517">
        <ele>1181.0</ele>
        <time>2016-03-13T12:54:08Z</time>
      </trkpt>
      <trkpt lat="40.252517" lon="-4.907533">
        <ele>1181.0</ele>
        <time>2016-03-13T12:54:09Z</time>
      </trkpt>
      <trkpt lat="40.252433" lon="-4.907550">
        <ele>1182.0</ele>
        <time>2016-03-13T12:54:10Z</time>
      </trkpt>
      <trkpt lat="40.252367" lon="-4.907583">
        <ele>1181.0</ele>
        <time>2016-03-13T12:54:11Z</time>
      </trkpt>
      <trkpt lat="40.252300" lon="-4.907600">
        <ele>1181.0</ele>
        <time>2016-03-13T12:54:12Z</time>
      </trkpt>
      <trkpt lat="40.252233" lon="-4.907617">
        <ele>1180.0</ele>
        <time>2016-03-13T12:54:13Z</time>
      </trkpt>
      <trkpt lat="40.252167" lon="-4.907617">
        <ele>1179.0</ele>
        <time>2016-03-13T12:54:14Z</time>
      </trkpt>
      <trkpt lat="40.252083" lon="-4.907600">
        <ele>1178.0</ele>
        <time>2016-03-13T12:54:15Z</time>
      </trkpt>
      <trkpt lat="40.252017" lon="-4.907600">
        <ele>1177.0</ele>
        <time>2016-03-13T12:54:16Z</time>
      </trkpt>
      <trkpt lat="40.251933" lon="-4.907600">
        <ele>1176.0</ele>
        <time>2016-03-13T12:54:17Z</time>
      </trkpt>
      <trkpt lat="40.251833" lon="-4.907600">
        <ele>1174.0</ele>
        <time>2016-03-13T12:54:18Z</time>
      </trkpt>
      <trkpt lat="40.251750" lon="-4.907633">
        <ele>1174.0</ele>
        <time>2016-03-13T12:54:19Z</time>
      </trkpt>
      <trkpt lat="40.251667" lon="-4.907650">
        <ele>1173.0</ele>
        <time>2016-03-13T12:54:20Z</time>
      </trkpt>
      <trkpt lat="40.251583" lon="-4.907700">
        <ele>1172.0</ele>
        <time>2016-03-13T12:54:21Z</time>
      </trkpt>
      <trkpt lat="40.251500" lon="-4.907733">
        <ele>1172.0</ele>
        <time>2016-03-13T12:54:22Z</time>
      </trkpt>
      <trkpt lat="40.251433" lon="-4.907767">
        <ele>1173.0</ele>
        <time>2016-03-13T12:54:23Z</time>
      </trkpt>
      <trkpt lat="40.251350" lon="-4.907817">
        <ele>1173.0</ele>
        <time>2016-03-13T12:54:24Z</time>
      </trkpt>
      <trkpt lat="40.251283" lon="-4.907867">
        <ele>1173.0</ele>
        <time>2016-03-13T12:54:25Z</time>
      </trkpt>
      <trkpt lat="40.251200" lon="-4.907917">
        <ele>1173.0</ele>
        <time>2016-03-13T12:54:26Z</time>
      </trkpt>
      <trkpt lat="40.251117" lon="-4.907967">
        <ele>1174.0</ele>
        <time>2016-03-13T12:54:27Z</time>
      </trkpt>
      <trkpt lat="40.251050" lon="-4.907967">
        <ele>1175.0</ele>
        <time>2016-03-13T12:54:28Z</time>
      </trkpt>
      <trkpt lat="40.251000" lon="-4.907917">
        <ele>1174.0</ele>
        <time>2016-03-13T12:54:29Z</time>
      </trkpt>
      <trkpt lat="40.250950" lon="-4.907850">
        <ele>1172.0</ele>
        <time>2016-03-13T12:54:30Z</time>
      </trkpt>
      <trkpt lat="40.250917" lon="-4.907733">
        <ele>1171.0</ele>
        <time>2016-03-13T12:54:31Z</time>
      </trkpt>
      <trkpt lat="40.250933" lon="-4.907617">
        <ele>1170.0</ele>
        <time>2016-03-13T12:54:32Z</time>
      </trkpt>
      <trkpt lat="40.250967" lon="-4.907500">
        <ele>1170.0</ele>
        <time>2016-03-13T12:54:33Z</time>
      </trkpt>
      <trkpt lat="40.251033" lon="-4.907400">
        <ele>1169.0</ele>
        <time>2016-03-13T12:54:34Z</time>
      </trkpt>
      <trkpt lat="40.251150" lon="-4.907333">
        <ele>1169.0</ele>
        <time>2016-03-13T12:54:35Z</time>
      </trkpt>
      <trkpt lat="40.251267" lon="-4.907300">
        <ele>1171.0</ele>
        <time>2016-03-13T12:54:36Z</time>
      </trkpt>
      <trkpt lat="40.251367" lon="-4.907283">
        <ele>1172.0</ele>
        <time>2016-03-13T12:54:37Z</time>
      </trkpt>
      <trkpt lat="40.251467" lon="-4.907300">
        <ele>1174.0</ele>
        <time>2016-03-13T12:54:38Z</time>
      </trkpt>
      <trkpt lat="40.251567" lon="-4.907333">
        <ele>1175.0</ele>
        <time>2016-03-13T12:54:39Z</time>
      </trkpt>
      <trkpt lat="40.251633" lon="-4.907400">
        <ele>1176.0</ele>
        <time>2016-03-13T12:54:40Z</time>
      </trkpt>
      <trkpt lat="40.251700" lon="-4.907483">
        <ele>1175.0</ele>
        <time>2016-03-13T12:54:41Z</time>
      </trkpt>
      <trkpt lat="40.251733" lon="-4.907600">
        <ele>1173.0</ele>
        <time>2016-03-13T12:54:42Z</time>
      </trkpt>
      <trkpt lat="40.251733" lon="-4.907733">
        <ele>1172.0</ele>
        <time>2016-03-13T12:54:43Z</time>
      </trkpt>
      <trkpt lat="40.251700" lon="-4.907867">
        <ele>1171.0</ele>
        <time>2016-03-13T12:54:44Z</time>
      </trkpt>
      <trkpt lat="40.251667" lon="-4.908000">
        <ele>1172.0</ele>
        <time>2016-03-13T12:54:45Z</time>
      </trkpt>
      <trkpt lat="40.251633" lon="-4.908117">
        <ele>1172.0</ele>
        <time>2016-03-13T12:54:46Z</time>
      </trkpt>
      <trkpt lat="40.251583" lon="-4.908217">
        <ele>1171.0</ele>
        <time>2016-03-13T12:54:47Z</time>
      </trkpt>
      <trkpt lat="40.251533" lon="-4.908283">
        <ele>1169.0</ele>
        <time>2016-03-13T12:54:48Z</time>
      </trkpt>
      <trkpt lat="40.251467" lon="-4.908350">
        <ele>1166.0</ele>
        <time>2016-03-13T12:54:49Z</time>
      </trkpt>
      <trkpt lat="40.251383" lon="-4.908367">
        <ele>1162.0</ele>
        <time>2016-03-13T12:54:50Z</time>
      </trkpt>
      <trkpt lat="40.251283" lon="-4.908350">
        <ele>1160.0</ele>
        <time>2016-03-13T12:54:51Z</time>
      </trkpt>
      <trkpt lat="40.251200" lon="-4.908300">
        <ele>1158.0</ele>
        <time>2016-03-13T12:54:52Z</time>
      </trkpt>
      <trkpt lat="40.251133" lon="-4.908217">
        <ele>1157.0</ele>
        <time>2016-03-13T12:54:53Z</time>
      </trkpt>
      <trkpt lat="40.251083" lon="-4.908133">
        <ele>1156.0</ele>
        <time>2016-03-13T12:54:54Z</time>
      </trkpt>
      <trkpt lat="40.251033" lon="-4.908050">
        <ele>1154.0</ele>
        <time>2016-03-13T12:54:55Z</time>
      </trkpt>
      <trkpt lat="40.250983" lon="-4.907950">
        <ele>1152.0</ele>
        <time>2016-03-13T12:54:56Z</time>
      </trkpt>
      <trkpt lat="40.250933" lon="-4.907833">
        <ele>1150.0</ele>
        <time>2016-03-13T12:54:57Z</time>
      </trkpt>
      <trkpt lat="40.250883" lon="-4.907733">
        <ele>1150.0</ele>
        <time>2016-03-13T12:54:58Z</time>
      </trkpt>
      <trkpt lat="40.250833" lon="-4.907650">
        <ele>1150.0</ele>
        <time>2016-03-13T12:54:59Z</time>
      </trkpt>
      <trkpt lat="40.250800" lon="-4.907567">
        <ele>1150.0</ele>
        <time>2016-03-13T12:55:00Z</time>
      </trkpt>
      <trkpt lat="40.250750" lon="-4.907483">
        <ele>1149.0</ele>
        <time>2016-03-13T12:55:01Z</time>
      </trkpt>
      <trkpt lat="40.250700" lon="-4.907400">
        <ele>1148.0</ele>
        <time>2016-03-13T12:55:02Z</time>
      </trkpt>
      <trkpt lat="40.250633" lon="-4.907317">
        <ele>1146.0</ele>
        <time>2016-03-13T12:55:03Z</time>
      </trkpt>
      <trkpt lat="40.250567" lon="-4.907250">
        <ele>1145.0</ele>
        <time>2016-03-13T12:55:04Z</time>
      </trkpt>
      <trkpt lat="40.250483" lon="-4.907200">
        <ele>1145.0</ele>
        <time>2016-03-13T12:55:05Z</time>
      </trkpt>
      <trkpt lat="40.250417" lon="-4.907167">
        <ele>1143.0</ele>
        <time>2016-03-13T12:55:06Z</time>
      </trkpt>
      <trkpt lat="40.250350" lon="-4.907117">
        <ele>1142.0</ele>
        <time>2016-03-13T12:55:07Z</time>
      </trkpt>
      <trkpt lat="40.250283" lon="-4.907050">
        <ele>1141.0</ele>
        <time>2016-03-13T12:55:08Z</time>
      </trkpt>
      <trkpt lat="40.250217" lon="-4.906983">
        <ele>1140.0</ele>
        <time>2016-03-13T12:55:09Z</time>
      </trkpt>
      <trkpt lat="40.250150" lon="-4.906933">
        <ele>1139.0</ele>
        <time>2016-03-13T12:55:10Z</time>
      </trkpt>
      <trkpt lat="40.250083" lon="-4.906867">
        <ele>1138.0</ele>
        <time>2016-03-13T12:55:11Z</time>
      </trkpt>
      <trkpt lat="40.250017" lon="-4.906817">
        <ele>1136.0</ele>
        <time>2016-03-13T12:55:12Z</time>
      </trkpt>
      <trkpt lat="40.249933" lon="-4.906767">
        <ele>1134.0</ele>
        <time>2016-03-13T12:55:13Z</time>
      </trkpt>
      <trkpt lat="40.249867" lon="-4.906717">
        <ele>1132.0</ele>
        <time>2016-03-13T12:55:14Z</time>
      </trkpt>
      <trkpt lat="40.249783" lon="-4.906650">
        <ele>1130.0</ele>
        <time>2016-03-13T12:55:15Z</time>
      </trkpt>
      <trkpt lat="40.249717" lon="-4.906600">
        <ele>1129.0</ele>
        <time>2016-03-13T12:55:16Z</time>
      </trkpt>
      <trkpt lat="40.249650" lon="-4.906517">
        <ele>1128.0</ele>
        <time>2016-03-13T12:55:17Z</time>
      </trkpt>
      <trkpt lat="40.249583" lon="-4.906450">
        <ele>1126.0</ele>
        <time>2016-03-13T12:55:18Z</time>
      </trkpt>
      <trkpt lat="40.249517" lon="-4.906367">
        <ele>1125.0</ele>
        <time>2016-03-13T12:55:19Z</time>
      </trkpt>
      <trkpt lat="40.249433" lon="-4.906283">
        <ele>1124.0</ele>
        <time>2016-03-13T12:55:20Z</time>
      </trkpt>
      <trkpt lat="40.249367" lon="-4.906217">
        <ele>1123.0</ele>
        <time>2016-03-13T12:55:21Z</time>
      </trkpt>
      <trkpt lat="40.249300" lon="-4.906150">
        <ele>1122.0</ele>
        <time>2016-03-13T12:55:22Z</time>
      </trkpt>
      <trkpt lat="40.249233" lon="-4.906083">
        <ele>1121.0</ele>
        <time>2016-03-13T12:55:23Z</time>
      </trkpt>
      <trkpt lat="40.249167" lon="-4.906017">
        <ele>1119.0</ele>
        <time>2016-03-13T12:55:24Z</time>
      </trkpt>
      <trkpt lat="40.249100" lon="-4.905950">
        <ele>1116.0</ele>
        <time>2016-03-13T12:55:25Z</time>
      </trkpt>
      <trkpt lat="40.249017" lon="-4.905900">
        <ele>1113.0</ele>
        <time>2016-03-13T12:55:26Z</time>
      </trkpt>
      <trkpt lat="40.248933" lon="-4.905850">
        <ele>1111.0</ele>
        <time>2016-03-13T12:55:27Z</time>
      </trkpt>
      <trkpt lat="40.248833" lon="-4.905817">
        <ele>1108.0</ele>
        <time>2016-03-13T12:55:28Z</time>
      </trkpt>
      <trkpt lat="40.248733" lon="-4.905767">
        <ele>1107.0</ele>
        <time>2016-03-13T12:55:29Z</time>
      </trkpt>
      <trkpt lat="40.248617" lon="-4.905717">
        <ele>1107.0</ele>
        <time>2016-03-13T12:55:30Z</time>
      </trkpt>
      <trkpt lat="40.248533" lon="-4.905633">
        <ele>1113.0</ele>
        <time>2016-03-13T12:55:31Z</time>
      </trkpt>
      <trkpt lat="40.248467" lon="-4.905550">
        <ele>1119.0</ele>
        <time>2016-03-13T12:55:32Z</time>
      </trkpt>
      <trkpt lat="40.248417" lon="-4.905467">
        <ele>1123.0</ele>
        <time>2016-03-13T12:55:33Z</time>
      </trkpt>
      <trkpt lat="40.248383" lon="-4.905417">
        <ele>1125.0</ele>
        <time>2016-03-13T12:55:34Z</time>
      </trkpt>
      <trkpt lat="40.248333" lon="-4.905367">
        <ele>1126.0</ele>
        <time>2016-03-13T12:55:35Z</time>
      </trkpt>
      <trkpt lat="40.248283" lon="-4.905350">
        <ele>1126.0</ele>
        <time>2016-03-13T12:55:36Z</time>
      </trkpt>
      <trkpt lat="40.248233" lon="-4.905383">
        <ele>1125.0</ele>
        <time>2016-03-13T12:55:37Z</time>
      </trkpt>
      <trkpt lat="40.248217" lon="-4.905450">
        <ele>1125.0</ele>
        <time>2016-03-13T12:55:38Z</time>
      </trkpt>
      <trkpt lat="40.248250" lon="-4.905550">
        <ele>1124.0</ele>
        <time>2016-03-13T12:55:39Z</time>
      </trkpt>
      <trkpt lat="40.248317" lon="-4.905633">
        <ele>1123.0</ele>
        <time>2016-03-13T12:55:40Z</time>
      </trkpt>
      <trkpt lat="40.248400" lon="-4.905700">
        <ele>1124.0</ele>
        <time>2016-03-13T12:55:41Z</time>
      </trkpt>
      <trkpt lat="40.248483" lon="-4.905733">
        <ele>1127.0</ele>
        <time>2016-03-13T12:55:42Z</time>
      </trkpt>
      <trkpt lat="40.248583" lon="-4.905733">
        <ele>1128.0</ele>
        <time>2016-03-13T12:55:43Z</time>
      </trkpt>
      <trkpt lat="40.248683" lon="-4.905700">
        <ele>1129.0</ele>
        <time>2016-03-13T12:55:44Z</time>
      </trkpt>
      <trkpt lat="40.248783" lon="-4.905633">
        <ele>1130.0</ele>
        <time>2016-03-13T12:55:45Z</time>
      </trkpt>
      <trkpt lat="40.248883" lon="-4.905533">
        <ele>1131.0</ele>
        <time>2016-03-13T12:55:46Z</time>
      </trkpt>
      <trkpt lat="40.248950" lon="-4.905433">
        <ele>1135.0</ele>
        <time>2016-03-13T12:55:47Z</time>
      </trkpt>
      <trkpt lat="40.249017" lon="-4.905333">
        <ele>1138.0</ele>
        <time>2016-03-13T12:55:48Z</time>
      </trkpt>
      <trkpt lat="40.249067" lon="-4.905283">
        <ele>1139.0</ele>
        <time>2016-03-13T12:55:49Z</time>
      </trkpt>
      <trkpt lat="40.249117" lon="-4.905250">
        <ele>1139.0</ele>
        <time>2016-03-13T12:55:50Z</time>
      </trkpt>
      <trkpt lat="40.249200" lon="-4.905250">
        <ele>1138.0</ele>
        <time>2016-03-13T12:55:51Z</time>
      </trkpt>
      <trkpt lat="40.249283" lon="-4.905250">
        <ele>1137.0</ele>
        <time>2016-03-13T12:55:52Z</time>
      </trkpt>
      <trkpt lat="40.249367" lon="-4.905300">
        <ele>1137.0</ele>
        <time>2016-03-13T12:55:53Z</time>
      </trkpt>
      <trkpt lat="40.249400" lon="-4.905350">
        <ele>1136.0</ele>
        <time>2016-03-13T12:55:54Z</time>
      </trkpt>
      <trkpt lat="40.249417" lon="-4.905450">
        <ele>1133.0</ele>
        <time>2016-03-13T12:55:55Z</time>
      </trkpt>
      <trkpt lat="40.249383" lon="-4.905550">
        <ele>1131.0</ele>
        <time>2016-03-13T12:55:56Z</time>
      </trkpt>
      <trkpt lat="40.249317" lon="-4.905633">
        <ele>1130.0</ele>
        <time>2016-03-13T12:55:57Z</time>
      </trkpt>
      <trkpt lat="40.249233" lon="-4.905667">
        <ele>1129.0</ele>
        <time>2016-03-13T12:55:58Z</time>
      </trkpt>
      <trkpt lat="40.249150" lon="-4.905667">
        <ele>1130.0</ele>
        <time>2016-03-13T12:55:59Z</time>
      </trkpt>
      <trkpt lat="40.249067" lon="-4.905650">
        <ele>1132.0</ele>
        <time>2016-03-13T12:56:00Z</time>
      </trkpt>
      <trkpt lat="40.248983" lon="-4.905650">
        <ele>1133.0</ele>
        <time>2016-03-13T12:56:01Z</time>
      </trkpt>
      <trkpt lat="40.248900" lon="-4.905633">
        <ele>1135.0</ele>
        <time>2016-03-13T12:56:02Z</time>
      </trkpt>
      <trkpt lat="40.248833" lon="-4.905617">
        <ele>1137.0</ele>
        <time>2016-03-13T12:56:03Z</time>
      </trkpt>
      <trkpt lat="40.248767" lon="-4.905600">
        <ele>1139.0</ele>
        <time>2016-03-13T12:56:04Z</time>
      </trkpt>
      <trkpt lat="40.248717" lon="-4.905567">
        <ele>1139.0</ele>
        <time>2016-03-13T12:56:05Z</time>
      </trkpt>
      <trkpt lat="40.248667" lon="-4.905483">
        <ele>1137.0</ele>
        <time>2016-03-13T12:56:06Z</time>
      </trkpt>
      <trkpt lat="40.248617" lon="-4.905383">
        <ele>1135.0</ele>
        <time>2016-03-13T12:56:07Z</time>
      </trkpt>
      <trkpt lat="40.248567" lon="-4.905283">
        <ele>1135.0</ele>
        <time>2016-03-13T12:56:08Z</time>
      </trkpt>
      <trkpt lat="40.248517" lon="-4.905183">
        <ele>1136.0</ele>
        <time>2016-03-13T12:56:09Z</time>
      </trkpt>
      <trkpt lat="40.248450" lon="-4.905100">
        <ele>1138.0</ele>
        <time>2016-03-13T12:56:10Z</time>
      </trkpt>
      <trkpt lat="40.248383" lon="-4.905033">
        <ele>1140.0</ele>
        <time>2016-03-13T12:56:11Z</time>
      </trkpt>
      <trkpt lat="40.248317" lon="-4.904967">
        <ele>1142.0</ele>
        <time>2016-03-13T12:56:12Z</time>
      </trkpt>
      <trkpt lat="40.248250" lon="-4.904883">
        <ele>1144.0</ele>
        <time>2016-03-13T12:56:13Z</time>
      </trkpt>
      <trkpt lat="40.248183" lon="-4.904833">
        <ele>1146.0</ele>
        <time>2016-03-13T12:56:14Z</time>
      </trkpt>
      <trkpt lat="40.248117" lon="-4.904767">
        <ele>1148.0</ele>
        <time>2016-03-13T12:56:15Z</time>
      </trkpt>
      <trkpt lat="40.248067" lon="-4.904750">
        <ele>1147.0</ele>
        <time>2016-03-13T12:56:16Z</time>
      </trkpt>
      <trkpt lat="40.248017" lon="-4.904733">
        <ele>1146.0</ele>
        <time>2016-03-13T12:56:17Z</time>
      </trkpt>
      <trkpt lat="40.247967" lon="-4.904733">
        <ele>1143.0</ele>
        <time>2016-03-13T12:56:18Z</time>
      </trkpt>
      <trkpt lat="40.247900" lon="-4.904700">
        <ele>1140.0</ele>
        <time>2016-03-13T12:56:19Z</time>
      </trkpt>
      <trkpt lat="40.247833" lon="-4.904633">
        <ele>1137.0</ele>
        <time>2016-03-13T12:56:20Z</time>
      </trkpt>
      <trkpt lat="40.247750" lon="-4.904567">
        <ele>1134.0</ele>
        <time>2016-03-13T12:56:21Z</time>
      </trkpt>
      <trkpt lat="40.247683" lon="-4.904483">
        <ele>1133.0</ele>
        <time>2016-03-13T12:56:22Z</time>
      </trkpt>
      <trkpt lat="40.247600" lon="-4.904400">
        <ele>1133.0</ele>
        <time>2016-03-13T12:56:23Z</time>
      </trkpt>
      <trkpt lat="40.247533" lon="-4.904333">
        <ele>1133.0</ele>
        <time>2016-03-13T12:56:24Z</time>
      </trkpt>
      <trkpt lat="40.247483" lon="-4.904267">
        <ele>1133.0</ele>
        <time>2016-03-13T12:56:25Z</time>
      </trkpt>
      <trkpt lat="40.247417" lon="-4.904200">
        <ele>1132.0</ele>
        <time>2016-03-13T12:56:26Z</time>
      </trkpt>
      <trkpt lat="40.247350" lon="-4.904117">
        <ele>1132.0</ele>
        <time>2016-03-13T12:56:27Z</time>
      </trkpt>
      <trkpt lat="40.247300" lon="-4.904017">
        <ele>1132.0</ele>
        <time>2016-03-13T12:56:28Z</time>
      </trkpt>
      <trkpt lat="40.247267" lon="-4.903917">
        <ele>1132.0</ele>
        <time>2016-03-13T12:56:29Z</time>
      </trkpt>
      <trkpt lat="40.247217" lon="-4.903833">
        <ele>1132.0</ele>
        <time>2016-03-13T12:56:30Z</time>
      </trkpt>
      <trkpt lat="40.247150" lon="-4.903767">
        <ele>1131.0</ele>
        <time>2016-03-13T12:56:31Z</time>
      </trkpt>
      <trkpt lat="40.247083" lon="-4.903683">
        <ele>1131.0</ele>
        <time>2016-03-13T12:56:32Z</time>
      </trkpt>
      <trkpt lat="40.247017" lon="-4.903600">
        <ele>1131.0</ele>
        <time>2016-03-13T12:56:33Z</time>
      </trkpt>
      <trkpt lat="40.246933" lon="-4.903517">
        <ele>1131.0</ele>
        <time>2016-03-13T12:56:34Z</time>
      </trkpt>
      <trkpt lat="40.246867" lon="-4.903433">
        <ele>1131.0</ele>
        <time>2016-03-13T12:56:35Z</time>
      </trkpt>
      <trkpt lat="40.246800" lon="-4.903367">
        <ele>1131.0</ele>
        <time>2016-03-13T12:56:36Z</time>
      </trkpt>
      <trkpt lat="40.246700" lon="-4.903300">
        <ele>1130.0</ele>
        <time>2016-03-13T12:56:37Z</time>
      </trkpt>
      <trkpt lat="40.246617" lon="-4.903250">
        <ele>1129.0</ele>
        <time>2016-03-13T12:56:38Z</time>
      </trkpt>
      <trkpt lat="40.246517" lon="-4.903200">
        <ele>1129.0</ele>
        <time>2016-03-13T12:56:39Z</time>
      </trkpt>
      <trkpt lat="40.246433" lon="-4.903150">
        <ele>1129.0</ele>
        <time>2016-03-13T12:56:40Z</time>
      </trkpt>
      <trkpt lat="40.246367" lon="-4.903100">
        <ele>1130.0</ele>
        <time>2016-03-13T12:56:41Z</time>
      </trkpt>
      <trkpt lat="40.246283" lon="-4.903033">
        <ele>1132.0</ele>
        <time>2016-03-13T12:56:42Z</time>
      </trkpt>
      <trkpt lat="40.246233" lon="-4.902950">
        <ele>1133.0</ele>
        <time>2016-03-13T12:56:43Z</time>
      </trkpt>
      <trkpt lat="40.246183" lon="-4.902850">
        <ele>1134.0</ele>
        <time>2016-03-13T12:56:44Z</time>
      </trkpt>
      <trkpt lat="40.246167" lon="-4.902717">
        <ele>1135.0</ele>
        <time>2016-03-13T12:56:45Z</time>
      </trkpt>
      <trkpt lat="40.246183" lon="-4.902583">
        <ele>1136.0</ele>
        <time>2016-03-13T12:56:46Z</time>
      </trkpt>
      <trkpt lat="40.246200" lon="-4.902450">
        <ele>1138.0</ele>
        <time>2016-03-13T12:56:47Z</time>
      </trkpt>
      <trkpt lat="40.246233" lon="-4.902333">
        <ele>1140.0</ele>
        <time>2016-03-13T12:56:48Z</time>
      </trkpt>
      <trkpt lat="40.246283" lon="-4.902217">
        <ele>1142.0</ele>
        <time>2016-03-13T12:56:49Z</time>
      </trkpt>
      <trkpt lat="40.246333" lon="-4.902117">
        <ele>1144.0</ele>
        <time>2016-03-13T12:56:50Z</time>
      </trkpt>
      <trkpt lat="40.246383" lon="-4.902033">
        <ele>1146.0</ele>
        <time>2016-03-13T12:56:51Z</time>
      </trkpt>
      <trkpt lat="40.246433" lon="-4.901933">
        <ele>1147.0</ele>
        <time>2016-03-13T12:56:52Z</time>
      </trkpt>
      <trkpt lat="40.246467" lon="-4.901833">
        <ele>1147.0</ele>
        <time>2016-03-13T12:56:53Z</time>
      </trkpt>
      <trkpt lat="40.246450" lon="-4.901733">
        <ele>1146.0</ele>
        <time>2016-03-13T12:56:54Z</time>
      </trkpt>
      <trkpt lat="40.246400" lon="-4.901650">
        <ele>1145.0</ele>
        <time>2016-03-13T12:56:55Z</time>
      </trkpt>
      <trkpt lat="40.246333" lon="-4.901600">
        <ele>1145.0</ele>
        <time>2016-03-13T12:56:56Z</time>
      </trkpt>
      <trkpt lat="40.246250" lon="-4.901617">
        <ele>1146.0</ele>
        <time>2016-03-13T12:56:57Z</time>
      </trkpt>
      <trkpt lat="40.246183" lon="-4.901683">
        <ele>1148.0</ele>
        <time>2016-03-13T12:56:58Z</time>
      </trkpt>
      <trkpt lat="40.246150" lon="-4.901783">
        <ele>1151.0</ele>
        <time>2016-03-13T12:56:59Z</time>
      </trkpt>
      <trkpt lat="40.246150" lon="-4.901883">
        <ele>1154.0</ele>
        <time>2016-03-13T12:57:00Z</time>
      </trkpt>
      <trkpt lat="40.246167" lon="-4.901983">
        <ele>1156.0</ele>
        <time>2016-03-13T12:57:01Z</time>
      </trkpt>
      <trkpt lat="40.246233" lon="-4.902067">
        <ele>1157.0</ele>
        <time>2016-03-13T12:57:02Z</time>
      </trkpt>
      <trkpt lat="40.246333" lon="-4.902117">
        <ele>1157.0</ele>
        <time>2016-03-13T12:57:03Z</time>
      </trkpt>
      <trkpt lat="40.246433" lon="-4.902150">
        <ele>1158.0</ele>
        <time>2016-03-13T12:57:04Z</time>
      </trkpt>
      <trkpt lat="40.246550" lon="-4.902133">
        <ele>1159.0</ele>
        <time>2016-03-13T12:57:05Z</time>
      </trkpt>
      <trkpt lat="40.246667" lon="-4.902100">
        <ele>1162.0</ele>
        <time>2016-03-13T12:57:06Z</time>
      </trkpt>
      <trkpt lat="40.246750" lon="-4.902083">
        <ele>1165.0</ele>
        <time>2016-03-13T12:57:07Z</time>
      </trkpt>
      <trkpt lat="40.246833" lon="-4.902100">
        <ele>1167.0</ele>
        <time>2016-03-13T12:57:08Z</time>
      </trkpt>
      <trkpt lat="40.246917" lon="-4.902150">
        <ele>1167.0</ele>
        <time>2016-03-13T12:57:09Z</time>
      </trkpt>
      <trkpt lat="40.246983" lon="-4.902267">
        <ele>1165.0</ele>
        <time>2016-03-13T12:57:10Z</time>
      </trkpt>
      <trkpt lat="40.247017" lon="-4.902383">
        <ele>1166.0</ele>
        <time>2016-03-13T12:57:11Z</time>
      </trkpt>
      <trkpt lat="40.247000" lon="-4.902483">
        <ele>1167.0</ele>
        <time>2016-03-13T12:57:12Z</time>
      </trkpt>
      <trkpt lat="40.246950" lon="-4.902550">
        <ele>1167.0</ele>
        <time>2016-03-13T12:57:13Z</time>
      </trkpt>
      <trkpt lat="40.246867" lon="-4.902600">
        <ele>1166.0</ele>
        <time>2016-03-13T12:57:14Z</time>
      </trkpt>
      <trkpt lat="40.246783" lon="-4.902600">
        <ele>1166.0</ele>
        <time>2016-03-13T12:57:15Z</time>
      </trkpt>
      <trkpt lat="40.246700" lon="-4.902550">
        <ele>1166.0</ele>
        <time>2016-03-13T12:57:16Z</time>
      </trkpt>
      <trkpt lat="40.246617" lon="-4.902450">
        <ele>1166.0</ele>
        <time>2016-03-13T12:57:17Z</time>
      </trkpt>
      <trkpt lat="40.246583" lon="-4.902317">
        <ele>1167.0</ele>
        <time>2016-03-13T12:57:18Z</time>
      </trkpt>
      <trkpt lat="40.246617" lon="-4.902167">
        <ele>1167.0</ele>
        <time>2016-03-13T12:57:19Z</time>
      </trkpt>
      <trkpt lat="40.246683" lon="-4.902033">
        <ele>1168.0</ele>
        <time>2016-03-13T12:57:20Z</time>
      </trkpt>
      <trkpt lat="40.246783" lon="-4.901950">
        <ele>1169.0</ele>
        <time>2016-03-13T12:57:21Z</time>
      </trkpt>
      <trkpt lat="40.246900" lon="-4.901917">
        <ele>1170.0</ele>
        <time>2016-03-13T12:57:22Z</time>
      </trkpt>
      <trkpt lat="40.247017" lon="-4.901950">
        <ele>1171.0</ele>
        <time>2016-03-13T12:57:23Z</time>
      </trkpt>
      <trkpt lat="40.247100" lon="-4.902033">
        <ele>1172.0</ele>
        <time>2016-03-13T12:57:24Z</time>
      </trkpt>
      <trkpt lat="40.247150" lon="-4.902133">
        <ele>1173.0</ele>
        <time>2016-03-13T12:57:25Z</time>
      </trkpt>
      <trkpt lat="40.247167" lon="-4.902233">
        <ele>1173.0</ele>
        <time>2016-03-13T12:57:26Z</time>
      </trkpt>
      <trkpt lat="40.247150" lon="-4.902333">
        <ele>1172.0</ele>
        <time>2016-03-13T12:57:27Z</time>
      </trkpt>
      <trkpt lat="40.247083" lon="-4.902417">
        <ele>1171.0</ele>
        <time>2016-03-13T12:57:28Z</time>
      </trkpt>
      <trkpt lat="40.246983" lon="-4.902450">
        <ele>1171.0</ele>
        <time>2016-03-13T12:57:29Z</time>
      </trkpt>
      <trkpt lat="40.246883" lon="-4.902450">
        <ele>1172.0</ele>
        <time>2016-03-13T12:57:30Z</time>
      </trkpt>
      <trkpt lat="40.246800" lon="-4.902400">
        <ele>1173.0</ele>
        <time>2016-03-13T12:57:31Z</time>
      </trkpt>
      <trkpt lat="40.246717" lon="-4.902333">
        <ele>1174.0</ele>
        <time>2016-03-13T12:57:32Z</time>
      </trkpt>
      <trkpt lat="40.246667" lon="-4.902217">
        <ele>1175.0</ele>
        <time>2016-03-13T12:57:33Z</time>
      </trkpt>
      <trkpt lat="40.246617" lon="-4.902100">
        <ele>1176.0</ele>
        <time>2016-03-13T12:57:34Z</time>
      </trkpt>
      <trkpt lat="40.246600" lon="-4.902000">
        <ele>1178.0</ele>
        <time>2016-03-13T12:57:35Z</time>
      </trkpt>
      <trkpt lat="40.246583" lon="-4.901883">
        <ele>1178.0</ele>
        <time>2016-03-13T12:57:36Z</time>
      </trkpt>
      <trkpt lat="40.246600" lon="-4.901767">
        <ele>1178.0</ele>
        <time>2016-03-13T12:57:37Z</time>
      </trkpt>
      <trkpt lat="40.246650" lon="-4.901650">
        <ele>1177.0</ele>
        <time>2016-03-13T12:57:38Z</time>
      </trkpt>
      <trkpt lat="40.246733" lon="-4.901533">
        <ele>1176.0</ele>
        <time>2016-03-13T12:57:39Z</time>
      </trkpt>
      <trkpt lat="40.246833" lon="-4.901467">
        <ele>1177.0</ele>
        <time>2016-03-13T12:57:40Z</time>
      </trkpt>
      <trkpt lat="40.246967" lon="-4.901433">
        <ele>1179.0</ele>
        <time>2016-03-13T12:57:41Z</time>
      </trkpt>
      <trkpt lat="40.247083" lon="-4.901450">
        <ele>1181.0</ele>
        <time>2016-03-13T12:57:42Z</time>
      </trkpt>
      <trkpt lat="40.247200" lon="-4.901500">
        <ele>1183.0</ele>
        <time>2016-03-13T12:57:43Z</time>
      </trkpt>
      <trkpt lat="40.247283" lon="-4.901583">
        <ele>1186.0</ele>
        <time>2016-03-13T12:57:44Z</time>
      </trkpt>
      <trkpt lat="40.247333" lon="-4.901683">
        <ele>1188.0</ele>
        <time>2016-03-13T12:57:45Z</time>
      </trkpt>
      <trkpt lat="40.247350" lon="-4.901767">
        <ele>1190.0</ele>
        <time>2016-03-13T12:57:46Z</time>
      </trkpt>
      <trkpt lat="40.247350" lon="-4.901867">
        <ele>1191.0</ele>
        <time>2016-03-13T12:57:47Z</time>
      </trkpt>
      <trkpt lat="40.247317" lon="-4.901950">
        <ele>1191.0</ele>
        <time>2016-03-13T12:57:48Z</time>
      </trkpt>
      <trkpt lat="40.247250" lon="-4.902017">
        <ele>1190.0</ele>
        <time>2016-03-13T12:57:49Z</time>
      </trkpt>
      <trkpt lat="40.247167" lon="-4.902017">
        <ele>1191.0</ele>
        <time>2016-03-13T12:57:50Z</time>
      </trkpt>
      <trkpt lat="40.247067" lon="-4.901983">
        <ele>1192.0</ele>
        <time>2016-03-13T12:57:51Z</time>
      </trkpt>
      <trkpt lat="40.246983" lon="-4.901933">
        <ele>1194.0</ele>
        <time>2016-03-13T12:57:52Z</time>
      </trkpt>
      <trkpt lat="40.246933" lon="-4.901850">
        <ele>1196.0</ele>
        <time>2016-03-13T12:57:53Z</time>
      </trkpt>
      <trkpt lat="40.246883" lon="-4.901750">
        <ele>1197.0</ele>
        <time>2016-03-13T12:57:54Z</time>
      </trkpt>
      <trkpt lat="40.246867" lon="-4.901617">
        <ele>1198.0</ele>
        <time>2016-03-13T12:57:55Z</time>
      </trkpt>
      <trkpt lat="40.246883" lon="-4.901483">
        <ele>1198.0</ele>
        <time>2016-03-13T12:57:56Z</time>
      </trkpt>
      <trkpt lat="40.246933" lon="-4.901367">
        <ele>1199.0</ele>
        <time>2016-03-13T12:57:57Z</time>
      </trkpt>
      <trkpt lat="40.247017" lon="-4.901267">
        <ele>1199.0</ele>
        <time>2016-03-13T12:57:58Z</time>
      </trkpt>
      <trkpt lat="40.247100" lon="-4.901183">
        <ele>1200.0</ele>
        <time>2016-03-13T12:57:59Z</time>
      </trkpt>
      <trkpt lat="40.247217" lon="-4.901150">
        <ele>1201.0</ele>
        <time>2016-03-13T12:58:00Z</time>
      </trkpt>
      <trkpt lat="40.247317" lon="-4.901167">
        <ele>1202.0</ele>
        <time>2016-03-13T12:58:01Z</time>
      </trkpt>
      <trkpt lat="40.247433" lon="-4.901217">
        <ele>1203.0</ele>
        <time>2016-03-13T12:58:02Z</time>
      </trkpt>
      <trkpt lat="40.247517" lon="-4.901283">
        <ele>1205.0</ele>
        <time>2016-03-13T12:58:03Z</time>
      </trkpt>
      <trkpt lat="40.247567" lon="-4.901383">
        <ele>1206.0</ele>
        <time>2016-03-13T12:58:04Z</time>
      </trkpt>
      <trkpt lat="40.247583" lon="-4.901483">
        <ele>1207.0</ele>
        <time>2016-03-13T12:58:05Z</time>
      </trkpt>
      <trkpt lat="40.247567" lon="-4.901583">
        <ele>1208.0</ele>
        <time>2016-03-13T12:58:06Z</time>
      </trkpt>
      <trkpt lat="40.247500" lon="-4.901650">
        <ele>1210.0</ele>
        <time>2016-03-13T12:58:07Z</time>
      </trkpt>
      <trkpt lat="40.247433" lon="-4.901683">
        <ele>1211.0</ele>
        <time>2016-03-13T12:58:08Z</time>
      </trkpt>
      <trkpt lat="40.247367" lon="-4.901683">
        <ele>1212.0</ele>
        <time>2016-03-13T12:58:09Z</time>
      </trkpt>
      <trkpt lat="40.247283" lon="-4.901633">
        <ele>1212.0</ele>
        <time>2016-03-13T12:58:10Z</time>
      </trkpt>
      <trkpt lat="40.247217" lon="-4.901567">
        <ele>1212.0</ele>
        <time>2016-03-13T12:58:11Z</time>
      </trkpt>
      <trkpt lat="40.247133" lon="-4.901467">
        <ele>1212.0</ele>
        <time>2016-03-13T12:58:12Z</time>
      </trkpt>
      <trkpt lat="40.247117" lon="-4.901333">
        <ele>1213.0</ele>
        <time>2016-03-13T12:58:13Z</time>
      </trkpt>
      <trkpt lat="40.247133" lon="-4.901200">
        <ele>1213.0</ele>
        <time>2016-03-13T12:58:14Z</time>
      </trkpt>
      <trkpt lat="40.247183" lon="-4.901083">
        <ele>1214.0</ele>
        <time>2016-03-13T12:58:15Z</time>
      </trkpt>
      <trkpt lat="40.247233" lon="-4.900967">
        <ele>1215.0</ele>
        <time>2016-03-13T12:58:16Z</time>
      </trkpt>
      <trkpt lat="40.247300" lon="-4.900867">
        <ele>1216.0</ele>
        <time>2016-03-13T12:58:17Z</time>
      </trkpt>
      <trkpt lat="40.247367" lon="-4.900817">
        <ele>1216.0</ele>
        <time>2016-03-13T12:58:18Z</time>
      </trkpt>
      <trkpt lat="40.247467" lon="-4.900767">
        <ele>1214.0</ele>
        <time>2016-03-13T12:58:19Z</time>
      </trkpt>
      <trkpt lat="40.247567" lon="-4.900767">
        <ele>1213.0</ele>
        <time>2016-03-13T12:58:20Z</time>
      </trkpt>
      <trkpt lat="40.247683" lon="-4.900800">
        <ele>1212.0</ele>
        <time>2016-03-13T12:58:21Z</time>
      </trkpt>
      <trkpt lat="40.247767" lon="-4.900867">
        <ele>1211.0</ele>
        <time>2016-03-13T12:58:22Z</time>
      </trkpt>
      <trkpt lat="40.247833" lon="-4.900967">
        <ele>1210.0</ele>
        <time>2016-03-13T12:58:23Z</time>
      </trkpt>
      <trkpt lat="40.247867" lon="-4.901083">
        <ele>1210.0</ele>
        <time>2016-03-13T12:58:24Z</time>
      </trkpt>
      <trkpt lat="40.247883" lon="-4.901200">
        <ele>1211.0</ele>
        <time>2016-03-13T12:58:25Z</time>
      </trkpt>
      <trkpt lat="40.247867" lon="-4.901317">
        <ele>1214.0</ele>
        <time>2016-03-13T12:58:26Z</time>
      </trkpt>
      <trkpt lat="40.247850" lon="-4.901383">
        <ele>1218.0</ele>
        <time>2016-03-13T12:58:27Z</time>
      </trkpt>
      <trkpt lat="40.247833" lon="-4.901433">
        <ele>1219.0</ele>
        <time>2016-03-13T12:58:28Z</time>
      </trkpt>
      <trkpt lat="40.247817" lon="-4.901500">
        <ele>1220.0</ele>
        <time>2016-03-13T12:58:29Z</time>
      </trkpt>
      <trkpt lat="40.247817" lon="-4.901600">
        <ele>1220.0</ele>
        <time>2016-03-13T12:58:30Z</time>
      </trkpt>
      <trkpt lat="40.247833" lon="-4.901700">
        <ele>1220.0</ele>
        <time>2016-03-13T12:58:31Z</time>
      </trkpt>
      <trkpt lat="40.247833" lon="-4.901783">
        <ele>1221.0</ele>
        <time>2016-03-13T12:58:32Z</time>
      </trkpt>
      <trkpt lat="40.247800" lon="-4.901867">
        <ele>1222.0</ele>
        <time>2016-03-13T12:58:33Z</time>
      </trkpt>
      <trkpt lat="40.247733" lon="-4.901933">
        <ele>1222.0</ele>
        <time>2016-03-13T12:58:34Z</time>
      </trkpt>
      <trkpt lat="40.247650" lon="-4.901950">
        <ele>1221.0</ele>
        <time>2016-03-13T12:58:35Z</time>
      </trkpt>
      <trkpt lat="40.247550" lon="-4.901917">
        <ele>1221.0</ele>
        <time>2016-03-13T12:58:36Z</time>
      </trkpt>
      <trkpt lat="40.247450" lon="-4.901833">
        <ele>1222.0</ele>
        <time>2016-03-13T12:58:37Z</time>
      </trkpt>
      <trkpt lat="40.247383" lon="-4.901733">
        <ele>1223.0</ele>
        <time>2016-03-13T12:58:38Z</time>
      </trkpt>
      <trkpt lat="40.247367" lon="-4.901600">
        <ele>1225.0</ele>
        <time>2016-03-13T12:58:39Z</time>
      </trkpt>
      <trkpt lat="40.247367" lon="-4.901483">
        <ele>1227.0</ele>
        <time>2016-03-13T12:58:40Z</time>
      </trkpt>
      <trkpt lat="40.247367" lon="-4.901383">
        <ele>1229.0</ele>
        <time>2016-03-13T12:58:41Z</time>
      </trkpt>
      <trkpt lat="40.247383" lon="-4.901283">
        <ele>1229.0</ele>
        <time>2016-03-13T12:58:42Z</time>
      </trkpt>
      <trkpt lat="40.247383" lon="-4.901183">
        <ele>1230.0</ele>
        <time>2016-03-13T12:58:43Z</time>
      </trkpt>
      <trkpt lat="40.247400" lon="-4.901083">
        <ele>1231.0</ele>
        <time>2016-03-13T12:58:44Z</time>
      </trkpt>
      <trkpt lat="40.247433" lon="-4.900983">
        <ele>1231.0</ele>
        <time>2016-03-13T12:58:45Z</time>
      </trkpt>
      <trkpt lat="40.247500" lon="-4.900883">
        <ele>1231.0</ele>
        <time>2016-03-13T12:58:46Z</time>
      </trkpt>
      <trkpt lat="40.247567" lon="-4.900800">
        <ele>1231.0</ele>
        <time>2016-03-13T12:58:47Z</time>
      </trkpt>
      <trkpt lat="40.247667" lon="-4.900750">
        <ele>1232.0</ele>
        <time>2016-03-13T12:58:48Z</time>
      </trkpt>
      <trkpt lat="40.247750" lon="-4.900750">
        <ele>1232.0</ele>
        <time>2016-03-13T12:58:49Z</time>
      </trkpt>
      <trkpt lat="40.247850" lon="-4.900767">
        <ele>1231.0</ele>
        <time>2016-03-13T12:58:50Z</time>
      </trkpt>
      <trkpt lat="40.247933" lon="-4.900817">
        <ele>1231.0</ele>
        <time>2016-03-13T12:58:51Z</time>
      </trkpt>
      <trkpt lat="40.248017" lon="-4.900883">
        <ele>1230.0</ele>
        <time>2016-03-13T12:58:52Z</time>
      </trkpt>
      <trkpt lat="40.248100" lon="-4.900967">
        <ele>1229.0</ele>
        <time>2016-03-13T12:58:53Z</time>
      </trkpt>
      <trkpt lat="40.248167" lon="-4.901067">
        <ele>1229.0</ele>
        <time>2016-03-13T12:58:54Z</time>
      </trkpt>
      <trkpt lat="40.248217" lon="-4.901183">
        <ele>1231.0</ele>
        <time>2016-03-13T12:58:55Z</time>
      </trkpt>
      <trkpt lat="40.248250" lon="-4.901283">
        <ele>1232.0</ele>
        <time>2016-03-13T12:58:56Z</time>
      </trkpt>
      <trkpt lat="40.248267" lon="-4.901367">
        <ele>1234.0</ele>
        <time>2016-03-13T12:58:57Z</time>
      </trkpt>
      <trkpt lat="40.248267" lon="-4.901433">
        <ele>1234.0</ele>
        <time>2016-03-13T12:58:58Z</time>
      </trkpt>
      <trkpt lat="40.248283" lon="-4.901517">
        <ele>1233.0</ele>
        <time>2016-03-13T12:58:59Z</time>
      </trkpt>
      <trkpt lat="40.248317" lon="-4.901583">
        <ele>1233.0</ele>
        <time>2016-03-13T12:59:00Z</time>
      </trkpt>
      <trkpt lat="40.248317" lon="-4.901683">
        <ele>1233.0</ele>
        <time>2016-03-13T12:59:01Z</time>
      </trkpt>
      <trkpt lat="40.248317" lon="-4.901767">
        <ele>1234.0</ele>
        <time>2016-03-13T12:59:02Z</time>
      </trkpt>
      <trkpt lat="40.248283" lon="-4.901867">
        <ele>1234.0</ele>
        <time>2016-03-13T12:59:03Z</time>
      </trkpt>
      <trkpt lat="40.248250" lon="-4.901967">
        <ele>1238.0</ele>
        <time>2016-03-13T12:59:04Z</time>
      </trkpt>
      <trkpt lat="40.248217" lon="-4.902050">
        <ele>1243.0</ele>
        <time>2016-03-13T12:59:05Z</time>
      </trkpt>
      <trkpt lat="40.248200" lon="-4.902117">
        <ele>1247.0</ele>
        <time>2016-03-13T12:59:06Z</time>
      </trkpt>
      <trkpt lat="40.248183" lon="-4.902200">
        <ele>1250.0</ele>
        <time>2016-03-13T12:59:07Z</time>
      </trkpt>
      <trkpt lat="40.248167" lon="-4.902267">
        <ele>1253.0</ele>
        <time>2016-03-13T12:59:08Z</time>
      </trkpt>
      <trkpt lat="40.248133" lon="-4.902333">
        <ele>1254.0</ele>
        <time>2016-03-13T12:59:09Z</time>
      </trkpt>
      <trkpt lat="40.248083" lon="-4.902367">
        <ele>1256.0</ele>
        <time>2016-03-13T12:59:10Z</time>
      </trkpt>
      <trkpt lat="40.248033" lon="-4.902367">
        <ele>1257.0</ele>
        <time>2016-03-13T12:59:11Z</time>
      </trkpt>
      <trkpt lat="40.248000" lon="-4.902317">
        <ele>1257.0</ele>
        <time>2016-03-13T12:59:12Z</time>
      </trkpt>
      <trkpt lat="40.247950" lon="-4.902250">
        <ele>1257.0</ele>
        <time>2016-03-13T12:59:13Z</time>
      </trkpt>
      <trkpt lat="40.247917" lon="-4.902133">
        <ele>1256.0</ele>
        <time>2016-03-13T12:59:14Z</time>
      </trkpt>
      <trkpt lat="40.247900" lon="-4.902017">
        <ele>1257.0</ele>
        <time>2016-03-13T12:59:15Z</time>
      </trkpt>
      <trkpt lat="40.247883" lon="-4.901900">
        <ele>1260.0</ele>
        <time>2016-03-13T12:59:16Z</time>
      </trkpt>
      <trkpt lat="40.247917" lon="-4.901817">
        <ele>1262.0</ele>
        <time>2016-03-13T12:59:17Z</time>
      </trkpt>
      <trkpt lat="40.247950" lon="-4.901750">
        <ele>1264.0</ele>
        <time>2016-03-13T12:59:18Z</time>
      </trkpt>
      <trkpt lat="40.247983" lon="-4.901683">
        <ele>1265.0</ele>
        <time>2016-03-13T12:59:19Z</time>
      </trkpt>
      <trkpt lat="40.248033" lon="-4.901617">
        <ele>1264.0</ele>
        <time>2016-03-13T12:59:20Z</time>
      </trkpt>
      <trkpt lat="40.248100" lon="-4.901567">
        <ele>1263.0</ele>
        <time>2016-03-13T12:59:21Z</time>
      </trkpt>
      <trkpt lat="40.248200" lon="-4.901517">
        <ele>1262.0</ele>
        <time>2016-03-13T12:59:22Z</time>
      </trkpt>
      <trkpt lat="40.248317" lon="-4.901483">
        <ele>1263.0</ele>
        <time>2016-03-13T12:59:23Z</time>
      </trkpt>
      <trkpt lat="40.248417" lon="-4.901483">
        <ele>1264.0</ele>
        <time>2016-03-13T12:59:24Z</time>
      </trkpt>
      <trkpt lat="40.248517" lon="-4.901500">
        <ele>1265.0</ele>
        <time>2016-03-13T12:59:25Z</time>
      </trkpt>
      <trkpt lat="40.248633" lon="-4.901550">
        <ele>1266.0</ele>
        <time>2016-03-13T12:59:26Z</time>
      </trkpt>
      <trkpt lat="40.248733" lon="-4.901617">
        <ele>1267.0</ele>
        <time>2016-03-13T12:59:27Z</time>
      </trkpt>
      <trkpt lat="40.248850" lon="-4.901700">
        <ele>1271.0</ele>
        <time>2016-03-13T12:59:28Z</time>
      </trkpt>
      <trkpt lat="40.248933" lon="-4.901783">
        <ele>1276.0</ele>
        <time>2016-03-13T12:59:29Z</time>
      </trkpt>
      <trkpt lat="40.249000" lon="-4.901850">
        <ele>1281.0</ele>
        <time>2016-03-13T12:59:30Z</time>
      </trkpt>
      <trkpt lat="40.249050" lon="-4.901917">
        <ele>1284.0</ele>
        <time>2016-03-13T12:59:31Z</time>
      </trkpt>
      <trkpt lat="40.249100" lon="-4.902000">
        <ele>1287.0</ele>
        <time>2016-03-13T12:59:32Z</time>
      </trkpt>
      <trkpt lat="40.249133" lon="-4.902100">
        <ele>1289.0</ele>
        <time>2016-03-13T12:59:33Z</time>
      </trkpt>
      <trkpt lat="40.249150" lon="-4.902183">
        <ele>1291.0</ele>
        <time>2016-03-13T12:59:34Z</time>
      </trkpt>
      <trkpt lat="40.249150" lon="-4.902283">
        <ele>1293.0</ele>
        <time>2016-03-13T12:59:35Z</time>
      </trkpt>
      <trkpt lat="40.249117" lon="-4.902350">
        <ele>1295.0</ele>
        <time>2016-03-13T12:59:36Z</time>
      </trkpt>
      <trkpt lat="40.249067" lon="-4.902383">
        <ele>1297.0</ele>
        <time>2016-03-13T12:59:37Z</time>
      </trkpt>
      <trkpt lat="40.249017" lon="-4.902383">
        <ele>1300.0</ele>
        <time>2016-03-13T12:59:38Z</time>
      </trkpt>
      <trkpt lat="40.248967" lon="-4.902350">
        <ele>1302.0</ele>
        <time>2016-03-13T12:59:39Z</time>
      </trkpt>
      <trkpt lat="40.248933" lon="-4.902300">
        <ele>1305.0</ele>
        <time>2016-03-13T12:59:40Z</time>
      </trkpt>
      <trkpt lat="40.248933" lon="-4.902200">
        <ele>1306.0</ele>
        <time>2016-03-13T12:59:41Z</time>
      </trkpt>
      <trkpt lat="40.248950" lon="-4.902083">
        <ele>1306.0</ele>
        <time>2016-03-13T12:59:42Z</time>
      </trkpt>
      <trkpt lat="40.249017" lon="-4.901933">
        <ele>1307.0</ele>
        <time>2016-03-13T12:59:43Z</time>
      </trkpt>
      <trkpt lat="40.249117" lon="-4.901800">
        <ele>1309.0</ele>
        <time>2016-03-13T12:59:44Z</time>
      </trkpt>
      <trkpt lat="40.249250" lon="-4.901733">
        <ele>1313.0</ele>
        <time>2016-03-13T12:59:45Z</time>
      </trkpt>
      <trkpt lat="40.249383" lon="-4.901717">
        <ele>1315.0</ele>
        <time>2016-03-13T12:59:46Z</time>
      </trkpt>
      <trkpt lat="40.249517" lon="-4.901733">
        <ele>1318.0</ele>
        <time>2016-03-13T12:59:47Z</time>
      </trkpt>
      <trkpt lat="40.249617" lon="-4.901800">
        <ele>1322.0</ele>
        <time>2016-03-13T12:59:48Z</time>
      </trkpt>
      <trkpt lat="40.249700" lon="-4.901850">
        <ele>1325.0</ele>
        <time>2016-03-13T12:59:49Z</time>
      </trkpt>
      <trkpt lat="40.249767" lon="-4.901933">
        <ele>1326.0</ele>
        <time>2016-03-13T12:59:50Z</time>
      </trkpt>
      <trkpt lat="40.249817" lon="-4.902017">
        <ele>1327.0</ele>
        <time>2016-03-13T12:59:51Z</time>
      </trkpt>
      <trkpt lat="40.249833" lon="-4.902117">
        <ele>1328.0</ele>
        <time>2016-03-13T12:59:52Z</time>
      </trkpt>
      <trkpt lat="40.249833" lon="-4.902217">
        <ele>1328.0</ele>
        <time>2016-03-13T12:59:53Z</time>
      </trkpt>
      <trkpt lat="40.249800" lon="-4.902300">
        <ele>1328.0</ele>
        <time>2016-03-13T12:59:54Z</time>
      </trkpt>
      <trkpt lat="40.249733" lon="-4.902350">
        <ele>1329.0</ele>
        <time>2016-03-13T12:59:55Z</time>
      </trkpt>
      <trkpt lat="40.249667" lon="-4.902350">
        <ele>1331.0</ele>
        <time>2016-03-13T12:59:56Z</time>
      </trkpt>
      <trkpt lat="40.249600" lon="-4.902300">
        <ele>1333.0</ele>
        <time>2016-03-13T12:59:57Z</time>
      </trkpt>
      <trkpt lat="40.249550" lon="-4.902217">
        <ele>1334.0</ele>
        <time>2016-03-13T12:59:58Z</time>
      </trkpt>
      <trkpt lat="40.249533" lon="-4.902100">
        <ele>1335.0</ele>
        <time>2016-03-13T12:59:59Z</time>
      </trkpt>
      <trkpt lat="40.249550" lon="-4.901950">
        <ele>1336.0</ele>
        <time>2016-03-13T13:00:00Z</time>
      </trkpt>
      <trkpt lat="40.249583" lon="-4.901817">
        <ele>1338.0</ele>
        <time>2016-03-13T13:00:01Z</time>
      </trkpt>
      <trkpt lat="40.249633" lon="-4.901683">
        <ele>1341.0</ele>
        <time>2016-03-13T13:00:02Z</time>
      </trkpt>
      <trkpt lat="40.249717" lon="-4.901567">
        <ele>1344.0</ele>
        <time>2016-03-13T13:00:03Z</time>
      </trkpt>
      <trkpt lat="40.249817" lon="-4.901483">
        <ele>1347.0</ele>
        <time>2016-03-13T13:00:04Z</time>
      </trkpt>
      <trkpt lat="40.249933" lon="-4.901433">
        <ele>1348.0</ele>
        <time>2016-03-13T13:00:05Z</time>
      </trkpt>
      <trkpt lat="40.250050" lon="-4.901417">
        <ele>1349.0</ele>
        <time>2016-03-13T13:00:06Z</time>
      </trkpt>
      <trkpt lat="40.250167" lon="-4.901450">
        <ele>1350.0</ele>
        <time>2016-03-13T13:00:07Z</time>
      </trkpt>
      <trkpt lat="40.250233" lon="-4.901517">
        <ele>1351.0</ele>
        <time>2016-03-13T13:00:08Z</time>
      </trkpt>
      <trkpt lat="40.250283" lon="-4.901617">
        <ele>1351.0</ele>
        <time>2016-03-13T13:00:09Z</time>
      </trkpt>
      <trkpt lat="40.250300" lon="-4.901717">
        <ele>1351.0</ele>
        <time>2016-03-13T13:00:10Z</time>
      </trkpt>
      <trkpt lat="40.250283" lon="-4.901817">
        <ele>1351.0</ele>
        <time>2016-03-13T13:00:11Z</time>
      </trkpt>
      <trkpt lat="40.250233" lon="-4.901883">
        <ele>1352.0</ele>
        <time>2016-03-13T13:00:12Z</time>
      </trkpt>
      <trkpt lat="40.250167" lon="-4.901933">
        <ele>1352.0</ele>
        <time>2016-03-13T13:00:13Z</time>
      </trkpt>
      <trkpt lat="40.250117" lon="-4.901983">
        <ele>1354.0</ele>
        <time>2016-03-13T13:00:14Z</time>
      </trkpt>
      <trkpt lat="40.250050" lon="-4.902000">
        <ele>1355.0</ele>
        <time>2016-03-13T13:00:15Z</time>
      </trkpt>
      <trkpt lat="40.250017" lon="-4.902000">
        <ele>1357.0</ele>
        <time>2016-03-13T13:00:16Z</time>
      </trkpt>
      <trkpt lat="40.249967" lon="-4.901967">
        <ele>1359.0</ele>
        <time>2016-03-13T13:00:17Z</time>
      </trkpt>
      <trkpt lat="40.249917" lon="-4.901933">
        <ele>1359.0</ele>
        <time>2016-03-13T13:00:18Z</time>
      </trkpt>
      <trkpt lat="40.249867" lon="-4.901883">
        <ele>1359.0</ele>
        <time>2016-03-13T13:00:19Z</time>
      </trkpt>
      <trkpt lat="40.249817" lon="-4.901800">
        <ele>1360.0</ele>
        <time>2016-03-13T13:00:20Z</time>
      </trkpt>
      <trkpt lat="40.249800" lon="-4.901683">
        <ele>1361.0</ele>
        <time>2016-03-13T13:00:21Z</time>
      </trkpt>
      <trkpt lat="40.249817" lon="-4.901567">
        <ele>1361.0</ele>
        <time>2016-03-13T13:00:22Z</time>
      </trkpt>
      <trkpt lat="40.249867" lon="-4.901417">
        <ele>1361.0</ele>
        <time>2016-03-13T13:00:23Z</time>
      </trkpt>
      <trkpt lat="40.249950" lon="-4.901267">
        <ele>1363.0</ele>
        <time>2016-03-13T13:00:24Z</time>
      </trkpt>
      <trkpt lat="40.250033" lon="-4.901133">
        <ele>1369.0</ele>
        <time>2016-03-13T13:00:25Z</time>
      </trkpt>
      <trkpt lat="40.250083" lon="-4.901033">
        <ele>1375.0</ele>
        <time>2016-03-13T13:00:26Z</time>
      </trkpt>
      <trkpt lat="40.250133" lon="-4.900950">
        <ele>1380.0</ele>
        <time>2016-03-13T13:00:27Z</time>
      </trkpt>
      <trkpt lat="40.250183" lon="-4.900850">
        <ele>1384.0</ele>
        <time>2016-03-13T13:00:28Z</time>
      </trkpt>
      <trkpt lat="40.250250" lon="-4.900750">
        <ele>1386.0</ele>
        <time>2016-03-13T13:00:29Z</time>
      </trkpt>
      <trkpt lat="40.250333" lon="-4.900633">
        <ele>1388.0</ele>
        <time>2016-03-13T13:00:30Z</time>
      </trkpt>
      <trkpt lat="40.250417" lon="-4.900517">
        <ele>1390.0</ele>
        <time>2016-03-13T13:00:31Z</time>
      </trkpt>
      <trkpt lat="40.250517" lon="-4.900433">
        <ele>1392.0</ele>
        <time>2016-03-13T13:00:32Z</time>
      </trkpt>
      <trkpt lat="40.250617" lon="-4.900400">
        <ele>1393.0</ele>
        <time>2016-03-13T13:00:33Z</time>
      </trkpt>
      <trkpt lat="40.250700" lon="-4.900433">
        <ele>1393.0</ele>
        <time>2016-03-13T13:00:34Z</time>
      </trkpt>
      <trkpt lat="40.250750" lon="-4.900500">
        <ele>1391.0</ele>
        <time>2016-03-13T13:00:35Z</time>
      </trkpt>
      <trkpt lat="40.250783" lon="-4.900600">
        <ele>1389.0</ele>
        <time>2016-03-13T13:00:36Z</time>
      </trkpt>
      <trkpt lat="40.250783" lon="-4.900700">
        <ele>1388.0</ele>
        <time>2016-03-13T13:00:37Z</time>
      </trkpt>
      <trkpt lat="40.250750" lon="-4.900783">
        <ele>1387.0</ele>
        <time>2016-03-13T13:00:38Z</time>
      </trkpt>
      <trkpt lat="40.250700" lon="-4.900850">
        <ele>1386.0</ele>
        <time>2016-03-13T13:00:39Z</time>
      </trkpt>
      <trkpt lat="40.250617" lon="-4.900917">
        <ele>1388.0</ele>
        <time>2016-03-13T13:00:40Z</time>
      </trkpt>
      <trkpt lat="40.250550" lon="-4.900933">
        <ele>1392.0</ele>
        <time>2016-03-13T13:00:41Z</time>
      </trkpt>
      <trkpt lat="40.250483" lon="-4.900967">
        <ele>1396.0</ele>
        <time>2016-03-13T13:00:42Z</time>
      </trkpt>
      <trkpt lat="40.250433" lon="-4.900983">
        <ele>1400.0</ele>
        <time>2016-03-13T13:00:43Z</time>
      </trkpt>
      <trkpt lat="40.250383" lon="-4.901017">
        <ele>1402.0</ele>
        <time>2016-03-13T13:00:44Z</time>
      </trkpt>
      <trkpt lat="40.250317" lon="-4.901067">
        <ele>1404.0</ele>
        <time>2016-03-13T13:00:45Z</time>
      </trkpt>
      <trkpt lat="40.250250" lon="-4.901133">
        <ele>1406.0</ele>
        <time>2016-03-13T13:00:46Z</time>
      </trkpt>
      <trkpt lat="40.250183" lon="-4.901183">
        <ele>1409.0</ele>
        <time>2016-03-13T13:00:47Z</time>
      </trkpt>
      <trkpt lat="40.250117" lon="-4.901217">
        <ele>1412.0</ele>
        <time>2016-03-13T13:00:48Z</time>
      </trkpt>
      <trkpt lat="40.250067" lon="-4.901183">
        <ele>1413.0</ele>
        <time>2016-03-13T13:00:49Z</time>
      </trkpt>
      <trkpt lat="40.250017" lon="-4.901100">
        <ele>1413.0</ele>
        <time>2016-03-13T13:00:50Z</time>
      </trkpt>
      <trkpt lat="40.249983" lon="-4.900983">
        <ele>1413.0</ele>
        <time>2016-03-13T13:00:51Z</time>
      </trkpt>
      <trkpt lat="40.249950" lon="-4.900850">
        <ele>1416.0</ele>
        <time>2016-03-13T13:00:52Z</time>
      </trkpt>
      <trkpt lat="40.249950" lon="-4.900717">
        <ele>1420.0</ele>
        <time>2016-03-13T13:00:53Z</time>
      </trkpt>
      <trkpt lat="40.249950" lon="-4.900600">
        <ele>1424.0</ele>
        <time>2016-03-13T13:00:54Z</time>
      </trkpt>
      <trkpt lat="40.249967" lon="-4.900500">
        <ele>1427.0</ele>
        <time>2016-03-13T13:00:55Z</time>
      </trkpt>
      <trkpt lat="40.249950" lon="-4.900400">
        <ele>1428.0</ele>
        <time>2016-03-13T13:00:56Z</time>
      </trkpt>
      <trkpt lat="40.249933" lon="-4.900300">
        <ele>1429.0</ele>
        <time>2016-03-13T13:00:57Z</time>
      </trkpt>
      <trkpt lat="40.249933" lon="-4.900183">
        <ele>1431.0</ele>
        <time>2016-03-13T13:00:58Z</time>
      </trkpt>
      <trkpt lat="40.249967" lon="-4.900067">
        <ele>1432.0</ele>
        <time>2016-03-13T13:00:59Z</time>
      </trkpt>
      <trkpt lat="40.250017" lon="-4.899967">
        <ele>1434.0</ele>
        <time>2016-03-13T13:01:00Z</time>
      </trkpt>
      <trkpt lat="40.250117" lon="-4.899883">
        <ele>1436.0</ele>
        <time>2016-03-13T13:01:01Z</time>
      </trkpt>
      <trkpt lat="40.250233" lon="-4.899867">
        <ele>1437.0</ele>
        <time>2016-03-13T13:01:02Z</time>
      </trkpt>
      <trkpt lat="40.250350" lon="-4.899867">
        <ele>1440.0</ele>
        <time>2016-03-13T13:01:03Z</time>
      </trkpt>
      <trkpt lat="40.250450" lon="-4.899900">
        <ele>1443.0</ele>
        <time>2016-03-13T13:01:04Z</time>
      </trkpt>
      <trkpt lat="40.250550" lon="-4.899983">
        <ele>1447.0</ele>
        <time>2016-03-13T13:01:05Z</time>
      </trkpt>
      <trkpt lat="40.250617" lon="-4.900067">
        <ele>1450.0</ele>
        <time>2016-03-13T13:01:06Z</time>
      </trkpt>
      <trkpt lat="40.250683" lon="-4.900183">
        <ele>1454.0</ele>
        <time>2016-03-13T13:01:07Z</time>
      </trkpt>
      <trkpt lat="40.250717" lon="-4.900283">
        <ele>1458.0</ele>
        <time>2016-03-13T13:01:08Z</time>
      </trkpt>
      <trkpt lat="40.250733" lon="-4.900383">
        <ele>1461.0</ele>
        <time>2016-03-13T13:01:09Z</time>
      </trkpt>
      <trkpt lat="40.250717" lon="-4.900467">
        <ele>1463.0</ele>
        <time>2016-03-13T13:01:10Z</time>
      </trkpt>
      <trkpt lat="40.250650" lon="-4.900533">
        <ele>1465.0</ele>
        <time>2016-03-13T13:01:11Z</time>
      </trkpt>
      <trkpt lat="40.250583" lon="-4.900567">
        <ele>1466.0</ele>
        <time>2016-03-13T13:01:12Z</time>
      </trkpt>
      <trkpt lat="40.250500" lon="-4.900567">
        <ele>1469.0</ele>
        <time>2016-03-13T13:01:13Z</time>
      </trkpt>
      <trkpt lat="40.250417" lon="-4.900533">
        <ele>1471.0</ele>
        <time>2016-03-13T13:01:14Z</time>
      </trkpt>
      <trkpt lat="40.250350" lon="-4.900450">
        <ele>1473.0</ele>
        <time>2016-03-13T13:01:15Z</time>
      </trkpt>
      <trkpt lat="40.250333" lon="-4.900317">
        <ele>1474.0</ele>
        <time>2016-03-13T13:01:16Z</time>
      </trkpt>
      <trkpt lat="40.250350" lon="-4.900167">
        <ele>1474.0</ele>
        <time>2016-03-13T13:01:17Z</time>
      </trkpt>
      <trkpt lat="40.250400" lon="-4.900033">
        <ele>1475.0</ele>
        <time>2016-03-13T13:01:18Z</time>
      </trkpt>
      <trkpt lat="40.250467" lon="-4.899933">
        <ele>1477.0</ele>
        <time>2016-03-13T13:01:19Z</time>
      </trkpt>
      <trkpt lat="40.250550" lon="-4.899833">
        <ele>1478.0</ele>
        <time>2016-03-13T13:01:20Z</time>
      </trkpt>
      <trkpt lat="40.250667" lon="-4.899783">
        <ele>1481.0</ele>
        <time>2016-03-13T13:01:21Z</time>
      </trkpt>
      <trkpt lat="40.250783" lon="-4.899750">
        <ele>1484.0</ele>
        <time>2016-03-13T13:01:22Z</time>
      </trkpt>
      <trkpt lat="40.250883" lon="-4.899750">
        <ele>1487.0</ele>
        <time>2016-03-13T13:01:23Z</time>
      </trkpt>
      <trkpt lat="40.250983" lon="-4.899783">
        <ele>1491.0</ele>
        <time>2016-03-13T13:01:24Z</time>
      </trkpt>
      <trkpt lat="40.251067" lon="-4.899850">
        <ele>1492.0</ele>
        <time>2016-03-13T13:01:25Z</time>
      </trkpt>
      <trkpt lat="40.251133" lon="-4.899933">
        <ele>1495.0</ele>
        <time>2016-03-13T13:01:26Z</time>
      </trkpt>
      <trkpt lat="40.251183" lon="-4.900033">
        <ele>1497.0</ele>
        <time>2016-03-13T13:01:27Z</time>
      </trkpt>
      <trkpt lat="40.251200" lon="-4.900133">
        <ele>1500.0</ele>
        <time>2016-03-13T13:01:28Z</time>
      </trkpt>
      <trkpt lat="40.251217" lon="-4.900217">
        <ele>1503.0</ele>
        <time>2016-03-13T13:01:29Z</time>
      </trkpt>
      <trkpt lat="40.251233" lon="-4.900300">
        <ele>1505.0</ele>
        <time>2016-03-13T13:01:30Z</time>
      </trkpt>
      <trkpt lat="40.251217" lon="-4.900383">
        <ele>1507.0</ele>
        <time>2016-03-13T13:01:31Z</time>
      </trkpt>
      <trkpt lat="40.251183" lon="-4.900467">
        <ele>1508.0</ele>
        <time>2016-03-13T13:01:32Z</time>
      </trkpt>
      <trkpt lat="40.251117" lon="-4.900550">
        <ele>1509.0</ele>
        <time>2016-03-13T13:01:33Z</time>
      </trkpt>
      <trkpt lat="40.251017" lon="-4.900583">
        <ele>1511.0</ele>
        <time>2016-03-13T13:01:34Z</time>
      </trkpt>
      <trkpt lat="40.250933" lon="-4.900600">
        <ele>1515.0</ele>
        <time>2016-03-13T13:01:35Z</time>
      </trkpt>
      <trkpt lat="40.250867" lon="-4.900567">
        <ele>1519.0</ele>
        <time>2016-03-13T13:01:36Z</time>
      </trkpt>
      <trkpt lat="40.250817" lon="-4.900483">
        <ele>1522.0</ele>
        <time>2016-03-13T13:01:37Z</time>
      </trkpt>
      <trkpt lat="40.250783" lon="-4.900383">
        <ele>1522.0</ele>
        <time>2016-03-13T13:01:38Z</time>
      </trkpt>
      <trkpt lat="40.250767" lon="-4.900250">
        <ele>1523.0</ele>
        <time>2016-03-13T13:01:39Z</time>
      </trkpt>
      <trkpt lat="40.250767" lon="-4.900117">
        <ele>1522.0</ele>
        <time>2016-03-13T13:01:40Z</time>
      </trkpt>
      <trkpt lat="40.250800" lon="-4.899967">
        <ele>1524.0</ele>
        <time>2016-03-13T13:01:41Z</time>
      </trkpt>
      <trkpt lat="40.250867" lon="-4.899850">
        <ele>1525.0</ele>
        <time>2016-03-13T13:01:42Z</time>
      </trkpt>
      <trkpt lat="40.250950" lon="-4.899750">
        <ele>1526.0</ele>
        <time>2016-03-13T13:01:43Z</time>
      </trkpt>
      <trkpt lat="40.251067" lon="-4.899700">
        <ele>1527.0</ele>
        <time>2016-03-13T13:01:44Z</time>
      </trkpt>
      <trkpt lat="40.251183" lon="-4.899667">
        <ele>1528.0</ele>
        <time>2016-03-13T13:01:45Z</time>
      </trkpt>
      <trkpt lat="40.251300" lon="-4.899667">
        <ele>1531.0</ele>
        <time>2016-03-13T13:01:46Z</time>
      </trkpt>
      <trkpt lat="40.251417" lon="-4.899683">
        <ele>1534.0</ele>
        <time>2016-03-13T13:01:47Z</time>
      </trkpt>
      <trkpt lat="40.251500" lon="-4.899733">
        <ele>1537.0</ele>
        <time>2016-03-13T13:01:48Z</time>
      </trkpt>
      <trkpt lat="40.251550" lon="-4.899817">
        <ele>1538.0</ele>
        <time>2016-03-13T13:01:49Z</time>
      </trkpt>
      <trkpt lat="40.251567" lon="-4.899917">
        <ele>1537.0</ele>
        <time>2016-03-13T13:01:50Z</time>
      </trkpt>
      <trkpt lat="40.251550" lon="-4.900033">
        <ele>1536.0</ele>
        <time>2016-03-13T13:01:51Z</time>
      </trkpt>
      <trkpt lat="40.251517" lon="-4.900150">
        <ele>1538.0</ele>
        <time>2016-03-13T13:01:52Z</time>
      </trkpt>
      <trkpt lat="40.251500" lon="-4.900267">
        <ele>1541.0</ele>
        <time>2016-03-13T13:01:53Z</time>
      </trkpt>
      <trkpt lat="40.251467" lon="-4.900350">
        <ele>1544.0</ele>
        <time>2016-03-13T13:01:54Z</time>
      </trkpt>
      <trkpt lat="40.251400" lon="-4.900383">
        <ele>1545.0</ele>
        <time>2016-03-13T13:01:55Z</time>
      </trkpt>
      <trkpt lat="40.251317" lon="-4.900350">
        <ele>1544.0</ele>
        <time>2016-03-13T13:01:56Z</time>
      </trkpt>
      <trkpt lat="40.251250" lon="-4.900267">
        <ele>1543.0</ele>
        <time>2016-03-13T13:01:57Z</time>
      </trkpt>
      <trkpt lat="40.251200" lon="-4.900133">
        <ele>1544.0</ele>
        <time>2016-03-13T13:01:58Z</time>
      </trkpt>
      <trkpt lat="40.251183" lon="-4.900000">
        <ele>1547.0</ele>
        <time>2016-03-13T13:01:59Z</time>
      </trkpt>
      <trkpt lat="40.251183" lon="-4.899850">
        <ele>1549.0</ele>
        <time>2016-03-13T13:02:00Z</time>
      </trkpt>
      <trkpt lat="40.251200" lon="-4.899733">
        <ele>1551.0</ele>
        <time>2016-03-13T13:02:01Z</time>
      </trkpt>
      <trkpt lat="40.251233" lon="-4.899633">
        <ele>1552.0</ele>
        <time>2016-03-13T13:02:02Z</time>
      </trkpt>
      <trkpt lat="40.251250" lon="-4.899517">
        <ele>1553.0</ele>
        <time>2016-03-13T13:02:03Z</time>
      </trkpt>
      <trkpt lat="40.251300" lon="-4.899400">
        <ele>1553.0</ele>
        <time>2016-03-13T13:02:04Z</time>
      </trkpt>
      <trkpt lat="40.251383" lon="-4.899317">
        <ele>1554.0</ele>
        <time>2016-03-13T13:02:05Z</time>
      </trkpt>
      <trkpt lat="40.251500" lon="-4.899250">
        <ele>1554.0</ele>
        <time>2016-03-13T13:02:06Z</time>
      </trkpt>
      <trkpt lat="40.251617" lon="-4.899250">
        <ele>1553.0</ele>
        <time>2016-03-13T13:02:07Z</time>
      </trkpt>
      <trkpt lat="40.251700" lon="-4.899283">
        <ele>1553.0</ele>
        <time>2016-03-13T13:02:08Z</time>
      </trkpt>
      <trkpt lat="40.251767" lon="-4.899333">
        <ele>1554.0</ele>
        <time>2016-03-13T13:02:09Z</time>
      </trkpt>
      <trkpt lat="40.251817" lon="-4.899383">
        <ele>1554.0</ele>
        <time>2016-03-13T13:02:10Z</time>
      </trkpt>
      <trkpt lat="40.251867" lon="-4.899433">
        <ele>1552.0</ele>
        <time>2016-03-13T13:02:11Z</time>
      </trkpt>
      <trkpt lat="40.251917" lon="-4.899483">
        <ele>1550.0</ele>
        <time>2016-03-13T13:02:12Z</time>
      </trkpt>
      <trkpt lat="40.251933" lon="-4.899567">
        <ele>1549.0</ele>
        <time>2016-03-13T13:02:13Z</time>
      </trkpt>
      <trkpt lat="40.251950" lon="-4.899667">
        <ele>1546.0</ele>
        <time>2016-03-13T13:02:14Z</time>
      </trkpt>
      <trkpt lat="40.251950" lon="-4.899750">
        <ele>1545.0</ele>
        <time>2016-03-13T13:02:15Z</time>
      </trkpt>
      <trkpt lat="40.251933" lon="-4.899850">
        <ele>1544.0</ele>
        <time>2016-03-13T13:02:16Z</time>
      </trkpt>
      <trkpt lat="40.251883" lon="-4.899967">
        <ele>1544.0</ele>
        <time>2016-03-13T13:02:17Z</time>
      </trkpt>
      <trkpt lat="40.251833" lon="-4.900067">
        <ele>1546.0</ele>
        <time>2016-03-13T13:02:18Z</time>
      </trkpt>
      <trkpt lat="40.251767" lon="-4.900167">
        <ele>1548.0</ele>
        <time>2016-03-13T13:02:19Z</time>
      </trkpt>
      <trkpt lat="40.251733" lon="-4.900250">
        <ele>1550.0</ele>
        <time>2016-03-13T13:02:20Z</time>
      </trkpt>
      <trkpt lat="40.251700" lon="-4.900317">
        <ele>1551.0</ele>
        <time>2016-03-13T13:02:21Z</time>
      </trkpt>
      <trkpt lat="40.251667" lon="-4.900383">
        <ele>1551.0</ele>
        <time>2016-03-13T13:02:22Z</time>
      </trkpt>
      <trkpt lat="40.251617" lon="-4.900433">
        <ele>1550.0</ele>
        <time>2016-03-13T13:02:23Z</time>
      </trkpt>
      <trkpt lat="40.251567" lon="-4.900500">
        <ele>1548.0</ele>
        <time>2016-03-13T13:02:24Z</time>
      </trkpt>
      <trkpt lat="40.251483" lon="-4.900550">
        <ele>1548.0</ele>
        <time>2016-03-13T13:02:25Z</time>
      </trkpt>
      <trkpt lat="40.251400" lon="-4.900567">
        <ele>1549.0</ele>
        <time>2016-03-13T13:02:26Z</time>
      </trkpt>
      <trkpt lat="40.251333" lon="-4.900533">
        <ele>1550.0</ele>
        <time>2016-03-13T13:02:27Z</time>
      </trkpt>
      <trkpt lat="40.251267" lon="-4.900500">
        <ele>1550.0</ele>
        <time>2016-03-13T13:02:28Z</time>
      </trkpt>
      <trkpt lat="40.251200" lon="-4.900433">
        <ele>1551.0</ele>
        <time>2016-03-13T13:02:29Z</time>
      </trkpt>
      <trkpt lat="40.251150" lon="-4.900367">
        <ele>1550.0</ele>
        <time>2016-03-13T13:02:30Z</time>
      </trkpt>
      <trkpt lat="40.251100" lon="-4.900300">
        <ele>1550.0</ele>
        <time>2016-03-13T13:02:31Z</time>
      </trkpt>
      <trkpt lat="40.251050" lon="-4.900200">
        <ele>1550.0</ele>
        <time>2016-03-13T13:02:32Z</time>
      </trkpt>
      <trkpt lat="40.251000" lon="-4.900083">
        <ele>1549.0</ele>
        <time>2016-03-13T13:02:33Z</time>
      </trkpt>
      <trkpt lat="40.250983" lon="-4.899967">
        <ele>1549.0</ele>
        <time>2016-03-13T13:02:34Z</time>
      </trkpt>
      <trkpt lat="40.250950" lon="-4.899833">
        <ele>1550.0</ele>
        <time>2016-03-13T13:02:35Z</time>
      </trkpt>
      <trkpt lat="40.250933" lon="-4.899717">
        <ele>1550.0</ele>
        <time>2016-03-13T13:02:36Z</time>
      </trkpt>
      <trkpt lat="40.250917" lon="-4.899600">
        <ele>1550.0</ele>
        <time>2016-03-13T13:02:37Z</time>
      </trkpt>
      <trkpt lat="40.250900" lon="-4.899467">
        <ele>1550.0</ele>
        <time>2016-03-13T13:02:38Z</time>
      </trkpt>
      <trkpt lat="40.250900" lon="-4.899350">
        <ele>1550.0</ele>
        <time>2016-03-13T13:02:39Z</time>
      </trkpt>
      <trkpt lat="40.250900" lon="-4.899200">
        <ele>1550.0</ele>
        <time>2016-03-13T13:02:40Z</time>
      </trkpt>
      <trkpt lat="40.250917" lon="-4.899067">
        <ele>1550.0</ele>
        <time>2016-03-13T13:02:41Z</time>
      </trkpt>
      <trkpt lat="40.250933" lon="-4.898917">
        <ele>1550.0</ele>
        <time>2016-03-13T13:02:42Z</time>
      </trkpt>
      <trkpt lat="40.250967" lon="-4.898783">
        <ele>1550.0</ele>
        <time>2016-03-13T13:02:43Z</time>
      </trkpt>
      <trkpt lat="40.251000" lon="-4.898633">
        <ele>1551.0</ele>
        <time>2016-03-13T13:02:44Z</time>
      </trkpt>
      <trkpt lat="40.251033" lon="-4.898500">
        <ele>1551.0</ele>
        <time>2016-03-13T13:02:45Z</time>
      </trkpt>
      <trkpt lat="40.251050" lon="-4.898367">
        <ele>1552.0</ele>
        <time>2016-03-13T13:02:46Z</time>
      </trkpt>
      <trkpt lat="40.251083" lon="-4.898217">
        <ele>1552.0</ele>
        <time>2016-03-13T13:02:47Z</time>
      </trkpt>
      <trkpt lat="40.251117" lon="-4.898083">
        <ele>1552.0</ele>
        <time>2016-03-13T13:02:48Z</time>
      </trkpt>
      <trkpt lat="40.251150" lon="-4.897933">
        <ele>1552.0</ele>
        <time>2016-03-13T13:02:49Z</time>
      </trkpt>
      <trkpt lat="40.251150" lon="-4.897800">
        <ele>1553.0</ele>
        <time>2016-03-13T13:02:50Z</time>
      </trkpt>
      <trkpt lat="40.251150" lon="-4.897650">
        <ele>1553.0</ele>
        <time>2016-03-13T13:02:51Z</time>
      </trkpt>
      <trkpt lat="40.251150" lon="-4.897517">
        <ele>1553.0</ele>
        <time>2016-03-13T13:02:52Z</time>
      </trkpt>
      <trkpt lat="40.251150" lon="-4.897367">
        <ele>1552.0</ele>
        <time>2016-03-13T13:02:53Z</time>
      </trkpt>
      <trkpt lat="40.251133" lon="-4.897217">
        <ele>1551.0</ele>
        <time>2016-03-13T13:02:54Z</time>
      </trkpt>
      <trkpt lat="40.251133" lon="-4.897067">
        <ele>1549.0</ele>
        <time>2016-03-13T13:02:55Z</time>
      </trkpt>
      <trkpt lat="40.251133" lon="-4.896917">
        <ele>1548.0</ele>
        <time>2016-03-13T13:02:56Z</time>
      </trkpt>
      <trkpt lat="40.251150" lon="-4.896767">
        <ele>1548.0</ele>
        <time>2016-03-13T13:02:57Z</time>
      </trkpt>
      <trkpt lat="40.251167" lon="-4.896617">
        <ele>1548.0</ele>
        <time>2016-03-13T13:02:58Z</time>
      </trkpt>
      <trkpt lat="40.251183" lon="-4.896467">
        <ele>1547.0</ele>
        <time>2016-03-13T13:02:59Z</time>
      </trkpt>
      <trkpt lat="40.251183" lon="-4.896333">
        <ele>1547.0</ele>
        <time>2016-03-13T13:03:00Z</time>
      </trkpt>
      <trkpt lat="40.251200" lon="-4.896183">
        <ele>1545.0</ele>
        <time>2016-03-13T13:03:01Z</time>
      </trkpt>
      <trkpt lat="40.251217" lon="-4.896033">
        <ele>1543.0</ele>
        <time>2016-03-13T13:03:02Z</time>
      </trkpt>
      <trkpt lat="40.251233" lon="-4.895883">
        <ele>1540.0</ele>
        <time>2016-03-13T13:03:03Z</time>
      </trkpt>
      <trkpt lat="40.251267" lon="-4.895733">
        <ele>1539.0</ele>
        <time>2016-03-13T13:03:04Z</time>
      </trkpt>
      <trkpt lat="40.251300" lon="-4.895600">
        <ele>1537.0</ele>
        <time>2016-03-13T13:03:05Z</time>
      </trkpt>
      <trkpt lat="40.251333" lon="-4.895483">
        <ele>1535.0</ele>
        <time>2016-03-13T13:03:06Z</time>
      </trkpt>
      <trkpt lat="40.251400" lon="-4.895383">
        <ele>1534.0</ele>
        <time>2016-03-13T13:03:07Z</time>
      </trkpt>
      <trkpt lat="40.251467" lon="-4.895283">
        <ele>1534.0</ele>
        <time>2016-03-13T13:03:08Z</time>
      </trkpt>
      <trkpt lat="40.251533" lon="-4.895200">
        <ele>1534.0</ele>
        <time>2016-03-13T13:03:09Z</time>
      </trkpt>
      <trkpt lat="40.251600" lon="-4.895117">
        <ele>1534.0</ele>
        <time>2016-03-13T13:03:10Z</time>
      </trkpt>
      <trkpt lat="40.251667" lon="-4.895083">
        <ele>1533.0</ele>
        <time>2016-03-13T13:03:11Z</time>
      </trkpt>
      <trkpt lat="40.251733" lon="-4.895033">
        <ele>1532.0</ele>
        <time>2016-03-13T13:03:12Z</time>
      </trkpt>
      <trkpt lat="40.251817" lon="-4.895000">
        <ele>1531.0</ele>
        <time>2016-03-13T13:03:13Z</time>
      </trkpt>
      <trkpt lat="40.251900" lon="-4.894967">
        <ele>1530.0</ele>
        <time>2016-03-13T13:03:14Z</time>
      </trkpt>
      <trkpt lat="40.252000" lon="-4.894933">
        <ele>1529.0</ele>
        <time>2016-03-13T13:03:15Z</time>
      </trkpt>
      <trkpt lat="40.252083" lon="-4.894917">
        <ele>1529.0</ele>
        <time>2016-03-13T13:03:16Z</time>
      </trkpt>
      <trkpt lat="40.252183" lon="-4.894900">
        <ele>1528.0</ele>
        <time>2016-03-13T13:03:17Z</time>
      </trkpt>
      <trkpt lat="40.252267" lon="-4.894917">
        <ele>1529.0</ele>
        <time>2016-03-13T13:03:18Z</time>
      </trkpt>
      <trkpt lat="40.252367" lon="-4.894933">
        <ele>1529.0</ele>
        <time>2016-03-13T13:03:19Z</time>
      </trkpt>
      <trkpt lat="40.252450" lon="-4.894967">
        <ele>1530.0</ele>
        <time>2016-03-13T13:03:20Z</time>
      </trkpt>
      <trkpt lat="40.252533" lon="-4.895017">
        <ele>1530.0</ele>
        <time>2016-03-13T13:03:21Z</time>
      </trkpt>
      <trkpt lat="40.252617" lon="-4.895083">
        <ele>1530.0</ele>
        <time>2016-03-13T13:03:22Z</time>
      </trkpt>
      <trkpt lat="40.252700" lon="-4.895117">
        <ele>1531.0</ele>
        <time>2016-03-13T13:03:23Z</time>
      </trkpt>
      <trkpt lat="40.252800" lon="-4.895150">
        <ele>1531.0</ele>
        <time>2016-03-13T13:03:24Z</time>
      </trkpt>
      <trkpt lat="40.252883" lon="-4.895183">
        <ele>1531.0</ele>
        <time>2016-03-13T13:03:25Z</time>
      </trkpt>
      <trkpt lat="40.252967" lon="-4.895233">
        <ele>1530.0</ele>
        <time>2016-03-13T13:03:26Z</time>
      </trkpt>
      <trkpt lat="40.253050" lon="-4.895283">
        <ele>1530.0</ele>
        <time>2016-03-13T13:03:27Z</time>
      </trkpt>
      <trkpt lat="40.253117" lon="-4.895333">
        <ele>1529.0</ele>
        <time>2016-03-13T13:03:28Z</time>
      </trkpt>
      <trkpt lat="40.253183" lon="-4.895400">
        <ele>1529.0</ele>
        <time>2016-03-13T13:03:29Z</time>
      </trkpt>
      <trkpt lat="40.253250" lon="-4.895483">
        <ele>1528.0</ele>
        <time>2016-03-13T13:03:30Z</time>
      </trkpt>
      <trkpt lat="40.253317" lon="-4.895550">
        <ele>1528.0</ele>
        <time>2016-03-13T13:03:31Z</time>
      </trkpt>
      <trkpt lat="40.253367" lon="-4.895633">
        <ele>1529.0</ele>
        <time>2016-03-13T13:03:32Z</time>
      </trkpt>
      <trkpt lat="40.253433" lon="-4.895700">
        <ele>1529.0</ele>
        <time>2016-03-13T13:03:33Z</time>
      </trkpt>
      <trkpt lat="40.253500" lon="-4.895767">
        <ele>1528.0</ele>
        <time>2016-03-13T13:03:34Z</time>
      </trkpt>
      <trkpt lat="40.253567" lon="-4.895833">
        <ele>1528.0</ele>
        <time>2016-03-13T13:03:35Z</time>
      </trkpt>
      <trkpt lat="40.253633" lon="-4.895883">
        <ele>1527.0</ele>
        <time>2016-03-13T13:03:36Z</time>
      </trkpt>
      <trkpt lat="40.253717" lon="-4.895933">
        <ele>1526.0</ele>
        <time>2016-03-13T13:03:37Z</time>
      </trkpt>
      <trkpt lat="40.253800" lon="-4.895967">
        <ele>1526.0</ele>
        <time>2016-03-13T13:03:38Z</time>
      </trkpt>
      <trkpt lat="40.253867" lon="-4.896000">
        <ele>1527.0</ele>
        <time>2016-03-13T13:03:39Z</time>
      </trkpt>
      <trkpt lat="40.253950" lon="-4.896033">
        <ele>1528.0</ele>
        <time>2016-03-13T13:03:40Z</time>
      </trkpt>
      <trkpt lat="40.254017" lon="-4.896033">
        <ele>1528.0</ele>
        <time>2016-03-13T13:03:41Z</time>
      </trkpt>
      <trkpt lat="40.254083" lon="-4.896050">
        <ele>1527.0</ele>
        <time>2016-03-13T13:03:42Z</time>
      </trkpt>
      <trkpt lat="40.254150" lon="-4.896067">
        <ele>1526.0</ele>
        <time>2016-03-13T13:03:43Z</time>
      </trkpt>
      <trkpt lat="40.254233" lon="-4.896083">
        <ele>1525.0</ele>
        <time>2016-03-13T13:03:44Z</time>
      </trkpt>
      <trkpt lat="40.254317" lon="-4.896117">
        <ele>1525.0</ele>
        <time>2016-03-13T13:03:45Z</time>
      </trkpt>
      <trkpt lat="40.254383" lon="-4.896133">
        <ele>1524.0</ele>
        <time>2016-03-13T13:03:46Z</time>
      </trkpt>
      <trkpt lat="40.254450" lon="-4.896167">
        <ele>1524.0</ele>
        <time>2016-03-13T13:03:47Z</time>
      </trkpt>
      <trkpt lat="40.254517" lon="-4.896200">
        <ele>1523.0</ele>
        <time>2016-03-13T13:03:48Z</time>
      </trkpt>
      <trkpt lat="40.254600" lon="-4.896233">
        <ele>1521.0</ele>
        <time>2016-03-13T13:03:49Z</time>
      </trkpt>
      <trkpt lat="40.254667" lon="-4.896283">
        <ele>1519.0</ele>
        <time>2016-03-13T13:03:50Z</time>
      </trkpt>
      <trkpt lat="40.254733" lon="-4.896350">
        <ele>1518.0</ele>
        <time>2016-03-13T13:03:51Z</time>
      </trkpt>
      <trkpt lat="40.254783" lon="-4.896433">
        <ele>1517.0</ele>
        <time>2016-03-13T13:03:52Z</time>
      </trkpt>
      <trkpt lat="40.254833" lon="-4.896517">
        <ele>1516.0</ele>
        <time>2016-03-13T13:03:53Z</time>
      </trkpt>
      <trkpt lat="40.254867" lon="-4.896617">
        <ele>1516.0</ele>
        <time>2016-03-13T13:03:54Z</time>
      </trkpt>
      <trkpt lat="40.254900" lon="-4.896717">
        <ele>1516.0</ele>
        <time>2016-03-13T13:03:55Z</time>
      </trkpt>
      <trkpt lat="40.254933" lon="-4.896817">
        <ele>1516.0</ele>
        <time>2016-03-13T13:03:56Z</time>
      </trkpt>
      <trkpt lat="40.254967" lon="-4.896900">
        <ele>1517.0</ele>
        <time>2016-03-13T13:03:57Z</time>
      </trkpt>
      <trkpt lat="40.255000" lon="-4.897000">
        <ele>1517.0</ele>
        <time>2016-03-13T13:03:58Z</time>
      </trkpt>
      <trkpt lat="40.255033" lon="-4.897083">
        <ele>1516.0</ele>
        <time>2016-03-13T13:03:59Z</time>
      </trkpt>
      <trkpt lat="40.255067" lon="-4.897183">
        <ele>1515.0</ele>
        <time>2016-03-13T13:04:00Z</time>
      </trkpt>
      <trkpt lat="40.255117" lon="-4.897283">
        <ele>1514.0</ele>
        <time>2016-03-13T13:04:01Z</time>
      </trkpt>
      <trkpt lat="40.255167" lon="-4.897367">
        <ele>1513.0</ele>
        <time>2016-03-13T13:04:02Z</time>
      </trkpt>
      <trkpt lat="40.255217" lon="-4.897467">
        <ele>1512.0</ele>
        <time>2016-03-13T13:04:03Z</time>
      </trkpt>
      <trkpt lat="40.255267" lon="-4.897550">
        <ele>1511.0</ele>
        <time>2016-03-13T13:04:04Z</time>
      </trkpt>
      <trkpt lat="40.255317" lon="-4.897650">
        <ele>1512.0</ele>
        <time>2016-03-13T13:04:05Z</time>
      </trkpt>
      <trkpt lat="40.255367" lon="-4.897750">
        <ele>1512.0</ele>
        <time>2016-03-13T13:04:06Z</time>
      </trkpt>
      <trkpt lat="40.255417" lon="-4.897833">
        <ele>1513.0</ele>
        <time>2016-03-13T13:04:07Z</time>
      </trkpt>
      <trkpt lat="40.255467" lon="-4.897917">
        <ele>1514.0</ele>
        <time>2016-03-13T13:04:08Z</time>
      </trkpt>
      <trkpt lat="40.255517" lon="-4.898000">
        <ele>1514.0</ele>
        <time>2016-03-13T13:04:09Z</time>
      </trkpt>
      <trkpt lat="40.255583" lon="-4.898067">
        <ele>1515.0</ele>
        <time>2016-03-13T13:04:10Z</time>
      </trkpt>
      <trkpt lat="40.255617" lon="-4.898150">
        <ele>1515.0</ele>
        <time>2016-03-13T13:04:11Z</time>
      </trkpt>
      <trkpt lat="40.255650" lon="-4.898233">
        <ele>1516.0</ele>
        <time>2016-03-13T13:04:12Z</time>
      </trkpt>
      <trkpt lat="40.255650" lon="-4.898317">
        <ele>1516.0</ele>
        <time>2016-03-13T13:04:13Z</time>
      </trkpt>
      <trkpt lat="40.255633" lon="-4.898400">
        <ele>1516.0</ele>
        <time>2016-03-13T13:04:14Z</time>
      </trkpt>
      <trkpt lat="40.255600" lon="-4.898500">
        <ele>1515.0</ele>
        <time>2016-03-13T13:04:15Z</time>
      </trkpt>
      <trkpt lat="40.255550" lon="-4.898567">
        <ele>1514.0</ele>
        <time>2016-03-13T13:04:16Z</time>
      </trkpt>
      <trkpt lat="40.255483" lon="-4.898633">
        <ele>1514.0</ele>
        <time>2016-03-13T13:04:17Z</time>
      </trkpt>
      <trkpt lat="40.255417" lon="-4.898667">
        <ele>1515.0</ele>
        <time>2016-03-13T13:04:18Z</time>
      </trkpt>
      <trkpt lat="40.255333" lon="-4.898683">
        <ele>1516.0</ele>
        <time>2016-03-13T13:04:19Z</time>
      </trkpt>
      <trkpt lat="40.255267" lon="-4.898717">
        <ele>1517.0</ele>
        <time>2016-03-13T13:04:20Z</time>
      </trkpt>
      <trkpt lat="40.255217" lon="-4.898733">
        <ele>1517.0</ele>
        <time>2016-03-13T13:04:21Z</time>
      </trkpt>
      <trkpt lat="40.255133" lon="-4.898750">
        <ele>1516.0</ele>
        <time>2016-03-13T13:04:22Z</time>
      </trkpt>
      <trkpt lat="40.255050" lon="-4.898750">
        <ele>1515.0</ele>
        <time>2016-03-13T13:04:23Z</time>
      </trkpt>
      <trkpt lat="40.254950" lon="-4.898717">
        <ele>1514.0</ele>
        <time>2016-03-13T13:04:24Z</time>
      </trkpt>
      <trkpt lat="40.254867" lon="-4.898667">
        <ele>1513.0</ele>
        <time>2016-03-13T13:04:25Z</time>
      </trkpt>
      <trkpt lat="40.254767" lon="-4.898583">
        <ele>1512.0</ele>
        <time>2016-03-13T13:04:26Z</time>
      </trkpt>
      <trkpt lat="40.254700" lon="-4.898483">
        <ele>1512.0</ele>
        <time>2016-03-13T13:04:27Z</time>
      </trkpt>
      <trkpt lat="40.254617" lon="-4.898383">
        <ele>1513.0</ele>
        <time>2016-03-13T13:04:28Z</time>
      </trkpt>
      <trkpt lat="40.254550" lon="-4.898267">
        <ele>1514.0</ele>
        <time>2016-03-13T13:04:29Z</time>
      </trkpt>
      <trkpt lat="40.254483" lon="-4.898167">
        <ele>1516.0</ele>
        <time>2016-03-13T13:04:30Z</time>
      </trkpt>
      <trkpt lat="40.254417" lon="-4.898083">
        <ele>1518.0</ele>
        <time>2016-03-13T13:04:31Z</time>
      </trkpt>
      <trkpt lat="40.254383" lon="-4.898000">
        <ele>1520.0</ele>
        <time>2016-03-13T13:04:32Z</time>
      </trkpt>
      <trkpt lat="40.254350" lon="-4.897900">
        <ele>1522.0</ele>
        <time>2016-03-13T13:04:33Z</time>
      </trkpt>
      <trkpt lat="40.254333" lon="-4.897783">
        <ele>1522.0</ele>
        <time>2016-03-13T13:04:34Z</time>
      </trkpt>
      <trkpt lat="40.254333" lon="-4.897667">
        <ele>1522.0</ele>
        <time>2016-03-13T13:04:35Z</time>
      </trkpt>
      <trkpt lat="40.254367" lon="-4.897533">
        <ele>1522.0</ele>
        <time>2016-03-13T13:04:36Z</time>
      </trkpt>
      <trkpt lat="40.254417" lon="-4.897417">
        <ele>1521.0</ele>
        <time>2016-03-13T13:04:37Z</time>
      </trkpt>
      <trkpt lat="40.254483" lon="-4.897300">
        <ele>1521.0</ele>
        <time>2016-03-13T13:04:38Z</time>
      </trkpt>
      <trkpt lat="40.254567" lon="-4.897183">
        <ele>1520.0</ele>
        <time>2016-03-13T13:04:39Z</time>
      </trkpt>
      <trkpt lat="40.254667" lon="-4.897083">
        <ele>1520.0</ele>
        <time>2016-03-13T13:04:40Z</time>
      </trkpt>
      <trkpt lat="40.254750" lon="-4.897000">
        <ele>1521.0</ele>
        <time>2016-03-13T13:04:41Z</time>
      </trkpt>
      <trkpt lat="40.254817" lon="-4.896917">
        <ele>1521.0</ele>
        <time>2016-03-13T13:04:42Z</time>
      </trkpt>
      <trkpt lat="40.254900" lon="-4.896867">
        <ele>1522.0</ele>
        <time>2016-03-13T13:04:43Z</time>
      </trkpt>
      <trkpt lat="40.255000" lon="-4.896800">
        <ele>1521.0</ele>
        <time>2016-03-13T13:04:44Z</time>
      </trkpt>
      <trkpt lat="40.255100" lon="-4.896733">
        <ele>1520.0</ele>
        <time>2016-03-13T13:04:45Z</time>
      </trkpt>
      <trkpt lat="40.255217" lon="-4.896667">
        <ele>1520.0</ele>
        <time>2016-03-13T13:04:46Z</time>
      </trkpt>
      <trkpt lat="40.255317" lon="-4.896600">
        <ele>1521.0</ele>
        <time>2016-03-13T13:04:47Z</time>
      </trkpt>
      <trkpt lat="40.255417" lon="-4.896533">
        <ele>1523.0</ele>
        <time>2016-03-13T13:04:48Z</time>
      </trkpt>
      <trkpt lat="40.255483" lon="-4.896467">
        <ele>1525.0</ele>
        <time>2016-03-13T13:04:49Z</time>
      </trkpt>
      <trkpt lat="40.255567" lon="-4.896417">
        <ele>1526.0</ele>
        <time>2016-03-13T13:04:50Z</time>
      </trkpt>
      <trkpt lat="40.255650" lon="-4.896367">
        <ele>1526.0</ele>
        <time>2016-03-13T13:04:51Z</time>
      </trkpt>
      <trkpt lat="40.255750" lon="-4.896300">
        <ele>1524.0</ele>
        <time>2016-03-13T13:04:52Z</time>
      </trkpt>
      <trkpt lat="40.255833" lon="-4.896233">
        <ele>1523.0</ele>
        <time>2016-03-13T13:04:53Z</time>
      </trkpt>
      <trkpt lat="40.255933" lon="-4.896167">
        <ele>1523.0</ele>
        <time>2016-03-13T13:04:54Z</time>
      </trkpt>
      <trkpt lat="40.256017" lon="-4.896150">
        <ele>1523.0</ele>
        <time>2016-03-13T13:04:55Z</time>
      </trkpt>
      <trkpt lat="40.256117" lon="-4.896150">
        <ele>1523.0</ele>
        <time>2016-03-13T13:04:56Z</time>
      </trkpt>
      <trkpt lat="40.256217" lon="-4.896150">
        <ele>1523.0</ele>
        <time>2016-03-13T13:04:57Z</time>
      </trkpt>
      <trkpt lat="40.256317" lon="-4.896133">
        <ele>1523.0</ele>
        <time>2016-03-13T13:04:58Z</time>
      </trkpt>
      <trkpt lat="40.256400" lon="-4.896117">
        <ele>1523.0</ele>
        <time>2016-03-13T13:04:59Z</time>
      </trkpt>
      <trkpt lat="40.256483" lon="-4.896067">
        <ele>1522.0</ele>
        <time>2016-03-13T13:05:00Z</time>
      </trkpt>
      <trkpt lat="40.256567" lon="-4.896033">
        <ele>1521.0</ele>
        <time>2016-03-13T13:05:01Z</time>
      </trkpt>
      <trkpt lat="40.256667" lon="-4.896017">
        <ele>1520.0</ele>
        <time>2016-03-13T13:05:02Z</time>
      </trkpt>
      <trkpt lat="40.256750" lon="-4.896033">
        <ele>1517.0</ele>
        <time>2016-03-13T13:05:03Z</time>
      </trkpt>
      <trkpt lat="40.256850" lon="-4.896100">
        <ele>1516.0</ele>
        <time>2016-03-13T13:05:04Z</time>
      </trkpt>
      <trkpt lat="40.256933" lon="-4.896200">
        <ele>1514.0</ele>
        <time>2016-03-13T13:05:05Z</time>
      </trkpt>
      <trkpt lat="40.256983" lon="-4.896317">
        <ele>1514.0</ele>
        <time>2016-03-13T13:05:06Z</time>
      </trkpt>
      <trkpt lat="40.257033" lon="-4.896433">
        <ele>1514.0</ele>
        <time>2016-03-13T13:05:07Z</time>
      </trkpt>
      <trkpt lat="40.257083" lon="-4.896567">
        <ele>1514.0</ele>
        <time>2016-03-13T13:05:08Z</time>
      </trkpt>
      <trkpt lat="40.257133" lon="-4.896683">
        <ele>1515.0</ele>
        <time>2016-03-13T13:05:09Z</time>
      </trkpt>
      <trkpt lat="40.257167" lon="-4.896800">
        <ele>1515.0</ele>
        <time>2016-03-13T13:05:10Z</time>
      </trkpt>
      <trkpt lat="40.257200" lon="-4.896917">
        <ele>1514.0</ele>
        <time>2016-03-13T13:05:11Z</time>
      </trkpt>
      <trkpt lat="40.257233" lon="-4.897050">
        <ele>1513.0</ele>
        <time>2016-03-13T13:05:12Z</time>
      </trkpt>
      <trkpt lat="40.257267" lon="-4.897183">
        <ele>1512.0</ele>
        <time>2016-03-13T13:05:13Z</time>
      </trkpt>
      <trkpt lat="40.257300" lon="-4.897317">
        <ele>1512.0</ele>
        <time>2016-03-13T13:05:14Z</time>
      </trkpt>
      <trkpt lat="40.257317" lon="-4.897433">
        <ele>1513.0</ele>
        <time>2016-03-13T13:05:15Z</time>
      </trkpt>
      <trkpt lat="40.257333" lon="-4.897550">
        <ele>1513.0</ele>
        <time>2016-03-13T13:05:16Z</time>
      </trkpt>
      <trkpt lat="40.257350" lon="-4.897650">
        <ele>1514.0</ele>
        <time>2016-03-13T13:05:17Z</time>
      </trkpt>
      <trkpt lat="40.257383" lon="-4.897750">
        <ele>1513.0</ele>
        <time>2016-03-13T13:05:18Z</time>
      </trkpt>
      <trkpt lat="40.257433" lon="-4.897850">
        <ele>1513.0</ele>
        <time>2016-03-13T13:05:19Z</time>
      </trkpt>
      <trkpt lat="40.257500" lon="-4.897917">
        <ele>1512.0</ele>
        <time>2016-03-13T13:05:20Z</time>
      </trkpt>
      <trkpt lat="40.257583" lon="-4.897967">
        <ele>1512.0</ele>
        <time>2016-03-13T13:05:21Z</time>
      </trkpt>
      <trkpt lat="40.257667" lon="-4.898000">
        <ele>1512.0</ele>
        <time>2016-03-13T13:05:22Z</time>
      </trkpt>
      <trkpt lat="40.257750" lon="-4.898033">
        <ele>1511.0</ele>
        <time>2016-03-13T13:05:23Z</time>
      </trkpt>
      <trkpt lat="40.257850" lon="-4.898033">
        <ele>1509.0</ele>
        <time>2016-03-13T13:05:24Z</time>
      </trkpt>
      <trkpt lat="40.257950" lon="-4.898050">
        <ele>1508.0</ele>
        <time>2016-03-13T13:05:25Z</time>
      </trkpt>
      <trkpt lat="40.258067" lon="-4.898033">
        <ele>1507.0</ele>
        <time>2016-03-13T13:05:26Z</time>
      </trkpt>
      <trkpt lat="40.258183" lon="-4.898000">
        <ele>1507.0</ele>
        <time>2016-03-13T13:05:27Z</time>
      </trkpt>
      <trkpt lat="40.258300" lon="-4.897983">
        <ele>1506.0</ele>
        <time>2016-03-13T13:05:28Z</time>
      </trkpt>
      <trkpt lat="40.258400" lon="-4.897950">
        <ele>1505.0</ele>
        <time>2016-03-13T13:05:29Z</time>
      </trkpt>
      <trkpt lat="40.258517" lon="-4.897917">
        <ele>1504.0</ele>
        <time>2016-03-13T13:05:30Z</time>
      </trkpt>
      <trkpt lat="40.258633" lon="-4.897883">
        <ele>1504.0</ele>
        <time>2016-03-13T13:05:31Z</time>
      </trkpt>
      <trkpt lat="40.258750" lon="-4.897850">
        <ele>1503.0</ele>
        <time>2016-03-13T13:05:32Z</time>
      </trkpt>
      <trkpt lat="40.258850" lon="-4.897833">
        <ele>1503.0</ele>
        <time>2016-03-13T13:05:33Z</time>
      </trkpt>
      <trkpt lat="40.258983" lon="-4.897817">
        <ele>1502.0</ele>
        <time>2016-03-13T13:05:34Z</time>
      </trkpt>
      <trkpt lat="40.259100" lon="-4.897817">
        <ele>1502.0</ele>
        <time>2016-03-13T13:05:35Z</time>
      </trkpt>
      <trkpt lat="40.259217" lon="-4.897817">
        <ele>1502.0</ele>
        <time>2016-03-13T13:05:36Z</time>
      </trkpt>
      <trkpt lat="40.259350" lon="-4.897817">
        <ele>1502.0</ele>
        <time>2016-03-13T13:05:37Z</time>
      </trkpt>
      <trkpt lat="40.259467" lon="-4.897800">
        <ele>1502.0</ele>
        <time>2016-03-13T13:05:38Z</time>
      </trkpt>
      <trkpt lat="40.259600" lon="-4.897767">
        <ele>1502.0</ele>
        <time>2016-03-13T13:05:39Z</time>
      </trkpt>
      <trkpt lat="40.259717" lon="-4.897717">
        <ele>1502.0</ele>
        <time>2016-03-13T13:05:40Z</time>
      </trkpt>
      <trkpt lat="40.259833" lon="-4.897683">
        <ele>1502.0</ele>
        <time>2016-03-13T13:05:41Z</time>
      </trkpt>
      <trkpt lat="40.259950" lon="-4.897633">
        <ele>1502.0</ele>
        <time>2016-03-13T13:05:42Z</time>
      </trkpt>
      <trkpt lat="40.260067" lon="-4.897567">
        <ele>1503.0</ele>
        <time>2016-03-13T13:05:43Z</time>
      </trkpt>
      <trkpt lat="40.260167" lon="-4.897500">
        <ele>1503.0</ele>
        <time>2016-03-13T13:05:44Z</time>
      </trkpt>
      <trkpt lat="40.260250" lon="-4.897450">
        <ele>1503.0</ele>
        <time>2016-03-13T13:05:45Z</time>
      </trkpt>
      <trkpt lat="40.260333" lon="-4.897383">
        <ele>1502.0</ele>
        <time>2016-03-13T13:05:46Z</time>
      </trkpt>
      <trkpt lat="40.260400" lon="-4.897317">
        <ele>1500.0</ele>
        <time>2016-03-13T13:05:47Z</time>
      </trkpt>
      <trkpt lat="40.260483" lon="-4.897233">
        <ele>1498.0</ele>
        <time>2016-03-13T13:05:48Z</time>
      </trkpt>
      <trkpt lat="40.260567" lon="-4.897150">
        <ele>1497.0</ele>
        <time>2016-03-13T13:05:49Z</time>
      </trkpt>
      <trkpt lat="40.260650" lon="-4.897067">
        <ele>1496.0</ele>
        <time>2016-03-13T13:05:50Z</time>
      </trkpt>
      <trkpt lat="40.260733" lon="-4.896967">
        <ele>1495.0</ele>
        <time>2016-03-13T13:05:51Z</time>
      </trkpt>
      <trkpt lat="40.260800" lon="-4.896883">
        <ele>1494.0</ele>
        <time>2016-03-13T13:05:52Z</time>
      </trkpt>
      <trkpt lat="40.260883" lon="-4.896783">
        <ele>1493.0</ele>
        <time>2016-03-13T13:05:53Z</time>
      </trkpt>
      <trkpt lat="40.260967" lon="-4.896700">
        <ele>1492.0</ele>
        <time>2016-03-13T13:05:54Z</time>
      </trkpt>
      <trkpt lat="40.261050" lon="-4.896600">
        <ele>1491.0</ele>
        <time>2016-03-13T13:05:55Z</time>
      </trkpt>
      <trkpt lat="40.261117" lon="-4.896483">
        <ele>1490.0</ele>
        <time>2016-03-13T13:05:56Z</time>
      </trkpt>
      <trkpt lat="40.261183" lon="-4.896383">
        <ele>1489.0</ele>
        <time>2016-03-13T13:05:57Z</time>
      </trkpt>
      <trkpt lat="40.261250" lon="-4.896267">
        <ele>1489.0</ele>
        <time>2016-03-13T13:05:58Z</time>
      </trkpt>
      <trkpt lat="40.261333" lon="-4.896167">
        <ele>1488.0</ele>
        <time>2016-03-13T13:05:59Z</time>
      </trkpt>
      <trkpt lat="40.261417" lon="-4.896050">
        <ele>1487.0</ele>
        <time>2016-03-13T13:06:00Z</time>
      </trkpt>
      <trkpt lat="40.261483" lon="-4.895933">
        <ele>1486.0</ele>
        <time>2016-03-13T13:06:01Z</time>
      </trkpt>
      <trkpt lat="40.261567" lon="-4.895817">
        <ele>1486.0</ele>
        <time>2016-03-13T13:06:02Z</time>
      </trkpt>
      <trkpt lat="40.261633" lon="-4.895683">
        <ele>1487.0</ele>
        <time>2016-03-13T13:06:03Z</time>
      </trkpt>
      <trkpt lat="40.261717" lon="-4.895567">
        <ele>1487.0</ele>
        <time>2016-03-13T13:06:04Z</time>
      </trkpt>
      <trkpt lat="40.261783" lon="-4.895467">
        <ele>1488.0</ele>
        <time>2016-03-13T13:06:05Z</time>
      </trkpt>
      <trkpt lat="40.261833" lon="-4.895383">
        <ele>1488.0</ele>
        <time>2016-03-13T13:06:06Z</time>
      </trkpt>
      <trkpt lat="40.261900" lon="-4.895300">
        <ele>1489.0</ele>
        <time>2016-03-13T13:06:07Z</time>
      </trkpt>
      <trkpt lat="40.261967" lon="-4.895200">
        <ele>1488.0</ele>
        <time>2016-03-13T13:06:08Z</time>
      </trkpt>
      <trkpt lat="40.262050" lon="-4.895117">
        <ele>1487.0</ele>
        <time>2016-03-13T13:06:09Z</time>
      </trkpt>
      <trkpt lat="40.262117" lon="-4.895000">
        <ele>1487.0</ele>
        <time>2016-03-13T13:06:10Z</time>
      </trkpt>
      <trkpt lat="40.262200" lon="-4.894900">
        <ele>1486.0</ele>
        <time>2016-03-13T13:06:11Z</time>
      </trkpt>
      <trkpt lat="40.262283" lon="-4.894783">
        <ele>1485.0</ele>
        <time>2016-03-13T13:06:12Z</time>
      </trkpt>
      <trkpt lat="40.262350" lon="-4.894683">
        <ele>1485.0</ele>
        <time>2016-03-13T13:06:13Z</time>
      </trkpt>
      <trkpt lat="40.262433" lon="-4.894567">
        <ele>1485.0</ele>
        <time>2016-03-13T13:06:14Z</time>
      </trkpt>
      <trkpt lat="40.262500" lon="-4.894467">
        <ele>1484.0</ele>
        <time>2016-03-13T13:06:15Z</time>
      </trkpt>
      <trkpt lat="40.262583" lon="-4.894367">
        <ele>1483.0</ele>
        <time>2016-03-13T13:06:16Z</time>
      </trkpt>
      <trkpt lat="40.262667" lon="-4.894250">
        <ele>1482.0</ele>
        <time>2016-03-13T13:06:17Z</time>
      </trkpt>
      <trkpt lat="40.262750" lon="-4.894133">
        <ele>1481.0</ele>
        <time>2016-03-13T13:06:18Z</time>
      </trkpt>
      <trkpt lat="40.262833" lon="-4.894050">
        <ele>1481.0</ele>
        <time>2016-03-13T13:06:19Z</time>
      </trkpt>
      <trkpt lat="40.262917" lon="-4.893967">
        <ele>1480.0</ele>
        <time>2016-03-13T13:06:20Z</time>
      </trkpt>
      <trkpt lat="40.263017" lon="-4.893883">
        <ele>1479.0</ele>
        <time>2016-03-13T13:06:21Z</time>
      </trkpt>
      <trkpt lat="40.263100" lon="-4.893800">
        <ele>1477.0</ele>
        <time>2016-03-13T13:06:22Z</time>
      </trkpt>
      <trkpt lat="40.263183" lon="-4.893717">
        <ele>1475.0</ele>
        <time>2016-03-13T13:06:23Z</time>
      </trkpt>
      <trkpt lat="40.263267" lon="-4.893600">
        <ele>1473.0</ele>
        <time>2016-03-13T13:06:24Z</time>
      </trkpt>
      <trkpt lat="40.263367" lon="-4.893500">
        <ele>1471.0</ele>
        <time>2016-03-13T13:06:25Z</time>
      </trkpt>
      <trkpt lat="40.263450" lon="-4.893400">
        <ele>1470.0</ele>
        <time>2016-03-13T13:06:26Z</time>
      </trkpt>
      <trkpt lat="40.263550" lon="-4.893317">
        <ele>1470.0</ele>
        <time>2016-03-13T13:06:27Z</time>
      </trkpt>
      <trkpt lat="40.263633" lon="-4.893217">
        <ele>1470.0</ele>
        <time>2016-03-13T13:06:28Z</time>
      </trkpt>
      <trkpt lat="40.263700" lon="-4.893100">
        <ele>1469.0</ele>
        <time>2016-03-13T13:06:29Z</time>
      </trkpt>
      <trkpt lat="40.263750" lon="-4.892967">
        <ele>1467.0</ele>
        <time>2016-03-13T13:06:30Z</time>
      </trkpt>
      <trkpt lat="40.263800" lon="-4.892833">
        <ele>1466.0</ele>
        <time>2016-03-13T13:06:31Z</time>
      </trkpt>
      <trkpt lat="40.263833" lon="-4.892683">
        <ele>1464.0</ele>
        <time>2016-03-13T13:06:32Z</time>
      </trkpt>
      <trkpt lat="40.263883" lon="-4.892567">
        <ele>1463.0</ele>
        <time>2016-03-13T13:06:33Z</time>
      </trkpt>
      <trkpt lat="40.263933" lon="-4.892433">
        <ele>1461.0</ele>
        <time>2016-03-13T13:06:34Z</time>
      </trkpt>
      <trkpt lat="40.263983" lon="-4.892317">
        <ele>1460.0</ele>
        <time>2016-03-13T13:06:35Z</time>
      </trkpt>
      <trkpt lat="40.264017" lon="-4.892167">
        <ele>1458.0</ele>
        <time>2016-03-13T13:06:36Z</time>
      </trkpt>
      <trkpt lat="40.264067" lon="-4.892033">
        <ele>1457.0</ele>
        <time>2016-03-13T13:06:37Z</time>
      </trkpt>
      <trkpt lat="40.264100" lon="-4.891900">
        <ele>1457.0</ele>
        <time>2016-03-13T13:06:38Z</time>
      </trkpt>
      <trkpt lat="40.264150" lon="-4.891783">
        <ele>1456.0</ele>
        <time>2016-03-13T13:06:39Z</time>
      </trkpt>
      <trkpt lat="40.264200" lon="-4.891667">
        <ele>1455.0</ele>
        <time>2016-03-13T13:06:40Z</time>
      </trkpt>
      <trkpt lat="40.264250" lon="-4.891550">
        <ele>1453.0</ele>
        <time>2016-03-13T13:06:41Z</time>
      </trkpt>
      <trkpt lat="40.264317" lon="-4.891433">
        <ele>1452.0</ele>
        <time>2016-03-13T13:06:42Z</time>
      </trkpt>
      <trkpt lat="40.264383" lon="-4.891317">
        <ele>1451.0</ele>
        <time>2016-03-13T13:06:43Z</time>
      </trkpt>
      <trkpt lat="40.264467" lon="-4.891217">
        <ele>1450.0</ele>
        <time>2016-03-13T13:06:44Z</time>
      </trkpt>
      <trkpt lat="40.264533" lon="-4.891117">
        <ele>1449.0</ele>
        <time>2016-03-13T13:06:45Z</time>
      </trkpt>
      <trkpt lat="40.264600" lon="-4.891017">
        <ele>1447.0</ele>
        <time>2016-03-13T13:06:46Z</time>
      </trkpt>
      <trkpt lat="40.264667" lon="-4.890917">
        <ele>1445.0</ele>
        <time>2016-03-13T13:06:47Z</time>
      </trkpt>
      <trkpt lat="40.264750" lon="-4.890800">
        <ele>1443.0</ele>
        <time>2016-03-13T13:06:48Z</time>
      </trkpt>
      <trkpt lat="40.264817" lon="-4.890683">
        <ele>1441.0</ele>
        <time>2016-03-13T13:06:49Z</time>
      </trkpt>
      <trkpt lat="40.264883" lon="-4.890583">
        <ele>1439.0</ele>
        <time>2016-03-13T13:06:50Z</time>
      </trkpt>
      <trkpt lat="40.264967" lon="-4.890467">
        <ele>1437.0</ele>
        <time>2016-03-13T13:06:51Z</time>
      </trkpt>
      <trkpt lat="40.265033" lon="-4.890350">
        <ele>1435.0</ele>
        <time>2016-03-13T13:06:52Z</time>
      </trkpt>
      <trkpt lat="40.265100" lon="-4.890250">
        <ele>1434.0</ele>
        <time>2016-03-13T13:06:53Z</time>
      </trkpt>
      <trkpt lat="40.265167" lon="-4.890150">
        <ele>1431.0</ele>
        <time>2016-03-13T13:06:54Z</time>
      </trkpt>
      <trkpt lat="40.265250" lon="-4.890033">
        <ele>1428.0</ele>
        <time>2016-03-13T13:06:55Z</time>
      </trkpt>
      <trkpt lat="40.265300" lon="-4.889900">
        <ele>1425.0</ele>
        <time>2016-03-13T13:06:56Z</time>
      </trkpt>
      <trkpt lat="40.265367" lon="-4.889767">
        <ele>1423.0</ele>
        <time>2016-03-13T13:06:57Z</time>
      </trkpt>
      <trkpt lat="40.265417" lon="-4.889633">
        <ele>1422.0</ele>
        <time>2016-03-13T13:06:58Z</time>
      </trkpt>
      <trkpt lat="40.265467" lon="-4.889500">
        <ele>1420.0</ele>
        <time>2016-03-13T13:06:59Z</time>
      </trkpt>
      <trkpt lat="40.265517" lon="-4.889383">
        <ele>1419.0</ele>
        <time>2016-03-13T13:07:00Z</time>
      </trkpt>
      <trkpt lat="40.265567" lon="-4.889250">
        <ele>1417.0</ele>
        <time>2016-03-13T13:07:01Z</time>
      </trkpt>
      <trkpt lat="40.265617" lon="-4.889133">
        <ele>1414.0</ele>
        <time>2016-03-13T13:07:02Z</time>
      </trkpt>
      <trkpt lat="40.265683" lon="-4.889000">
        <ele>1412.0</ele>
        <time>2016-03-13T13:07:03Z</time>
      </trkpt>
      <trkpt lat="40.265733" lon="-4.888867">
        <ele>1410.0</ele>
        <time>2016-03-13T13:07:04Z</time>
      </trkpt>
      <trkpt lat="40.265800" lon="-4.888733">
        <ele>1408.0</ele>
        <time>2016-03-13T13:07:05Z</time>
      </trkpt>
      <trkpt lat="40.265850" lon="-4.888617">
        <ele>1407.0</ele>
        <time>2016-03-13T13:07:06Z</time>
      </trkpt>
      <trkpt lat="40.265900" lon="-4.888500">
        <ele>1406.0</ele>
        <time>2016-03-13T13:07:07Z</time>
      </trkpt>
      <trkpt lat="40.265950" lon="-4.888383">
        <ele>1405.0</ele>
        <time>2016-03-13T13:07:08Z</time>
      </trkpt>
      <trkpt lat="40.266000" lon="-4.888267">
        <ele>1403.0</ele>
        <time>2016-03-13T13:07:09Z</time>
      </trkpt>
      <trkpt lat="40.266050" lon="-4.888150">
        <ele>1401.0</ele>
        <time>2016-03-13T13:07:10Z</time>
      </trkpt>
      <trkpt lat="40.266133" lon="-4.888033">
        <ele>1399.0</ele>
        <time>2016-03-13T13:07:11Z</time>
      </trkpt>
      <trkpt lat="40.266200" lon="-4.887933">
        <ele>1397.0</ele>
        <time>2016-03-13T13:07:12Z</time>
      </trkpt>
      <trkpt lat="40.266283" lon="-4.887833">
        <ele>1396.0</ele>
        <time>2016-03-13T13:07:13Z</time>
      </trkpt>
      <trkpt lat="40.266350" lon="-4.887717">
        <ele>1395.0</ele>
        <time>2016-03-13T13:07:14Z</time>
      </trkpt>
      <trkpt lat="40.266417" lon="-4.887617">
        <ele>1394.0</ele>
        <time>2016-03-13T13:07:15Z</time>
      </trkpt>
      <trkpt lat="40.266500" lon="-4.887517">
        <ele>1392.0</ele>
        <time>2016-03-13T13:07:16Z</time>
      </trkpt>
      <trkpt lat="40.266583" lon="-4.887417">
        <ele>1390.0</ele>
        <time>2016-03-13T13:07:17Z</time>
      </trkpt>
      <trkpt lat="40.266667" lon="-4.887317">
        <ele>1389.0</ele>
        <time>2016-03-13T13:07:18Z</time>
      </trkpt>
      <trkpt lat="40.266750" lon="-4.887217">
        <ele>1388.0</ele>
        <time>2016-03-13T13:07:19Z</time>
      </trkpt>
      <trkpt lat="40.266850" lon="-4.887133">
        <ele>1387.0</ele>
        <time>2016-03-13T13:07:20Z</time>
      </trkpt>
      <trkpt lat="40.266933" lon="-4.887033">
        <ele>1385.0</ele>
        <time>2016-03-13T13:07:21Z</time>
      </trkpt>
      <trkpt lat="40.267017" lon="-4.886967">
        <ele>1384.0</ele>
        <time>2016-03-13T13:07:22Z</time>
      </trkpt>
      <trkpt lat="40.267117" lon="-4.886900">
        <ele>1382.0</ele>
        <time>2016-03-13T13:07:23Z</time>
      </trkpt>
      <trkpt lat="40.267217" lon="-4.886850">
        <ele>1379.0</ele>
        <time>2016-03-13T13:07:24Z</time>
      </trkpt>
      <trkpt lat="40.267333" lon="-4.886783">
        <ele>1378.0</ele>
        <time>2016-03-13T13:07:25Z</time>
      </trkpt>
      <trkpt lat="40.267433" lon="-4.886717">
        <ele>1376.0</ele>
        <time>2016-03-13T13:07:26Z</time>
      </trkpt>
      <trkpt lat="40.267533" lon="-4.886633">
        <ele>1375.0</ele>
        <time>2016-03-13T13:07:27Z</time>
      </trkpt>
      <trkpt lat="40.267633" lon="-4.886550">
        <ele>1374.0</ele>
        <time>2016-03-13T13:07:28Z</time>
      </trkpt>
      <trkpt lat="40.267717" lon="-4.886483">
        <ele>1373.0</ele>
        <time>2016-03-13T13:07:29Z</time>
      </trkpt>
      <trkpt lat="40.267817" lon="-4.886417">
        <ele>1371.0</ele>
        <time>2016-03-13T13:07:30Z</time>
      </trkpt>
      <trkpt lat="40.267917" lon="-4.886333">
        <ele>1368.0</ele>
        <time>2016-03-13T13:07:31Z</time>
      </trkpt>
      <trkpt lat="40.268000" lon="-4.886250">
        <ele>1366.0</ele>
        <time>2016-03-13T13:07:32Z</time>
      </trkpt>
      <trkpt lat="40.268083" lon="-4.886133">
        <ele>1364.0</ele>
        <time>2016-03-13T13:07:33Z</time>
      </trkpt>
      <trkpt lat="40.268167" lon="-4.886033">
        <ele>1363.0</ele>
        <time>2016-03-13T13:07:34Z</time>
      </trkpt>
      <trkpt lat="40.268250" lon="-4.885933">
        <ele>1362.0</ele>
        <time>2016-03-13T13:07:35Z</time>
      </trkpt>
      <trkpt lat="40.268333" lon="-4.885833">
        <ele>1360.0</ele>
        <time>2016-03-13T13:07:36Z</time>
      </trkpt>
      <trkpt lat="40.268417" lon="-4.885717">
        <ele>1359.0</ele>
        <time>2016-03-13T13:07:37Z</time>
      </trkpt>
      <trkpt lat="40.268500" lon="-4.885617">
        <ele>1358.0</ele>
        <time>2016-03-13T13:07:38Z</time>
      </trkpt>
      <trkpt lat="40.268583" lon="-4.885517">
        <ele>1358.0</ele>
        <time>2016-03-13T13:07:39Z</time>
      </trkpt>
      <trkpt lat="40.268650" lon="-4.885417">
        <ele>1357.0</ele>
        <time>2016-03-13T13:07:40Z</time>
      </trkpt>
      <trkpt lat="40.268733" lon="-4.885333">
        <ele>1356.0</ele>
        <time>2016-03-13T13:07:41Z</time>
      </trkpt>
      <trkpt lat="40.268817" lon="-4.885250">
        <ele>1354.0</ele>
        <time>2016-03-13T13:07:42Z</time>
      </trkpt>
      <trkpt lat="40.268900" lon="-4.885167">
        <ele>1351.0</ele>
        <time>2016-03-13T13:07:43Z</time>
      </trkpt>
      <trkpt lat="40.269000" lon="-4.885083">
        <ele>1349.0</ele>
        <time>2016-03-13T13:07:44Z</time>
      </trkpt>
      <trkpt lat="40.269100" lon="-4.885017">
        <ele>1347.0</ele>
        <time>2016-03-13T13:07:45Z</time>
      </trkpt>
      <trkpt lat="40.269200" lon="-4.884950">
        <ele>1346.0</ele>
        <time>2016-03-13T13:07:46Z</time>
      </trkpt>
      <trkpt lat="40.269300" lon="-4.884883">
        <ele>1345.0</ele>
        <time>2016-03-13T13:07:47Z</time>
      </trkpt>
      <trkpt lat="40.269400" lon="-4.884817">
        <ele>1343.0</ele>
        <time>2016-03-13T13:07:48Z</time>
      </trkpt>
      <trkpt lat="40.269483" lon="-4.884750">
        <ele>1342.0</ele>
        <time>2016-03-13T13:07:49Z</time>
      </trkpt>
      <trkpt lat="40.269583" lon="-4.884683">
        <ele>1340.0</ele>
        <time>2016-03-13T13:07:50Z</time>
      </trkpt>
      <trkpt lat="40.269683" lon="-4.884617">
        <ele>1339.0</ele>
        <time>2016-03-13T13:07:51Z</time>
      </trkpt>
      <trkpt lat="40.269783" lon="-4.884567">
        <ele>1338.0</ele>
        <time>2016-03-13T13:07:52Z</time>
      </trkpt>
      <trkpt lat="40.269883" lon="-4.884500">
        <ele>1337.0</ele>
        <time>2016-03-13T13:07:53Z</time>
      </trkpt>
      <trkpt lat="40.269983" lon="-4.884433">
        <ele>1336.0</ele>
        <time>2016-03-13T13:07:54Z</time>
      </trkpt>
      <trkpt lat="40.270083" lon="-4.884367">
        <ele>1335.0</ele>
        <time>2016-03-13T13:07:55Z</time>
      </trkpt>
      <trkpt lat="40.270167" lon="-4.884283">
        <ele>1334.0</ele>
        <time>2016-03-13T13:07:56Z</time>
      </trkpt>
      <trkpt lat="40.270267" lon="-4.884217">
        <ele>1333.0</ele>
        <time>2016-03-13T13:07:57Z</time>
      </trkpt>
      <trkpt lat="40.270383" lon="-4.884150">
        <ele>1333.0</ele>
        <time>2016-03-13T13:07:58Z</time>
      </trkpt>
      <trkpt lat="40.270483" lon="-4.884083">
        <ele>1332.0</ele>
        <time>2016-03-13T13:07:59Z</time>
      </trkpt>
      <trkpt lat="40.270583" lon="-4.884017">
        <ele>1331.0</ele>
        <time>2016-03-13T13:08:00Z</time>
      </trkpt>
      <trkpt lat="40.270683" lon="-4.883933">
        <ele>1329.0</ele>
        <time>2016-03-13T13:08:01Z</time>
      </trkpt>
      <trkpt lat="40.270783" lon="-4.883850">
        <ele>1327.0</ele>
        <time>2016-03-13T13:08:02Z</time>
      </trkpt>
      <trkpt lat="40.270883" lon="-4.883783">
        <ele>1326.0</ele>
        <time>2016-03-13T13:08:03Z</time>
      </trkpt>
      <trkpt lat="40.270983" lon="-4.883733">
        <ele>1325.0</ele>
        <time>2016-03-13T13:08:04Z</time>
      </trkpt>
      <trkpt lat="40.271100" lon="-4.883700">
        <ele>1323.0</ele>
        <time>2016-03-13T13:08:05Z</time>
      </trkpt>
      <trkpt lat="40.271200" lon="-4.883633">
        <ele>1321.0</ele>
        <time>2016-03-13T13:08:06Z</time>
      </trkpt>
      <trkpt lat="40.271317" lon="-4.883583">
        <ele>1320.0</ele>
        <time>2016-03-13T13:08:07Z</time>
      </trkpt>
      <trkpt lat="40.271433" lon="-4.883533">
        <ele>1319.0</ele>
        <time>2016-03-13T13:08:08Z</time>
      </trkpt>
      <trkpt lat="40.271550" lon="-4.883500">
        <ele>1319.0</ele>
        <time>2016-03-13T13:08:09Z</time>
      </trkpt>
      <trkpt lat="40.271667" lon="-4.883467">
        <ele>1319.0</ele>
        <time>2016-03-13T13:08:10Z</time>
      </trkpt>
      <trkpt lat="40.271767" lon="-4.883433">
        <ele>1319.0</ele>
        <time>2016-03-13T13:08:11Z</time>
      </trkpt>
      <trkpt lat="40.271867" lon="-4.883400">
        <ele>1318.0</ele>
        <time>2016-03-13T13:08:12Z</time>
      </trkpt>
      <trkpt lat="40.271983" lon="-4.883350">
        <ele>1317.0</ele>
        <time>2016-03-13T13:08:13Z</time>
      </trkpt>
      <trkpt lat="40.272083" lon="-4.883317">
        <ele>1316.0</ele>
        <time>2016-03-13T13:08:14Z</time>
      </trkpt>
      <trkpt lat="40.272217" lon="-4.883300">
        <ele>1315.0</ele>
        <time>2016-03-13T13:08:15Z</time>
      </trkpt>
      <trkpt lat="40.272333" lon="-4.883267">
        <ele>1317.0</ele>
        <time>2016-03-13T13:08:16Z</time>
      </trkpt>
      <trkpt lat="40.272450" lon="-4.883233">
        <ele>1319.0</ele>
        <time>2016-03-13T13:08:17Z</time>
      </trkpt>
      <trkpt lat="40.272567" lon="-4.883200">
        <ele>1322.0</ele>
        <time>2016-03-13T13:08:18Z</time>
      </trkpt>
      <trkpt lat="40.272667" lon="-4.883133">
        <ele>1325.0</ele>
        <time>2016-03-13T13:08:19Z</time>
      </trkpt>
      <trkpt lat="40.272750" lon="-4.883067">
        <ele>1328.0</ele>
        <time>2016-03-13T13:08:20Z</time>
      </trkpt>
      <trkpt lat="40.272817" lon="-4.882983">
        <ele>1331.0</ele>
        <time>2016-03-13T13:08:21Z</time>
      </trkpt>
      <trkpt lat="40.272817" lon="-4.882900">
        <ele>1332.0</ele>
        <time>2016-03-13T13:08:22Z</time>
      </trkpt>
      <trkpt lat="40.272783" lon="-4.882817">
        <ele>1331.0</ele>
        <time>2016-03-13T13:08:23Z</time>
      </trkpt>
      <trkpt lat="40.272733" lon="-4.882767">
        <ele>1329.0</ele>
        <time>2016-03-13T13:08:24Z</time>
      </trkpt>
      <trkpt lat="40.272650" lon="-4.882750">
        <ele>1328.0</ele>
        <time>2016-03-13T13:08:25Z</time>
      </trkpt>
      <trkpt lat="40.272567" lon="-4.882783">
        <ele>1328.0</ele>
        <time>2016-03-13T13:08:26Z</time>
      </trkpt>
      <trkpt lat="40.272500" lon="-4.882883">
        <ele>1327.0</ele>
        <time>2016-03-13T13:08:27Z</time>
      </trkpt>
      <trkpt lat="40.272467" lon="-4.883033">
        <ele>1328.0</ele>
        <time>2016-03-13T13:08:28Z</time>
      </trkpt>
      <trkpt lat="40.272500" lon="-4.883217">
        <ele>1329.0</ele>
        <time>2016-03-13T13:08:29Z</time>
      </trkpt>
      <trkpt lat="40.272533" lon="-4.883367">
        <ele>1333.0</ele>
        <time>2016-03-13T13:08:30Z</time>
      </trkpt>
      <trkpt lat="40.272567" lon="-4.883483">
        <ele>1339.0</ele>
        <time>2016-03-13T13:08:31Z</time>
      </trkpt>
      <trkpt lat="40.272583" lon="-4.883583">
        <ele>1342.0</ele>
        <time>2016-03-13T13:08:32Z</time>
      </trkpt>
      <trkpt lat="40.272583" lon="-4.883683">
        <ele>1342.0</ele>
        <time>2016-03-13T13:08:33Z</time>
      </trkpt>
      <trkpt lat="40.272617" lon="-4.883767">
        <ele>1341.0</ele>
        <time>2016-03-13T13:08:34Z</time>
      </trkpt>
      <trkpt lat="40.272683" lon="-4.883867">
        <ele>1338.0</ele>
        <time>2016-03-13T13:08:35Z</time>
      </trkpt>
      <trkpt lat="40.272767" lon="-4.883933">
        <ele>1335.0</ele>
        <time>2016-03-13T13:08:36Z</time>
      </trkpt>
      <trkpt lat="40.272867" lon="-4.883983">
        <ele>1334.0</ele>
        <time>2016-03-13T13:08:37Z</time>
      </trkpt>
      <trkpt lat="40.273000" lon="-4.884017">
        <ele>1333.0</ele>
        <time>2016-03-13T13:08:38Z</time>
      </trkpt>
      <trkpt lat="40.273100" lon="-4.884033">
        <ele>1333.0</ele>
        <time>2016-03-13T13:08:39Z</time>
      </trkpt>
      <trkpt lat="40.273217" lon="-4.884017">
        <ele>1332.0</ele>
        <time>2016-03-13T13:08:40Z</time>
      </trkpt>
      <trkpt lat="40.273333" lon="-4.884017">
        <ele>1333.0</ele>
        <time>2016-03-13T13:08:41Z</time>
      </trkpt>
      <trkpt lat="40.273433" lon="-4.884000">
        <ele>1333.0</ele>
        <time>2016-03-13T13:08:42Z</time>
      </trkpt>
      <trkpt lat="40.273533" lon="-4.883950">
        <ele>1335.0</ele>
        <time>2016-03-13T13:08:43Z</time>
      </trkpt>
      <trkpt lat="40.273617" lon="-4.883900">
        <ele>1336.0</ele>
        <time>2016-03-13T13:08:44Z</time>
      </trkpt>
      <trkpt lat="40.273700" lon="-4.883833">
        <ele>1337.0</ele>
        <time>2016-03-13T13:08:45Z</time>
      </trkpt>
      <trkpt lat="40.273783" lon="-4.883750">
        <ele>1337.0</ele>
        <time>2016-03-13T13:08:46Z</time>
      </trkpt>
      <trkpt lat="40.273867" lon="-4.883683">
        <ele>1339.0</ele>
        <time>2016-03-13T13:08:47Z</time>
      </trkpt>
      <trkpt lat="40.273933" lon="-4.883633">
        <ele>1341.0</ele>
        <time>2016-03-13T13:08:48Z</time>
      </trkpt>
      <trkpt lat="40.274017" lon="-4.883567">
        <ele>1342.0</ele>
        <time>2016-03-13T13:08:49Z</time>
      </trkpt>
      <trkpt lat="40.274100" lon="-4.883517">
        <ele>1343.0</ele>
        <time>2016-03-13T13:08:50Z</time>
      </trkpt>
      <trkpt lat="40.274200" lon="-4.883500">
        <ele>1344.0</ele>
        <time>2016-03-13T13:08:51Z</time>
      </trkpt>
      <trkpt lat="40.274317" lon="-4.883517">
        <ele>1344.0</ele>
        <time>2016-03-13T13:08:52Z</time>
      </trkpt>
      <trkpt lat="40.274417" lon="-4.883583">
        <ele>1343.0</ele>
        <time>2016-03-13T13:08:53Z</time>
      </trkpt>
      <trkpt lat="40.274533" lon="-4.883683">
        <ele>1343.0</ele>
        <time>2016-03-13T13:08:54Z</time>
      </trkpt>
      <trkpt lat="40.274600" lon="-4.883800">
        <ele>1345.0</ele>
        <time>2016-03-13T13:08:55Z</time>
      </trkpt>
      <trkpt lat="40.274650" lon="-4.883950">
        <ele>1346.0</ele>
        <time>2016-03-13T13:08:56Z</time>
      </trkpt>
      <trkpt lat="40.274650" lon="-4.884083">
        <ele>1348.0</ele>
        <time>2016-03-13T13:08:57Z</time>
      </trkpt>
      <trkpt lat="40.274633" lon="-4.884200">
        <ele>1351.0</ele>
        <time>2016-03-13T13:08:58Z</time>
      </trkpt>
      <trkpt lat="40.274583" lon="-4.884283">
        <ele>1352.0</ele>
        <time>2016-03-13T13:08:59Z</time>
      </trkpt>
      <trkpt lat="40.274550" lon="-4.884317">
        <ele>1353.0</ele>
        <time>2016-03-13T13:09:00Z</time>
      </trkpt>
      <trkpt lat="40.274500" lon="-4.884333">
        <ele>1352.0</ele>
        <time>2016-03-13T13:09:01Z</time>
      </trkpt>
      <trkpt lat="40.274450" lon="-4.884317">
        <ele>1352.0</ele>
        <time>2016-03-13T13:09:02Z</time>
      </trkpt>
      <trkpt lat="40.274400" lon="-4.884283">
        <ele>1351.0</ele>
        <time>2016-03-13T13:09:03Z</time>
      </trkpt>
      <trkpt lat="40.274350" lon="-4.884200">
        <ele>1351.0</ele>
        <time>2016-03-13T13:09:04Z</time>
      </trkpt>
      <trkpt lat="40.274333" lon="-4.884100">
        <ele>1351.0</ele>
        <time>2016-03-13T13:09:05Z</time>
      </trkpt>
      <trkpt lat="40.274350" lon="-4.883983">
        <ele>1352.0</ele>
        <time>2016-03-13T13:09:06Z</time>
      </trkpt>
      <trkpt lat="40.274400" lon="-4.883883">
        <ele>1354.0</ele>
        <time>2016-03-13T13:09:07Z</time>
      </trkpt>
      <trkpt lat="40.274483" lon="-4.883817">
        <ele>1356.0</ele>
        <time>2016-03-13T13:09:08Z</time>
      </trkpt>
      <trkpt lat="40.274600" lon="-4.883783">
        <ele>1357.0</ele>
        <time>2016-03-13T13:09:09Z</time>
      </trkpt>
      <trkpt lat="40.274717" lon="-4.883800">
        <ele>1357.0</ele>
        <time>2016-03-13T13:09:10Z</time>
      </trkpt>
      <trkpt lat="40.274833" lon="-4.883850">
        <ele>1357.0</ele>
        <time>2016-03-13T13:09:11Z</time>
      </trkpt>
      <trkpt lat="40.274933" lon="-4.883950">
        <ele>1358.0</ele>
        <time>2016-03-13T13:09:12Z</time>
      </trkpt>
      <trkpt lat="40.274983" lon="-4.884067">
        <ele>1358.0</ele>
        <time>2016-03-13T13:09:13Z</time>
      </trkpt>
      <trkpt lat="40.275000" lon="-4.884200">
        <ele>1358.0</ele>
        <time>2016-03-13T13:09:14Z</time>
      </trkpt>
      <trkpt lat="40.274950" lon="-4.884283">
        <ele>1358.0</ele>
        <time>2016-03-13T13:09:15Z</time>
      </trkpt>
      <trkpt lat="40.274883" lon="-4.884333">
        <ele>1357.0</ele>
        <time>2016-03-13T13:09:16Z</time>
      </trkpt>
      <trkpt lat="40.274800" lon="-4.884333">
        <ele>1356.0</ele>
        <time>2016-03-13T13:09:17Z</time>
      </trkpt>
      <trkpt lat="40.274717" lon="-4.884283">
        <ele>1357.0</ele>
        <time>2016-03-13T13:09:18Z</time>
      </trkpt>
      <trkpt lat="40.274667" lon="-4.884217">
        <ele>1358.0</ele>
        <time>2016-03-13T13:09:19Z</time>
      </trkpt>
      <trkpt lat="40.274633" lon="-4.884117">
        <ele>1360.0</ele>
        <time>2016-03-13T13:09:20Z</time>
      </trkpt>
      <trkpt lat="40.274650" lon="-4.884000">
        <ele>1361.0</ele>
        <time>2016-03-13T13:09:21Z</time>
      </trkpt>
      <trkpt lat="40.274667" lon="-4.883883">
        <ele>1362.0</ele>
        <time>2016-03-13T13:09:22Z</time>
      </trkpt>
      <trkpt lat="40.274667" lon="-4.883767">
        <ele>1365.0</ele>
        <time>2016-03-13T13:09:23Z</time>
      </trkpt>
      <trkpt lat="40.274700" lon="-4.883667">
        <ele>1368.0</ele>
        <time>2016-03-13T13:09:24Z</time>
      </trkpt>
      <trkpt lat="40.274767" lon="-4.883567">
        <ele>1370.0</ele>
        <time>2016-03-13T13:09:25Z</time>
      </trkpt>
      <trkpt lat="40.274867" lon="-4.883517">
        <ele>1369.0</ele>
        <time>2016-03-13T13:09:26Z</time>
      </trkpt>
      <trkpt lat="40.274983" lon="-4.883517">
        <ele>1369.0</ele>
        <time>2016-03-13T13:09:27Z</time>
      </trkpt>
      <trkpt lat="40.275100" lon="-4.883567">
        <ele>1368.0</ele>
        <time>2016-03-13T13:09:28Z</time>
      </trkpt>
      <trkpt lat="40.275183" lon="-4.883683">
        <ele>1368.0</ele>
        <time>2016-03-13T13:09:29Z</time>
      </trkpt>
      <trkpt lat="40.275233" lon="-4.883800">
        <ele>1369.0</ele>
        <time>2016-03-13T13:09:30Z</time>
      </trkpt>
      <trkpt lat="40.275250" lon="-4.883933">
        <ele>1369.0</ele>
        <time>2016-03-13T13:09:31Z</time>
      </trkpt>
      <trkpt lat="40.275233" lon="-4.884050">
        <ele>1370.0</ele>
        <time>2016-03-13T13:09:32Z</time>
      </trkpt>
      <trkpt lat="40.275183" lon="-4.884117">
        <ele>1371.0</ele>
        <time>2016-03-13T13:09:33Z</time>
      </trkpt>
      <trkpt lat="40.275117" lon="-4.884167">
        <ele>1371.0</ele>
        <time>2016-03-13T13:09:34Z</time>
      </trkpt>
      <trkpt lat="40.275050" lon="-4.884183">
        <ele>1371.0</ele>
        <time>2016-03-13T13:09:35Z</time>
      </trkpt>
      <trkpt lat="40.274967" lon="-4.884167">
        <ele>1371.0</ele>
        <time>2016-03-13T13:09:36Z</time>
      </trkpt>
      <trkpt lat="40.274883" lon="-4.884133">
        <ele>1372.0</ele>
        <time>2016-03-13T13:09:37Z</time>
      </trkpt>
      <trkpt lat="40.274817" lon="-4.884100">
        <ele>1374.0</ele>
        <time>2016-03-13T13:09:38Z</time>
      </trkpt>
      <trkpt lat="40.274733" lon="-4.884067">
        <ele>1377.0</ele>
        <time>2016-03-13T13:09:39Z</time>
      </trkpt>
      <trkpt lat="40.274667" lon="-4.884050">
        <ele>1379.0</ele>
        <time>2016-03-13T13:09:40Z</time>
      </trkpt>
      <trkpt lat="40.274583" lon="-4.884017">
        <ele>1381.0</ele>
        <time>2016-03-13T13:09:41Z</time>
      </trkpt>
      <trkpt lat="40.274517" lon="-4.884000">
        <ele>1384.0</ele>
        <time>2016-03-13T13:09:42Z</time>
      </trkpt>
      <trkpt lat="40.274467" lon="-4.883950">
        <ele>1387.0</ele>
        <time>2016-03-13T13:09:43Z</time>
      </trkpt>
      <trkpt lat="40.274433" lon="-4.883867">
        <ele>1390.0</ele>
        <time>2016-03-13T13:09:44Z</time>
      </trkpt>
      <trkpt lat="40.274450" lon="-4.883767">
        <ele>1391.0</ele>
        <time>2016-03-13T13:09:45Z</time>
      </trkpt>
      <trkpt lat="40.274517" lon="-4.883650">
        <ele>1391.0</ele>
        <time>2016-03-13T13:09:46Z</time>
      </trkpt>
      <trkpt lat="40.274633" lon="-4.883567">
        <ele>1393.0</ele>
        <time>2016-03-13T13:09:47Z</time>
      </trkpt>
      <trkpt lat="40.274750" lon="-4.883533">
        <ele>1394.0</ele>
        <time>2016-03-13T13:09:48Z</time>
      </trkpt>
      <trkpt lat="40.274883" lon="-4.883550">
        <ele>1396.0</ele>
        <time>2016-03-13T13:09:49Z</time>
      </trkpt>
      <trkpt lat="40.275000" lon="-4.883600">
        <ele>1398.0</ele>
        <time>2016-03-13T13:09:50Z</time>
      </trkpt>
      <trkpt lat="40.275100" lon="-4.883700">
        <ele>1399.0</ele>
        <time>2016-03-13T13:09:51Z</time>
      </trkpt>
      <trkpt lat="40.275167" lon="-4.883833">
        <ele>1400.0</ele>
        <time>2016-03-13T13:09:52Z</time>
      </trkpt>
      <trkpt lat="40.275183" lon="-4.883967">
        <ele>1401.0</ele>
        <time>2016-03-13T13:09:53Z</time>
      </trkpt>
      <trkpt lat="40.275150" lon="-4.884100">
        <ele>1401.0</ele>
        <time>2016-03-13T13:09:54Z</time>
      </trkpt>
      <trkpt lat="40.275100" lon="-4.884200">
        <ele>1401.0</ele>
        <time>2016-03-13T13:09:55Z</time>
      </trkpt>
      <trkpt lat="40.275000" lon="-4.884233">
        <ele>1402.0</ele>
        <time>2016-03-13T13:09:56Z</time>
      </trkpt>
      <trkpt lat="40.274917" lon="-4.884217">
        <ele>1402.0</ele>
        <time>2016-03-13T13:09:57Z</time>
      </trkpt>
      <trkpt lat="40.274867" lon="-4.884133">
        <ele>1403.0</ele>
        <time>2016-03-13T13:09:58Z</time>
      </trkpt>
      <trkpt lat="40.274833" lon="-4.884017">
        <ele>1405.0</ele>
        <time>2016-03-13T13:09:59Z</time>
      </trkpt>
      <trkpt lat="40.274850" lon="-4.883900">
        <ele>1408.0</ele>
        <time>2016-03-13T13:10:00Z</time>
      </trkpt>
      <trkpt lat="40.274867" lon="-4.883783">
        <ele>1413.0</ele>
        <time>2016-03-13T13:10:01Z</time>
      </trkpt>
      <trkpt lat="40.274883" lon="-4.883700">
        <ele>1417.0</ele>
        <time>2016-03-13T13:10:02Z</time>
      </trkpt>
      <trkpt lat="40.274883" lon="-4.883633">
        <ele>1419.0</ele>
        <time>2016-03-13T13:10:03Z</time>
      </trkpt>
      <trkpt lat="40.274883" lon="-4.883550">
        <ele>1419.0</ele>
        <time>2016-03-13T13:10:04Z</time>
      </trkpt>
      <trkpt lat="40.274917" lon="-4.883467">
        <ele>1420.0</ele>
        <time>2016-03-13T13:10:05Z</time>
      </trkpt>
      <trkpt lat="40.274983" lon="-4.883367">
        <ele>1419.0</ele>
        <time>2016-03-13T13:10:06Z</time>
      </trkpt>
      <trkpt lat="40.275083" lon="-4.883283">
        <ele>1419.0</ele>
        <time>2016-03-13T13:10:07Z</time>
      </trkpt>
      <trkpt lat="40.275200" lon="-4.883217">
        <ele>1421.0</ele>
        <time>2016-03-13T13:10:08Z</time>
      </trkpt>
      <trkpt lat="40.275333" lon="-4.883217">
        <ele>1423.0</ele>
        <time>2016-03-13T13:10:09Z</time>
      </trkpt>
      <trkpt lat="40.275433" lon="-4.883267">
        <ele>1425.0</ele>
        <time>2016-03-13T13:10:10Z</time>
      </trkpt>
      <trkpt lat="40.275517" lon="-4.883367">
        <ele>1426.0</ele>
        <time>2016-03-13T13:10:11Z</time>
      </trkpt>
      <trkpt lat="40.275567" lon="-4.883483">
        <ele>1427.0</ele>
        <time>2016-03-13T13:10:12Z</time>
      </trkpt>
      <trkpt lat="40.275600" lon="-4.883600">
        <ele>1428.0</ele>
        <time>2016-03-13T13:10:13Z</time>
      </trkpt>
      <trkpt lat="40.275583" lon="-4.883717">
        <ele>1428.0</ele>
        <time>2016-03-13T13:10:14Z</time>
      </trkpt>
      <trkpt lat="40.275533" lon="-4.883817">
        <ele>1429.0</ele>
        <time>2016-03-13T13:10:15Z</time>
      </trkpt>
      <trkpt lat="40.275450" lon="-4.883850">
        <ele>1429.0</ele>
        <time>2016-03-13T13:10:16Z</time>
      </trkpt>
      <trkpt lat="40.275367" lon="-4.883850">
        <ele>1431.0</ele>
        <time>2016-03-13T13:10:17Z</time>
      </trkpt>
      <trkpt lat="40.275300" lon="-4.883783">
        <ele>1433.0</ele>
        <time>2016-03-13T13:10:18Z</time>
      </trkpt>
      <trkpt lat="40.275267" lon="-4.883700">
        <ele>1437.0</ele>
        <time>2016-03-13T13:10:19Z</time>
      </trkpt>
      <trkpt lat="40.275267" lon="-4.883617">
        <ele>1441.0</ele>
        <time>2016-03-13T13:10:20Z</time>
      </trkpt>
      <trkpt lat="40.275267" lon="-4.883517">
        <ele>1443.0</ele>
        <time>2016-03-13T13:10:21Z</time>
      </trkpt>
      <trkpt lat="40.275300" lon="-4.883417">
        <ele>1443.0</ele>
        <time>2016-03-13T13:10:22Z</time>
      </trkpt>
      <trkpt lat="40.275367" lon="-4.883300">
        <ele>1443.0</ele>
        <time>2016-03-13T13:10:23Z</time>
      </trkpt>
      <trkpt lat="40.275450" lon="-4.883200">
        <ele>1443.0</ele>
        <time>2016-03-13T13:10:24Z</time>
      </trkpt>
      <trkpt lat="40.275567" lon="-4.883133">
        <ele>1444.0</ele>
        <time>2016-03-13T13:10:25Z</time>
      </trkpt>
      <trkpt lat="40.275683" lon="-4.883100">
        <ele>1445.0</ele>
        <time>2016-03-13T13:10:26Z</time>
      </trkpt>
      <trkpt lat="40.275800" lon="-4.883117">
        <ele>1446.0</ele>
        <time>2016-03-13T13:10:27Z</time>
      </trkpt>
      <trkpt lat="40.275917" lon="-4.883167">
        <ele>1446.0</ele>
        <time>2016-03-13T13:10:28Z</time>
      </trkpt>
      <trkpt lat="40.275983" lon="-4.883267">
        <ele>1445.0</ele>
        <time>2016-03-13T13:10:29Z</time>
      </trkpt>
      <trkpt lat="40.276033" lon="-4.883383">
        <ele>1445.0</ele>
        <time>2016-03-13T13:10:30Z</time>
      </trkpt>
      <trkpt lat="40.276050" lon="-4.883533">
        <ele>1445.0</ele>
        <time>2016-03-13T13:10:31Z</time>
      </trkpt>
      <trkpt lat="40.276050" lon="-4.883650">
        <ele>1446.0</ele>
        <time>2016-03-13T13:10:32Z</time>
      </trkpt>
      <trkpt lat="40.276000" lon="-4.883750">
        <ele>1447.0</ele>
        <time>2016-03-13T13:10:33Z</time>
      </trkpt>
      <trkpt lat="40.275933" lon="-4.883817">
        <ele>1447.0</ele>
        <time>2016-03-13T13:10:34Z</time>
      </trkpt>
      <trkpt lat="40.275850" lon="-4.883833">
        <ele>1448.0</ele>
        <time>2016-03-13T13:10:35Z</time>
      </trkpt>
      <trkpt lat="40.275767" lon="-4.883817">
        <ele>1449.0</ele>
        <time>2016-03-13T13:10:36Z</time>
      </trkpt>
      <trkpt lat="40.275700" lon="-4.883783">
        <ele>1452.0</ele>
        <time>2016-03-13T13:10:37Z</time>
      </trkpt>
      <trkpt lat="40.275650" lon="-4.883750">
        <ele>1454.0</ele>
        <time>2016-03-13T13:10:38Z</time>
      </trkpt>
      <trkpt lat="40.275583" lon="-4.883717">
        <ele>1456.0</ele>
        <time>2016-03-13T13:10:39Z</time>
      </trkpt>
      <trkpt lat="40.275517" lon="-4.883683">
        <ele>1458.0</ele>
        <time>2016-03-13T13:10:40Z</time>
      </trkpt>
      <trkpt lat="40.275450" lon="-4.883667">
        <ele>1460.0</ele>
        <time>2016-03-13T13:10:41Z</time>
      </trkpt>
      <trkpt lat="40.275367" lon="-4.883667">
        <ele>1462.0</ele>
        <time>2016-03-13T13:10:42Z</time>
      </trkpt>
      <trkpt lat="40.275300" lon="-4.883667">
        <ele>1466.0</ele>
        <time>2016-03-13T13:10:43Z</time>
      </trkpt>
      <trkpt lat="40.275250" lon="-4.883617">
        <ele>1468.0</ele>
        <time>2016-03-13T13:10:44Z</time>
      </trkpt>
      <trkpt lat="40.275233" lon="-4.883533">
        <ele>1468.0</ele>
        <time>2016-03-13T13:10:45Z</time>
      </trkpt>
      <trkpt lat="40.275233" lon="-4.883417">
        <ele>1468.0</ele>
        <time>2016-03-13T13:10:46Z</time>
      </trkpt>
      <trkpt lat="40.275250" lon="-4.883283">
        <ele>1469.0</ele>
        <time>2016-03-13T13:10:47Z</time>
      </trkpt>
      <trkpt lat="40.275300" lon="-4.883150">
        <ele>1472.0</ele>
        <time>2016-03-13T13:10:48Z</time>
      </trkpt>
      <trkpt lat="40.275367" lon="-4.883067">
        <ele>1476.0</ele>
        <time>2016-03-13T13:10:49Z</time>
      </trkpt>
      <trkpt lat="40.275467" lon="-4.883017">
        <ele>1478.0</ele>
        <time>2016-03-13T13:10:50Z</time>
      </trkpt>
      <trkpt lat="40.275583" lon="-4.883017">
        <ele>1479.0</ele>
        <time>2016-03-13T13:10:51Z</time>
      </trkpt>
      <trkpt lat="40.275700" lon="-4.883083">
        <ele>1480.0</ele>
        <time>2016-03-13T13:10:52Z</time>
      </trkpt>
      <trkpt lat="40.275800" lon="-4.883183">
        <ele>1480.0</ele>
        <time>2016-03-13T13:10:53Z</time>
      </trkpt>
      <trkpt lat="40.275867" lon="-4.883317">
        <ele>1481.0</ele>
        <time>2016-03-13T13:10:54Z</time>
      </trkpt>
      <trkpt lat="40.275883" lon="-4.883467">
        <ele>1483.0</ele>
        <time>2016-03-13T13:10:55Z</time>
      </trkpt>
      <trkpt lat="40.275867" lon="-4.883583">
        <ele>1485.0</ele>
        <time>2016-03-13T13:10:56Z</time>
      </trkpt>
      <trkpt lat="40.275833" lon="-4.883700">
        <ele>1486.0</ele>
        <time>2016-03-13T13:10:57Z</time>
      </trkpt>
      <trkpt lat="40.275800" lon="-4.883800">
        <ele>1488.0</ele>
        <time>2016-03-13T13:10:58Z</time>
      </trkpt>
      <trkpt lat="40.275733" lon="-4.883867">
        <ele>1490.0</ele>
        <time>2016-03-13T13:10:59Z</time>
      </trkpt>
      <trkpt lat="40.275667" lon="-4.883917">
        <ele>1491.0</ele>
        <time>2016-03-13T13:11:00Z</time>
      </trkpt>
      <trkpt lat="40.275583" lon="-4.883900">
        <ele>1493.0</ele>
        <time>2016-03-13T13:11:01Z</time>
      </trkpt>
      <trkpt lat="40.275533" lon="-4.883817">
        <ele>1493.0</ele>
        <time>2016-03-13T13:11:02Z</time>
      </trkpt>
      <trkpt lat="40.275517" lon="-4.883700">
        <ele>1493.0</ele>
        <time>2016-03-13T13:11:03Z</time>
      </trkpt>
      <trkpt lat="40.275550" lon="-4.883567">
        <ele>1494.0</ele>
        <time>2016-03-13T13:11:04Z</time>
      </trkpt>
      <trkpt lat="40.275600" lon="-4.883433">
        <ele>1496.0</ele>
        <time>2016-03-13T13:11:05Z</time>
      </trkpt>
      <trkpt lat="40.275683" lon="-4.883350">
        <ele>1498.0</ele>
        <time>2016-03-13T13:11:06Z</time>
      </trkpt>
      <trkpt lat="40.275800" lon="-4.883300">
        <ele>1500.0</ele>
        <time>2016-03-13T13:11:07Z</time>
      </trkpt>
      <trkpt lat="40.275917" lon="-4.883300">
        <ele>1501.0</ele>
        <time>2016-03-13T13:11:08Z</time>
      </trkpt>
      <trkpt lat="40.276033" lon="-4.883367">
        <ele>1502.0</ele>
        <time>2016-03-13T13:11:09Z</time>
      </trkpt>
      <trkpt lat="40.276100" lon="-4.883450">
        <ele>1503.0</ele>
        <time>2016-03-13T13:11:10Z</time>
      </trkpt>
      <trkpt lat="40.276167" lon="-4.883583">
        <ele>1504.0</ele>
        <time>2016-03-13T13:11:11Z</time>
      </trkpt>
      <trkpt lat="40.276183" lon="-4.883700">
        <ele>1505.0</ele>
        <time>2016-03-13T13:11:12Z</time>
      </trkpt>
      <trkpt lat="40.276183" lon="-4.883833">
        <ele>1507.0</ele>
        <time>2016-03-13T13:11:13Z</time>
      </trkpt>
      <trkpt lat="40.276150" lon="-4.883933">
        <ele>1508.0</ele>
        <time>2016-03-13T13:11:14Z</time>
      </trkpt>
      <trkpt lat="40.276083" lon="-4.884017">
        <ele>1508.0</ele>
        <time>2016-03-13T13:11:15Z</time>
      </trkpt>
      <trkpt lat="40.276000" lon="-4.884033">
        <ele>1508.0</ele>
        <time>2016-03-13T13:11:16Z</time>
      </trkpt>
      <trkpt lat="40.275917" lon="-4.883983">
        <ele>1508.0</ele>
        <time>2016-03-13T13:11:17Z</time>
      </trkpt>
      <trkpt lat="40.275867" lon="-4.883867">
        <ele>1507.0</ele>
        <time>2016-03-13T13:11:18Z</time>
      </trkpt>
      <trkpt lat="40.275867" lon="-4.883717">
        <ele>1508.0</ele>
        <time>2016-03-13T13:11:19Z</time>
      </trkpt>
      <trkpt lat="40.275933" lon="-4.883567">
        <ele>1510.0</ele>
        <time>2016-03-13T13:11:20Z</time>
      </trkpt>
      <trkpt lat="40.276033" lon="-4.883483">
        <ele>1513.0</ele>
        <time>2016-03-13T13:11:21Z</time>
      </trkpt>
      <trkpt lat="40.276133" lon="-4.883450">
        <ele>1516.0</ele>
        <time>2016-03-13T13:11:22Z</time>
      </trkpt>
      <trkpt lat="40.276233" lon="-4.883450">
        <ele>1517.0</ele>
        <time>2016-03-13T13:11:23Z</time>
      </trkpt>
      <trkpt lat="40.276333" lon="-4.883500">
        <ele>1517.0</ele>
        <time>2016-03-13T13:11:24Z</time>
      </trkpt>
      <trkpt lat="40.276417" lon="-4.883583">
        <ele>1517.0</ele>
        <time>2016-03-13T13:11:25Z</time>
      </trkpt>
      <trkpt lat="40.276500" lon="-4.883700">
        <ele>1517.0</ele>
        <time>2016-03-13T13:11:26Z</time>
      </trkpt>
      <trkpt lat="40.276550" lon="-4.883817">
        <ele>1518.0</ele>
        <time>2016-03-13T13:11:27Z</time>
      </trkpt>
      <trkpt lat="40.276583" lon="-4.883950">
        <ele>1520.0</ele>
        <time>2016-03-13T13:11:28Z</time>
      </trkpt>
      <trkpt lat="40.276583" lon="-4.884067">
        <ele>1522.0</ele>
        <time>2016-03-13T13:11:29Z</time>
      </trkpt>
      <trkpt lat="40.276583" lon="-4.884183">
        <ele>1524.0</ele>
        <time>2016-03-13T13:11:30Z</time>
      </trkpt>
      <trkpt lat="40.276550" lon="-4.884283">
        <ele>1526.0</ele>
        <time>2016-03-13T13:11:31Z</time>
      </trkpt>
      <trkpt lat="40.276517" lon="-4.884383">
        <ele>1527.0</ele>
        <time>2016-03-13T13:11:32Z</time>
      </trkpt>
      <trkpt lat="40.276450" lon="-4.884467">
        <ele>1528.0</ele>
        <time>2016-03-13T13:11:33Z</time>
      </trkpt>
      <trkpt lat="40.276383" lon="-4.884500">
        <ele>1527.0</ele>
        <time>2016-03-13T13:11:34Z</time>
      </trkpt>
      <trkpt lat="40.276317" lon="-4.884483">
        <ele>1527.0</ele>
        <time>2016-03-13T13:11:35Z</time>
      </trkpt>
      <trkpt lat="40.276250" lon="-4.884400">
        <ele>1527.0</ele>
        <time>2016-03-13T13:11:36Z</time>
      </trkpt>
      <trkpt lat="40.276217" lon="-4.884300">
        <ele>1527.0</ele>
        <time>2016-03-13T13:11:37Z</time>
      </trkpt>
      <trkpt lat="40.276200" lon="-4.884200">
        <ele>1528.0</ele>
        <time>2016-03-13T13:11:38Z</time>
      </trkpt>
      <trkpt lat="40.276200" lon="-4.884083">
        <ele>1529.0</ele>
        <time>2016-03-13T13:11:39Z</time>
      </trkpt>
      <trkpt lat="40.276233" lon="-4.883983">
        <ele>1529.0</ele>
        <time>2016-03-13T13:11:40Z</time>
      </trkpt>
      <trkpt lat="40.276300" lon="-4.883900">
        <ele>1528.0</ele>
        <time>2016-03-13T13:11:41Z</time>
      </trkpt>
      <trkpt lat="40.276400" lon="-4.883817">
        <ele>1526.0</ele>
        <time>2016-03-13T13:11:42Z</time>
      </trkpt>
      <trkpt lat="40.276517" lon="-4.883783">
        <ele>1525.0</ele>
        <time>2016-03-13T13:11:43Z</time>
      </trkpt>
      <trkpt lat="40.276633" lon="-4.883783">
        <ele>1527.0</ele>
        <time>2016-03-13T13:11:44Z</time>
      </trkpt>
      <trkpt lat="40.276750" lon="-4.883833">
        <ele>1529.0</ele>
        <time>2016-03-13T13:11:45Z</time>
      </trkpt>
      <trkpt lat="40.276833" lon="-4.883900">
        <ele>1532.0</ele>
        <time>2016-03-13T13:11:46Z</time>
      </trkpt>
      <trkpt lat="40.276917" lon="-4.883983">
        <ele>1534.0</ele>
        <time>2016-03-13T13:11:47Z</time>
      </trkpt>
      <trkpt lat="40.276967" lon="-4.884067">
        <ele>1534.0</ele>
        <time>2016-03-13T13:11:48Z</time>
      </trkpt>
      <trkpt lat="40.277000" lon="-4.884167">
        <ele>1535.0</ele>
        <time>2016-03-13T13:11:49Z</time>
      </trkpt>
      <trkpt lat="40.277017" lon="-4.884300">
        <ele>1534.0</ele>
        <time>2016-03-13T13:11:50Z</time>
      </trkpt>
      <trkpt lat="40.277000" lon="-4.884433">
        <ele>1534.0</ele>
        <time>2016-03-13T13:11:51Z</time>
      </trkpt>
      <trkpt lat="40.276933" lon="-4.884533">
        <ele>1535.0</ele>
        <time>2016-03-13T13:11:52Z</time>
      </trkpt>
      <trkpt lat="40.276867" lon="-4.884600">
        <ele>1536.0</ele>
        <time>2016-03-13T13:11:53Z</time>
      </trkpt>
      <trkpt lat="40.276800" lon="-4.884617">
        <ele>1537.0</ele>
        <time>2016-03-13T13:11:54Z</time>
      </trkpt>
      <trkpt lat="40.276717" lon="-4.884600">
        <ele>1537.0</ele>
        <time>2016-03-13T13:11:55Z</time>
      </trkpt>
      <trkpt lat="40.276667" lon="-4.884567">
        <ele>1537.0</ele>
        <time>2016-03-13T13:11:56Z</time>
      </trkpt>
      <trkpt lat="40.276617" lon="-4.884483">
        <ele>1536.0</ele>
        <time>2016-03-13T13:11:57Z</time>
      </trkpt>
      <trkpt lat="40.276583" lon="-4.884383">
        <ele>1536.0</ele>
        <time>2016-03-13T13:11:58Z</time>
      </trkpt>
      <trkpt lat="40.276567" lon="-4.884267">
        <ele>1536.0</ele>
        <time>2016-03-13T13:11:59Z</time>
      </trkpt>
      <trkpt lat="40.276583" lon="-4.884150">
        <ele>1537.0</ele>
        <time>2016-03-13T13:12:00Z</time>
      </trkpt>
      <trkpt lat="40.276633" lon="-4.884067">
        <ele>1538.0</ele>
        <time>2016-03-13T13:12:01Z</time>
      </trkpt>
      <trkpt lat="40.276700" lon="-4.883983">
        <ele>1539.0</ele>
        <time>2016-03-13T13:12:02Z</time>
      </trkpt>
      <trkpt lat="40.276783" lon="-4.883933">
        <ele>1539.0</ele>
        <time>2016-03-13T13:12:03Z</time>
      </trkpt>
      <trkpt lat="40.276867" lon="-4.883900">
        <ele>1540.0</ele>
        <time>2016-03-13T13:12:04Z</time>
      </trkpt>
      <trkpt lat="40.276967" lon="-4.883900">
        <ele>1540.0</ele>
        <time>2016-03-13T13:12:05Z</time>
      </trkpt>
      <trkpt lat="40.277050" lon="-4.883933">
        <ele>1540.0</ele>
        <time>2016-03-13T13:12:06Z</time>
      </trkpt>
      <trkpt lat="40.277133" lon="-4.883983">
        <ele>1540.0</ele>
        <time>2016-03-13T13:12:07Z</time>
      </trkpt>
      <trkpt lat="40.277200" lon="-4.884083">
        <ele>1540.0</ele>
        <time>2016-03-13T13:12:08Z</time>
      </trkpt>
      <trkpt lat="40.277250" lon="-4.884200">
        <ele>1540.0</ele>
        <time>2016-03-13T13:12:09Z</time>
      </trkpt>
      <trkpt lat="40.277283" lon="-4.884317">
        <ele>1540.0</ele>
        <time>2016-03-13T13:12:10Z</time>
      </trkpt>
      <trkpt lat="40.277317" lon="-4.884417">
        <ele>1541.0</ele>
        <time>2016-03-13T13:12:11Z</time>
      </trkpt>
      <trkpt lat="40.277317" lon="-4.884533">
        <ele>1541.0</ele>
        <time>2016-03-13T13:12:12Z</time>
      </trkpt>
      <trkpt lat="40.277300" lon="-4.884650">
        <ele>1540.0</ele>
        <time>2016-03-13T13:12:13Z</time>
      </trkpt>
      <trkpt lat="40.277233" lon="-4.884750">
        <ele>1538.0</ele>
        <time>2016-03-13T13:12:14Z</time>
      </trkpt>
      <trkpt lat="40.277167" lon="-4.884833">
        <ele>1537.0</ele>
        <time>2016-03-13T13:12:15Z</time>
      </trkpt>
      <trkpt lat="40.277083" lon="-4.884900">
        <ele>1537.0</ele>
        <time>2016-03-13T13:12:16Z</time>
      </trkpt>
      <trkpt lat="40.277000" lon="-4.884933">
        <ele>1538.0</ele>
        <time>2016-03-13T13:12:17Z</time>
      </trkpt>
      <trkpt lat="40.276917" lon="-4.884967">
        <ele>1540.0</ele>
        <time>2016-03-13T13:12:18Z</time>
      </trkpt>
      <trkpt lat="40.276833" lon="-4.885000">
        <ele>1541.0</ele>
        <time>2016-03-13T13:12:19Z</time>
      </trkpt>
      <trkpt lat="40.276750" lon="-4.885050">
        <ele>1541.0</ele>
        <time>2016-03-13T13:12:20Z</time>
      </trkpt>
      <trkpt lat="40.276683" lon="-4.885100">
        <ele>1541.0</ele>
        <time>2016-03-13T13:12:21Z</time>
      </trkpt>
      <trkpt lat="40.276600" lon="-4.885117">
        <ele>1542.0</ele>
        <time>2016-03-13T13:12:22Z</time>
      </trkpt>
      <trkpt lat="40.276517" lon="-4.885083">
        <ele>1542.0</ele>
        <time>2016-03-13T13:12:23Z</time>
      </trkpt>
      <trkpt lat="40.276467" lon="-4.885000">
        <ele>1543.0</ele>
        <time>2016-03-13T13:12:24Z</time>
      </trkpt>
      <trkpt lat="40.276433" lon="-4.884900">
        <ele>1544.0</ele>
        <time>2016-03-13T13:12:25Z</time>
      </trkpt>
      <trkpt lat="40.276433" lon="-4.884783">
        <ele>1546.0</ele>
        <time>2016-03-13T13:12:26Z</time>
      </trkpt>
      <trkpt lat="40.276467" lon="-4.884683">
        <ele>1548.0</ele>
        <time>2016-03-13T13:12:27Z</time>
      </trkpt>
      <trkpt lat="40.276533" lon="-4.884617">
        <ele>1548.0</ele>
        <time>2016-03-13T13:12:28Z</time>
      </trkpt>
      <trkpt lat="40.276617" lon="-4.884550">
        <ele>1548.0</ele>
        <time>2016-03-13T13:12:29Z</time>
      </trkpt>
      <trkpt lat="40.276700" lon="-4.884500">
        <ele>1549.0</ele>
        <time>2016-03-13T13:12:30Z</time>
      </trkpt>
      <trkpt lat="40.276817" lon="-4.884483">
        <ele>1550.0</ele>
        <time>2016-03-13T13:12:31Z</time>
      </trkpt>
      <trkpt lat="40.276933" lon="-4.884500">
        <ele>1552.0</ele>
        <time>2016-03-13T13:12:32Z</time>
      </trkpt>
      <trkpt lat="40.277033" lon="-4.884567">
        <ele>1553.0</ele>
        <time>2016-03-13T13:12:33Z</time>
      </trkpt>
      <trkpt lat="40.277117" lon="-4.884650">
        <ele>1554.0</ele>
        <time>2016-03-13T13:12:34Z</time>
      </trkpt>
      <trkpt lat="40.277200" lon="-4.884750">
        <ele>1554.0</ele>
        <time>2016-03-13T13:12:35Z</time>
      </trkpt>
      <trkpt lat="40.277233" lon="-4.884867">
        <ele>1554.0</ele>
        <time>2016-03-13T13:12:36Z</time>
      </trkpt>
      <trkpt lat="40.277250" lon="-4.885017">
        <ele>1553.0</ele>
        <time>2016-03-13T13:12:37Z</time>
      </trkpt>
      <trkpt lat="40.277250" lon="-4.885150">
        <ele>1552.0</ele>
        <time>2016-03-13T13:12:38Z</time>
      </trkpt>
      <trkpt lat="40.277217" lon="-4.885267">
        <ele>1552.0</ele>
        <time>2016-03-13T13:12:39Z</time>
      </trkpt>
      <trkpt lat="40.277167" lon="-4.885367">
        <ele>1551.0</ele>
        <time>2016-03-13T13:12:40Z</time>
      </trkpt>
      <trkpt lat="40.277083" lon="-4.885417">
        <ele>1551.0</ele>
        <time>2016-03-13T13:12:41Z</time>
      </trkpt>
      <trkpt lat="40.277000" lon="-4.885433">
        <ele>1551.0</ele>
        <time>2016-03-13T13:12:42Z</time>
      </trkpt>
      <trkpt lat="40.276933" lon="-4.885417">
        <ele>1552.0</ele>
        <time>2016-03-13T13:12:43Z</time>
      </trkpt>
      <trkpt lat="40.276867" lon="-4.885350">
        <ele>1552.0</ele>
        <time>2016-03-13T13:12:44Z</time>
      </trkpt>
      <trkpt lat="40.276817" lon="-4.885267">
        <ele>1553.0</ele>
        <time>2016-03-13T13:12:45Z</time>
      </trkpt>
      <trkpt lat="40.276800" lon="-4.885167">
        <ele>1554.0</ele>
        <time>2016-03-13T13:12:46Z</time>
      </trkpt>
      <trkpt lat="40.276800" lon="-4.885067">
        <ele>1556.0</ele>
        <time>2016-03-13T13:12:47Z</time>
      </trkpt>
      <trkpt lat="40.276800" lon="-4.884950">
        <ele>1558.0</ele>
        <time>2016-03-13T13:12:48Z</time>
      </trkpt>
      <trkpt lat="40.276817" lon="-4.884850">
        <ele>1560.0</ele>
        <time>2016-03-13T13:12:49Z</time>
      </trkpt>
      <trkpt lat="40.276817" lon="-4.884733">
        <ele>1563.0</ele>
        <time>2016-03-13T13:12:50Z</time>
      </trkpt>
      <trkpt lat="40.276833" lon="-4.884633">
        <ele>1565.0</ele>
        <time>2016-03-13T13:12:51Z</time>
      </trkpt>
      <trkpt lat="40.276833" lon="-4.884533">
        <ele>1567.0</ele>
        <time>2016-03-13T13:12:52Z</time>
      </trkpt>
      <trkpt lat="40.276850" lon="-4.884433">
        <ele>1567.0</ele>
        <time>2016-03-13T13:12:53Z</time>
      </trkpt>
      <trkpt lat="40.276883" lon="-4.884350">
        <ele>1568.0</ele>
        <time>2016-03-13T13:12:54Z</time>
      </trkpt>
      <trkpt lat="40.276933" lon="-4.884250">
        <ele>1568.0</ele>
        <time>2016-03-13T13:12:55Z</time>
      </trkpt>
      <trkpt lat="40.277017" lon="-4.884150">
        <ele>1568.0</ele>
        <time>2016-03-13T13:12:56Z</time>
      </trkpt>
      <trkpt lat="40.277100" lon="-4.884067">
        <ele>1568.0</ele>
        <time>2016-03-13T13:12:57Z</time>
      </trkpt>
      <trkpt lat="40.277217" lon="-4.884050">
        <ele>1568.0</ele>
        <time>2016-03-13T13:12:58Z</time>
      </trkpt>
      <trkpt lat="40.277300" lon="-4.884083">
        <ele>1568.0</ele>
        <time>2016-03-13T13:12:59Z</time>
      </trkpt>
      <trkpt lat="40.277383" lon="-4.884150">
        <ele>1566.0</ele>
        <time>2016-03-13T13:13:00Z</time>
      </trkpt>
      <trkpt lat="40.277433" lon="-4.884267">
        <ele>1565.0</ele>
        <time>2016-03-13T13:13:01Z</time>
      </trkpt>
      <trkpt lat="40.277467" lon="-4.884383">
        <ele>1565.0</ele>
        <time>2016-03-13T13:13:02Z</time>
      </trkpt>
      <trkpt lat="40.277467" lon="-4.884500">
        <ele>1564.0</ele>
        <time>2016-03-13T13:13:03Z</time>
      </trkpt>
      <trkpt lat="40.277433" lon="-4.884600">
        <ele>1563.0</ele>
        <time>2016-03-13T13:13:04Z</time>
      </trkpt>
      <trkpt lat="40.277383" lon="-4.884683">
        <ele>1562.0</ele>
        <time>2016-03-13T13:13:05Z</time>
      </trkpt>
      <trkpt lat="40.277317" lon="-4.884767">
        <ele>1561.0</ele>
        <time>2016-03-13T13:13:06Z</time>
      </trkpt>
      <trkpt lat="40.277233" lon="-4.884833">
        <ele>1559.0</ele>
        <time>2016-03-13T13:13:07Z</time>
      </trkpt>
      <trkpt lat="40.277133" lon="-4.884850">
        <ele>1558.0</ele>
        <time>2016-03-13T13:13:08Z</time>
      </trkpt>
      <trkpt lat="40.277033" lon="-4.884850">
        <ele>1558.0</ele>
        <time>2016-03-13T13:13:09Z</time>
      </trkpt>
      <trkpt lat="40.276933" lon="-4.884833">
        <ele>1559.0</ele>
        <time>2016-03-13T13:13:10Z</time>
      </trkpt>
      <trkpt lat="40.276833" lon="-4.884800">
        <ele>1560.0</ele>
        <time>2016-03-13T13:13:11Z</time>
      </trkpt>
      <trkpt lat="40.276733" lon="-4.884783">
        <ele>1562.0</ele>
        <time>2016-03-13T13:13:12Z</time>
      </trkpt>
      <trkpt lat="40.276650" lon="-4.884750">
        <ele>1564.0</ele>
        <time>2016-03-13T13:13:13Z</time>
      </trkpt>
      <trkpt lat="40.276567" lon="-4.884717">
        <ele>1567.0</ele>
        <time>2016-03-13T13:13:14Z</time>
      </trkpt>
      <trkpt lat="40.276500" lon="-4.884683">
        <ele>1569.0</ele>
        <time>2016-03-13T13:13:15Z</time>
      </trkpt>
      <trkpt lat="40.276433" lon="-4.884667">
        <ele>1570.0</ele>
        <time>2016-03-13T13:13:16Z</time>
      </trkpt>
      <trkpt lat="40.276383" lon="-4.884650">
        <ele>1570.0</ele>
        <time>2016-03-13T13:13:17Z</time>
      </trkpt>
      <trkpt lat="40.276333" lon="-4.884600">
        <ele>1569.0</ele>
        <time>2016-03-13T13:13:18Z</time>
      </trkpt>
      <trkpt lat="40.276300" lon="-4.884533">
        <ele>1568.0</ele>
        <time>2016-03-13T13:13:19Z</time>
      </trkpt>
      <trkpt lat="40.276300" lon="-4.884433">
        <ele>1565.0</ele>
        <time>2016-03-13T13:13:20Z</time>
      </trkpt>
      <trkpt lat="40.276333" lon="-4.884317">
        <ele>1563.0</ele>
        <time>2016-03-13T13:13:21Z</time>
      </trkpt>
      <trkpt lat="40.276383" lon="-4.884200">
        <ele>1564.0</ele>
        <time>2016-03-13T13:13:22Z</time>
      </trkpt>
      <trkpt lat="40.276467" lon="-4.884133">
        <ele>1565.0</ele>
        <time>2016-03-13T13:13:23Z</time>
      </trkpt>
      <trkpt lat="40.276550" lon="-4.884117">
        <ele>1567.0</ele>
        <time>2016-03-13T13:13:24Z</time>
      </trkpt>
      <trkpt lat="40.276617" lon="-4.884133">
        <ele>1568.0</ele>
        <time>2016-03-13T13:13:25Z</time>
      </trkpt>
      <trkpt lat="40.276700" lon="-4.884167">
        <ele>1567.0</ele>
        <time>2016-03-13T13:13:26Z</time>
      </trkpt>
      <trkpt lat="40.276783" lon="-4.884217">
        <ele>1566.0</ele>
        <time>2016-03-13T13:13:27Z</time>
      </trkpt>
      <trkpt lat="40.276883" lon="-4.884283">
        <ele>1566.0</ele>
        <time>2016-03-13T13:13:28Z</time>
      </trkpt>
      <trkpt lat="40.276983" lon="-4.884350">
        <ele>1567.0</ele>
        <time>2016-03-13T13:13:29Z</time>
      </trkpt>
      <trkpt lat="40.277067" lon="-4.884433">
        <ele>1568.0</ele>
        <time>2016-03-13T13:13:30Z</time>
      </trkpt>
      <trkpt lat="40.277133" lon="-4.884533">
        <ele>1569.0</ele>
        <time>2016-03-13T13:13:31Z</time>
      </trkpt>
      <trkpt lat="40.277167" lon="-4.884633">
        <ele>1570.0</ele>
        <time>2016-03-13T13:13:32Z</time>
      </trkpt>
      <trkpt lat="40.277200" lon="-4.884733">
        <ele>1571.0</ele>
        <time>2016-03-13T13:13:33Z</time>
      </trkpt>
      <trkpt lat="40.277250" lon="-4.884833">
        <ele>1571.0</ele>
        <time>2016-03-13T13:13:34Z</time>
      </trkpt>
      <trkpt lat="40.277300" lon="-4.884900">
        <ele>1571.0</ele>
        <time>2016-03-13T13:13:35Z</time>
      </trkpt>
      <trkpt lat="40.277367" lon="-4.884967">
        <ele>1571.0</ele>
        <time>2016-03-13T13:13:36Z</time>
      </trkpt>
      <trkpt lat="40.277450" lon="-4.885017">
        <ele>1570.0</ele>
        <time>2016-03-13T13:13:37Z</time>
      </trkpt>
      <trkpt lat="40.277533" lon="-4.885050">
        <ele>1569.0</ele>
        <time>2016-03-13T13:13:38Z</time>
      </trkpt>
      <trkpt lat="40.277617" lon="-4.885050">
        <ele>1569.0</ele>
        <time>2016-03-13T13:13:39Z</time>
      </trkpt>
      <trkpt lat="40.277700" lon="-4.885017">
        <ele>1568.0</ele>
        <time>2016-03-13T13:13:40Z</time>
      </trkpt>
      <trkpt lat="40.277767" lon="-4.884933">
        <ele>1567.0</ele>
        <time>2016-03-13T13:13:41Z</time>
      </trkpt>
      <trkpt lat="40.277817" lon="-4.884833">
        <ele>1567.0</ele>
        <time>2016-03-13T13:13:42Z</time>
      </trkpt>
      <trkpt lat="40.277850" lon="-4.884717">
        <ele>1567.0</ele>
        <time>2016-03-13T13:13:43Z</time>
      </trkpt>
      <trkpt lat="40.277883" lon="-4.884600">
        <ele>1567.0</ele>
        <time>2016-03-13T13:13:44Z</time>
      </trkpt>
      <trkpt lat="40.277917" lon="-4.884500">
        <ele>1567.0</ele>
        <time>2016-03-13T13:13:45Z</time>
      </trkpt>
      <trkpt lat="40.277950" lon="-4.884400">
        <ele>1568.0</ele>
        <time>2016-03-13T13:13:46Z</time>
      </trkpt>
      <trkpt lat="40.278000" lon="-4.884300">
        <ele>1568.0</ele>
        <time>2016-03-13T13:13:47Z</time>
      </trkpt>
      <trkpt lat="40.278033" lon="-4.884200">
        <ele>1569.0</ele>
        <time>2016-03-13T13:13:48Z</time>
      </trkpt>
      <trkpt lat="40.278067" lon="-4.884083">
        <ele>1569.0</ele>
        <time>2016-03-13T13:13:49Z</time>
      </trkpt>
      <trkpt lat="40.278100" lon="-4.883967">
        <ele>1569.0</ele>
        <time>2016-03-13T13:13:50Z</time>
      </trkpt>
      <trkpt lat="40.278133" lon="-4.883867">
        <ele>1570.0</ele>
        <time>2016-03-13T13:13:51Z</time>
      </trkpt>
      <trkpt lat="40.278167" lon="-4.883750">
        <ele>1570.0</ele>
        <time>2016-03-13T13:13:52Z</time>
      </trkpt>
      <trkpt lat="40.278217" lon="-4.883633">
        <ele>1569.0</ele>
        <time>2016-03-13T13:13:53Z</time>
      </trkpt>
      <trkpt lat="40.278250" lon="-4.883533">
        <ele>1569.0</ele>
        <time>2016-03-13T13:13:54Z</time>
      </trkpt>
      <trkpt lat="40.278300" lon="-4.883417">
        <ele>1569.0</ele>
        <time>2016-03-13T13:13:55Z</time>
      </trkpt>
      <trkpt lat="40.278333" lon="-4.883300">
        <ele>1568.0</ele>
        <time>2016-03-13T13:13:56Z</time>
      </trkpt>
      <trkpt lat="40.278367" lon="-4.883183">
        <ele>1567.0</ele>
        <time>2016-03-13T13:13:57Z</time>
      </trkpt>
      <trkpt lat="40.278417" lon="-4.883067">
        <ele>1566.0</ele>
        <time>2016-03-13T13:13:58Z</time>
      </trkpt>
      <trkpt lat="40.278467" lon="-4.882950">
        <ele>1565.0</ele>
        <time>2016-03-13T13:13:59Z</time>
      </trkpt>
      <trkpt lat="40.278517" lon="-4.882850">
        <ele>1564.0</ele>
        <time>2016-03-13T13:14:00Z</time>
      </trkpt>
      <trkpt lat="40.278567" lon="-4.882750">
        <ele>1563.0</ele>
        <time>2016-03-13T13:14:01Z</time>
      </trkpt>
      <trkpt lat="40.278617" lon="-4.882633">
        <ele>1562.0</ele>
        <time>2016-03-13T13:14:02Z</time>
      </trkpt>
      <trkpt lat="40.278667" lon="-4.882533">
        <ele>1560.0</ele>
        <time>2016-03-13T13:14:03Z</time>
      </trkpt>
      <trkpt lat="40.278717" lon="-4.882400">
        <ele>1558.0</ele>
        <time>2016-03-13T13:14:04Z</time>
      </trkpt>
      <trkpt lat="40.278750" lon="-4.882267">
        <ele>1557.0</ele>
        <time>2016-03-13T13:14:05Z</time>
      </trkpt>
      <trkpt lat="40.278800" lon="-4.882133">
        <ele>1556.0</ele>
        <time>2016-03-13T13:14:06Z</time>
      </trkpt>
      <trkpt lat="40.278850" lon="-4.882017">
        <ele>1556.0</ele>
        <time>2016-03-13T13:14:07Z</time>
      </trkpt>
      <trkpt lat="40.278900" lon="-4.881900">
        <ele>1555.0</ele>
        <time>2016-03-13T13:14:08Z</time>
      </trkpt>
      <trkpt lat="40.278950" lon="-4.881783">
        <ele>1553.0</ele>
        <time>2016-03-13T13:14:09Z</time>
      </trkpt>
      <trkpt lat="40.279017" lon="-4.881683">
        <ele>1551.0</ele>
        <time>2016-03-13T13:14:10Z</time>
      </trkpt>
      <trkpt lat="40.279067" lon="-4.881550">
        <ele>1548.0</ele>
        <time>2016-03-13T13:14:11Z</time>
      </trkpt>
      <trkpt lat="40.279100" lon="-4.881417">
        <ele>1546.0</ele>
        <time>2016-03-13T13:14:12Z</time>
      </trkpt>
      <trkpt lat="40.279150" lon="-4.881283">
        <ele>1543.0</ele>
        <time>2016-03-13T13:14:13Z</time>
      </trkpt>
      <trkpt lat="40.279217" lon="-4.881167">
        <ele>1541.0</ele>
        <time>2016-03-13T13:14:14Z</time>
      </trkpt>
      <trkpt lat="40.279267" lon="-4.881033">
        <ele>1539.0</ele>
        <time>2016-03-13T13:14:15Z</time>
      </trkpt>
      <trkpt lat="40.279317" lon="-4.880917">
        <ele>1537.0</ele>
        <time>2016-03-13T13:14:16Z</time>
      </trkpt>
      <trkpt lat="40.279367" lon="-4.880783">
        <ele>1534.0</ele>
        <time>2016-03-13T13:14:17Z</time>
      </trkpt>
      <trkpt lat="40.279417" lon="-4.880650">
        <ele>1532.0</ele>
        <time>2016-03-13T13:14:18Z</time>
      </trkpt>
      <trkpt lat="40.279483" lon="-4.880500">
        <ele>1529.0</ele>
        <time>2016-03-13T13:14:19Z</time>
      </trkpt>
      <trkpt lat="40.279533" lon="-4.880367">
        <ele>1527.0</ele>
        <time>2016-03-13T13:14:20Z</time>
      </trkpt>
      <trkpt lat="40.279583" lon="-4.880217">
        <ele>1524.0</ele>
        <time>2016-03-13T13:14:21Z</time>
      </trkpt>
      <trkpt lat="40.279617" lon="-4.880067">
        <ele>1521.0</ele>
        <time>2016-03-13T13:14:22Z</time>
      </trkpt>
      <trkpt lat="40.279667" lon="-4.879917">
        <ele>1518.0</ele>
        <time>2016-03-13T13:14:23Z</time>
      </trkpt>
      <trkpt lat="40.279700" lon="-4.879750">
        <ele>1516.0</ele>
        <time>2016-03-13T13:14:24Z</time>
      </trkpt>
      <trkpt lat="40.279717" lon="-4.879600">
        <ele>1513.0</ele>
        <time>2016-03-13T13:14:25Z</time>
      </trkpt>
      <trkpt lat="40.279750" lon="-4.879433">
        <ele>1511.0</ele>
        <time>2016-03-13T13:14:26Z</time>
      </trkpt>
      <trkpt lat="40.279783" lon="-4.879267">
        <ele>1509.0</ele>
        <time>2016-03-13T13:14:27Z</time>
      </trkpt>
      <trkpt lat="40.279817" lon="-4.879100">
        <ele>1507.0</ele>
        <time>2016-03-13T13:14:28Z</time>
      </trkpt>
      <trkpt lat="40.279833" lon="-4.878933">
        <ele>1507.0</ele>
        <time>2016-03-13T13:14:29Z</time>
      </trkpt>
      <trkpt lat="40.279850" lon="-4.878783">
        <ele>1507.0</ele>
        <time>2016-03-13T13:14:30Z</time>
      </trkpt>
      <trkpt lat="40.279867" lon="-4.878650">
        <ele>1508.0</ele>
        <time>2016-03-13T13:14:31Z</time>
      </trkpt>
      <trkpt lat="40.279883" lon="-4.878517">
        <ele>1507.0</ele>
        <time>2016-03-13T13:14:32Z</time>
      </trkpt>
      <trkpt lat="40.279883" lon="-4.878400">
        <ele>1505.0</ele>
        <time>2016-03-13T13:14:33Z</time>
      </trkpt>
      <trkpt lat="40.279883" lon="-4.878267">
        <ele>1503.0</ele>
        <time>2016-03-13T13:14:34Z</time>
      </trkpt>
      <trkpt lat="40.279883" lon="-4.878117">
        <ele>1501.0</ele>
        <time>2016-03-13T13:14:35Z</time>
      </trkpt>
      <trkpt lat="40.279900" lon="-4.877967">
        <ele>1499.0</ele>
        <time>2016-03-13T13:14:36Z</time>
      </trkpt>
      <trkpt lat="40.279900" lon="-4.877833">
        <ele>1497.0</ele>
        <time>2016-03-13T13:14:37Z</time>
      </trkpt>
      <trkpt lat="40.279917" lon="-4.877700">
        <ele>1495.0</ele>
        <time>2016-03-13T13:14:38Z</time>
      </trkpt>
      <trkpt lat="40.279917" lon="-4.877550">
        <ele>1494.0</ele>
        <time>2016-03-13T13:14:39Z</time>
      </trkpt>
      <trkpt lat="40.279933" lon="-4.877417">
        <ele>1493.0</ele>
        <time>2016-03-13T13:14:40Z</time>
      </trkpt>
      <trkpt lat="40.279950" lon="-4.877283">
        <ele>1492.0</ele>
        <time>2016-03-13T13:14:41Z</time>
      </trkpt>
      <trkpt lat="40.279967" lon="-4.877167">
        <ele>1490.0</ele>
        <time>2016-03-13T13:14:42Z</time>
      </trkpt>
      <trkpt lat="40.279983" lon="-4.877033">
        <ele>1489.0</ele>
        <time>2016-03-13T13:14:43Z</time>
      </trkpt>
      <trkpt lat="40.280017" lon="-4.876917">
        <ele>1486.0</ele>
        <time>2016-03-13T13:14:44Z</time>
      </trkpt>
      <trkpt lat="40.280067" lon="-4.876800">
        <ele>1483.0</ele>
        <time>2016-03-13T13:14:45Z</time>
      </trkpt>
      <trkpt lat="40.280100" lon="-4.876650">
        <ele>1481.0</ele>
        <time>2016-03-13T13:14:46Z</time>
      </trkpt>
      <trkpt lat="40.280150" lon="-4.876517">
        <ele>1479.0</ele>
        <time>2016-03-13T13:14:47Z</time>
      </trkpt>
      <trkpt lat="40.280183" lon="-4.876383">
        <ele>1479.0</ele>
        <time>2016-03-13T13:14:48Z</time>
      </trkpt>
      <trkpt lat="40.280217" lon="-4.876250">
        <ele>1479.0</ele>
        <time>2016-03-13T13:14:49Z</time>
      </trkpt>
      <trkpt lat="40.280267" lon="-4.876133">
        <ele>1479.0</ele>
        <time>2016-03-13T13:14:50Z</time>
      </trkpt>
      <trkpt lat="40.280300" lon="-4.876017">
        <ele>1478.0</ele>
        <time>2016-03-13T13:14:51Z</time>
      </trkpt>
      <trkpt lat="40.280350" lon="-4.875900">
        <ele>1477.0</ele>
        <time>2016-03-13T13:14:52Z</time>
      </trkpt>
      <trkpt lat="40.280400" lon="-4.875783">
        <ele>1476.0</ele>
        <time>2016-03-13T13:14:53Z</time>
      </trkpt>
      <trkpt lat="40.280450" lon="-4.875667">
        <ele>1476.0</ele>
        <time>2016-03-13T13:14:54Z</time>
      </trkpt>
      <trkpt lat="40.280483" lon="-4.875550">
        <ele>1475.0</ele>
        <time>2016-03-13T13:14:55Z</time>
      </trkpt>
      <trkpt lat="40.280517" lon="-4.875433">
        <ele>1475.0</ele>
        <time>2016-03-13T13:14:56Z</time>
      </trkpt>
      <trkpt lat="40.280567" lon="-4.875333">
        <ele>1473.0</ele>
        <time>2016-03-13T13:14:57Z</time>
      </trkpt>
      <trkpt lat="40.280617" lon="-4.875217">
        <ele>1471.0</ele>
        <time>2016-03-13T13:14:58Z</time>
      </trkpt>
      <trkpt lat="40.280667" lon="-4.875117">
        <ele>1468.0</ele>
        <time>2016-03-13T13:14:59Z</time>
      </trkpt>
      <trkpt lat="40.280717" lon="-4.875000">
        <ele>1466.0</ele>
        <time>2016-03-13T13:15:00Z</time>
      </trkpt>
      <trkpt lat="40.280767" lon="-4.874883">
        <ele>1464.0</ele>
        <time>2016-03-13T13:15:01Z</time>
      </trkpt>
      <trkpt lat="40.280817" lon="-4.874750">
        <ele>1462.0</ele>
        <time>2016-03-13T13:15:02Z</time>
      </trkpt>
      <trkpt lat="40.280850" lon="-4.874617">
        <ele>1461.0</ele>
        <time>2016-03-13T13:15:03Z</time>
      </trkpt>
      <trkpt lat="40.280883" lon="-4.874500">
        <ele>1459.0</ele>
        <time>2016-03-13T13:15:04Z</time>
      </trkpt>
      <trkpt lat="40.280933" lon="-4.874383">
        <ele>1457.0</ele>
        <time>2016-03-13T13:15:05Z</time>
      </trkpt>
      <trkpt lat="40.281000" lon="-4.874267">
        <ele>1455.0</ele>
        <time>2016-03-13T13:15:06Z</time>
      </trkpt>
      <trkpt lat="40.281050" lon="-4.874133">
        <ele>1453.0</ele>
        <time>2016-03-13T13:15:07Z</time>
      </trkpt>
      <trkpt lat="40.281100" lon="-4.874000">
        <ele>1451.0</ele>
        <time>2016-03-13T13:15:08Z</time>
      </trkpt>
      <trkpt lat="40.281150" lon="-4.873883">
        <ele>1451.0</ele>
        <time>2016-03-13T13:15:09Z</time>
      </trkpt>
      <trkpt lat="40.281200" lon="-4.873767">
        <ele>1451.0</ele>
        <time>2016-03-13T13:15:10Z</time>
      </trkpt>
      <trkpt lat="40.281233" lon="-4.873650">
        <ele>1450.0</ele>
        <time>2016-03-13T13:15:11Z</time>
      </trkpt>
      <trkpt lat="40.281283" lon="-4.873550">
        <ele>1448.0</ele>
        <time>2016-03-13T13:15:12Z</time>
      </trkpt>
      <trkpt lat="40.281333" lon="-4.873433">
        <ele>1446.0</ele>
        <time>2016-03-13T13:15:13Z</time>
      </trkpt>
      <trkpt lat="40.281383" lon="-4.873300">
        <ele>1444.0</ele>
        <time>2016-03-13T13:15:14Z</time>
      </trkpt>
      <trkpt lat="40.281433" lon="-4.873167">
        <ele>1443.0</ele>
        <time>2016-03-13T13:15:15Z</time>
      </trkpt>
      <trkpt lat="40.281467" lon="-4.873033">
        <ele>1443.0</ele>
        <time>2016-03-13T13:15:16Z</time>
      </trkpt>
      <trkpt lat="40.281500" lon="-4.872917">
        <ele>1441.0</ele>
        <time>2016-03-13T13:15:17Z</time>
      </trkpt>
      <trkpt lat="40.281533" lon="-4.872800">
        <ele>1441.0</ele>
        <time>2016-03-13T13:15:18Z</time>
      </trkpt>
      <trkpt lat="40.281567" lon="-4.872700">
        <ele>1440.0</ele>
        <time>2016-03-13T13:15:19Z</time>
      </trkpt>
      <trkpt lat="40.281600" lon="-4.872583">
        <ele>1438.0</ele>
        <time>2016-03-13T13:15:20Z</time>
      </trkpt>
      <trkpt lat="40.281633" lon="-4.872467">
        <ele>1436.0</ele>
        <time>2016-03-13T13:15:21Z</time>
      </trkpt>
      <trkpt lat="40.281683" lon="-4.872333">
        <ele>1435.0</ele>
        <time>2016-03-13T13:15:22Z</time>
      </trkpt>
      <trkpt lat="40.281733" lon="-4.872200">
        <ele>1435.0</ele>
        <time>2016-03-13T13:15:23Z</time>
      </trkpt>
      <trkpt lat="40.281767" lon="-4.872083">
        <ele>1435.0</ele>
        <time>2016-03-13T13:15:24Z</time>
      </trkpt>
      <trkpt lat="40.281817" lon="-4.871967">
        <ele>1436.0</ele>
        <time>2016-03-13T13:15:25Z</time>
      </trkpt>
      <trkpt lat="40.281850" lon="-4.871850">
        <ele>1436.0</ele>
        <time>2016-03-13T13:15:26Z</time>
      </trkpt>
      <trkpt lat="40.281900" lon="-4.871733">
        <ele>1435.0</ele>
        <time>2016-03-13T13:15:27Z</time>
      </trkpt>
      <trkpt lat="40.281950" lon="-4.871600">
        <ele>1434.0</ele>
        <time>2016-03-13T13:15:28Z</time>
      </trkpt>
      <trkpt lat="40.281983" lon="-4.871467">
        <ele>1433.0</ele>
        <time>2016-03-13T13:15:29Z</time>
      </trkpt>
      <trkpt lat="40.282017" lon="-4.871317">
        <ele>1434.0</ele>
        <time>2016-03-13T13:15:30Z</time>
      </trkpt>
      <trkpt lat="40.282050" lon="-4.871183">
        <ele>1434.0</ele>
        <time>2016-03-13T13:15:31Z</time>
      </trkpt>
      <trkpt lat="40.282067" lon="-4.871050">
        <ele>1435.0</ele>
        <time>2016-03-13T13:15:32Z</time>
      </trkpt>
      <trkpt lat="40.282100" lon="-4.870917">
        <ele>1435.0</ele>
        <time>2016-03-13T13:15:33Z</time>
      </trkpt>
      <trkpt lat="40.282133" lon="-4.870783">
        <ele>1434.0</ele>
        <time>2016-03-13T13:15:34Z</time>
      </trkpt>
      <trkpt lat="40.282150" lon="-4.870633">
        <ele>1433.0</ele>
        <time>2016-03-13T13:15:35Z</time>
      </trkpt>
      <trkpt lat="40.282183" lon="-4.870483">
        <ele>1432.0</ele>
        <time>2016-03-13T13:15:36Z</time>
      </trkpt>
      <trkpt lat="40.282200" lon="-4.870333">
        <ele>1431.0</ele>
        <time>2016-03-13T13:15:37Z</time>
      </trkpt>
      <trkpt lat="40.282217" lon="-4.870183">
        <ele>1431.0</ele>
        <time>2016-03-13T13:15:38Z</time>
      </trkpt>
      <trkpt lat="40.282233" lon="-4.870033">
        <ele>1430.0</ele>
        <time>2016-03-13T13:15:39Z</time>
      </trkpt>
      <trkpt lat="40.282250" lon="-4.869900">
        <ele>1428.0</ele>
        <time>2016-03-13T13:15:40Z</time>
      </trkpt>
      <trkpt lat="40.282267" lon="-4.869750">
        <ele>1427.0</ele>
        <time>2016-03-13T13:15:41Z</time>
      </trkpt>
      <trkpt lat="40.282300" lon="-4.869600">
        <ele>1425.0</ele>
        <time>2016-03-13T13:15:42Z</time>
      </trkpt>
      <trkpt lat="40.282317" lon="-4.869450">
        <ele>1423.0</ele>
        <time>2016-03-13T13:15:43Z</time>
      </trkpt>
      <trkpt lat="40.282350" lon="-4.869300">
        <ele>1421.0</ele>
        <time>2016-03-13T13:15:44Z</time>
      </trkpt>
      <trkpt lat="40.282367" lon="-4.869150">
        <ele>1419.0</ele>
        <time>2016-03-13T13:15:45Z</time>
      </trkpt>
      <trkpt lat="40.282383" lon="-4.869017">
        <ele>1418.0</ele>
        <time>2016-03-13T13:15:46Z</time>
      </trkpt>
      <trkpt lat="40.282417" lon="-4.868883">
        <ele>1415.0</ele>
        <time>2016-03-13T13:15:47Z</time>
      </trkpt>
      <trkpt lat="40.282450" lon="-4.868733">
        <ele>1413.0</ele>
        <time>2016-03-13T13:15:48Z</time>
      </trkpt>
      <trkpt lat="40.282483" lon="-4.868600">
        <ele>1411.0</ele>
        <time>2016-03-13T13:15:49Z</time>
      </trkpt>
      <trkpt lat="40.282517" lon="-4.868467">
        <ele>1410.0</ele>
        <time>2016-03-13T13:15:50Z</time>
      </trkpt>
      <trkpt lat="40.282567" lon="-4.868350">
        <ele>1408.0</ele>
        <time>2016-03-13T13:15:51Z</time>
      </trkpt>
      <trkpt lat="40.282600" lon="-4.868217">
        <ele>1406.0</ele>
        <time>2016-03-13T13:15:52Z</time>
      </trkpt>
      <trkpt lat="40.282650" lon="-4.868100">
        <ele>1403.0</ele>
        <time>2016-03-13T13:15:53Z</time>
      </trkpt>
      <trkpt lat="40.282700" lon="-4.867983">
        <ele>1402.0</ele>
        <time>2016-03-13T13:15:54Z</time>
      </trkpt>
      <trkpt lat="40.282750" lon="-4.867883">
        <ele>1400.0</ele>
        <time>2016-03-13T13:15:55Z</time>
      </trkpt>
      <trkpt lat="40.282800" lon="-4.867767">
        <ele>1398.0</ele>
        <time>2016-03-13T13:15:56Z</time>
      </trkpt>
      <trkpt lat="40.282867" lon="-4.867667">
        <ele>1397.0</ele>
        <time>2016-03-13T13:15:57Z</time>
      </trkpt>
      <trkpt lat="40.282917" lon="-4.867550">
        <ele>1396.0</ele>
        <time>2016-03-13T13:15:58Z</time>
      </trkpt>
      <trkpt lat="40.282967" lon="-4.867450">
        <ele>1394.0</ele>
        <time>2016-03-13T13:15:59Z</time>
      </trkpt>
      <trkpt lat="40.283017" lon="-4.867333">
        <ele>1392.0</ele>
        <time>2016-03-13T13:16:00Z</time>
      </trkpt>
      <trkpt lat="40.283067" lon="-4.867233">
        <ele>1390.0</ele>
        <time>2016-03-13T13:16:01Z</time>
      </trkpt>
      <trkpt lat="40.283133" lon="-4.867117">
        <ele>1388.0</ele>
        <time>2016-03-13T13:16:02Z</time>
      </trkpt>
      <trkpt lat="40.283200" lon="-4.867017">
        <ele>1386.0</ele>
        <time>2016-03-13T13:16:03Z</time>
      </trkpt>
      <trkpt lat="40.283250" lon="-4.866900">
        <ele>1384.0</ele>
        <time>2016-03-13T13:16:04Z</time>
      </trkpt>
      <trkpt lat="40.283300" lon="-4.866783">
        <ele>1382.0</ele>
        <time>2016-03-13T13:16:05Z</time>
      </trkpt>
      <trkpt lat="40.283350" lon="-4.866667">
        <ele>1380.0</ele>
        <time>2016-03-13T13:16:06Z</time>
      </trkpt>
      <trkpt lat="40.283400" lon="-4.866550">
        <ele>1378.0</ele>
        <time>2016-03-13T13:16:07Z</time>
      </trkpt>
      <trkpt lat="40.283450" lon="-4.866417">
        <ele>1375.0</ele>
        <time>2016-03-13T13:16:08Z</time>
      </trkpt>
      <trkpt lat="40.283517" lon="-4.866283">
        <ele>1373.0</ele>
        <time>2016-03-13T13:16:09Z</time>
      </trkpt>
      <trkpt lat="40.283567" lon="-4.866150">
        <ele>1372.0</ele>
        <time>2016-03-13T13:16:10Z</time>
      </trkpt>
      <trkpt lat="40.283633" lon="-4.866033">
        <ele>1372.0</ele>
        <time>2016-03-13T13:16:11Z</time>
      </trkpt>
      <trkpt lat="40.283700" lon="-4.865933">
        <ele>1372.0</ele>
        <time>2016-03-13T13:16:12Z</time>
      </trkpt>
      <trkpt lat="40.283767" lon="-4.865833">
        <ele>1371.0</ele>
        <time>2016-03-13T13:16:13Z</time>
      </trkpt>
      <trkpt lat="40.283833" lon="-4.865733">
        <ele>1369.0</ele>
        <time>2016-03-13T13:16:14Z</time>
      </trkpt>
      <trkpt lat="40.283883" lon="-4.865633">
        <ele>1367.0</ele>
        <time>2016-03-13T13:16:15Z</time>
      </trkpt>
      <trkpt lat="40.283950" lon="-4.865500">
        <ele>1366.0</ele>
        <time>2016-03-13T13:16:16Z</time>
      </trkpt>
      <trkpt lat="40.284000" lon="-4.865383">
        <ele>1364.0</ele>
        <time>2016-03-13T13:16:17Z</time>
      </trkpt>
      <trkpt lat="40.284067" lon="-4.865267">
        <ele>1364.0</ele>
        <time>2016-03-13T13:16:18Z</time>
      </trkpt>
      <trkpt lat="40.284133" lon="-4.865150">
        <ele>1363.0</ele>
        <time>2016-03-13T13:16:19Z</time>
      </trkpt>
      <trkpt lat="40.284183" lon="-4.865050">
        <ele>1362.0</ele>
        <time>2016-03-13T13:16:20Z</time>
      </trkpt>
      <trkpt lat="40.284250" lon="-4.864933">
        <ele>1361.0</ele>
        <time>2016-03-13T13:16:21Z</time>
      </trkpt>
      <trkpt lat="40.284300" lon="-4.864833">
        <ele>1358.0</ele>
        <time>2016-03-13T13:16:22Z</time>
      </trkpt>
      <trkpt lat="40.284367" lon="-4.864700">
        <ele>1356.0</ele>
        <time>2016-03-13T13:16:23Z</time>
      </trkpt>
      <trkpt lat="40.284433" lon="-4.864567">
        <ele>1353.0</ele>
        <time>2016-03-13T13:16:24Z</time>
      </trkpt>
      <trkpt lat="40.284483" lon="-4.864417">
        <ele>1352.0</ele>
        <time>2016-03-13T13:16:25Z</time>
      </trkpt>
      <trkpt lat="40.284517" lon="-4.864267">
        <ele>1351.0</ele>
        <time>2016-03-13T13:16:26Z</time>
      </trkpt>
      <trkpt lat="40.284533" lon="-4.864117">
        <ele>1352.0</ele>
        <time>2016-03-13T13:16:27Z</time>
      </trkpt>
      <trkpt lat="40.284550" lon="-4.863983">
        <ele>1353.0</ele>
        <time>2016-03-13T13:16:28Z</time>
      </trkpt>
      <trkpt lat="40.284583" lon="-4.863883">
        <ele>1353.0</ele>
        <time>2016-03-13T13:16:29Z</time>
      </trkpt>
      <trkpt lat="40.284633" lon="-4.863767">
        <ele>1351.0</ele>
        <time>2016-03-13T13:16:30Z</time>
      </trkpt>
      <trkpt lat="40.284683" lon="-4.863667">
        <ele>1349.0</ele>
        <time>2016-03-13T13:16:31Z</time>
      </trkpt>
      <trkpt lat="40.284750" lon="-4.863550">
        <ele>1347.0</ele>
        <time>2016-03-13T13:16:32Z</time>
      </trkpt>
      <trkpt lat="40.284833" lon="-4.863433">
        <ele>1347.0</ele>
        <time>2016-03-13T13:16:33Z</time>
      </trkpt>
      <trkpt lat="40.284917" lon="-4.863300">
        <ele>1347.0</ele>
        <time>2016-03-13T13:16:34Z</time>
      </trkpt>
      <trkpt lat="40.285017" lon="-4.863183">
        <ele>1349.0</ele>
        <time>2016-03-13T13:16:35Z</time>
      </trkpt>
      <trkpt lat="40.285083" lon="-4.863067">
        <ele>1352.0</ele>
        <time>2016-03-13T13:16:36Z</time>
      </trkpt>
      <trkpt lat="40.285167" lon="-4.862950">
        <ele>1354.0</ele>
        <time>2016-03-13T13:16:37Z</time>
      </trkpt>
      <trkpt lat="40.285233" lon="-4.862850">
        <ele>1357.0</ele>
        <time>2016-03-13T13:16:38Z</time>
      </trkpt>
      <trkpt lat="40.285317" lon="-4.862767">
        <ele>1358.0</ele>
        <time>2016-03-13T13:16:39Z</time>
      </trkpt>
      <trkpt lat="40.285400" lon="-4.862700">
        <ele>1359.0</ele>
        <time>2016-03-13T13:16:40Z</time>
      </trkpt>
      <trkpt lat="40.285500" lon="-4.862667">
        <ele>1359.0</ele>
        <time>2016-03-13T13:16:41Z</time>
      </trkpt>
      <trkpt lat="40.285617" lon="-4.862683">
        <ele>1358.0</ele>
        <time>2016-03-13T13:16:42Z</time>
      </trkpt>
      <trkpt lat="40.285700" lon="-4.862717">
        <ele>1358.0</ele>
        <time>2016-03-13T13:16:43Z</time>
      </trkpt>
      <trkpt lat="40.285783" lon="-4.862783">
        <ele>1358.0</ele>
        <time>2016-03-13T13:16:44Z</time>
      </trkpt>
      <trkpt lat="40.285850" lon="-4.862850">
        <ele>1358.0</ele>
        <time>2016-03-13T13:16:45Z</time>
      </trkpt>
      <trkpt lat="40.285900" lon="-4.862950">
        <ele>1357.0</ele>
        <time>2016-03-13T13:16:46Z</time>
      </trkpt>
      <trkpt lat="40.285933" lon="-4.863067">
        <ele>1356.0</ele>
        <time>2016-03-13T13:16:47Z</time>
      </trkpt>
      <trkpt lat="40.285917" lon="-4.863200">
        <ele>1355.0</ele>
        <time>2016-03-13T13:16:48Z</time>
      </trkpt>
      <trkpt lat="40.285900" lon="-4.863333">
        <ele>1355.0</ele>
        <time>2016-03-13T13:16:49Z</time>
      </trkpt>
      <trkpt lat="40.285833" lon="-4.863450">
        <ele>1357.0</ele>
        <time>2016-03-13T13:16:50Z</time>
      </trkpt>
      <trkpt lat="40.285783" lon="-4.863550">
        <ele>1359.0</ele>
        <time>2016-03-13T13:16:51Z</time>
      </trkpt>
      <trkpt lat="40.285750" lon="-4.863650">
        <ele>1361.0</ele>
        <time>2016-03-13T13:16:52Z</time>
      </trkpt>
      <trkpt lat="40.285717" lon="-4.863750">
        <ele>1363.0</ele>
        <time>2016-03-13T13:16:53Z</time>
      </trkpt>
      <trkpt lat="40.285683" lon="-4.863850">
        <ele>1364.0</ele>
        <time>2016-03-13T13:16:54Z</time>
      </trkpt>
      <trkpt lat="40.285650" lon="-4.863950">
        <ele>1364.0</ele>
        <time>2016-03-13T13:16:55Z</time>
      </trkpt>
      <trkpt lat="40.285583" lon="-4.863983">
        <ele>1364.0</ele>
        <time>2016-03-13T13:16:56Z</time>
      </trkpt>
      <trkpt lat="40.285500" lon="-4.863967">
        <ele>1363.0</ele>
        <time>2016-03-13T13:16:57Z</time>
      </trkpt>
      <trkpt lat="40.285433" lon="-4.863900">
        <ele>1362.0</ele>
        <time>2016-03-13T13:16:58Z</time>
      </trkpt>
      <trkpt lat="40.285400" lon="-4.863783">
        <ele>1363.0</ele>
        <time>2016-03-13T13:16:59Z</time>
      </trkpt>
      <trkpt lat="40.285383" lon="-4.863667">
        <ele>1364.0</ele>
        <time>2016-03-13T13:17:00Z</time>
      </trkpt>
      <trkpt lat="40.285417" lon="-4.863533">
        <ele>1364.0</ele>
        <time>2016-03-13T13:17:01Z</time>
      </trkpt>
      <trkpt lat="40.285467" lon="-4.863417">
        <ele>1364.0</ele>
        <time>2016-03-13T13:17:02Z</time>
      </trkpt>
      <trkpt lat="40.285550" lon="-4.863300">
        <ele>1363.0</ele>
        <time>2016-03-13T13:17:03Z</time>
      </trkpt>
      <trkpt lat="40.285650" lon="-4.863217">
        <ele>1364.0</ele>
        <time>2016-03-13T13:17:04Z</time>
      </trkpt>
      <trkpt lat="40.285767" lon="-4.863167">
        <ele>1366.0</ele>
        <time>2016-03-13T13:17:05Z</time>
      </trkpt>
      <trkpt lat="40.285883" lon="-4.863167">
        <ele>1367.0</ele>
        <time>2016-03-13T13:17:06Z</time>
      </trkpt>
      <trkpt lat="40.285983" lon="-4.863217">
        <ele>1367.0</ele>
        <time>2016-03-13T13:17:07Z</time>
      </trkpt>
      <trkpt lat="40.286083" lon="-4.863283">
        <ele>1367.0</ele>
        <time>2016-03-13T13:17:08Z</time>
      </trkpt>
      <trkpt lat="40.286150" lon="-4.863367">
        <ele>1367.0</ele>
        <time>2016-03-13T13:17:09Z</time>
      </trkpt>
      <trkpt lat="40.286200" lon="-4.863483">
        <ele>1366.0</ele>
        <time>2016-03-13T13:17:10Z</time>
      </trkpt>
      <trkpt lat="40.286200" lon="-4.863600">
        <ele>1366.0</ele>
        <time>2016-03-13T13:17:11Z</time>
      </trkpt>
      <trkpt lat="40.286183" lon="-4.863717">
        <ele>1366.0</ele>
        <time>2016-03-13T13:17:12Z</time>
      </trkpt>
      <trkpt lat="40.286133" lon="-4.863800">
        <ele>1366.0</ele>
        <time>2016-03-13T13:17:13Z</time>
      </trkpt>
      <trkpt lat="40.286067" lon="-4.863867">
        <ele>1366.0</ele>
        <time>2016-03-13T13:17:14Z</time>
      </trkpt>
      <trkpt lat="40.285983" lon="-4.863900">
        <ele>1366.0</ele>
        <time>2016-03-13T13:17:15Z</time>
      </trkpt>
      <trkpt lat="40.285917" lon="-4.863950">
        <ele>1367.0</ele>
        <time>2016-03-13T13:17:16Z</time>
      </trkpt>
      <trkpt lat="40.285850" lon="-4.864000">
        <ele>1369.0</ele>
        <time>2016-03-13T13:17:17Z</time>
      </trkpt>
      <trkpt lat="40.285783" lon="-4.864050">
        <ele>1370.0</ele>
        <time>2016-03-13T13:17:18Z</time>
      </trkpt>
      <trkpt lat="40.285733" lon="-4.864133">
        <ele>1371.0</ele>
        <time>2016-03-13T13:17:19Z</time>
      </trkpt>
      <trkpt lat="40.285700" lon="-4.864200">
        <ele>1372.0</ele>
        <time>2016-03-13T13:17:20Z</time>
      </trkpt>
      <trkpt lat="40.285683" lon="-4.864283">
        <ele>1374.0</ele>
        <time>2016-03-13T13:17:21Z</time>
      </trkpt>
      <trkpt lat="40.285700" lon="-4.864383">
        <ele>1374.0</ele>
        <time>2016-03-13T13:17:22Z</time>
      </trkpt>
      <trkpt lat="40.285750" lon="-4.864483">
        <ele>1375.0</ele>
        <time>2016-03-13T13:17:23Z</time>
      </trkpt>
      <trkpt lat="40.285833" lon="-4.864567">
        <ele>1374.0</ele>
        <time>2016-03-13T13:17:24Z</time>
      </trkpt>
      <trkpt lat="40.285933" lon="-4.864617">
        <ele>1375.0</ele>
        <time>2016-03-13T13:17:25Z</time>
      </trkpt>
      <trkpt lat="40.286067" lon="-4.864633">
        <ele>1376.0</ele>
        <time>2016-03-13T13:17:26Z</time>
      </trkpt>
      <trkpt lat="40.286183" lon="-4.864583">
        <ele>1378.0</ele>
        <time>2016-03-13T13:17:27Z</time>
      </trkpt>
      <trkpt lat="40.286267" lon="-4.864517">
        <ele>1379.0</ele>
        <time>2016-03-13T13:17:28Z</time>
      </trkpt>
      <trkpt lat="40.286317" lon="-4.864400">
        <ele>1378.0</ele>
        <time>2016-03-13T13:17:29Z</time>
      </trkpt>
      <trkpt lat="40.286333" lon="-4.864267">
        <ele>1377.0</ele>
        <time>2016-03-13T13:17:30Z</time>
      </trkpt>
      <trkpt lat="40.286333" lon="-4.864133">
        <ele>1377.0</ele>
        <time>2016-03-13T13:17:31Z</time>
      </trkpt>
      <trkpt lat="40.286300" lon="-4.864033">
        <ele>1378.0</ele>
        <time>2016-03-13T13:17:32Z</time>
      </trkpt>
      <trkpt lat="40.286250" lon="-4.863967">
        <ele>1379.0</ele>
        <time>2016-03-13T13:17:33Z</time>
      </trkpt>
      <trkpt lat="40.286183" lon="-4.863933">
        <ele>1379.0</ele>
        <time>2016-03-13T13:17:34Z</time>
      </trkpt>
      <trkpt lat="40.286100" lon="-4.863933">
        <ele>1380.0</ele>
        <time>2016-03-13T13:17:35Z</time>
      </trkpt>
      <trkpt lat="40.286033" lon="-4.863933">
        <ele>1381.0</ele>
        <time>2016-03-13T13:17:36Z</time>
      </trkpt>
      <trkpt lat="40.285967" lon="-4.863950">
        <ele>1382.0</ele>
        <time>2016-03-13T13:17:37Z</time>
      </trkpt>
      <trkpt lat="40.285900" lon="-4.863983">
        <ele>1383.0</ele>
        <time>2016-03-13T13:17:38Z</time>
      </trkpt>
      <trkpt lat="40.285850" lon="-4.864050">
        <ele>1384.0</ele>
        <time>2016-03-13T13:17:39Z</time>
      </trkpt>
      <trkpt lat="40.285817" lon="-4.864133">
        <ele>1385.0</ele>
        <time>2016-03-13T13:17:40Z</time>
      </trkpt>
      <trkpt lat="40.285783" lon="-4.864233">
        <ele>1386.0</ele>
        <time>2016-03-13T13:17:41Z</time>
      </trkpt>
      <trkpt lat="40.285783" lon="-4.864333">
        <ele>1387.0</ele>
        <time>2016-03-13T13:17:42Z</time>
      </trkpt>
      <trkpt lat="40.285800" lon="-4.864433">
        <ele>1388.0</ele>
        <time>2016-03-13T13:17:43Z</time>
      </trkpt>
      <trkpt lat="40.285850" lon="-4.864500">
        <ele>1387.0</ele>
        <time>2016-03-13T13:17:44Z</time>
      </trkpt>
      <trkpt lat="40.285933" lon="-4.864583">
        <ele>1386.0</ele>
        <time>2016-03-13T13:17:45Z</time>
      </trkpt>
      <trkpt lat="40.286033" lon="-4.864650">
        <ele>1386.0</ele>
        <time>2016-03-13T13:17:46Z</time>
      </trkpt>
      <trkpt lat="40.286133" lon="-4.864700">
        <ele>1387.0</ele>
        <time>2016-03-13T13:17:47Z</time>
      </trkpt>
      <trkpt lat="40.286233" lon="-4.864717">
        <ele>1389.0</ele>
        <time>2016-03-13T13:17:48Z</time>
      </trkpt>
      <trkpt lat="40.286333" lon="-4.864700">
        <ele>1389.0</ele>
        <time>2016-03-13T13:17:49Z</time>
      </trkpt>
      <trkpt lat="40.286433" lon="-4.864617">
        <ele>1390.0</ele>
        <time>2016-03-13T13:17:50Z</time>
      </trkpt>
      <trkpt lat="40.286500" lon="-4.864517">
        <ele>1390.0</ele>
        <time>2016-03-13T13:17:51Z</time>
      </trkpt>
      <trkpt lat="40.286550" lon="-4.864400">
        <ele>1391.0</ele>
        <time>2016-03-13T13:17:52Z</time>
      </trkpt>
      <trkpt lat="40.286550" lon="-4.864283">
        <ele>1392.0</ele>
        <time>2016-03-13T13:17:53Z</time>
      </trkpt>
      <trkpt lat="40.286533" lon="-4.864183">
        <ele>1392.0</ele>
        <time>2016-03-13T13:17:54Z</time>
      </trkpt>
      <trkpt lat="40.286483" lon="-4.864100">
        <ele>1391.0</ele>
        <time>2016-03-13T13:17:55Z</time>
      </trkpt>
      <trkpt lat="40.286433" lon="-4.864017">
        <ele>1391.0</ele>
        <time>2016-03-13T13:17:56Z</time>
      </trkpt>
      <trkpt lat="40.286367" lon="-4.863950">
        <ele>1392.0</ele>
        <time>2016-03-13T13:17:57Z</time>
      </trkpt>
      <trkpt lat="40.286317" lon="-4.863883">
        <ele>1394.0</ele>
        <time>2016-03-13T13:17:58Z</time>
      </trkpt>
      <trkpt lat="40.286250" lon="-4.863833">
        <ele>1395.0</ele>
        <time>2016-03-13T13:17:59Z</time>
      </trkpt>
      <trkpt lat="40.286200" lon="-4.863783">
        <ele>1396.0</ele>
        <time>2016-03-13T13:18:00Z</time>
      </trkpt>
      <trkpt lat="40.286117" lon="-4.863750">
        <ele>1397.0</ele>
        <time>2016-03-13T13:18:01Z</time>
      </trkpt>
      <trkpt lat="40.286050" lon="-4.863700">
        <ele>1398.0</ele>
        <time>2016-03-13T13:18:02Z</time>
      </trkpt>
      <trkpt lat="40.286000" lon="-4.863650">
        <ele>1400.0</ele>
        <time>2016-03-13T13:18:03Z</time>
      </trkpt>
      <trkpt lat="40.285933" lon="-4.863600">
        <ele>1402.0</ele>
        <time>2016-03-13T13:18:04Z</time>
      </trkpt>
      <trkpt lat="40.285867" lon="-4.863583">
        <ele>1403.0</ele>
        <time>2016-03-13T13:18:05Z</time>
      </trkpt>
      <trkpt lat="40.285800" lon="-4.863617">
        <ele>1403.0</ele>
        <time>2016-03-13T13:18:06Z</time>
      </trkpt>
      <trkpt lat="40.285750" lon="-4.863683">
        <ele>1403.0</ele>
        <time>2016-03-13T13:18:07Z</time>
      </trkpt>
      <trkpt lat="40.285717" lon="-4.863783">
        <ele>1404.0</ele>
        <time>2016-03-13T13:18:08Z</time>
      </trkpt>
      <trkpt lat="40.285717" lon="-4.863883">
        <ele>1405.0</ele>
        <time>2016-03-13T13:18:09Z</time>
      </trkpt>
      <trkpt lat="40.285767" lon="-4.864000">
        <ele>1407.0</ele>
        <time>2016-03-13T13:18:10Z</time>
      </trkpt>
      <trkpt lat="40.285833" lon="-4.864083">
        <ele>1409.0</ele>
        <time>2016-03-13T13:18:11Z</time>
      </trkpt>
      <trkpt lat="40.285917" lon="-4.864117">
        <ele>1410.0</ele>
        <time>2016-03-13T13:18:12Z</time>
      </trkpt>
      <trkpt lat="40.286033" lon="-4.864117">
        <ele>1410.0</ele>
        <time>2016-03-13T13:18:13Z</time>
      </trkpt>
      <trkpt lat="40.286133" lon="-4.864050">
        <ele>1411.0</ele>
        <time>2016-03-13T13:18:14Z</time>
      </trkpt>
      <trkpt lat="40.286233" lon="-4.863967">
        <ele>1412.0</ele>
        <time>2016-03-13T13:18:15Z</time>
      </trkpt>
      <trkpt lat="40.286300" lon="-4.863833">
        <ele>1414.0</ele>
        <time>2016-03-13T13:18:16Z</time>
      </trkpt>
      <trkpt lat="40.286333" lon="-4.863700">
        <ele>1416.0</ele>
        <time>2016-03-13T13:18:17Z</time>
      </trkpt>
      <trkpt lat="40.286350" lon="-4.863583">
        <ele>1417.0</ele>
        <time>2016-03-13T13:18:18Z</time>
      </trkpt>
      <trkpt lat="40.286333" lon="-4.863450">
        <ele>1417.0</ele>
        <time>2016-03-13T13:18:19Z</time>
      </trkpt>
      <trkpt lat="40.286283" lon="-4.863350">
        <ele>1416.0</ele>
        <time>2016-03-13T13:18:20Z</time>
      </trkpt>
      <trkpt lat="40.286217" lon="-4.863283">
        <ele>1416.0</ele>
        <time>2016-03-13T13:18:21Z</time>
      </trkpt>
      <trkpt lat="40.286150" lon="-4.863267">
        <ele>1415.0</ele>
        <time>2016-03-13T13:18:22Z</time>
      </trkpt>
      <trkpt lat="40.286067" lon="-4.863300">
        <ele>1415.0</ele>
        <time>2016-03-13T13:18:23Z</time>
      </trkpt>
      <trkpt lat="40.286000" lon="-4.863367">
        <ele>1416.0</ele>
        <time>2016-03-13T13:18:24Z</time>
      </trkpt>
      <trkpt lat="40.285950" lon="-4.863433">
        <ele>1418.0</ele>
        <time>2016-03-13T13:18:25Z</time>
      </trkpt>
      <trkpt lat="40.285917" lon="-4.863500">
        <ele>1420.0</ele>
        <time>2016-03-13T13:18:26Z</time>
      </trkpt>
      <trkpt lat="40.285867" lon="-4.863550">
        <ele>1421.0</ele>
        <time>2016-03-13T13:18:27Z</time>
      </trkpt>
      <trkpt lat="40.285817" lon="-4.863600">
        <ele>1421.0</ele>
        <time>2016-03-13T13:18:28Z</time>
      </trkpt>
      <trkpt lat="40.285767" lon="-4.863667">
        <ele>1421.0</ele>
        <time>2016-03-13T13:18:29Z</time>
      </trkpt>
      <trkpt lat="40.285733" lon="-4.863733">
        <ele>1421.0</ele>
        <time>2016-03-13T13:18:30Z</time>
      </trkpt>
      <trkpt lat="40.285733" lon="-4.863833">
        <ele>1421.0</ele>
        <time>2016-03-13T13:18:31Z</time>
      </trkpt>
      <trkpt lat="40.285767" lon="-4.863917">
        <ele>1421.0</ele>
        <time>2016-03-13T13:18:32Z</time>
      </trkpt>
      <trkpt lat="40.285850" lon="-4.864000">
        <ele>1420.0</ele>
        <time>2016-03-13T13:18:33Z</time>
      </trkpt>
      <trkpt lat="40.285950" lon="-4.864050">
        <ele>1420.0</ele>
        <time>2016-03-13T13:18:34Z</time>
      </trkpt>
      <trkpt lat="40.286050" lon="-4.864083">
        <ele>1421.0</ele>
        <time>2016-03-13T13:18:35Z</time>
      </trkpt>
      <trkpt lat="40.286167" lon="-4.864067">
        <ele>1423.0</ele>
        <time>2016-03-13T13:18:36Z</time>
      </trkpt>
      <trkpt lat="40.286267" lon="-4.864017">
        <ele>1425.0</ele>
        <time>2016-03-13T13:18:37Z</time>
      </trkpt>
      <trkpt lat="40.286367" lon="-4.863917">
        <ele>1426.0</ele>
        <time>2016-03-13T13:18:38Z</time>
      </trkpt>
      <trkpt lat="40.286417" lon="-4.863817">
        <ele>1427.0</ele>
        <time>2016-03-13T13:18:39Z</time>
      </trkpt>
      <trkpt lat="40.286450" lon="-4.863683">
        <ele>1427.0</ele>
        <time>2016-03-13T13:18:40Z</time>
      </trkpt>
      <trkpt lat="40.286450" lon="-4.863550">
        <ele>1427.0</ele>
        <time>2016-03-13T13:18:41Z</time>
      </trkpt>
      <trkpt lat="40.286433" lon="-4.863417">
        <ele>1426.0</ele>
        <time>2016-03-13T13:18:42Z</time>
      </trkpt>
      <trkpt lat="40.286383" lon="-4.863317">
        <ele>1426.0</ele>
        <time>2016-03-13T13:18:43Z</time>
      </trkpt>
      <trkpt lat="40.286317" lon="-4.863233">
        <ele>1427.0</ele>
        <time>2016-03-13T13:18:44Z</time>
      </trkpt>
      <trkpt lat="40.286250" lon="-4.863150">
        <ele>1429.0</ele>
        <time>2016-03-13T13:18:45Z</time>
      </trkpt>
      <trkpt lat="40.286183" lon="-4.863100">
        <ele>1430.0</ele>
        <time>2016-03-13T13:18:46Z</time>
      </trkpt>
      <trkpt lat="40.286133" lon="-4.863067">
        <ele>1430.0</ele>
        <time>2016-03-13T13:18:47Z</time>
      </trkpt>
      <trkpt lat="40.286067" lon="-4.863050">
        <ele>1429.0</ele>
        <time>2016-03-13T13:18:48Z</time>
      </trkpt>
      <trkpt lat="40.286017" lon="-4.863067">
        <ele>1428.0</ele>
        <time>2016-03-13T13:18:49Z</time>
      </trkpt>
      <trkpt lat="40.285983" lon="-4.863133">
        <ele>1427.0</ele>
        <time>2016-03-13T13:18:50Z</time>
      </trkpt>
      <trkpt lat="40.285967" lon="-4.863233">
        <ele>1425.0</ele>
        <time>2016-03-13T13:18:51Z</time>
      </trkpt>
      <trkpt lat="40.285983" lon="-4.863333">
        <ele>1424.0</ele>
        <time>2016-03-13T13:18:52Z</time>
      </trkpt>
      <trkpt lat="40.286033" lon="-4.863433">
        <ele>1425.0</ele>
        <time>2016-03-13T13:18:53Z</time>
      </trkpt>
      <trkpt lat="40.286100" lon="-4.863517">
        <ele>1425.0</ele>
        <time>2016-03-13T13:18:54Z</time>
      </trkpt>
      <trkpt lat="40.286167" lon="-4.863583">
        <ele>1426.0</ele>
        <time>2016-03-13T13:18:55Z</time>
      </trkpt>
      <trkpt lat="40.286250" lon="-4.863617">
        <ele>1427.0</ele>
        <time>2016-03-13T13:18:56Z</time>
      </trkpt>
      <trkpt lat="40.286350" lon="-4.863633">
        <ele>1427.0</ele>
        <time>2016-03-13T13:18:57Z</time>
      </trkpt>
      <trkpt lat="40.286450" lon="-4.863633">
        <ele>1427.0</ele>
        <time>2016-03-13T13:18:58Z</time>
      </trkpt>
      <trkpt lat="40.286550" lon="-4.863600">
        <ele>1428.0</ele>
        <time>2016-03-13T13:18:59Z</time>
      </trkpt>
      <trkpt lat="40.286650" lon="-4.863550">
        <ele>1428.0</ele>
        <time>2016-03-13T13:19:00Z</time>
      </trkpt>
      <trkpt lat="40.286750" lon="-4.863483">
        <ele>1428.0</ele>
        <time>2016-03-13T13:19:01Z</time>
      </trkpt>
      <trkpt lat="40.286833" lon="-4.863383">
        <ele>1428.0</ele>
        <time>2016-03-13T13:19:02Z</time>
      </trkpt>
      <trkpt lat="40.286900" lon="-4.863250">
        <ele>1428.0</ele>
        <time>2016-03-13T13:19:03Z</time>
      </trkpt>
      <trkpt lat="40.286917" lon="-4.863100">
        <ele>1429.0</ele>
        <time>2016-03-13T13:19:04Z</time>
      </trkpt>
      <trkpt lat="40.286900" lon="-4.862950">
        <ele>1429.0</ele>
        <time>2016-03-13T13:19:05Z</time>
      </trkpt>
      <trkpt lat="40.286867" lon="-4.862833">
        <ele>1429.0</ele>
        <time>2016-03-13T13:19:06Z</time>
      </trkpt>
      <trkpt lat="40.286833" lon="-4.862733">
        <ele>1430.0</ele>
        <time>2016-03-13T13:19:07Z</time>
      </trkpt>
      <trkpt lat="40.286783" lon="-4.862650">
        <ele>1431.0</ele>
        <time>2016-03-13T13:19:08Z</time>
      </trkpt>
      <trkpt lat="40.286750" lon="-4.862600">
        <ele>1430.0</ele>
        <time>2016-03-13T13:19:09Z</time>
      </trkpt>
      <trkpt lat="40.286717" lon="-4.862550">
        <ele>1429.0</ele>
        <time>2016-03-13T13:19:10Z</time>
      </trkpt>
      <trkpt lat="40.286650" lon="-4.862550">
        <ele>1426.0</ele>
        <time>2016-03-13T13:19:11Z</time>
      </trkpt>
      <trkpt lat="40.286600" lon="-4.862583">
        <ele>1423.0</ele>
        <time>2016-03-13T13:19:12Z</time>
      </trkpt>
      <trkpt lat="40.286550" lon="-4.862650">
        <ele>1420.0</ele>
        <time>2016-03-13T13:19:13Z</time>
      </trkpt>
      <trkpt lat="40.286517" lon="-4.862750">
        <ele>1419.0</ele>
        <time>2016-03-13T13:19:14Z</time>
      </trkpt>
      <trkpt lat="40.286500" lon="-4.862867">
        <ele>1419.0</ele>
        <time>2016-03-13T13:19:15Z</time>
      </trkpt>
      <trkpt lat="40.286517" lon="-4.862967">
        <ele>1420.0</ele>
        <time>2016-03-13T13:19:16Z</time>
      </trkpt>
      <trkpt lat="40.286533" lon="-4.863067">
        <ele>1421.0</ele>
        <time>2016-03-13T13:19:17Z</time>
      </trkpt>
      <trkpt lat="40.286567" lon="-4.863150">
        <ele>1422.0</ele>
        <time>2016-03-13T13:19:18Z</time>
      </trkpt>
      <trkpt lat="40.286583" lon="-4.863233">
        <ele>1422.0</ele>
        <time>2016-03-13T13:19:19Z</time>
      </trkpt>
      <trkpt lat="40.286600" lon="-4.863317">
        <ele>1422.0</ele>
        <time>2016-03-13T13:19:20Z</time>
      </trkpt>
      <trkpt lat="40.286650" lon="-4.863400">
        <ele>1422.0</ele>
        <time>2016-03-13T13:19:21Z</time>
      </trkpt>
      <trkpt lat="40.286700" lon="-4.863483">
        <ele>1422.0</ele>
        <time>2016-03-13T13:19:22Z</time>
      </trkpt>
      <trkpt lat="40.286767" lon="-4.863550">
        <ele>1422.0</ele>
        <time>2016-03-13T13:19:23Z</time>
      </trkpt>
      <trkpt lat="40.286850" lon="-4.863600">
        <ele>1423.0</ele>
        <time>2016-03-13T13:19:24Z</time>
      </trkpt>
      <trkpt lat="40.286933" lon="-4.863650">
        <ele>1424.0</ele>
        <time>2016-03-13T13:19:25Z</time>
      </trkpt>
      <trkpt lat="40.287017" lon="-4.863667">
        <ele>1425.0</ele>
        <time>2016-03-13T13:19:26Z</time>
      </trkpt>
      <trkpt lat="40.287083" lon="-4.863683">
        <ele>1424.0</ele>
        <time>2016-03-13T13:19:27Z</time>
      </trkpt>
      <trkpt lat="40.287167" lon="-4.863700">
        <ele>1423.0</ele>
        <time>2016-03-13T13:19:28Z</time>
      </trkpt>
      <trkpt lat="40.287267" lon="-4.863717">
        <ele>1423.0</ele>
        <time>2016-03-13T13:19:29Z</time>
      </trkpt>
      <trkpt lat="40.287383" lon="-4.863700">
        <ele>1422.0</ele>
        <time>2016-03-13T13:19:30Z</time>
      </trkpt>
      <trkpt lat="40.287500" lon="-4.863667">
        <ele>1423.0</ele>
        <time>2016-03-13T13:19:31Z</time>
      </trkpt>
      <trkpt lat="40.287617" lon="-4.863600">
        <ele>1423.0</ele>
        <time>2016-03-13T13:19:32Z</time>
      </trkpt>
      <trkpt lat="40.287700" lon="-4.863517">
        <ele>1424.0</ele>
        <time>2016-03-13T13:19:33Z</time>
      </trkpt>
      <trkpt lat="40.287767" lon="-4.863400">
        <ele>1425.0</ele>
        <time>2016-03-13T13:19:34Z</time>
      </trkpt>
      <trkpt lat="40.287817" lon="-4.863283">
        <ele>1426.0</ele>
        <time>2016-03-13T13:19:35Z</time>
      </trkpt>
      <trkpt lat="40.287850" lon="-4.863167">
        <ele>1427.0</ele>
        <time>2016-03-13T13:19:36Z</time>
      </trkpt>
      <trkpt lat="40.287867" lon="-4.863050">
        <ele>1427.0</ele>
        <time>2016-03-13T13:19:37Z</time>
      </trkpt>
      <trkpt lat="40.287883" lon="-4.862950">
        <ele>1425.0</ele>
        <time>2016-03-13T13:19:38Z</time>
      </trkpt>
      <trkpt lat="40.287867" lon="-4.862833">
        <ele>1423.0</ele>
        <time>2016-03-13T13:19:39Z</time>
      </trkpt>
      <trkpt lat="40.287833" lon="-4.862717">
        <ele>1421.0</ele>
        <time>2016-03-13T13:19:40Z</time>
      </trkpt>
      <trkpt lat="40.287800" lon="-4.862600">
        <ele>1421.0</ele>
        <time>2016-03-13T13:19:41Z</time>
      </trkpt>
      <trkpt lat="40.287767" lon="-4.862500">
        <ele>1420.0</ele>
        <time>2016-03-13T13:19:42Z</time>
      </trkpt>
      <trkpt lat="40.287733" lon="-4.862400">
        <ele>1420.0</ele>
        <time>2016-03-13T13:19:43Z</time>
      </trkpt>
      <trkpt lat="40.287717" lon="-4.862300">
        <ele>1419.0</ele>
        <time>2016-03-13T13:19:44Z</time>
      </trkpt>
      <trkpt lat="40.287683" lon="-4.862200">
        <ele>1417.0</ele>
        <time>2016-03-13T13:19:45Z</time>
      </trkpt>
      <trkpt lat="40.287650" lon="-4.862117">
        <ele>1416.0</ele>
        <time>2016-03-13T13:19:46Z</time>
      </trkpt>
      <trkpt lat="40.287600" lon="-4.862017">
        <ele>1415.0</ele>
        <time>2016-03-13T13:19:47Z</time>
      </trkpt>
      <trkpt lat="40.287567" lon="-4.861917">
        <ele>1414.0</ele>
        <time>2016-03-13T13:19:48Z</time>
      </trkpt>
      <trkpt lat="40.287550" lon="-4.861817">
        <ele>1414.0</ele>
        <time>2016-03-13T13:19:49Z</time>
      </trkpt>
      <trkpt lat="40.287533" lon="-4.861700">
        <ele>1414.0</ele>
        <time>2016-03-13T13:19:50Z</time>
      </trkpt>
      <trkpt lat="40.287550" lon="-4.861583">
        <ele>1414.0</ele>
        <time>2016-03-13T13:19:51Z</time>
      </trkpt>
      <trkpt lat="40.287550" lon="-4.861467">
        <ele>1414.0</ele>
        <time>2016-03-13T13:19:52Z</time>
      </trkpt>
      <trkpt lat="40.287550" lon="-4.861367">
        <ele>1414.0</ele>
        <time>2016-03-13T13:19:53Z</time>
      </trkpt>
      <trkpt lat="40.287550" lon="-4.861250">
        <ele>1414.0</ele>
        <time>2016-03-13T13:19:54Z</time>
      </trkpt>
      <trkpt lat="40.287550" lon="-4.861133">
        <ele>1415.0</ele>
        <time>2016-03-13T13:19:55Z</time>
      </trkpt>
      <trkpt lat="40.287550" lon="-4.861017">
        <ele>1416.0</ele>
        <time>2016-03-13T13:19:56Z</time>
      </trkpt>
      <trkpt lat="40.287550" lon="-4.860900">
        <ele>1416.0</ele>
        <time>2016-03-13T13:19:57Z</time>
      </trkpt>
      <trkpt lat="40.287533" lon="-4.860800">
        <ele>1417.0</ele>
        <time>2016-03-13T13:19:58Z</time>
      </trkpt>
      <trkpt lat="40.287517" lon="-4.860683">
        <ele>1417.0</ele>
        <time>2016-03-13T13:19:59Z</time>
      </trkpt>
      <trkpt lat="40.287517" lon="-4.860567">
        <ele>1417.0</ele>
        <time>2016-03-13T13:20:00Z</time>
      </trkpt>
      <trkpt lat="40.287500" lon="-4.860450">
        <ele>1418.0</ele>
        <time>2016-03-13T13:20:01Z</time>
      </trkpt>
      <trkpt lat="40.287500" lon="-4.860333">
        <ele>1419.0</ele>
        <time>2016-03-13T13:20:02Z</time>
      </trkpt>
      <trkpt lat="40.287500" lon="-4.860217">
        <ele>1420.0</ele>
        <time>2016-03-13T13:20:03Z</time>
      </trkpt>
      <trkpt lat="40.287483" lon="-4.860083">
        <ele>1420.0</ele>
        <time>2016-03-13T13:20:04Z</time>
      </trkpt>
      <trkpt lat="40.287483" lon="-4.859967">
        <ele>1421.0</ele>
        <time>2016-03-13T13:20:05Z</time>
      </trkpt>
      <trkpt lat="40.287467" lon="-4.859833">
        <ele>1422.0</ele>
        <time>2016-03-13T13:20:06Z</time>
      </trkpt>
      <trkpt lat="40.287450" lon="-4.859717">
        <ele>1422.0</ele>
        <time>2016-03-13T13:20:07Z</time>
      </trkpt>
      <trkpt lat="40.287433" lon="-4.859600">
        <ele>1422.0</ele>
        <time>2016-03-13T13:20:08Z</time>
      </trkpt>
      <trkpt lat="40.287450" lon="-4.859467">
        <ele>1421.0</ele>
        <time>2016-03-13T13:20:09Z</time>
      </trkpt>
      <trkpt lat="40.287467" lon="-4.859350">
        <ele>1420.0</ele>
        <time>2016-03-13T13:20:10Z</time>
      </trkpt>
      <trkpt lat="40.287517" lon="-4.859217">
        <ele>1419.0</ele>
        <time>2016-03-13T13:20:11Z</time>
      </trkpt>
      <trkpt lat="40.287600" lon="-4.859100">
        <ele>1419.0</ele>
        <time>2016-03-13T13:20:12Z</time>
      </trkpt>
      <trkpt lat="40.287700" lon="-4.859000">
        <ele>1419.0</ele>
        <time>2016-03-13T13:20:13Z</time>
      </trkpt>
      <trkpt lat="40.287817" lon="-4.858950">
        <ele>1419.0</ele>
        <time>2016-03-13T13:20:14Z</time>
      </trkpt>
      <trkpt lat="40.287933" lon="-4.858917">
        <ele>1420.0</ele>
        <time>2016-03-13T13:20:15Z</time>
      </trkpt>
      <trkpt lat="40.288050" lon="-4.858917">
        <ele>1420.0</ele>
        <time>2016-03-13T13:20:16Z</time>
      </trkpt>
      <trkpt lat="40.288167" lon="-4.858950">
        <ele>1421.0</ele>
        <time>2016-03-13T13:20:17Z</time>
      </trkpt>
      <trkpt lat="40.288267" lon="-4.859000">
        <ele>1421.0</ele>
        <time>2016-03-13T13:20:18Z</time>
      </trkpt>
      <trkpt lat="40.288367" lon="-4.859067">
        <ele>1421.0</ele>
        <time>2016-03-13T13:20:19Z</time>
      </trkpt>
      <trkpt lat="40.288467" lon="-4.859167">
        <ele>1421.0</ele>
        <time>2016-03-13T13:20:20Z</time>
      </trkpt>
      <trkpt lat="40.288533" lon="-4.859283">
        <ele>1421.0</ele>
        <time>2016-03-13T13:20:21Z</time>
      </trkpt>
      <trkpt lat="40.288567" lon="-4.859400">
        <ele>1421.0</ele>
        <time>2016-03-13T13:20:22Z</time>
      </trkpt>
      <trkpt lat="40.288567" lon="-4.859517">
        <ele>1421.0</ele>
        <time>2016-03-13T13:20:23Z</time>
      </trkpt>
      <trkpt lat="40.288533" lon="-4.859600">
        <ele>1420.0</ele>
        <time>2016-03-13T13:20:24Z</time>
      </trkpt>
      <trkpt lat="40.288500" lon="-4.859667">
        <ele>1420.0</ele>
        <time>2016-03-13T13:20:25Z</time>
      </trkpt>
      <trkpt lat="40.288450" lon="-4.859700">
        <ele>1420.0</ele>
        <time>2016-03-13T13:20:26Z</time>
      </trkpt>
      <trkpt lat="40.288400" lon="-4.859717">
        <ele>1420.0</ele>
        <time>2016-03-13T13:20:27Z</time>
      </trkpt>
      <trkpt lat="40.288333" lon="-4.859717">
        <ele>1420.0</ele>
        <time>2016-03-13T13:20:28Z</time>
      </trkpt>
      <trkpt lat="40.288267" lon="-4.859683">
        <ele>1420.0</ele>
        <time>2016-03-13T13:20:29Z</time>
      </trkpt>
      <trkpt lat="40.288183" lon="-4.859633">
        <ele>1421.0</ele>
        <time>2016-03-13T13:20:30Z</time>
      </trkpt>
      <trkpt lat="40.288133" lon="-4.859583">
        <ele>1423.0</ele>
        <time>2016-03-13T13:20:31Z</time>
      </trkpt>
      <trkpt lat="40.288100" lon="-4.859517">
        <ele>1424.0</ele>
        <time>2016-03-13T13:20:32Z</time>
      </trkpt>
      <trkpt lat="40.288083" lon="-4.859450">
        <ele>1424.0</ele>
        <time>2016-03-13T13:20:33Z</time>
      </trkpt>
      <trkpt lat="40.288050" lon="-4.859367">
        <ele>1423.0</ele>
        <time>2016-03-13T13:20:34Z</time>
      </trkpt>
      <trkpt lat="40.288033" lon="-4.859267">
        <ele>1421.0</ele>
        <time>2016-03-13T13:20:35Z</time>
      </trkpt>
      <trkpt lat="40.288033" lon="-4.859167">
        <ele>1420.0</ele>
        <time>2016-03-13T13:20:36Z</time>
      </trkpt>
      <trkpt lat="40.288017" lon="-4.859050">
        <ele>1420.0</ele>
        <time>2016-03-13T13:20:37Z</time>
      </trkpt>
      <trkpt lat="40.288017" lon="-4.858917">
        <ele>1420.0</ele>
        <time>2016-03-13T13:20:38Z</time>
      </trkpt>
      <trkpt lat="40.288000" lon="-4.858800">
        <ele>1421.0</ele>
        <time>2016-03-13T13:20:39Z</time>
      </trkpt>
      <trkpt lat="40.288000" lon="-4.858683">
        <ele>1422.0</ele>
        <time>2016-03-13T13:20:40Z</time>
      </trkpt>
      <trkpt lat="40.288000" lon="-4.858567">
        <ele>1422.0</ele>
        <time>2016-03-13T13:20:41Z</time>
      </trkpt>
      <trkpt lat="40.288000" lon="-4.858450">
        <ele>1422.0</ele>
        <time>2016-03-13T13:20:42Z</time>
      </trkpt>
      <trkpt lat="40.288000" lon="-4.858333">
        <ele>1420.0</ele>
        <time>2016-03-13T13:20:43Z</time>
      </trkpt>
      <trkpt lat="40.288000" lon="-4.858200">
        <ele>1420.0</ele>
        <time>2016-03-13T13:20:44Z</time>
      </trkpt>
      <trkpt lat="40.288000" lon="-4.858083">
        <ele>1419.0</ele>
        <time>2016-03-13T13:20:45Z</time>
      </trkpt>
      <trkpt lat="40.288000" lon="-4.857950">
        <ele>1417.0</ele>
        <time>2016-03-13T13:20:46Z</time>
      </trkpt>
      <trkpt lat="40.288000" lon="-4.857817">
        <ele>1416.0</ele>
        <time>2016-03-13T13:20:47Z</time>
      </trkpt>
      <trkpt lat="40.287983" lon="-4.857683">
        <ele>1415.0</ele>
        <time>2016-03-13T13:20:48Z</time>
      </trkpt>
      <trkpt lat="40.287983" lon="-4.857550">
        <ele>1415.0</ele>
        <time>2016-03-13T13:20:49Z</time>
      </trkpt>
      <trkpt lat="40.287967" lon="-4.857400">
        <ele>1414.0</ele>
        <time>2016-03-13T13:20:50Z</time>
      </trkpt>
      <trkpt lat="40.287950" lon="-4.857267">
        <ele>1414.0</ele>
        <time>2016-03-13T13:20:51Z</time>
      </trkpt>
      <trkpt lat="40.287933" lon="-4.857133">
        <ele>1413.0</ele>
        <time>2016-03-13T13:20:52Z</time>
      </trkpt>
      <trkpt lat="40.287917" lon="-4.857000">
        <ele>1412.0</ele>
        <time>2016-03-13T13:20:53Z</time>
      </trkpt>
      <trkpt lat="40.287900" lon="-4.856867">
        <ele>1411.0</ele>
        <time>2016-03-13T13:20:54Z</time>
      </trkpt>
      <trkpt lat="40.287883" lon="-4.856733">
        <ele>1410.0</ele>
        <time>2016-03-13T13:20:55Z</time>
      </trkpt>
      <trkpt lat="40.287850" lon="-4.856600">
        <ele>1408.0</ele>
        <time>2016-03-13T13:20:56Z</time>
      </trkpt>
      <trkpt lat="40.287833" lon="-4.856467">
        <ele>1407.0</ele>
        <time>2016-03-13T13:20:57Z</time>
      </trkpt>
      <trkpt lat="40.287800" lon="-4.856333">
        <ele>1406.0</ele>
        <time>2016-03-13T13:20:58Z</time>
      </trkpt>
      <trkpt lat="40.287767" lon="-4.856200">
        <ele>1405.0</ele>
        <time>2016-03-13T13:20:59Z</time>
      </trkpt>
      <trkpt lat="40.287733" lon="-4.856083">
        <ele>1404.0</ele>
        <time>2016-03-13T13:21:00Z</time>
      </trkpt>
      <trkpt lat="40.287700" lon="-4.855950">
        <ele>1403.0</ele>
        <time>2016-03-13T13:21:01Z</time>
      </trkpt>
      <trkpt lat="40.287683" lon="-4.855833">
        <ele>1402.0</ele>
        <time>2016-03-13T13:21:02Z</time>
      </trkpt>
      <trkpt lat="40.287650" lon="-4.855700">
        <ele>1400.0</ele>
        <time>2016-03-13T13:21:03Z</time>
      </trkpt>
      <trkpt lat="40.287600" lon="-4.855583">
        <ele>1398.0</ele>
        <time>2016-03-13T13:21:04Z</time>
      </trkpt>
      <trkpt lat="40.287567" lon="-4.855450">
        <ele>1396.0</ele>
        <time>2016-03-13T13:21:05Z</time>
      </trkpt>
      <trkpt lat="40.287517" lon="-4.855317">
        <ele>1394.0</ele>
        <time>2016-03-13T13:21:06Z</time>
      </trkpt>
      <trkpt lat="40.287483" lon="-4.855183">
        <ele>1393.0</ele>
        <time>2016-03-13T13:21:07Z</time>
      </trkpt>
      <trkpt lat="40.287467" lon="-4.855033">
        <ele>1391.0</ele>
        <time>2016-03-13T13:21:08Z</time>
      </trkpt>
      <trkpt lat="40.287450" lon="-4.854900">
        <ele>1391.0</ele>
        <time>2016-03-13T13:21:09Z</time>
      </trkpt>
      <trkpt lat="40.287433" lon="-4.854767">
        <ele>1390.0</ele>
        <time>2016-03-13T13:21:10Z</time>
      </trkpt>
      <trkpt lat="40.287417" lon="-4.854633">
        <ele>1389.0</ele>
        <time>2016-03-13T13:21:11Z</time>
      </trkpt>
      <trkpt lat="40.287383" lon="-4.854500">
        <ele>1388.0</ele>
        <time>2016-03-13T13:21:12Z</time>
      </trkpt>
      <trkpt lat="40.287367" lon="-4.854350">
        <ele>1386.0</ele>
        <time>2016-03-13T13:21:13Z</time>
      </trkpt>
      <trkpt lat="40.287367" lon="-4.854200">
        <ele>1385.0</ele>
        <time>2016-03-13T13:21:14Z</time>
      </trkpt>
      <trkpt lat="40.287367" lon="-4.854050">
        <ele>1384.0</ele>
        <time>2016-03-13T13:21:15Z</time>
      </trkpt>
      <trkpt lat="40.287383" lon="-4.853917">
        <ele>1384.0</ele>
        <time>2016-03-13T13:21:16Z</time>
      </trkpt>
      <trkpt lat="40.287383" lon="-4.853767">
        <ele>1383.0</ele>
        <time>2016-03-13T13:21:17Z</time>
      </trkpt>
      <trkpt lat="40.287367" lon="-4.853633">
        <ele>1383.0</ele>
        <time>2016-03-13T13:21:18Z</time>
      </trkpt>
      <trkpt lat="40.287367" lon="-4.853500">
        <ele>1382.0</ele>
        <time>2016-03-13T13:21:19Z</time>
      </trkpt>
      <trkpt lat="40.287350" lon="-4.853367">
        <ele>1381.0</ele>
        <time>2016-03-13T13:21:20Z</time>
      </trkpt>
      <trkpt lat="40.287350" lon="-4.853233">
        <ele>1381.0</ele>
        <time>2016-03-13T13:21:21Z</time>
      </trkpt>
      <trkpt lat="40.287333" lon="-4.853100">
        <ele>1380.0</ele>
        <time>2016-03-13T13:21:22Z</time>
      </trkpt>
      <trkpt lat="40.287317" lon="-4.852967">
        <ele>1378.0</ele>
        <time>2016-03-13T13:21:23Z</time>
      </trkpt>
      <trkpt lat="40.287300" lon="-4.852817">
        <ele>1378.0</ele>
        <time>2016-03-13T13:21:24Z</time>
      </trkpt>
      <trkpt lat="40.287283" lon="-4.852667">
        <ele>1377.0</ele>
        <time>2016-03-13T13:21:25Z</time>
      </trkpt>
      <trkpt lat="40.287283" lon="-4.852533">
        <ele>1378.0</ele>
        <time>2016-03-13T13:21:26Z</time>
      </trkpt>
      <trkpt lat="40.287267" lon="-4.852417">
        <ele>1379.0</ele>
        <time>2016-03-13T13:21:27Z</time>
      </trkpt>
      <trkpt lat="40.287267" lon="-4.852300">
        <ele>1378.0</ele>
        <time>2016-03-13T13:21:28Z</time>
      </trkpt>
      <trkpt lat="40.287250" lon="-4.852167">
        <ele>1377.0</ele>
        <time>2016-03-13T13:21:29Z</time>
      </trkpt>
      <trkpt lat="40.287250" lon="-4.852017">
        <ele>1375.0</ele>
        <time>2016-03-13T13:21:30Z</time>
      </trkpt>
      <trkpt lat="40.287233" lon="-4.851883">
        <ele>1373.0</ele>
        <time>2016-03-13T13:21:31Z</time>
      </trkpt>
      <trkpt lat="40.287217" lon="-4.851733">
        <ele>1372.0</ele>
        <time>2016-03-13T13:21:32Z</time>
      </trkpt>
      <trkpt lat="40.287200" lon="-4.851583">
        <ele>1371.0</ele>
        <time>2016-03-13T13:21:33Z</time>
      </trkpt>
      <trkpt lat="40.287183" lon="-4.851450">
        <ele>1369.0</ele>
        <time>2016-03-13T13:21:34Z</time>
      </trkpt>
      <trkpt lat="40.287183" lon="-4.851300">
        <ele>1367.0</ele>
        <time>2016-03-13T13:21:35Z</time>
      </trkpt>
      <trkpt lat="40.287167" lon="-4.851133">
        <ele>1365.0</ele>
        <time>2016-03-13T13:21:36Z</time>
      </trkpt>
      <trkpt lat="40.287167" lon="-4.850983">
        <ele>1364.0</ele>
        <time>2016-03-13T13:21:37Z</time>
      </trkpt>
      <trkpt lat="40.287167" lon="-4.850817">
        <ele>1362.0</ele>
        <time>2016-03-13T13:21:38Z</time>
      </trkpt>
      <trkpt lat="40.287167" lon="-4.850667">
        <ele>1361.0</ele>
        <time>2016-03-13T13:21:39Z</time>
      </trkpt>
      <trkpt lat="40.287183" lon="-4.850500">
        <ele>1360.0</ele>
        <time>2016-03-13T13:21:40Z</time>
      </trkpt>
      <trkpt lat="40.287183" lon="-4.850350">
        <ele>1360.0</ele>
        <time>2016-03-13T13:21:41Z</time>
      </trkpt>
      <trkpt lat="40.287183" lon="-4.850200">
        <ele>1361.0</ele>
        <time>2016-03-13T13:21:42Z</time>
      </trkpt>
      <trkpt lat="40.287183" lon="-4.850067">
        <ele>1361.0</ele>
        <time>2016-03-13T13:21:43Z</time>
      </trkpt>
      <trkpt lat="40.287183" lon="-4.849950">
        <ele>1361.0</ele>
        <time>2016-03-13T13:21:44Z</time>
      </trkpt>
      <trkpt lat="40.287183" lon="-4.849833">
        <ele>1361.0</ele>
        <time>2016-03-13T13:21:45Z</time>
      </trkpt>
      <trkpt lat="40.287200" lon="-4.849700">
        <ele>1360.0</ele>
        <time>2016-03-13T13:21:46Z</time>
      </trkpt>
      <trkpt lat="40.287217" lon="-4.849567">
        <ele>1359.0</ele>
        <time>2016-03-13T13:21:47Z</time>
      </trkpt>
      <trkpt lat="40.287250" lon="-4.849417">
        <ele>1358.0</ele>
        <time>2016-03-13T13:21:48Z</time>
      </trkpt>
      <trkpt lat="40.287283" lon="-4.849267">
        <ele>1358.0</ele>
        <time>2016-03-13T13:21:49Z</time>
      </trkpt>
      <trkpt lat="40.287300" lon="-4.849133">
        <ele>1360.0</ele>
        <time>2016-03-13T13:21:50Z</time>
      </trkpt>
      <trkpt lat="40.287333" lon="-4.848983">
        <ele>1362.0</ele>
        <time>2016-03-13T13:21:51Z</time>
      </trkpt>
      <trkpt lat="40.287367" lon="-4.848850">
        <ele>1364.0</ele>
        <time>2016-03-13T13:21:52Z</time>
      </trkpt>
      <trkpt lat="40.287383" lon="-4.848733">
        <ele>1366.0</ele>
        <time>2016-03-13T13:21:53Z</time>
      </trkpt>
      <trkpt lat="40.287417" lon="-4.848617">
        <ele>1367.0</ele>
        <time>2016-03-13T13:21:54Z</time>
      </trkpt>
      <trkpt lat="40.287433" lon="-4.848500">
        <ele>1368.0</ele>
        <time>2016-03-13T13:21:55Z</time>
      </trkpt>
      <trkpt lat="40.287450" lon="-4.848383">
        <ele>1368.0</ele>
        <time>2016-03-13T13:21:56Z</time>
      </trkpt>
      <trkpt lat="40.287467" lon="-4.848250">
        <ele>1369.0</ele>
        <time>2016-03-13T13:21:57Z</time>
      </trkpt>
      <trkpt lat="40.287450" lon="-4.848150">
        <ele>1371.0</ele>
        <time>2016-03-13T13:21:58Z</time>
      </trkpt>
      <trkpt lat="40.287417" lon="-4.848050">
        <ele>1372.0</ele>
        <time>2016-03-13T13:21:59Z</time>
      </trkpt>
      <trkpt lat="40.287333" lon="-4.847983">
        <ele>1372.0</ele>
        <time>2016-03-13T13:22:00Z</time>
      </trkpt>
      <trkpt lat="40.287250" lon="-4.847983">
        <ele>1372.0</ele>
        <time>2016-03-13T13:22:01Z</time>
      </trkpt>
      <trkpt lat="40.287167" lon="-4.848017">
        <ele>1373.0</ele>
        <time>2016-03-13T13:22:02Z</time>
      </trkpt>
      <trkpt lat="40.287100" lon="-4.848117">
        <ele>1373.0</ele>
        <time>2016-03-13T13:22:03Z</time>
      </trkpt>
      <trkpt lat="40.287100" lon="-4.848233">
        <ele>1373.0</ele>
        <time>2016-03-13T13:22:04Z</time>
      </trkpt>
      <trkpt lat="40.287133" lon="-4.848367">
        <ele>1373.0</ele>
        <time>2016-03-13T13:22:05Z</time>
      </trkpt>
      <trkpt lat="40.287217" lon="-4.848467">
        <ele>1375.0</ele>
        <time>2016-03-13T13:22:06Z</time>
      </trkpt>
      <trkpt lat="40.287317" lon="-4.848533">
        <ele>1378.0</ele>
        <time>2016-03-13T13:22:07Z</time>
      </trkpt>
      <trkpt lat="40.287400" lon="-4.848567">
        <ele>1382.0</ele>
        <time>2016-03-13T13:22:08Z</time>
      </trkpt>
      <trkpt lat="40.287467" lon="-4.848583">
        <ele>1384.0</ele>
        <time>2016-03-13T13:22:09Z</time>
      </trkpt>
      <trkpt lat="40.287533" lon="-4.848600">
        <ele>1385.0</ele>
        <time>2016-03-13T13:22:10Z</time>
      </trkpt>
      <trkpt lat="40.287617" lon="-4.848583">
        <ele>1383.0</ele>
        <time>2016-03-13T13:22:11Z</time>
      </trkpt>
      <trkpt lat="40.287700" lon="-4.848517">
        <ele>1381.0</ele>
        <time>2016-03-13T13:22:12Z</time>
      </trkpt>
      <trkpt lat="40.287767" lon="-4.848400">
        <ele>1380.0</ele>
        <time>2016-03-13T13:22:13Z</time>
      </trkpt>
      <trkpt lat="40.287800" lon="-4.848267">
        <ele>1381.0</ele>
        <time>2016-03-13T13:22:14Z</time>
      </trkpt>
      <trkpt lat="40.287800" lon="-4.848133">
        <ele>1383.0</ele>
        <time>2016-03-13T13:22:15Z</time>
      </trkpt>
      <trkpt lat="40.287767" lon="-4.848033">
        <ele>1384.0</ele>
        <time>2016-03-13T13:22:16Z</time>
      </trkpt>
      <trkpt lat="40.287700" lon="-4.847950">
        <ele>1385.0</ele>
        <time>2016-03-13T13:22:17Z</time>
      </trkpt>
      <trkpt lat="40.287633" lon="-4.847917">
        <ele>1385.0</ele>
        <time>2016-03-13T13:22:18Z</time>
      </trkpt>
      <trkpt lat="40.287550" lon="-4.847900">
        <ele>1386.0</ele>
        <time>2016-03-13T13:22:19Z</time>
      </trkpt>
      <trkpt lat="40.287450" lon="-4.847917">
        <ele>1387.0</ele>
        <time>2016-03-13T13:22:20Z</time>
      </trkpt>
      <trkpt lat="40.287383" lon="-4.847967">
        <ele>1388.0</ele>
        <time>2016-03-13T13:22:21Z</time>
      </trkpt>
      <trkpt lat="40.287317" lon="-4.848050">
        <ele>1388.0</ele>
        <time>2016-03-13T13:22:22Z</time>
      </trkpt>
      <trkpt lat="40.287267" lon="-4.848133">
        <ele>1389.0</ele>
        <time>2016-03-13T13:22:23Z</time>
      </trkpt>
      <trkpt lat="40.287233" lon="-4.848233">
        <ele>1390.0</ele>
        <time>2016-03-13T13:22:24Z</time>
      </trkpt>
      <trkpt lat="40.287217" lon="-4.848333">
        <ele>1390.0</ele>
        <time>2016-03-13T13:22:25Z</time>
      </trkpt>
      <trkpt lat="40.287200" lon="-4.848450">
        <ele>1390.0</ele>
        <time>2016-03-13T13:22:26Z</time>
      </trkpt>
      <trkpt lat="40.287167" lon="-4.848583">
        <ele>1392.0</ele>
        <time>2016-03-13T13:22:27Z</time>
      </trkpt>
      <trkpt lat="40.287150" lon="-4.848700">
        <ele>1393.0</ele>
        <time>2016-03-13T13:22:28Z</time>
      </trkpt>
      <trkpt lat="40.287150" lon="-4.848817">
        <ele>1394.0</ele>
        <time>2016-03-13T13:22:29Z</time>
      </trkpt>
      <trkpt lat="40.287167" lon="-4.848917">
        <ele>1396.0</ele>
        <time>2016-03-13T13:22:30Z</time>
      </trkpt>
      <trkpt lat="40.287183" lon="-4.849017">
        <ele>1396.0</ele>
        <time>2016-03-13T13:22:31Z</time>
      </trkpt>
      <trkpt lat="40.287217" lon="-4.849133">
        <ele>1397.0</ele>
        <time>2016-03-13T13:22:32Z</time>
      </trkpt>
      <trkpt lat="40.287250" lon="-4.849233">
        <ele>1398.0</ele>
        <time>2016-03-13T13:22:33Z</time>
      </trkpt>
      <trkpt lat="40.287283" lon="-4.849317">
        <ele>1399.0</ele>
        <time>2016-03-13T13:22:34Z</time>
      </trkpt>
      <trkpt lat="40.287333" lon="-4.849383">
        <ele>1399.0</ele>
        <time>2016-03-13T13:22:35Z</time>
      </trkpt>
      <trkpt lat="40.287417" lon="-4.849433">
        <ele>1398.0</ele>
        <time>2016-03-13T13:22:36Z</time>
      </trkpt>
      <trkpt lat="40.287517" lon="-4.849467">
        <ele>1398.0</ele>
        <time>2016-03-13T13:22:37Z</time>
      </trkpt>
      <trkpt lat="40.287600" lon="-4.849450">
        <ele>1400.0</ele>
        <time>2016-03-13T13:22:38Z</time>
      </trkpt>
      <trkpt lat="40.287683" lon="-4.849383">
        <ele>1402.0</ele>
        <time>2016-03-13T13:22:39Z</time>
      </trkpt>
      <trkpt lat="40.287733" lon="-4.849283">
        <ele>1403.0</ele>
        <time>2016-03-13T13:22:40Z</time>
      </trkpt>
      <trkpt lat="40.287750" lon="-4.849183">
        <ele>1403.0</ele>
        <time>2016-03-13T13:22:41Z</time>
      </trkpt>
      <trkpt lat="40.287733" lon="-4.849067">
        <ele>1404.0</ele>
        <time>2016-03-13T13:22:42Z</time>
      </trkpt>
      <trkpt lat="40.287700" lon="-4.848950">
        <ele>1405.0</ele>
        <time>2016-03-13T13:22:43Z</time>
      </trkpt>
      <trkpt lat="40.287633" lon="-4.848833">
        <ele>1406.0</ele>
        <time>2016-03-13T13:22:44Z</time>
      </trkpt>
      <trkpt lat="40.287567" lon="-4.848750">
        <ele>1407.0</ele>
        <time>2016-03-13T13:22:45Z</time>
      </trkpt>
      <trkpt lat="40.287500" lon="-4.848700">
        <ele>1408.0</ele>
        <time>2016-03-13T13:22:46Z</time>
      </trkpt>
      <trkpt lat="40.287400" lon="-4.848667">
        <ele>1410.0</ele>
        <time>2016-03-13T13:22:47Z</time>
      </trkpt>
      <trkpt lat="40.287317" lon="-4.848633">
        <ele>1411.0</ele>
        <time>2016-03-13T13:22:48Z</time>
      </trkpt>
      <trkpt lat="40.287217" lon="-4.848617">
        <ele>1411.0</ele>
        <time>2016-03-13T13:22:49Z</time>
      </trkpt>
      <trkpt lat="40.287133" lon="-4.848633">
        <ele>1412.0</ele>
        <time>2016-03-13T13:22:50Z</time>
      </trkpt>
      <trkpt lat="40.287033" lon="-4.848667">
        <ele>1413.0</ele>
        <time>2016-03-13T13:22:51Z</time>
      </trkpt>
      <trkpt lat="40.286933" lon="-4.848717">
        <ele>1413.0</ele>
        <time>2016-03-13T13:22:52Z</time>
      </trkpt>
      <trkpt lat="40.286850" lon="-4.848783">
        <ele>1414.0</ele>
        <time>2016-03-13T13:22:53Z</time>
      </trkpt>
      <trkpt lat="40.286767" lon="-4.848850">
        <ele>1415.0</ele>
        <time>2016-03-13T13:22:54Z</time>
      </trkpt>
      <trkpt lat="40.286700" lon="-4.848933">
        <ele>1416.0</ele>
        <time>2016-03-13T13:22:55Z</time>
      </trkpt>
      <trkpt lat="40.286633" lon="-4.849033">
        <ele>1417.0</ele>
        <time>2016-03-13T13:22:56Z</time>
      </trkpt>
      <trkpt lat="40.286583" lon="-4.849133">
        <ele>1417.0</ele>
        <time>2016-03-13T13:22:57Z</time>
      </trkpt>
      <trkpt lat="40.286550" lon="-4.849250">
        <ele>1417.0</ele>
        <time>2016-03-13T13:22:58Z</time>
      </trkpt>
      <trkpt lat="40.286533" lon="-4.849367">
        <ele>1418.0</ele>
        <time>2016-03-13T13:22:59Z</time>
      </trkpt>
      <trkpt lat="40.286567" lon="-4.849467">
        <ele>1417.0</ele>
        <time>2016-03-13T13:23:00Z</time>
      </trkpt>
      <trkpt lat="40.286617" lon="-4.849533">
        <ele>1416.0</ele>
        <time>2016-03-13T13:23:01Z</time>
      </trkpt>
      <trkpt lat="40.286683" lon="-4.849550">
        <ele>1413.0</ele>
        <time>2016-03-13T13:23:02Z</time>
      </trkpt>
      <trkpt lat="40.286767" lon="-4.849533">
        <ele>1410.0</ele>
        <time>2016-03-13T13:23:03Z</time>
      </trkpt>
      <trkpt lat="40.286850" lon="-4.849467">
        <ele>1408.0</ele>
        <time>2016-03-13T13:23:04Z</time>
      </trkpt>
      <trkpt lat="40.286900" lon="-4.849367">
        <ele>1406.0</ele>
        <time>2016-03-13T13:23:05Z</time>
      </trkpt>
      <trkpt lat="40.286933" lon="-4.849233">
        <ele>1405.0</ele>
        <time>2016-03-13T13:23:06Z</time>
      </trkpt>
      <trkpt lat="40.286933" lon="-4.849100">
        <ele>1405.0</ele>
        <time>2016-03-13T13:23:07Z</time>
      </trkpt>
      <trkpt lat="40.286950" lon="-4.848983">
        <ele>1405.0</ele>
        <time>2016-03-13T13:23:08Z</time>
      </trkpt>
      <trkpt lat="40.286950" lon="-4.848867">
        <ele>1405.0</ele>
        <time>2016-03-13T13:23:09Z</time>
      </trkpt>
      <trkpt lat="40.286950" lon="-4.848733">
        <ele>1404.0</ele>
        <time>2016-03-13T13:23:10Z</time>
      </trkpt>
      <trkpt lat="40.286950" lon="-4.848600">
        <ele>1404.0</ele>
        <time>2016-03-13T13:23:11Z</time>
      </trkpt>
      <trkpt lat="40.286950" lon="-4.848467">
        <ele>1404.0</ele>
        <time>2016-03-13T13:23:12Z</time>
      </trkpt>
      <trkpt lat="40.286967" lon="-4.848350">
        <ele>1405.0</ele>
        <time>2016-03-13T13:23:13Z</time>
      </trkpt>
      <trkpt lat="40.286983" lon="-4.848233">
        <ele>1405.0</ele>
        <time>2016-03-13T13:23:14Z</time>
      </trkpt>
      <trkpt lat="40.286983" lon="-4.848117">
        <ele>1405.0</ele>
        <time>2016-03-13T13:23:15Z</time>
      </trkpt>
      <trkpt lat="40.286950" lon="-4.848000">
        <ele>1403.0</ele>
        <time>2016-03-13T13:23:16Z</time>
      </trkpt>
      <trkpt lat="40.286917" lon="-4.847883">
        <ele>1401.0</ele>
        <time>2016-03-13T13:23:17Z</time>
      </trkpt>
      <trkpt lat="40.286867" lon="-4.847733">
        <ele>1400.0</ele>
        <time>2016-03-13T13:23:18Z</time>
      </trkpt>
      <trkpt lat="40.286833" lon="-4.847600">
        <ele>1401.0</ele>
        <time>2016-03-13T13:23:19Z</time>
      </trkpt>
      <trkpt lat="40.286800" lon="-4.847467">
        <ele>1403.0</ele>
        <time>2016-03-13T13:23:20Z</time>
      </trkpt>
      <trkpt lat="40.286800" lon="-4.847350">
        <ele>1404.0</ele>
        <time>2016-03-13T13:23:21Z</time>
      </trkpt>
      <trkpt lat="40.286817" lon="-4.847233">
        <ele>1405.0</ele>
        <time>2016-03-13T13:23:22Z</time>
      </trkpt>
      <trkpt lat="40.286850" lon="-4.847133">
        <ele>1405.0</ele>
        <time>2016-03-13T13:23:23Z</time>
      </trkpt>
      <trkpt lat="40.286867" lon="-4.847050">
        <ele>1403.0</ele>
        <time>2016-03-13T13:23:24Z</time>
      </trkpt>
      <trkpt lat="40.286867" lon="-4.846950">
        <ele>1401.0</ele>
        <time>2016-03-13T13:23:25Z</time>
      </trkpt>
      <trkpt lat="40.286867" lon="-4.846850">
        <ele>1398.0</ele>
        <time>2016-03-13T13:23:26Z</time>
      </trkpt>
      <trkpt lat="40.286850" lon="-4.846717">
        <ele>1395.0</ele>
        <time>2016-03-13T13:23:27Z</time>
      </trkpt>
      <trkpt lat="40.286833" lon="-4.846600">
        <ele>1393.0</ele>
        <time>2016-03-13T13:23:28Z</time>
      </trkpt>
      <trkpt lat="40.286817" lon="-4.846483">
        <ele>1392.0</ele>
        <time>2016-03-13T13:23:29Z</time>
      </trkpt>
      <trkpt lat="40.286817" lon="-4.846350">
        <ele>1390.0</ele>
        <time>2016-03-13T13:23:30Z</time>
      </trkpt>
      <trkpt lat="40.286817" lon="-4.846233">
        <ele>1388.0</ele>
        <time>2016-03-13T13:23:31Z</time>
      </trkpt>
      <trkpt lat="40.286833" lon="-4.846100">
        <ele>1387.0</ele>
        <time>2016-03-13T13:23:32Z</time>
      </trkpt>
      <trkpt lat="40.286833" lon="-4.845967">
        <ele>1385.0</ele>
        <time>2016-03-13T13:23:33Z</time>
      </trkpt>
      <trkpt lat="40.286833" lon="-4.845833">
        <ele>1384.0</ele>
        <time>2016-03-13T13:23:34Z</time>
      </trkpt>
      <trkpt lat="40.286833" lon="-4.845717">
        <ele>1383.0</ele>
        <time>2016-03-13T13:23:35Z</time>
      </trkpt>
      <trkpt lat="40.286833" lon="-4.845583">
        <ele>1382.0</ele>
        <time>2016-03-13T13:23:36Z</time>
      </trkpt>
      <trkpt lat="40.286833" lon="-4.845467">
        <ele>1381.0</ele>
        <time>2016-03-13T13:23:37Z</time>
      </trkpt>
      <trkpt lat="40.286833" lon="-4.845350">
        <ele>1379.0</ele>
        <time>2016-03-13T13:23:38Z</time>
      </trkpt>
      <trkpt lat="40.286833" lon="-4.845217">
        <ele>1378.0</ele>
        <time>2016-03-13T13:23:39Z</time>
      </trkpt>
      <trkpt lat="40.286850" lon="-4.845100">
        <ele>1377.0</ele>
        <time>2016-03-13T13:23:40Z</time>
      </trkpt>
      <trkpt lat="40.286883" lon="-4.844983">
        <ele>1376.0</ele>
        <time>2016-03-13T13:23:41Z</time>
      </trkpt>
      <trkpt lat="40.286900" lon="-4.844867">
        <ele>1376.0</ele>
        <time>2016-03-13T13:23:42Z</time>
      </trkpt>
      <trkpt lat="40.286900" lon="-4.844733">
        <ele>1375.0</ele>
        <time>2016-03-13T13:23:43Z</time>
      </trkpt>
      <trkpt lat="40.286900" lon="-4.844617">
        <ele>1375.0</ele>
        <time>2016-03-13T13:23:44Z</time>
      </trkpt>
      <trkpt lat="40.286900" lon="-4.844517">
        <ele>1375.0</ele>
        <time>2016-03-13T13:23:45Z</time>
      </trkpt>
      <trkpt lat="40.286883" lon="-4.844417">
        <ele>1375.0</ele>
        <time>2016-03-13T13:23:46Z</time>
      </trkpt>
      <trkpt lat="40.286883" lon="-4.844300">
        <ele>1374.0</ele>
        <time>2016-03-13T13:23:47Z</time>
      </trkpt>
      <trkpt lat="40.286900" lon="-4.844200">
        <ele>1374.0</ele>
        <time>2016-03-13T13:23:48Z</time>
      </trkpt>
      <trkpt lat="40.286883" lon="-4.844100">
        <ele>1373.0</ele>
        <time>2016-03-13T13:23:49Z</time>
      </trkpt>
      <trkpt lat="40.286883" lon="-4.844000">
        <ele>1371.0</ele>
        <time>2016-03-13T13:23:50Z</time>
      </trkpt>
      <trkpt lat="40.286867" lon="-4.843883">
        <ele>1369.0</ele>
        <time>2016-03-13T13:23:51Z</time>
      </trkpt>
      <trkpt lat="40.286850" lon="-4.843750">
        <ele>1366.0</ele>
        <time>2016-03-13T13:23:52Z</time>
      </trkpt>
      <trkpt lat="40.286833" lon="-4.843617">
        <ele>1364.0</ele>
        <time>2016-03-13T13:23:53Z</time>
      </trkpt>
      <trkpt lat="40.286800" lon="-4.843483">
        <ele>1363.0</ele>
        <time>2016-03-13T13:23:54Z</time>
      </trkpt>
      <trkpt lat="40.286767" lon="-4.843367">
        <ele>1364.0</ele>
        <time>2016-03-13T13:23:55Z</time>
      </trkpt>
      <trkpt lat="40.286717" lon="-4.843267">
        <ele>1364.0</ele>
        <time>2016-03-13T13:23:56Z</time>
      </trkpt>
      <trkpt lat="40.286667" lon="-4.843183">
        <ele>1363.0</ele>
        <time>2016-03-13T13:23:57Z</time>
      </trkpt>
      <trkpt lat="40.286633" lon="-4.843100">
        <ele>1361.0</ele>
        <time>2016-03-13T13:23:58Z</time>
      </trkpt>
      <trkpt lat="40.286583" lon="-4.843000">
        <ele>1358.0</ele>
        <time>2016-03-13T13:23:59Z</time>
      </trkpt>
      <trkpt lat="40.286517" lon="-4.842917">
        <ele>1355.0</ele>
        <time>2016-03-13T13:24:00Z</time>
      </trkpt>
      <trkpt lat="40.286467" lon="-4.842817">
        <ele>1353.0</ele>
        <time>2016-03-13T13:24:01Z</time>
      </trkpt>
      <trkpt lat="40.286417" lon="-4.842733">
        <ele>1351.0</ele>
        <time>2016-03-13T13:24:02Z</time>
      </trkpt>
      <trkpt lat="40.286383" lon="-4.842617">
        <ele>1349.0</ele>
        <time>2016-03-13T13:24:03Z</time>
      </trkpt>
      <trkpt lat="40.286367" lon="-4.842500">
        <ele>1347.0</ele>
        <time>2016-03-13T13:24:04Z</time>
      </trkpt>
      <trkpt lat="40.286350" lon="-4.842383">
        <ele>1346.0</ele>
        <time>2016-03-13T13:24:05Z</time>
      </trkpt>
      <trkpt lat="40.286333" lon="-4.842267">
        <ele>1345.0</ele>
        <time>2016-03-13T13:24:06Z</time>
      </trkpt>
      <trkpt lat="40.286333" lon="-4.842150">
        <ele>1344.0</ele>
        <time>2016-03-13T13:24:07Z</time>
      </trkpt>
      <trkpt lat="40.286317" lon="-4.842033">
        <ele>1343.0</ele>
        <time>2016-03-13T13:24:08Z</time>
      </trkpt>
      <trkpt lat="40.286317" lon="-4.841900">
        <ele>1341.0</ele>
        <time>2016-03-13T13:24:09Z</time>
      </trkpt>
      <trkpt lat="40.286317" lon="-4.841783">
        <ele>1339.0</ele>
        <time>2016-03-13T13:24:10Z</time>
      </trkpt>
      <trkpt lat="40.286317" lon="-4.841650">
        <ele>1338.0</ele>
        <time>2016-03-13T13:24:11Z</time>
      </trkpt>
      <trkpt lat="40.286317" lon="-4.841517">
        <ele>1336.0</ele>
        <time>2016-03-13T13:24:12Z</time>
      </trkpt>
      <trkpt lat="40.286317" lon="-4.841417">
        <ele>1334.0</ele>
        <time>2016-03-13T13:24:13Z</time>
      </trkpt>
      <trkpt lat="40.286333" lon="-4.841317">
        <ele>1332.0</ele>
        <time>2016-03-13T13:24:14Z</time>
      </trkpt>
      <trkpt lat="40.286333" lon="-4.841217">
        <ele>1330.0</ele>
        <time>2016-03-13T13:24:15Z</time>
      </trkpt>
      <trkpt lat="40.286333" lon="-4.841100">
        <ele>1328.0</ele>
        <time>2016-03-13T13:24:16Z</time>
      </trkpt>
      <trkpt lat="40.286317" lon="-4.840983">
        <ele>1325.0</ele>
        <time>2016-03-13T13:24:17Z</time>
      </trkpt>
      <trkpt lat="40.286300" lon="-4.840850">
        <ele>1324.0</ele>
        <time>2016-03-13T13:24:18Z</time>
      </trkpt>
      <trkpt lat="40.286300" lon="-4.840733">
        <ele>1324.0</ele>
        <time>2016-03-13T13:24:19Z</time>
      </trkpt>
      <trkpt lat="40.286300" lon="-4.840617">
        <ele>1324.0</ele>
        <time>2016-03-13T13:24:20Z</time>
      </trkpt>
      <trkpt lat="40.286300" lon="-4.840517">
        <ele>1324.0</ele>
        <time>2016-03-13T13:24:21Z</time>
      </trkpt>
      <trkpt lat="40.286300" lon="-4.840417">
        <ele>1323.0</ele>
        <time>2016-03-13T13:24:22Z</time>
      </trkpt>
      <trkpt lat="40.286300" lon="-4.840317">
        <ele>1322.0</ele>
        <time>2016-03-13T13:24:23Z</time>
      </trkpt>
      <trkpt lat="40.286300" lon="-4.840217">
        <ele>1319.0</ele>
        <time>2016-03-13T13:24:24Z</time>
      </trkpt>
      <trkpt lat="40.286300" lon="-4.840117">
        <ele>1317.0</ele>
        <time>2016-03-13T13:24:25Z</time>
      </trkpt>
      <trkpt lat="40.286300" lon="-4.839983">
        <ele>1314.0</ele>
        <time>2016-03-13T13:24:26Z</time>
      </trkpt>
      <trkpt lat="40.286300" lon="-4.839867">
        <ele>1312.0</ele>
        <time>2016-03-13T13:24:27Z</time>
      </trkpt>
      <trkpt lat="40.286283" lon="-4.839733">
        <ele>1311.0</ele>
        <time>2016-03-13T13:24:28Z</time>
      </trkpt>
      <trkpt lat="40.286283" lon="-4.839633">
        <ele>1311.0</ele>
        <time>2016-03-13T13:24:29Z</time>
      </trkpt>
      <trkpt lat="40.286283" lon="-4.839533">
        <ele>1310.0</ele>
        <time>2016-03-13T13:24:30Z</time>
      </trkpt>
      <trkpt lat="40.286300" lon="-4.839433">
        <ele>1309.0</ele>
        <time>2016-03-13T13:24:31Z</time>
      </trkpt>
      <trkpt lat="40.286300" lon="-4.839350">
        <ele>1306.0</ele>
        <time>2016-03-13T13:24:32Z</time>
      </trkpt>
      <trkpt lat="40.286317" lon="-4.839250">
        <ele>1303.0</ele>
        <time>2016-03-13T13:24:33Z</time>
      </trkpt>
      <trkpt lat="40.286350" lon="-4.839133">
        <ele>1300.0</ele>
        <time>2016-03-13T13:24:34Z</time>
      </trkpt>
      <trkpt lat="40.286367" lon="-4.839000">
        <ele>1298.0</ele>
        <time>2016-03-13T13:24:35Z</time>
      </trkpt>
      <trkpt lat="40.286383" lon="-4.838850">
        <ele>1296.0</ele>
        <time>2016-03-13T13:24:36Z</time>
      </trkpt>
      <trkpt lat="40.286383" lon="-4.838717">
        <ele>1296.0</ele>
        <time>2016-03-13T13:24:37Z</time>
      </trkpt>
      <trkpt lat="40.286400" lon="-4.838583">
        <ele>1296.0</ele>
        <time>2016-03-13T13:24:38Z</time>
      </trkpt>
      <trkpt lat="40.286417" lon="-4.838450">
        <ele>1297.0</ele>
        <time>2016-03-13T13:24:39Z</time>
      </trkpt>
      <trkpt lat="40.286433" lon="-4.838317">
        <ele>1297.0</ele>
        <time>2016-03-13T13:24:40Z</time>
      </trkpt>
      <trkpt lat="40.286467" lon="-4.838200">
        <ele>1297.0</ele>
        <time>2016-03-13T13:24:41Z</time>
      </trkpt>
      <trkpt lat="40.286483" lon="-4.838067">
        <ele>1296.0</ele>
        <time>2016-03-13T13:24:42Z</time>
      </trkpt>
      <trkpt lat="40.286483" lon="-4.837950">
        <ele>1295.0</ele>
        <time>2016-03-13T13:24:43Z</time>
      </trkpt>
      <trkpt lat="40.286500" lon="-4.837817">
        <ele>1293.0</ele>
        <time>2016-03-13T13:24:44Z</time>
      </trkpt>
      <trkpt lat="40.286517" lon="-4.837683">
        <ele>1292.0</ele>
        <time>2016-03-13T13:24:45Z</time>
      </trkpt>
      <trkpt lat="40.286550" lon="-4.837550">
        <ele>1291.0</ele>
        <time>2016-03-13T13:24:46Z</time>
      </trkpt>
      <trkpt lat="40.286583" lon="-4.837433">
        <ele>1289.0</ele>
        <time>2016-03-13T13:24:47Z</time>
      </trkpt>
      <trkpt lat="40.286600" lon="-4.837283">
        <ele>1287.0</ele>
        <time>2016-03-13T13:24:48Z</time>
      </trkpt>
      <trkpt lat="40.286617" lon="-4.837150">
        <ele>1285.0</ele>
        <time>2016-03-13T13:24:49Z</time>
      </trkpt>
      <trkpt lat="40.286633" lon="-4.837000">
        <ele>1284.0</ele>
        <time>2016-03-13T13:24:50Z</time>
      </trkpt>
      <trkpt lat="40.286667" lon="-4.836867">
        <ele>1284.0</ele>
        <time>2016-03-13T13:24:51Z</time>
      </trkpt>
      <trkpt lat="40.286700" lon="-4.836717">
        <ele>1283.0</ele>
        <time>2016-03-13T13:24:52Z</time>
      </trkpt>
      <trkpt lat="40.286717" lon="-4.836583">
        <ele>1282.0</ele>
        <time>2016-03-13T13:24:53Z</time>
      </trkpt>
      <trkpt lat="40.286733" lon="-4.836433">
        <ele>1282.0</ele>
        <time>2016-03-13T13:24:54Z</time>
      </trkpt>
      <trkpt lat="40.286733" lon="-4.836300">
        <ele>1282.0</ele>
        <time>2016-03-13T13:24:55Z</time>
      </trkpt>
      <trkpt lat="40.286733" lon="-4.836183">
        <ele>1282.0</ele>
        <time>2016-03-13T13:24:56Z</time>
      </trkpt>
      <trkpt lat="40.286733" lon="-4.836067">
        <ele>1282.0</ele>
        <time>2016-03-13T13:24:57Z</time>
      </trkpt>
      <trkpt lat="40.286733" lon="-4.835950">
        <ele>1280.0</ele>
        <time>2016-03-13T13:24:58Z</time>
      </trkpt>
      <trkpt lat="40.286750" lon="-4.835850">
        <ele>1277.0</ele>
        <time>2016-03-13T13:24:59Z</time>
      </trkpt>
      <trkpt lat="40.286750" lon="-4.835733">
        <ele>1274.0</ele>
        <time>2016-03-13T13:25:00Z</time>
      </trkpt>
      <trkpt lat="40.286750" lon="-4.835600">
        <ele>1271.0</ele>
        <time>2016-03-13T13:25:01Z</time>
      </trkpt>
      <trkpt lat="40.286767" lon="-4.835450">
        <ele>1268.0</ele>
        <time>2016-03-13T13:25:02Z</time>
      </trkpt>
      <trkpt lat="40.286767" lon="-4.835317">
        <ele>1265.0</ele>
        <time>2016-03-13T13:25:03Z</time>
      </trkpt>
      <trkpt lat="40.286783" lon="-4.835183">
        <ele>1263.0</ele>
        <time>2016-03-13T13:25:04Z</time>
      </trkpt>
      <trkpt lat="40.286800" lon="-4.835033">
        <ele>1260.0</ele>
        <time>2016-03-13T13:25:05Z</time>
      </trkpt>
      <trkpt lat="40.286800" lon="-4.834883">
        <ele>1258.0</ele>
        <time>2016-03-13T13:25:06Z</time>
      </trkpt>
      <trkpt lat="40.286800" lon="-4.834750">
        <ele>1257.0</ele>
        <time>2016-03-13T13:25:07Z</time>
      </trkpt>
      <trkpt lat="40.286800" lon="-4.834617">
        <ele>1256.0</ele>
        <time>2016-03-13T13:25:08Z</time>
      </trkpt>
      <trkpt lat="40.286817" lon="-4.834517">
        <ele>1255.0</ele>
        <time>2016-03-13T13:25:09Z</time>
      </trkpt>
      <trkpt lat="40.286833" lon="-4.834400">
        <ele>1253.0</ele>
        <time>2016-03-13T13:25:10Z</time>
      </trkpt>
      <trkpt lat="40.286850" lon="-4.834283">
        <ele>1250.0</ele>
        <time>2016-03-13T13:25:11Z</time>
      </trkpt>
      <trkpt lat="40.286883" lon="-4.834150">
        <ele>1246.0</ele>
        <time>2016-03-13T13:25:12Z</time>
      </trkpt>
      <trkpt lat="40.286900" lon="-4.834017">
        <ele>1245.0</ele>
        <time>2016-03-13T13:25:13Z</time>
      </trkpt>
      <trkpt lat="40.286933" lon="-4.833883">
        <ele>1243.0</ele>
        <time>2016-03-13T13:25:14Z</time>
      </trkpt>
      <trkpt lat="40.286950" lon="-4.833750">
        <ele>1243.0</ele>
        <time>2016-03-13T13:25:15Z</time>
      </trkpt>
      <trkpt lat="40.286967" lon="-4.833633">
        <ele>1242.0</ele>
        <time>2016-03-13T13:25:16Z</time>
      </trkpt>
      <trkpt lat="40.286983" lon="-4.833500">
        <ele>1240.0</ele>
        <time>2016-03-13T13:25:17Z</time>
      </trkpt>
      <trkpt lat="40.286983" lon="-4.833367">
        <ele>1239.0</ele>
        <time>2016-03-13T13:25:18Z</time>
      </trkpt>
      <trkpt lat="40.286983" lon="-4.833233">
        <ele>1238.0</ele>
        <time>2016-03-13T13:25:19Z</time>
      </trkpt>
      <trkpt lat="40.287000" lon="-4.833083">
        <ele>1237.0</ele>
        <time>2016-03-13T13:25:20Z</time>
      </trkpt>
      <trkpt lat="40.287000" lon="-4.832950">
        <ele>1237.0</ele>
        <time>2016-03-13T13:25:21Z</time>
      </trkpt>
      <trkpt lat="40.287017" lon="-4.832833">
        <ele>1238.0</ele>
        <time>2016-03-13T13:25:22Z</time>
      </trkpt>
      <trkpt lat="40.287033" lon="-4.832700">
        <ele>1238.0</ele>
        <time>2016-03-13T13:25:23Z</time>
      </trkpt>
      <trkpt lat="40.287050" lon="-4.832583">
        <ele>1237.0</ele>
        <time>2016-03-13T13:25:24Z</time>
      </trkpt>
      <trkpt lat="40.287067" lon="-4.832467">
        <ele>1235.0</ele>
        <time>2016-03-13T13:25:25Z</time>
      </trkpt>
      <trkpt lat="40.287083" lon="-4.832317">
        <ele>1232.0</ele>
        <time>2016-03-13T13:25:26Z</time>
      </trkpt>
      <trkpt lat="40.287100" lon="-4.832183">
        <ele>1230.0</ele>
        <time>2016-03-13T13:25:27Z</time>
      </trkpt>
      <trkpt lat="40.287117" lon="-4.832033">
        <ele>1230.0</ele>
        <time>2016-03-13T13:25:28Z</time>
      </trkpt>
      <trkpt lat="40.287133" lon="-4.831900">
        <ele>1230.0</ele>
        <time>2016-03-13T13:25:29Z</time>
      </trkpt>
      <trkpt lat="40.287167" lon="-4.831767">
        <ele>1231.0</ele>
        <time>2016-03-13T13:25:30Z</time>
      </trkpt>
      <trkpt lat="40.287183" lon="-4.831633">
        <ele>1232.0</ele>
        <time>2016-03-13T13:25:31Z</time>
      </trkpt>
      <trkpt lat="40.287217" lon="-4.831517">
        <ele>1232.0</ele>
        <time>2016-03-13T13:25:32Z</time>
      </trkpt>
      <trkpt lat="40.287233" lon="-4.831383">
        <ele>1233.0</ele>
        <time>2016-03-13T13:25:33Z</time>
      </trkpt>
      <trkpt lat="40.287250" lon="-4.831250">
        <ele>1234.0</ele>
        <time>2016-03-13T13:25:34Z</time>
      </trkpt>
      <trkpt lat="40.287250" lon="-4.831117">
        <ele>1235.0</ele>
        <time>2016-03-13T13:25:35Z</time>
      </trkpt>
      <trkpt lat="40.287217" lon="-4.831017">
        <ele>1236.0</ele>
        <time>2016-03-13T13:25:36Z</time>
      </trkpt>
      <trkpt lat="40.287167" lon="-4.830917">
        <ele>1235.0</ele>
        <time>2016-03-13T13:25:37Z</time>
      </trkpt>
      <trkpt lat="40.287083" lon="-4.830833">
        <ele>1235.0</ele>
        <time>2016-03-13T13:25:38Z</time>
      </trkpt>
      <trkpt lat="40.287000" lon="-4.830783">
        <ele>1236.0</ele>
        <time>2016-03-13T13:25:39Z</time>
      </trkpt>
      <trkpt lat="40.286917" lon="-4.830783">
        <ele>1239.0</ele>
        <time>2016-03-13T13:25:40Z</time>
      </trkpt>
      <trkpt lat="40.286850" lon="-4.830817">
        <ele>1242.0</ele>
        <time>2016-03-13T13:25:41Z</time>
      </trkpt>
      <trkpt lat="40.286817" lon="-4.830883">
        <ele>1244.0</ele>
        <time>2016-03-13T13:25:42Z</time>
      </trkpt>
      <trkpt lat="40.286817" lon="-4.830967">
        <ele>1246.0</ele>
        <time>2016-03-13T13:25:43Z</time>
      </trkpt>
      <trkpt lat="40.286867" lon="-4.831050">
        <ele>1246.0</ele>
        <time>2016-03-13T13:25:44Z</time>
      </trkpt>
      <trkpt lat="40.286950" lon="-4.831117">
        <ele>1247.0</ele>
        <time>2016-03-13T13:25:45Z</time>
      </trkpt>
      <trkpt lat="40.287050" lon="-4.831133">
        <ele>1249.0</ele>
        <time>2016-03-13T13:25:46Z</time>
      </trkpt>
      <trkpt lat="40.287167" lon="-4.831067">
        <ele>1251.0</ele>
        <time>2016-03-13T13:25:47Z</time>
      </trkpt>
      <trkpt lat="40.287233" lon="-4.830967">
        <ele>1254.0</ele>
        <time>2016-03-13T13:25:48Z</time>
      </trkpt>
      <trkpt lat="40.287267" lon="-4.830833">
        <ele>1256.0</ele>
        <time>2016-03-13T13:25:49Z</time>
      </trkpt>
      <trkpt lat="40.287250" lon="-4.830683">
        <ele>1256.0</ele>
        <time>2016-03-13T13:25:50Z</time>
      </trkpt>
      <trkpt lat="40.287200" lon="-4.830567">
        <ele>1256.0</ele>
        <time>2016-03-13T13:25:51Z</time>
      </trkpt>
      <trkpt lat="40.287133" lon="-4.830467">
        <ele>1255.0</ele>
        <time>2016-03-13T13:25:52Z</time>
      </trkpt>
      <trkpt lat="40.287033" lon="-4.830417">
        <ele>1256.0</ele>
        <time>2016-03-13T13:25:53Z</time>
      </trkpt>
      <trkpt lat="40.286950" lon="-4.830383">
        <ele>1260.0</ele>
        <time>2016-03-13T13:25:54Z</time>
      </trkpt>
      <trkpt lat="40.286867" lon="-4.830400">
        <ele>1263.0</ele>
        <time>2016-03-13T13:25:55Z</time>
      </trkpt>
      <trkpt lat="40.286817" lon="-4.830433">
        <ele>1266.0</ele>
        <time>2016-03-13T13:25:56Z</time>
      </trkpt>
      <trkpt lat="40.286783" lon="-4.830500">
        <ele>1267.0</ele>
        <time>2016-03-13T13:25:57Z</time>
      </trkpt>
      <trkpt lat="40.286800" lon="-4.830567">
        <ele>1267.0</ele>
        <time>2016-03-13T13:25:58Z</time>
      </trkpt>
      <trkpt lat="40.286833" lon="-4.830650">
        <ele>1266.0</ele>
        <time>2016-03-13T13:25:59Z</time>
      </trkpt>
      <trkpt lat="40.286900" lon="-4.830717">
        <ele>1265.0</ele>
        <time>2016-03-13T13:26:00Z</time>
      </trkpt>
      <trkpt lat="40.287017" lon="-4.830733">
        <ele>1266.0</ele>
        <time>2016-03-13T13:26:01Z</time>
      </trkpt>
      <trkpt lat="40.287133" lon="-4.830733">
        <ele>1269.0</ele>
        <time>2016-03-13T13:26:02Z</time>
      </trkpt>
      <trkpt lat="40.287233" lon="-4.830683">
        <ele>1273.0</ele>
        <time>2016-03-13T13:26:03Z</time>
      </trkpt>
      <trkpt lat="40.287317" lon="-4.830617">
        <ele>1277.0</ele>
        <time>2016-03-13T13:26:04Z</time>
      </trkpt>
      <trkpt lat="40.287367" lon="-4.830517">
        <ele>1279.0</ele>
        <time>2016-03-13T13:26:05Z</time>
      </trkpt>
      <trkpt lat="40.287400" lon="-4.830400">
        <ele>1279.0</ele>
        <time>2016-03-13T13:26:06Z</time>
      </trkpt>
      <trkpt lat="40.287383" lon="-4.830267">
        <ele>1279.0</ele>
        <time>2016-03-13T13:26:07Z</time>
      </trkpt>
      <trkpt lat="40.287350" lon="-4.830133">
        <ele>1278.0</ele>
        <time>2016-03-13T13:26:08Z</time>
      </trkpt>
      <trkpt lat="40.287300" lon="-4.830017">
        <ele>1278.0</ele>
        <time>2016-03-13T13:26:09Z</time>
      </trkpt>
      <trkpt lat="40.287217" lon="-4.829917">
        <ele>1278.0</ele>
        <time>2016-03-13T13:26:10Z</time>
      </trkpt>
      <trkpt lat="40.287117" lon="-4.829867">
        <ele>1279.0</ele>
        <time>2016-03-13T13:26:11Z</time>
      </trkpt>
      <trkpt lat="40.287033" lon="-4.829850">
        <ele>1282.0</ele>
        <time>2016-03-13T13:26:12Z</time>
      </trkpt>
      <trkpt lat="40.286950" lon="-4.829867">
        <ele>1285.0</ele>
        <time>2016-03-13T13:26:13Z</time>
      </trkpt>
      <trkpt lat="40.286900" lon="-4.829900">
        <ele>1288.0</ele>
        <time>2016-03-13T13:26:14Z</time>
      </trkpt>
      <trkpt lat="40.286850" lon="-4.829933">
        <ele>1290.0</ele>
        <time>2016-03-13T13:26:15Z</time>
      </trkpt>
      <trkpt lat="40.286833" lon="-4.829967">
        <ele>1291.0</ele>
        <time>2016-03-13T13:26:16Z</time>
      </trkpt>
      <trkpt lat="40.286817" lon="-4.830033">
        <ele>1291.0</ele>
        <time>2016-03-13T13:26:17Z</time>
      </trkpt>
      <trkpt lat="40.286833" lon="-4.830117">
        <ele>1290.0</ele>
        <time>2016-03-13T13:26:18Z</time>
      </trkpt>
      <trkpt lat="40.286900" lon="-4.830217">
        <ele>1289.0</ele>
        <time>2016-03-13T13:26:19Z</time>
      </trkpt>
      <trkpt lat="40.286967" lon="-4.830283">
        <ele>1290.0</ele>
        <time>2016-03-13T13:26:20Z</time>
      </trkpt>
      <trkpt lat="40.287067" lon="-4.830317">
        <ele>1291.0</ele>
        <time>2016-03-13T13:26:21Z</time>
      </trkpt>
      <trkpt lat="40.287183" lon="-4.830300">
        <ele>1292.0</ele>
        <time>2016-03-13T13:26:22Z</time>
      </trkpt>
      <trkpt lat="40.287283" lon="-4.830233">
        <ele>1293.0</ele>
        <time>2016-03-13T13:26:23Z</time>
      </trkpt>
      <trkpt lat="40.287400" lon="-4.830167">
        <ele>1296.0</ele>
        <time>2016-03-13T13:26:24Z</time>
      </trkpt>
      <trkpt lat="40.287500" lon="-4.830100">
        <ele>1299.0</ele>
        <time>2016-03-13T13:26:25Z</time>
      </trkpt>
      <trkpt lat="40.287583" lon="-4.830033">
        <ele>1302.0</ele>
        <time>2016-03-13T13:26:26Z</time>
      </trkpt>
      <trkpt lat="40.287667" lon="-4.829967">
        <ele>1305.0</ele>
        <time>2016-03-13T13:26:27Z</time>
      </trkpt>
      <trkpt lat="40.287750" lon="-4.829867">
        <ele>1307.0</ele>
        <time>2016-03-13T13:26:28Z</time>
      </trkpt>
      <trkpt lat="40.287800" lon="-4.829733">
        <ele>1308.0</ele>
        <time>2016-03-13T13:26:29Z</time>
      </trkpt>
      <trkpt lat="40.287817" lon="-4.829583">
        <ele>1308.0</ele>
        <time>2016-03-13T13:26:30Z</time>
      </trkpt>
      <trkpt lat="40.287800" lon="-4.829417">
        <ele>1308.0</ele>
        <time>2016-03-13T13:26:31Z</time>
      </trkpt>
      <trkpt lat="40.287767" lon="-4.829283">
        <ele>1309.0</ele>
        <time>2016-03-13T13:26:32Z</time>
      </trkpt>
      <trkpt lat="40.287700" lon="-4.829167">
        <ele>1310.0</ele>
        <time>2016-03-13T13:26:33Z</time>
      </trkpt>
      <trkpt lat="40.287633" lon="-4.829083">
        <ele>1311.0</ele>
        <time>2016-03-13T13:26:34Z</time>
      </trkpt>
      <trkpt lat="40.287567" lon="-4.829017">
        <ele>1313.0</ele>
        <time>2016-03-13T13:26:35Z</time>
      </trkpt>
      <trkpt lat="40.287500" lon="-4.829000">
        <ele>1314.0</ele>
        <time>2016-03-13T13:26:36Z</time>
      </trkpt>
      <trkpt lat="40.287433" lon="-4.829000">
        <ele>1315.0</ele>
        <time>2016-03-13T13:26:37Z</time>
      </trkpt>
      <trkpt lat="40.287400" lon="-4.829067">
        <ele>1315.0</ele>
        <time>2016-03-13T13:26:38Z</time>
      </trkpt>
      <trkpt lat="40.287383" lon="-4.829167">
        <ele>1314.0</ele>
        <time>2016-03-13T13:26:39Z</time>
      </trkpt>
      <trkpt lat="40.287400" lon="-4.829267">
        <ele>1315.0</ele>
        <time>2016-03-13T13:26:40Z</time>
      </trkpt>
      <trkpt lat="40.287467" lon="-4.829367">
        <ele>1317.0</ele>
        <time>2016-03-13T13:26:41Z</time>
      </trkpt>
      <trkpt lat="40.287550" lon="-4.829417">
        <ele>1319.0</ele>
        <time>2016-03-13T13:26:42Z</time>
      </trkpt>
      <trkpt lat="40.287650" lon="-4.829450">
        <ele>1322.0</ele>
        <time>2016-03-13T13:26:43Z</time>
      </trkpt>
      <trkpt lat="40.287750" lon="-4.829433">
        <ele>1324.0</ele>
        <time>2016-03-13T13:26:44Z</time>
      </trkpt>
      <trkpt lat="40.287850" lon="-4.829400">
        <ele>1327.0</ele>
        <time>2016-03-13T13:26:45Z</time>
      </trkpt>
      <trkpt lat="40.287933" lon="-4.829333">
        <ele>1328.0</ele>
        <time>2016-03-13T13:26:46Z</time>
      </trkpt>
      <trkpt lat="40.288033" lon="-4.829217">
        <ele>1328.0</ele>
        <time>2016-03-13T13:26:47Z</time>
      </trkpt>
      <trkpt lat="40.288083" lon="-4.829067">
        <ele>1328.0</ele>
        <time>2016-03-13T13:26:48Z</time>
      </trkpt>
      <trkpt lat="40.288100" lon="-4.828900">
        <ele>1328.0</ele>
        <time>2016-03-13T13:26:49Z</time>
      </trkpt>
      <trkpt lat="40.288083" lon="-4.828750">
        <ele>1327.0</ele>
        <time>2016-03-13T13:26:50Z</time>
      </trkpt>
      <trkpt lat="40.288033" lon="-4.828617">
        <ele>1326.0</ele>
        <time>2016-03-13T13:26:51Z</time>
      </trkpt>
      <trkpt lat="40.287967" lon="-4.828500">
        <ele>1327.0</ele>
        <time>2016-03-13T13:26:52Z</time>
      </trkpt>
      <trkpt lat="40.287900" lon="-4.828400">
        <ele>1330.0</ele>
        <time>2016-03-13T13:26:53Z</time>
      </trkpt>
      <trkpt lat="40.287850" lon="-4.828333">
        <ele>1332.0</ele>
        <time>2016-03-13T13:26:54Z</time>
      </trkpt>
      <trkpt lat="40.287817" lon="-4.828300">
        <ele>1334.0</ele>
        <time>2016-03-13T13:26:55Z</time>
      </trkpt>
      <trkpt lat="40.287767" lon="-4.828300">
        <ele>1333.0</ele>
        <time>2016-03-13T13:26:56Z</time>
      </trkpt>
      <trkpt lat="40.287700" lon="-4.828317">
        <ele>1332.0</ele>
        <time>2016-03-13T13:26:57Z</time>
      </trkpt>
      <trkpt lat="40.287650" lon="-4.828367">
        <ele>1331.0</ele>
        <time>2016-03-13T13:26:58Z</time>
      </trkpt>
      <trkpt lat="40.287617" lon="-4.828467">
        <ele>1331.0</ele>
        <time>2016-03-13T13:26:59Z</time>
      </trkpt>
      <trkpt lat="40.287617" lon="-4.828583">
        <ele>1331.0</ele>
        <time>2016-03-13T13:27:00Z</time>
      </trkpt>
      <trkpt lat="40.287633" lon="-4.828683">
        <ele>1333.0</ele>
        <time>2016-03-13T13:27:01Z</time>
      </trkpt>
      <trkpt lat="40.287700" lon="-4.828783">
        <ele>1335.0</ele>
        <time>2016-03-13T13:27:02Z</time>
      </trkpt>
      <trkpt lat="40.287767" lon="-4.828850">
        <ele>1337.0</ele>
        <time>2016-03-13T13:27:03Z</time>
      </trkpt>
      <trkpt lat="40.287850" lon="-4.828883">
        <ele>1337.0</ele>
        <time>2016-03-13T13:27:04Z</time>
      </trkpt>
      <trkpt lat="40.287950" lon="-4.828900">
        <ele>1337.0</ele>
        <time>2016-03-13T13:27:05Z</time>
      </trkpt>
      <trkpt lat="40.288067" lon="-4.828900">
        <ele>1337.0</ele>
        <time>2016-03-13T13:27:06Z</time>
      </trkpt>
      <trkpt lat="40.288200" lon="-4.828867">
        <ele>1337.0</ele>
        <time>2016-03-13T13:27:07Z</time>
      </trkpt>
      <trkpt lat="40.288317" lon="-4.828783">
        <ele>1337.0</ele>
        <time>2016-03-13T13:27:08Z</time>
      </trkpt>
      <trkpt lat="40.288400" lon="-4.828667">
        <ele>1338.0</ele>
        <time>2016-03-13T13:27:09Z</time>
      </trkpt>
      <trkpt lat="40.288450" lon="-4.828533">
        <ele>1338.0</ele>
        <time>2016-03-13T13:27:10Z</time>
      </trkpt>
      <trkpt lat="40.288483" lon="-4.828400">
        <ele>1339.0</ele>
        <time>2016-03-13T13:27:11Z</time>
      </trkpt>
      <trkpt lat="40.288500" lon="-4.828283">
        <ele>1337.0</ele>
        <time>2016-03-13T13:27:12Z</time>
      </trkpt>
      <trkpt lat="40.288517" lon="-4.828133">
        <ele>1337.0</ele>
        <time>2016-03-13T13:27:13Z</time>
      </trkpt>
      <trkpt lat="40.288533" lon="-4.828000">
        <ele>1336.0</ele>
        <time>2016-03-13T13:27:14Z</time>
      </trkpt>
      <trkpt lat="40.288533" lon="-4.827850">
        <ele>1337.0</ele>
        <time>2016-03-13T13:27:15Z</time>
      </trkpt>
      <trkpt lat="40.288550" lon="-4.827717">
        <ele>1337.0</ele>
        <time>2016-03-13T13:27:16Z</time>
      </trkpt>
      <trkpt lat="40.288583" lon="-4.827583">
        <ele>1337.0</ele>
        <time>2016-03-13T13:27:17Z</time>
      </trkpt>
      <trkpt lat="40.288633" lon="-4.827467">
        <ele>1336.0</ele>
        <time>2016-03-13T13:27:18Z</time>
      </trkpt>
      <trkpt lat="40.288683" lon="-4.827333">
        <ele>1334.0</ele>
        <time>2016-03-13T13:27:19Z</time>
      </trkpt>
      <trkpt lat="40.288750" lon="-4.827217">
        <ele>1333.0</ele>
        <time>2016-03-13T13:27:20Z</time>
      </trkpt>
      <trkpt lat="40.288800" lon="-4.827083">
        <ele>1331.0</ele>
        <time>2016-03-13T13:27:21Z</time>
      </trkpt>
      <trkpt lat="40.288867" lon="-4.826933">
        <ele>1330.0</ele>
        <time>2016-03-13T13:27:22Z</time>
      </trkpt>
      <trkpt lat="40.288917" lon="-4.826800">
        <ele>1328.0</ele>
        <time>2016-03-13T13:27:23Z</time>
      </trkpt>
      <trkpt lat="40.288967" lon="-4.826650">
        <ele>1327.0</ele>
        <time>2016-03-13T13:27:24Z</time>
      </trkpt>
      <trkpt lat="40.289017" lon="-4.826500">
        <ele>1325.0</ele>
        <time>2016-03-13T13:27:25Z</time>
      </trkpt>
      <trkpt lat="40.289067" lon="-4.826367">
        <ele>1324.0</ele>
        <time>2016-03-13T13:27:26Z</time>
      </trkpt>
      <trkpt lat="40.289100" lon="-4.826233">
        <ele>1323.0</ele>
        <time>2016-03-13T13:27:27Z</time>
      </trkpt>
      <trkpt lat="40.289150" lon="-4.826117">
        <ele>1320.0</ele>
        <time>2016-03-13T13:27:28Z</time>
      </trkpt>
      <trkpt lat="40.289217" lon="-4.825983">
        <ele>1317.0</ele>
        <time>2016-03-13T13:27:29Z</time>
      </trkpt>
      <trkpt lat="40.289300" lon="-4.825867">
        <ele>1315.0</ele>
        <time>2016-03-13T13:27:30Z</time>
      </trkpt>
      <trkpt lat="40.289383" lon="-4.825717">
        <ele>1312.0</ele>
        <time>2016-03-13T13:27:31Z</time>
      </trkpt>
      <trkpt lat="40.289467" lon="-4.825583">
        <ele>1312.0</ele>
        <time>2016-03-13T13:27:32Z</time>
      </trkpt>
      <trkpt lat="40.289550" lon="-4.825433">
        <ele>1312.0</ele>
        <time>2016-03-13T13:27:33Z</time>
      </trkpt>
      <trkpt lat="40.289617" lon="-4.825300">
        <ele>1311.0</ele>
        <time>2016-03-13T13:27:34Z</time>
      </trkpt>
      <trkpt lat="40.289683" lon="-4.825167">
        <ele>1310.0</ele>
        <time>2016-03-13T13:27:35Z</time>
      </trkpt>
      <trkpt lat="40.289750" lon="-4.825050">
        <ele>1311.0</ele>
        <time>2016-03-13T13:27:36Z</time>
      </trkpt>
      <trkpt lat="40.289817" lon="-4.824950">
        <ele>1311.0</ele>
        <time>2016-03-13T13:27:37Z</time>
      </trkpt>
      <trkpt lat="40.289900" lon="-4.824867">
        <ele>1311.0</ele>
        <time>2016-03-13T13:27:38Z</time>
      </trkpt>
      <trkpt lat="40.289983" lon="-4.824783">
        <ele>1311.0</ele>
        <time>2016-03-13T13:27:39Z</time>
      </trkpt>
      <trkpt lat="40.290083" lon="-4.824683">
        <ele>1311.0</ele>
        <time>2016-03-13T13:27:40Z</time>
      </trkpt>
      <trkpt lat="40.290167" lon="-4.824600">
        <ele>1309.0</ele>
        <time>2016-03-13T13:27:41Z</time>
      </trkpt>
      <trkpt lat="40.290250" lon="-4.824500">
        <ele>1308.0</ele>
        <time>2016-03-13T13:27:42Z</time>
      </trkpt>
      <trkpt lat="40.290333" lon="-4.824400">
        <ele>1306.0</ele>
        <time>2016-03-13T13:27:43Z</time>
      </trkpt>
      <trkpt lat="40.290417" lon="-4.824283">
        <ele>1303.0</ele>
        <time>2016-03-13T13:27:44Z</time>
      </trkpt>
      <trkpt lat="40.290517" lon="-4.824167">
        <ele>1302.0</ele>
        <time>2016-03-13T13:27:45Z</time>
      </trkpt>
      <trkpt lat="40.290600" lon="-4.824067">
        <ele>1301.0</ele>
        <time>2016-03-13T13:27:46Z</time>
      </trkpt>
      <trkpt lat="40.290683" lon="-4.823967">
        <ele>1300.0</ele>
        <time>2016-03-13T13:27:47Z</time>
      </trkpt>
      <trkpt lat="40.290767" lon="-4.823867">
        <ele>1298.0</ele>
        <time>2016-03-13T13:27:48Z</time>
      </trkpt>
      <trkpt lat="40.290850" lon="-4.823767">
        <ele>1295.0</ele>
        <time>2016-03-13T13:27:49Z</time>
      </trkpt>
      <trkpt lat="40.290933" lon="-4.823667">
        <ele>1293.0</ele>
        <time>2016-03-13T13:27:50Z</time>
      </trkpt>
      <trkpt lat="40.291033" lon="-4.823550">
        <ele>1291.0</ele>
        <time>2016-03-13T13:27:51Z</time>
      </trkpt>
      <trkpt lat="40.291133" lon="-4.823433">
        <ele>1290.0</ele>
        <time>2016-03-13T13:27:52Z</time>
      </trkpt>
      <trkpt lat="40.291233" lon="-4.823333">
        <ele>1290.0</ele>
        <time>2016-03-13T13:27:53Z</time>
      </trkpt>
      <trkpt lat="40.291333" lon="-4.823233">
        <ele>1290.0</ele>
        <time>2016-03-13T13:27:54Z</time>
      </trkpt>
      <trkpt lat="40.291417" lon="-4.823167">
        <ele>1290.0</ele>
        <time>2016-03-13T13:27:55Z</time>
      </trkpt>
      <trkpt lat="40.291517" lon="-4.823100">
        <ele>1289.0</ele>
        <time>2016-03-13T13:27:56Z</time>
      </trkpt>
      <trkpt lat="40.291617" lon="-4.823050">
        <ele>1287.0</ele>
        <time>2016-03-13T13:27:57Z</time>
      </trkpt>
      <trkpt lat="40.291717" lon="-4.823000">
        <ele>1285.0</ele>
        <time>2016-03-13T13:27:58Z</time>
      </trkpt>
      <trkpt lat="40.291817" lon="-4.822950">
        <ele>1284.0</ele>
        <time>2016-03-13T13:27:59Z</time>
      </trkpt>
      <trkpt lat="40.291933" lon="-4.822900">
        <ele>1283.0</ele>
        <time>2016-03-13T13:28:00Z</time>
      </trkpt>
      <trkpt lat="40.292033" lon="-4.822850">
        <ele>1283.0</ele>
        <time>2016-03-13T13:28:01Z</time>
      </trkpt>
      <trkpt lat="40.292150" lon="-4.822817">
        <ele>1283.0</ele>
        <time>2016-03-13T13:28:02Z</time>
      </trkpt>
      <trkpt lat="40.292250" lon="-4.822783">
        <ele>1283.0</ele>
        <time>2016-03-13T13:28:03Z</time>
      </trkpt>
      <trkpt lat="40.292350" lon="-4.822767">
        <ele>1283.0</ele>
        <time>2016-03-13T13:28:04Z</time>
      </trkpt>
      <trkpt lat="40.292450" lon="-4.822750">
        <ele>1283.0</ele>
        <time>2016-03-13T13:28:05Z</time>
      </trkpt>
      <trkpt lat="40.292567" lon="-4.822717">
        <ele>1283.0</ele>
        <time>2016-03-13T13:28:06Z</time>
      </trkpt>
      <trkpt lat="40.292667" lon="-4.822700">
        <ele>1282.0</ele>
        <time>2016-03-13T13:28:07Z</time>
      </trkpt>
      <trkpt lat="40.292767" lon="-4.822683">
        <ele>1282.0</ele>
        <time>2016-03-13T13:28:08Z</time>
      </trkpt>
      <trkpt lat="40.292883" lon="-4.822667">
        <ele>1283.0</ele>
        <time>2016-03-13T13:28:09Z</time>
      </trkpt>
      <trkpt lat="40.292983" lon="-4.822633">
        <ele>1283.0</ele>
        <time>2016-03-13T13:28:10Z</time>
      </trkpt>
      <trkpt lat="40.293067" lon="-4.822583">
        <ele>1285.0</ele>
        <time>2016-03-13T13:28:11Z</time>
      </trkpt>
      <trkpt lat="40.293133" lon="-4.822500">
        <ele>1285.0</ele>
        <time>2016-03-13T13:28:12Z</time>
      </trkpt>
      <trkpt lat="40.293183" lon="-4.822383">
        <ele>1284.0</ele>
        <time>2016-03-13T13:28:13Z</time>
      </trkpt>
      <trkpt lat="40.293200" lon="-4.822267">
        <ele>1283.0</ele>
        <time>2016-03-13T13:28:14Z</time>
      </trkpt>
      <trkpt lat="40.293217" lon="-4.822133">
        <ele>1284.0</ele>
        <time>2016-03-13T13:28:15Z</time>
      </trkpt>
      <trkpt lat="40.293200" lon="-4.822000">
        <ele>1284.0</ele>
        <time>2016-03-13T13:28:16Z</time>
      </trkpt>
      <trkpt lat="40.293183" lon="-4.821883">
        <ele>1285.0</ele>
        <time>2016-03-13T13:28:17Z</time>
      </trkpt>
      <trkpt lat="40.293167" lon="-4.821783">
        <ele>1284.0</ele>
        <time>2016-03-13T13:28:18Z</time>
      </trkpt>
      <trkpt lat="40.293117" lon="-4.821667">
        <ele>1283.0</ele>
        <time>2016-03-13T13:28:19Z</time>
      </trkpt>
      <trkpt lat="40.293067" lon="-4.821583">
        <ele>1282.0</ele>
        <time>2016-03-13T13:28:20Z</time>
      </trkpt>
      <trkpt lat="40.292983" lon="-4.821500">
        <ele>1282.0</ele>
        <time>2016-03-13T13:28:21Z</time>
      </trkpt>
      <trkpt lat="40.292917" lon="-4.821400">
        <ele>1281.0</ele>
        <time>2016-03-13T13:28:22Z</time>
      </trkpt>
      <trkpt lat="40.292833" lon="-4.821300">
        <ele>1281.0</ele>
        <time>2016-03-13T13:28:23Z</time>
      </trkpt>
      <trkpt lat="40.292767" lon="-4.821200">
        <ele>1282.0</ele>
        <time>2016-03-13T13:28:24Z</time>
      </trkpt>
      <trkpt lat="40.292717" lon="-4.821083">
        <ele>1283.0</ele>
        <time>2016-03-13T13:28:25Z</time>
      </trkpt>
      <trkpt lat="40.292683" lon="-4.820967">
        <ele>1284.0</ele>
        <time>2016-03-13T13:28:26Z</time>
      </trkpt>
      <trkpt lat="40.292683" lon="-4.820817">
        <ele>1285.0</ele>
        <time>2016-03-13T13:28:27Z</time>
      </trkpt>
      <trkpt lat="40.292700" lon="-4.820667">
        <ele>1287.0</ele>
        <time>2016-03-13T13:28:28Z</time>
      </trkpt>
      <trkpt lat="40.292733" lon="-4.820533">
        <ele>1289.0</ele>
        <time>2016-03-13T13:28:29Z</time>
      </trkpt>
      <trkpt lat="40.292750" lon="-4.820417">
        <ele>1290.0</ele>
        <time>2016-03-13T13:28:30Z</time>
      </trkpt>
      <trkpt lat="40.292750" lon="-4.820300">
        <ele>1290.0</ele>
        <time>2016-03-13T13:28:31Z</time>
      </trkpt>
      <trkpt lat="40.292717" lon="-4.820200">
        <ele>1288.0</ele>
        <time>2016-03-13T13:28:32Z</time>
      </trkpt>
      <trkpt lat="40.292650" lon="-4.820117">
        <ele>1288.0</ele>
        <time>2016-03-13T13:28:33Z</time>
      </trkpt>
      <trkpt lat="40.292567" lon="-4.820083">
        <ele>1288.0</ele>
        <time>2016-03-13T13:28:34Z</time>
      </trkpt>
      <trkpt lat="40.292517" lon="-4.820100">
        <ele>1289.0</ele>
        <time>2016-03-13T13:28:35Z</time>
      </trkpt>
      <trkpt lat="40.292467" lon="-4.820150">
        <ele>1288.0</ele>
        <time>2016-03-13T13:28:36Z</time>
      </trkpt>
      <trkpt lat="40.292450" lon="-4.820250">
        <ele>1287.0</ele>
        <time>2016-03-13T13:28:37Z</time>
      </trkpt>
      <trkpt lat="40.292467" lon="-4.820367">
        <ele>1286.0</ele>
        <time>2016-03-13T13:28:38Z</time>
      </trkpt>
      <trkpt lat="40.292517" lon="-4.820483">
        <ele>1286.0</ele>
        <time>2016-03-13T13:28:39Z</time>
      </trkpt>
      <trkpt lat="40.292617" lon="-4.820567">
        <ele>1287.0</ele>
        <time>2016-03-13T13:28:40Z</time>
      </trkpt>
      <trkpt lat="40.292733" lon="-4.820600">
        <ele>1288.0</ele>
        <time>2016-03-13T13:28:41Z</time>
      </trkpt>
      <trkpt lat="40.292867" lon="-4.820600">
        <ele>1289.0</ele>
        <time>2016-03-13T13:28:42Z</time>
      </trkpt>
      <trkpt lat="40.292967" lon="-4.820550">
        <ele>1290.0</ele>
        <time>2016-03-13T13:28:43Z</time>
      </trkpt>
      <trkpt lat="40.293067" lon="-4.820483">
        <ele>1290.0</ele>
        <time>2016-03-13T13:28:44Z</time>
      </trkpt>
      <trkpt lat="40.293150" lon="-4.820400">
        <ele>1290.0</ele>
        <time>2016-03-13T13:28:45Z</time>
      </trkpt>
      <trkpt lat="40.293233" lon="-4.820283">
        <ele>1289.0</ele>
        <time>2016-03-13T13:28:46Z</time>
      </trkpt>
      <trkpt lat="40.293300" lon="-4.820150">
        <ele>1289.0</ele>
        <time>2016-03-13T13:28:47Z</time>
      </trkpt>
      <trkpt lat="40.293333" lon="-4.820017">
        <ele>1289.0</ele>
        <time>2016-03-13T13:28:48Z</time>
      </trkpt>
      <trkpt lat="40.293333" lon="-4.819883">
        <ele>1288.0</ele>
        <time>2016-03-13T13:28:49Z</time>
      </trkpt>
      <trkpt lat="40.293300" lon="-4.819750">
        <ele>1287.0</ele>
        <time>2016-03-13T13:28:50Z</time>
      </trkpt>
      <trkpt lat="40.293250" lon="-4.819633">
        <ele>1285.0</ele>
        <time>2016-03-13T13:28:51Z</time>
      </trkpt>
      <trkpt lat="40.293167" lon="-4.819567">
        <ele>1283.0</ele>
        <time>2016-03-13T13:28:52Z</time>
      </trkpt>
      <trkpt lat="40.293067" lon="-4.819550">
        <ele>1283.0</ele>
        <time>2016-03-13T13:28:53Z</time>
      </trkpt>
      <trkpt lat="40.292983" lon="-4.819567">
        <ele>1283.0</ele>
        <time>2016-03-13T13:28:54Z</time>
      </trkpt>
      <trkpt lat="40.292933" lon="-4.819600">
        <ele>1284.0</ele>
        <time>2016-03-13T13:28:55Z</time>
      </trkpt>
      <trkpt lat="40.292883" lon="-4.819650">
        <ele>1284.0</ele>
        <time>2016-03-13T13:28:56Z</time>
      </trkpt>
      <trkpt lat="40.292850" lon="-4.819717">
        <ele>1283.0</ele>
        <time>2016-03-13T13:28:57Z</time>
      </trkpt>
      <trkpt lat="40.292833" lon="-4.819817">
        <ele>1281.0</ele>
        <time>2016-03-13T13:28:58Z</time>
      </trkpt>
      <trkpt lat="40.292850" lon="-4.819933">
        <ele>1280.0</ele>
        <time>2016-03-13T13:28:59Z</time>
      </trkpt>
      <trkpt lat="40.292867" lon="-4.820067">
        <ele>1280.0</ele>
        <time>2016-03-13T13:29:00Z</time>
      </trkpt>
      <trkpt lat="40.292900" lon="-4.820200">
        <ele>1280.0</ele>
        <time>2016-03-13T13:29:01Z</time>
      </trkpt>
      <trkpt lat="40.292950" lon="-4.820317">
        <ele>1282.0</ele>
        <time>2016-03-13T13:29:02Z</time>
      </trkpt>
      <trkpt lat="40.293000" lon="-4.820433">
        <ele>1285.0</ele>
        <time>2016-03-13T13:29:03Z</time>
      </trkpt>
      <trkpt lat="40.293067" lon="-4.820533">
        <ele>1287.0</ele>
        <time>2016-03-13T13:29:04Z</time>
      </trkpt>
      <trkpt lat="40.293117" lon="-4.820600">
        <ele>1290.0</ele>
        <time>2016-03-13T13:29:05Z</time>
      </trkpt>
      <trkpt lat="40.293167" lon="-4.820667">
        <ele>1292.0</ele>
        <time>2016-03-13T13:29:06Z</time>
      </trkpt>
      <trkpt lat="40.293250" lon="-4.820717">
        <ele>1293.0</ele>
        <time>2016-03-13T13:29:07Z</time>
      </trkpt>
      <trkpt lat="40.293333" lon="-4.820750">
        <ele>1292.0</ele>
        <time>2016-03-13T13:29:08Z</time>
      </trkpt>
      <trkpt lat="40.293433" lon="-4.820750">
        <ele>1293.0</ele>
        <time>2016-03-13T13:29:09Z</time>
      </trkpt>
      <trkpt lat="40.293533" lon="-4.820717">
        <ele>1293.0</ele>
        <time>2016-03-13T13:29:10Z</time>
      </trkpt>
      <trkpt lat="40.293633" lon="-4.820650">
        <ele>1294.0</ele>
        <time>2016-03-13T13:29:11Z</time>
      </trkpt>
      <trkpt lat="40.293700" lon="-4.820533">
        <ele>1292.0</ele>
        <time>2016-03-13T13:29:12Z</time>
      </trkpt>
      <trkpt lat="40.293733" lon="-4.820383">
        <ele>1291.0</ele>
        <time>2016-03-13T13:29:13Z</time>
      </trkpt>
      <trkpt lat="40.293733" lon="-4.820217">
        <ele>1290.0</ele>
        <time>2016-03-13T13:29:14Z</time>
      </trkpt>
      <trkpt lat="40.293683" lon="-4.820083">
        <ele>1291.0</ele>
        <time>2016-03-13T13:29:15Z</time>
      </trkpt>
      <trkpt lat="40.293633" lon="-4.819967">
        <ele>1293.0</ele>
        <time>2016-03-13T13:29:16Z</time>
      </trkpt>
      <trkpt lat="40.293567" lon="-4.819883">
        <ele>1294.0</ele>
        <time>2016-03-13T13:29:17Z</time>
      </trkpt>
      <trkpt lat="40.293500" lon="-4.819783">
        <ele>1296.0</ele>
        <time>2016-03-13T13:29:18Z</time>
      </trkpt>
      <trkpt lat="40.293450" lon="-4.819700">
        <ele>1297.0</ele>
        <time>2016-03-13T13:29:19Z</time>
      </trkpt>
      <trkpt lat="40.293383" lon="-4.819633">
        <ele>1299.0</ele>
        <time>2016-03-13T13:29:20Z</time>
      </trkpt>
      <trkpt lat="40.293317" lon="-4.819600">
        <ele>1299.0</ele>
        <time>2016-03-13T13:29:21Z</time>
      </trkpt>
      <trkpt lat="40.293250" lon="-4.819633">
        <ele>1298.0</ele>
        <time>2016-03-13T13:29:22Z</time>
      </trkpt>
      <trkpt lat="40.293183" lon="-4.819717">
        <ele>1298.0</ele>
        <time>2016-03-13T13:29:23Z</time>
      </trkpt>
      <trkpt lat="40.293167" lon="-4.819833">
        <ele>1298.0</ele>
        <time>2016-03-13T13:29:24Z</time>
      </trkpt>
      <trkpt lat="40.293200" lon="-4.819933">
        <ele>1299.0</ele>
        <time>2016-03-13T13:29:25Z</time>
      </trkpt>
      <trkpt lat="40.293250" lon="-4.820033">
        <ele>1299.0</ele>
        <time>2016-03-13T13:29:26Z</time>
      </trkpt>
      <trkpt lat="40.293333" lon="-4.820117">
        <ele>1300.0</ele>
        <time>2016-03-13T13:29:27Z</time>
      </trkpt>
      <trkpt lat="40.293417" lon="-4.820167">
        <ele>1301.0</ele>
        <time>2016-03-13T13:29:28Z</time>
      </trkpt>
      <trkpt lat="40.293517" lon="-4.820233">
        <ele>1302.0</ele>
        <time>2016-03-13T13:29:29Z</time>
      </trkpt>
      <trkpt lat="40.293600" lon="-4.820300">
        <ele>1304.0</ele>
        <time>2016-03-13T13:29:30Z</time>
      </trkpt>
      <trkpt lat="40.293650" lon="-4.820383">
        <ele>1306.0</ele>
        <time>2016-03-13T13:29:31Z</time>
      </trkpt>
      <trkpt lat="40.293650" lon="-4.820483">
        <ele>1306.0</ele>
        <time>2016-03-13T13:29:32Z</time>
      </trkpt>
      <trkpt lat="40.293633" lon="-4.820567">
        <ele>1305.0</ele>
        <time>2016-03-13T13:29:33Z</time>
      </trkpt>
      <trkpt lat="40.293583" lon="-4.820633">
        <ele>1304.0</ele>
        <time>2016-03-13T13:29:34Z</time>
      </trkpt>
      <trkpt lat="40.293500" lon="-4.820683">
        <ele>1305.0</ele>
        <time>2016-03-13T13:29:35Z</time>
      </trkpt>
      <trkpt lat="40.293433" lon="-4.820683">
        <ele>1305.0</ele>
        <time>2016-03-13T13:29:36Z</time>
      </trkpt>
      <trkpt lat="40.293350" lon="-4.820650">
        <ele>1305.0</ele>
        <time>2016-03-13T13:29:37Z</time>
      </trkpt>
      <trkpt lat="40.293300" lon="-4.820567">
        <ele>1306.0</ele>
        <time>2016-03-13T13:29:38Z</time>
      </trkpt>
      <trkpt lat="40.293267" lon="-4.820483">
        <ele>1307.0</ele>
        <time>2016-03-13T13:29:39Z</time>
      </trkpt>
      <trkpt lat="40.293250" lon="-4.820383">
        <ele>1308.0</ele>
        <time>2016-03-13T13:29:40Z</time>
      </trkpt>
      <trkpt lat="40.293250" lon="-4.820267">
        <ele>1308.0</ele>
        <time>2016-03-13T13:29:41Z</time>
      </trkpt>
      <trkpt lat="40.293283" lon="-4.820150">
        <ele>1306.0</ele>
        <time>2016-03-13T13:29:42Z</time>
      </trkpt>
      <trkpt lat="40.293317" lon="-4.820017">
        <ele>1305.0</ele>
        <time>2016-03-13T13:29:43Z</time>
      </trkpt>
      <trkpt lat="40.293367" lon="-4.819900">
        <ele>1305.0</ele>
        <time>2016-03-13T13:29:44Z</time>
      </trkpt>
      <trkpt lat="40.293383" lon="-4.819783">
        <ele>1306.0</ele>
        <time>2016-03-13T13:29:45Z</time>
      </trkpt>
      <trkpt lat="40.293383" lon="-4.819667">
        <ele>1305.0</ele>
        <time>2016-03-13T13:29:46Z</time>
      </trkpt>
      <trkpt lat="40.293333" lon="-4.819583">
        <ele>1304.0</ele>
        <time>2016-03-13T13:29:47Z</time>
      </trkpt>
      <trkpt lat="40.293250" lon="-4.819533">
        <ele>1303.0</ele>
        <time>2016-03-13T13:29:48Z</time>
      </trkpt>
      <trkpt lat="40.293150" lon="-4.819500">
        <ele>1303.0</ele>
        <time>2016-03-13T13:29:49Z</time>
      </trkpt>
      <trkpt lat="40.293067" lon="-4.819500">
        <ele>1306.0</ele>
        <time>2016-03-13T13:29:50Z</time>
      </trkpt>
      <trkpt lat="40.293000" lon="-4.819517">
        <ele>1310.0</ele>
        <time>2016-03-13T13:29:51Z</time>
      </trkpt>
      <trkpt lat="40.292933" lon="-4.819500">
        <ele>1312.0</ele>
        <time>2016-03-13T13:29:52Z</time>
      </trkpt>
      <trkpt lat="40.292883" lon="-4.819467">
        <ele>1313.0</ele>
        <time>2016-03-13T13:29:53Z</time>
      </trkpt>
      <trkpt lat="40.292817" lon="-4.819417">
        <ele>1312.0</ele>
        <time>2016-03-13T13:29:54Z</time>
      </trkpt>
      <trkpt lat="40.292750" lon="-4.819400">
        <ele>1311.0</ele>
        <time>2016-03-13T13:29:55Z</time>
      </trkpt>
      <trkpt lat="40.292683" lon="-4.819433">
        <ele>1310.0</ele>
        <time>2016-03-13T13:29:56Z</time>
      </trkpt>
      <trkpt lat="40.292617" lon="-4.819500">
        <ele>1308.0</ele>
        <time>2016-03-13T13:29:57Z</time>
      </trkpt>
      <trkpt lat="40.292567" lon="-4.819583">
        <ele>1307.0</ele>
        <time>2016-03-13T13:29:58Z</time>
      </trkpt>
      <trkpt lat="40.292550" lon="-4.819700">
        <ele>1307.0</ele>
        <time>2016-03-13T13:29:59Z</time>
      </trkpt>
      <trkpt lat="40.292567" lon="-4.819800">
        <ele>1307.0</ele>
        <time>2016-03-13T13:30:00Z</time>
      </trkpt>
      <trkpt lat="40.292600" lon="-4.819900">
        <ele>1307.0</ele>
        <time>2016-03-13T13:30:01Z</time>
      </trkpt>
      <trkpt lat="40.292667" lon="-4.819967">
        <ele>1307.0</ele>
        <time>2016-03-13T13:30:02Z</time>
      </trkpt>
      <trkpt lat="40.292767" lon="-4.820017">
        <ele>1306.0</ele>
        <time>2016-03-13T13:30:03Z</time>
      </trkpt>
      <trkpt lat="40.292867" lon="-4.820033">
        <ele>1306.0</ele>
        <time>2016-03-13T13:30:04Z</time>
      </trkpt>
      <trkpt lat="40.292983" lon="-4.820050">
        <ele>1307.0</ele>
        <time>2016-03-13T13:30:05Z</time>
      </trkpt>
      <trkpt lat="40.293100" lon="-4.820067">
        <ele>1308.0</ele>
        <time>2016-03-13T13:30:06Z</time>
      </trkpt>
      <trkpt lat="40.293217" lon="-4.820083">
        <ele>1310.0</ele>
        <time>2016-03-13T13:30:07Z</time>
      </trkpt>
      <trkpt lat="40.293317" lon="-4.820100">
        <ele>1311.0</ele>
        <time>2016-03-13T13:30:08Z</time>
      </trkpt>
      <trkpt lat="40.293417" lon="-4.820117">
        <ele>1312.0</ele>
        <time>2016-03-13T13:30:09Z</time>
      </trkpt>
      <trkpt lat="40.293517" lon="-4.820150">
        <ele>1312.0</ele>
        <time>2016-03-13T13:30:10Z</time>
      </trkpt>
      <trkpt lat="40.293583" lon="-4.820233">
        <ele>1311.0</ele>
        <time>2016-03-13T13:30:11Z</time>
      </trkpt>
      <trkpt lat="40.293650" lon="-4.820333">
        <ele>1310.0</ele>
        <time>2016-03-13T13:30:12Z</time>
      </trkpt>
      <trkpt lat="40.293683" lon="-4.820433">
        <ele>1311.0</ele>
        <time>2016-03-13T13:30:13Z</time>
      </trkpt>
      <trkpt lat="40.293717" lon="-4.820533">
        <ele>1313.0</ele>
        <time>2016-03-13T13:30:14Z</time>
      </trkpt>
      <trkpt lat="40.293700" lon="-4.820633">
        <ele>1314.0</ele>
        <time>2016-03-13T13:30:15Z</time>
      </trkpt>
      <trkpt lat="40.293667" lon="-4.820717">
        <ele>1315.0</ele>
        <time>2016-03-13T13:30:16Z</time>
      </trkpt>
      <trkpt lat="40.293600" lon="-4.820767">
        <ele>1316.0</ele>
        <time>2016-03-13T13:30:17Z</time>
      </trkpt>
      <trkpt lat="40.293517" lon="-4.820800">
        <ele>1316.0</ele>
        <time>2016-03-13T13:30:18Z</time>
      </trkpt>
      <trkpt lat="40.293433" lon="-4.820833">
        <ele>1318.0</ele>
        <time>2016-03-13T13:30:19Z</time>
      </trkpt>
      <trkpt lat="40.293367" lon="-4.820867">
        <ele>1320.0</ele>
        <time>2016-03-13T13:30:20Z</time>
      </trkpt>
      <trkpt lat="40.293300" lon="-4.820900">
        <ele>1322.0</ele>
        <time>2016-03-13T13:30:21Z</time>
      </trkpt>
      <trkpt lat="40.293250" lon="-4.820917">
        <ele>1323.0</ele>
        <time>2016-03-13T13:30:22Z</time>
      </trkpt>
      <trkpt lat="40.293183" lon="-4.820933">
        <ele>1324.0</ele>
        <time>2016-03-13T13:30:23Z</time>
      </trkpt>
      <trkpt lat="40.293117" lon="-4.820917">
        <ele>1324.0</ele>
        <time>2016-03-13T13:30:24Z</time>
      </trkpt>
      <trkpt lat="40.293050" lon="-4.820850">
        <ele>1324.0</ele>
        <time>2016-03-13T13:30:25Z</time>
      </trkpt>
      <trkpt lat="40.293017" lon="-4.820733">
        <ele>1323.0</ele>
        <time>2016-03-13T13:30:26Z</time>
      </trkpt>
      <trkpt lat="40.293017" lon="-4.820600">
        <ele>1323.0</ele>
        <time>2016-03-13T13:30:27Z</time>
      </trkpt>
      <trkpt lat="40.293067" lon="-4.820467">
        <ele>1324.0</ele>
        <time>2016-03-13T13:30:28Z</time>
      </trkpt>
      <trkpt lat="40.293133" lon="-4.820350">
        <ele>1326.0</ele>
        <time>2016-03-13T13:30:29Z</time>
      </trkpt>
      <trkpt lat="40.293233" lon="-4.820283">
        <ele>1327.0</ele>
        <time>2016-03-13T13:30:30Z</time>
      </trkpt>
      <trkpt lat="40.293350" lon="-4.820233">
        <ele>1328.0</ele>
        <time>2016-03-13T13:30:31Z</time>
      </trkpt>
      <trkpt lat="40.293450" lon="-4.820250">
        <ele>1330.0</ele>
        <time>2016-03-13T13:30:32Z</time>
      </trkpt>
      <trkpt lat="40.293550" lon="-4.820283">
        <ele>1330.0</ele>
        <time>2016-03-13T13:30:33Z</time>
      </trkpt>
      <trkpt lat="40.293617" lon="-4.820367">
        <ele>1329.0</ele>
        <time>2016-03-13T13:30:34Z</time>
      </trkpt>
      <trkpt lat="40.293667" lon="-4.820483">
        <ele>1329.0</ele>
        <time>2016-03-13T13:30:35Z</time>
      </trkpt>
      <trkpt lat="40.293683" lon="-4.820600">
        <ele>1328.0</ele>
        <time>2016-03-13T13:30:36Z</time>
      </trkpt>
      <trkpt lat="40.293667" lon="-4.820717">
        <ele>1329.0</ele>
        <time>2016-03-13T13:30:37Z</time>
      </trkpt>
      <trkpt lat="40.293633" lon="-4.820800">
        <ele>1331.0</ele>
        <time>2016-03-13T13:30:38Z</time>
      </trkpt>
      <trkpt lat="40.293600" lon="-4.820883">
        <ele>1333.0</ele>
        <time>2016-03-13T13:30:39Z</time>
      </trkpt>
      <trkpt lat="40.293567" lon="-4.820933">
        <ele>1335.0</ele>
        <time>2016-03-13T13:30:40Z</time>
      </trkpt>
      <trkpt lat="40.293533" lon="-4.820983">
        <ele>1337.0</ele>
        <time>2016-03-13T13:30:41Z</time>
      </trkpt>
      <trkpt lat="40.293483" lon="-4.821017">
        <ele>1337.0</ele>
        <time>2016-03-13T13:30:42Z</time>
      </trkpt>
      <trkpt lat="40.293433" lon="-4.821017">
        <ele>1336.0</ele>
        <time>2016-03-13T13:30:43Z</time>
      </trkpt>
      <trkpt lat="40.293383" lon="-4.820967">
        <ele>1334.0</ele>
        <time>2016-03-13T13:30:44Z</time>
      </trkpt>
      <trkpt lat="40.293317" lon="-4.820883">
        <ele>1332.0</ele>
        <time>2016-03-13T13:30:45Z</time>
      </trkpt>
      <trkpt lat="40.293267" lon="-4.820767">
        <ele>1331.0</ele>
        <time>2016-03-13T13:30:46Z</time>
      </trkpt>
      <trkpt lat="40.293250" lon="-4.820633">
        <ele>1330.0</ele>
        <time>2016-03-13T13:30:47Z</time>
      </trkpt>
      <trkpt lat="40.293283" lon="-4.820500">
        <ele>1330.0</ele>
        <time>2016-03-13T13:30:48Z</time>
      </trkpt>
      <trkpt lat="40.293350" lon="-4.820383">
        <ele>1329.0</ele>
        <time>2016-03-13T13:30:49Z</time>
      </trkpt>
      <trkpt lat="40.293433" lon="-4.820283">
        <ele>1329.0</ele>
        <time>2016-03-13T13:30:50Z</time>
      </trkpt>
      <trkpt lat="40.293550" lon="-4.820183">
        <ele>1329.0</ele>
        <time>2016-03-13T13:30:51Z</time>
      </trkpt>
      <trkpt lat="40.293667" lon="-4.820133">
        <ele>1329.0</ele>
        <time>2016-03-13T13:30:52Z</time>
      </trkpt>
      <trkpt lat="40.293800" lon="-4.820133">
        <ele>1331.0</ele>
        <time>2016-03-13T13:30:53Z</time>
      </trkpt>
      <trkpt lat="40.293917" lon="-4.820183">
        <ele>1332.0</ele>
        <time>2016-03-13T13:30:54Z</time>
      </trkpt>
      <trkpt lat="40.294017" lon="-4.820233">
        <ele>1335.0</ele>
        <time>2016-03-13T13:30:55Z</time>
      </trkpt>
      <trkpt lat="40.294117" lon="-4.820300">
        <ele>1338.0</ele>
        <time>2016-03-13T13:30:56Z</time>
      </trkpt>
      <trkpt lat="40.294200" lon="-4.820333">
        <ele>1340.0</ele>
        <time>2016-03-13T13:30:57Z</time>
      </trkpt>
      <trkpt lat="40.294267" lon="-4.820400">
        <ele>1342.0</ele>
        <time>2016-03-13T13:30:58Z</time>
      </trkpt>
      <trkpt lat="40.294333" lon="-4.820467">
        <ele>1342.0</ele>
        <time>2016-03-13T13:30:59Z</time>
      </trkpt>
      <trkpt lat="40.294367" lon="-4.820567">
        <ele>1342.0</ele>
        <time>2016-03-13T13:31:00Z</time>
      </trkpt>
      <trkpt lat="40.294367" lon="-4.820683">
        <ele>1343.0</ele>
        <time>2016-03-13T13:31:01Z</time>
      </trkpt>
      <trkpt lat="40.294350" lon="-4.820800">
        <ele>1344.0</ele>
        <time>2016-03-13T13:31:02Z</time>
      </trkpt>
      <trkpt lat="40.294317" lon="-4.820900">
        <ele>1347.0</ele>
        <time>2016-03-13T13:31:03Z</time>
      </trkpt>
      <trkpt lat="40.294317" lon="-4.821000">
        <ele>1350.0</ele>
        <time>2016-03-13T13:31:04Z</time>
      </trkpt>
      <trkpt lat="40.294333" lon="-4.821067">
        <ele>1352.0</ele>
        <time>2016-03-13T13:31:05Z</time>
      </trkpt>
      <trkpt lat="40.294333" lon="-4.821133">
        <ele>1354.0</ele>
        <time>2016-03-13T13:31:06Z</time>
      </trkpt>
      <trkpt lat="40.294317" lon="-4.821200">
        <ele>1354.0</ele>
        <time>2016-03-13T13:31:07Z</time>
      </trkpt>
      <trkpt lat="40.294250" lon="-4.821233">
        <ele>1353.0</ele>
        <time>2016-03-13T13:31:08Z</time>
      </trkpt>
      <trkpt lat="40.294167" lon="-4.821233">
        <ele>1352.0</ele>
        <time>2016-03-13T13:31:09Z</time>
      </trkpt>
      <trkpt lat="40.294067" lon="-4.821200">
        <ele>1352.0</ele>
        <time>2016-03-13T13:31:10Z</time>
      </trkpt>
      <trkpt lat="40.293983" lon="-4.821133">
        <ele>1355.0</ele>
        <time>2016-03-13T13:31:11Z</time>
      </trkpt>
      <trkpt lat="40.293900" lon="-4.821067">
        <ele>1359.0</ele>
        <time>2016-03-13T13:31:12Z</time>
      </trkpt>
      <trkpt lat="40.293850" lon="-4.821000">
        <ele>1363.0</ele>
        <time>2016-03-13T13:31:13Z</time>
      </trkpt>
      <trkpt lat="40.293800" lon="-4.820950">
        <ele>1365.0</ele>
        <time>2016-03-13T13:31:14Z</time>
      </trkpt>
      <trkpt lat="40.293733" lon="-4.820900">
        <ele>1366.0</ele>
        <time>2016-03-13T13:31:15Z</time>
      </trkpt>
      <trkpt lat="40.293683" lon="-4.820867">
        <ele>1366.0</ele>
        <time>2016-03-13T13:31:16Z</time>
      </trkpt>
      <trkpt lat="40.293617" lon="-4.820817">
        <ele>1365.0</ele>
        <time>2016-03-13T13:31:17Z</time>
      </trkpt>
      <trkpt lat="40.293583" lon="-4.820733">
        <ele>1365.0</ele>
        <time>2016-03-13T13:31:18Z</time>
      </trkpt>
      <trkpt lat="40.293567" lon="-4.820617">
        <ele>1363.0</ele>
        <time>2016-03-13T13:31:19Z</time>
      </trkpt>
      <trkpt lat="40.293600" lon="-4.820500">
        <ele>1361.0</ele>
        <time>2016-03-13T13:31:20Z</time>
      </trkpt>
      <trkpt lat="40.293650" lon="-4.820367">
        <ele>1358.0</ele>
        <time>2016-03-13T13:31:21Z</time>
      </trkpt>
      <trkpt lat="40.293733" lon="-4.820267">
        <ele>1357.0</ele>
        <time>2016-03-13T13:31:22Z</time>
      </trkpt>
      <trkpt lat="40.293850" lon="-4.820200">
        <ele>1357.0</ele>
        <time>2016-03-13T13:31:23Z</time>
      </trkpt>
      <trkpt lat="40.293967" lon="-4.820183">
        <ele>1358.0</ele>
        <time>2016-03-13T13:31:24Z</time>
      </trkpt>
      <trkpt lat="40.294083" lon="-4.820200">
        <ele>1359.0</ele>
        <time>2016-03-13T13:31:25Z</time>
      </trkpt>
      <trkpt lat="40.294200" lon="-4.820233">
        <ele>1360.0</ele>
        <time>2016-03-13T13:31:26Z</time>
      </trkpt>
      <trkpt lat="40.294283" lon="-4.820267">
        <ele>1360.0</ele>
        <time>2016-03-13T13:31:27Z</time>
      </trkpt>
      <trkpt lat="40.294367" lon="-4.820333">
        <ele>1360.0</ele>
        <time>2016-03-13T13:31:28Z</time>
      </trkpt>
      <trkpt lat="40.294433" lon="-4.820400">
        <ele>1360.0</ele>
        <time>2016-03-13T13:31:29Z</time>
      </trkpt>
      <trkpt lat="40.294483" lon="-4.820517">
        <ele>1360.0</ele>
        <time>2016-03-13T13:31:30Z</time>
      </trkpt>
      <trkpt lat="40.294517" lon="-4.820617">
        <ele>1360.0</ele>
        <time>2016-03-13T13:31:31Z</time>
      </trkpt>
      <trkpt lat="40.294517" lon="-4.820733">
        <ele>1362.0</ele>
        <time>2016-03-13T13:31:32Z</time>
      </trkpt>
      <trkpt lat="40.294500" lon="-4.820817">
        <ele>1365.0</ele>
        <time>2016-03-13T13:31:33Z</time>
      </trkpt>
      <trkpt lat="40.294500" lon="-4.820900">
        <ele>1366.0</ele>
        <time>2016-03-13T13:31:34Z</time>
      </trkpt>
      <trkpt lat="40.294500" lon="-4.820983">
        <ele>1367.0</ele>
        <time>2016-03-13T13:31:35Z</time>
      </trkpt>
      <trkpt lat="40.294500" lon="-4.821083">
        <ele>1367.0</ele>
        <time>2016-03-13T13:31:36Z</time>
      </trkpt>
      <trkpt lat="40.294467" lon="-4.821167">
        <ele>1367.0</ele>
        <time>2016-03-13T13:31:37Z</time>
      </trkpt>
      <trkpt lat="40.294400" lon="-4.821217">
        <ele>1368.0</ele>
        <time>2016-03-13T13:31:38Z</time>
      </trkpt>
      <trkpt lat="40.294317" lon="-4.821250">
        <ele>1368.0</ele>
        <time>2016-03-13T13:31:39Z</time>
      </trkpt>
      <trkpt lat="40.294233" lon="-4.821233">
        <ele>1369.0</ele>
        <time>2016-03-13T13:31:40Z</time>
      </trkpt>
      <trkpt lat="40.294150" lon="-4.821200">
        <ele>1371.0</ele>
        <time>2016-03-13T13:31:41Z</time>
      </trkpt>
      <trkpt lat="40.294083" lon="-4.821150">
        <ele>1374.0</ele>
        <time>2016-03-13T13:31:42Z</time>
      </trkpt>
      <trkpt lat="40.294033" lon="-4.821083">
        <ele>1377.0</ele>
        <time>2016-03-13T13:31:43Z</time>
      </trkpt>
      <trkpt lat="40.294000" lon="-4.820983">
        <ele>1378.0</ele>
        <time>2016-03-13T13:31:44Z</time>
      </trkpt>
      <trkpt lat="40.293983" lon="-4.820867">
        <ele>1379.0</ele>
        <time>2016-03-13T13:31:45Z</time>
      </trkpt>
      <trkpt lat="40.294017" lon="-4.820733">
        <ele>1379.0</ele>
        <time>2016-03-13T13:31:46Z</time>
      </trkpt>
      <trkpt lat="40.294083" lon="-4.820617">
        <ele>1380.0</ele>
        <time>2016-03-13T13:31:47Z</time>
      </trkpt>
      <trkpt lat="40.294183" lon="-4.820550">
        <ele>1381.0</ele>
        <time>2016-03-13T13:31:48Z</time>
      </trkpt>
      <trkpt lat="40.294283" lon="-4.820533">
        <ele>1383.0</ele>
        <time>2016-03-13T13:31:49Z</time>
      </trkpt>
      <trkpt lat="40.294367" lon="-4.820550">
        <ele>1384.0</ele>
        <time>2016-03-13T13:31:50Z</time>
      </trkpt>
      <trkpt lat="40.294450" lon="-4.820633">
        <ele>1385.0</ele>
        <time>2016-03-13T13:31:51Z</time>
      </trkpt>
      <trkpt lat="40.294500" lon="-4.820717">
        <ele>1385.0</ele>
        <time>2016-03-13T13:31:52Z</time>
      </trkpt>
      <trkpt lat="40.294500" lon="-4.820833">
        <ele>1386.0</ele>
        <time>2016-03-13T13:31:53Z</time>
      </trkpt>
      <trkpt lat="40.294483" lon="-4.820933">
        <ele>1388.0</ele>
        <time>2016-03-13T13:31:54Z</time>
      </trkpt>
      <trkpt lat="40.294417" lon="-4.821000">
        <ele>1388.0</ele>
        <time>2016-03-13T13:31:55Z</time>
      </trkpt>
      <trkpt lat="40.294333" lon="-4.821033">
        <ele>1389.0</ele>
        <time>2016-03-13T13:31:56Z</time>
      </trkpt>
      <trkpt lat="40.294250" lon="-4.821000">
        <ele>1391.0</ele>
        <time>2016-03-13T13:31:57Z</time>
      </trkpt>
      <trkpt lat="40.294167" lon="-4.820933">
        <ele>1393.0</ele>
        <time>2016-03-13T13:31:58Z</time>
      </trkpt>
      <trkpt lat="40.294100" lon="-4.820833">
        <ele>1395.0</ele>
        <time>2016-03-13T13:31:59Z</time>
      </trkpt>
      <trkpt lat="40.294067" lon="-4.820733">
        <ele>1398.0</ele>
        <time>2016-03-13T13:32:00Z</time>
      </trkpt>
      <trkpt lat="40.294067" lon="-4.820600">
        <ele>1400.0</ele>
        <time>2016-03-13T13:32:01Z</time>
      </trkpt>
      <trkpt lat="40.294100" lon="-4.820483">
        <ele>1401.0</ele>
        <time>2016-03-13T13:32:02Z</time>
      </trkpt>
      <trkpt lat="40.294167" lon="-4.820383">
        <ele>1402.0</ele>
        <time>2016-03-13T13:32:03Z</time>
      </trkpt>
      <trkpt lat="40.294250" lon="-4.820317">
        <ele>1403.0</ele>
        <time>2016-03-13T13:32:04Z</time>
      </trkpt>
      <trkpt lat="40.294350" lon="-4.820267">
        <ele>1404.0</ele>
        <time>2016-03-13T13:32:05Z</time>
      </trkpt>
      <trkpt lat="40.294433" lon="-4.820250">
        <ele>1404.0</ele>
        <time>2016-03-13T13:32:06Z</time>
      </trkpt>
      <trkpt lat="40.294533" lon="-4.820283">
        <ele>1406.0</ele>
        <time>2016-03-13T13:32:07Z</time>
      </trkpt>
      <trkpt lat="40.294617" lon="-4.820333">
        <ele>1407.0</ele>
        <time>2016-03-13T13:32:08Z</time>
      </trkpt>
      <trkpt lat="40.294667" lon="-4.820433">
        <ele>1408.0</ele>
        <time>2016-03-13T13:32:09Z</time>
      </trkpt>
      <trkpt lat="40.294700" lon="-4.820550">
        <ele>1409.0</ele>
        <time>2016-03-13T13:32:10Z</time>
      </trkpt>
      <trkpt lat="40.294700" lon="-4.820667">
        <ele>1410.0</ele>
        <time>2016-03-13T13:32:11Z</time>
      </trkpt>
      <trkpt lat="40.294683" lon="-4.820767">
        <ele>1413.0</ele>
        <time>2016-03-13T13:32:12Z</time>
      </trkpt>
      <trkpt lat="40.294667" lon="-4.820850">
        <ele>1416.0</ele>
        <time>2016-03-13T13:32:13Z</time>
      </trkpt>
      <trkpt lat="40.294617" lon="-4.820883">
        <ele>1419.0</ele>
        <time>2016-03-13T13:32:14Z</time>
      </trkpt>
      <trkpt lat="40.294533" lon="-4.820900">
        <ele>1419.0</ele>
        <time>2016-03-13T13:32:15Z</time>
      </trkpt>
      <trkpt lat="40.294467" lon="-4.820850">
        <ele>1419.0</ele>
        <time>2016-03-13T13:32:16Z</time>
      </trkpt>
      <trkpt lat="40.294383" lon="-4.820767">
        <ele>1419.0</ele>
        <time>2016-03-13T13:32:17Z</time>
      </trkpt>
      <trkpt lat="40.294317" lon="-4.820667">
        <ele>1421.0</ele>
        <time>2016-03-13T13:32:18Z</time>
      </trkpt>
      <trkpt lat="40.294283" lon="-4.820533">
        <ele>1424.0</ele>
        <time>2016-03-13T13:32:19Z</time>
      </trkpt>
      <trkpt lat="40.294283" lon="-4.820417">
        <ele>1426.0</ele>
        <time>2016-03-13T13:32:20Z</time>
      </trkpt>
      <trkpt lat="40.294333" lon="-4.820317">
        <ele>1427.0</ele>
        <time>2016-03-13T13:32:21Z</time>
      </trkpt>
      <trkpt lat="40.294400" lon="-4.820217">
        <ele>1428.0</ele>
        <time>2016-03-13T13:32:22Z</time>
      </trkpt>
      <trkpt lat="40.294483" lon="-4.820150">
        <ele>1429.0</ele>
        <time>2016-03-13T13:32:23Z</time>
      </trkpt>
      <trkpt lat="40.294583" lon="-4.820117">
        <ele>1431.0</ele>
        <time>2016-03-13T13:32:24Z</time>
      </trkpt>
      <trkpt lat="40.294667" lon="-4.820133">
        <ele>1432.0</ele>
        <time>2016-03-13T13:32:25Z</time>
      </trkpt>
      <trkpt lat="40.294750" lon="-4.820167">
        <ele>1433.0</ele>
        <time>2016-03-13T13:32:26Z</time>
      </trkpt>
      <trkpt lat="40.294833" lon="-4.820217">
        <ele>1434.0</ele>
        <time>2016-03-13T13:32:27Z</time>
      </trkpt>
      <trkpt lat="40.294883" lon="-4.820300">
        <ele>1436.0</ele>
        <time>2016-03-13T13:32:28Z</time>
      </trkpt>
      <trkpt lat="40.294900" lon="-4.820400">
        <ele>1437.0</ele>
        <time>2016-03-13T13:32:29Z</time>
      </trkpt>
      <trkpt lat="40.294883" lon="-4.820483">
        <ele>1438.0</ele>
        <time>2016-03-13T13:32:30Z</time>
      </trkpt>
      <trkpt lat="40.294833" lon="-4.820550">
        <ele>1439.0</ele>
        <time>2016-03-13T13:32:31Z</time>
      </trkpt>
      <trkpt lat="40.294750" lon="-4.820583">
        <ele>1441.0</ele>
        <time>2016-03-13T13:32:32Z</time>
      </trkpt>
      <trkpt lat="40.294667" lon="-4.820617">
        <ele>1444.0</ele>
        <time>2016-03-13T13:32:33Z</time>
      </trkpt>
      <trkpt lat="40.294600" lon="-4.820617">
        <ele>1446.0</ele>
        <time>2016-03-13T13:32:34Z</time>
      </trkpt>
      <trkpt lat="40.294517" lon="-4.820567">
        <ele>1448.0</ele>
        <time>2016-03-13T13:32:35Z</time>
      </trkpt>
      <trkpt lat="40.294450" lon="-4.820483">
        <ele>1448.0</ele>
        <time>2016-03-13T13:32:36Z</time>
      </trkpt>
      <trkpt lat="40.294400" lon="-4.820350">
        <ele>1447.0</ele>
        <time>2016-03-13T13:32:37Z</time>
      </trkpt>
      <trkpt lat="40.294400" lon="-4.820183">
        <ele>1447.0</ele>
        <time>2016-03-13T13:32:38Z</time>
      </trkpt>
      <trkpt lat="40.294450" lon="-4.820033">
        <ele>1448.0</ele>
        <time>2016-03-13T13:32:39Z</time>
      </trkpt>
      <trkpt lat="40.294517" lon="-4.819917">
        <ele>1450.0</ele>
        <time>2016-03-13T13:32:40Z</time>
      </trkpt>
      <trkpt lat="40.294600" lon="-4.819850">
        <ele>1452.0</ele>
        <time>2016-03-13T13:32:41Z</time>
      </trkpt>
      <trkpt lat="40.294683" lon="-4.819817">
        <ele>1452.0</ele>
        <time>2016-03-13T13:32:42Z</time>
      </trkpt>
      <trkpt lat="40.294783" lon="-4.819817">
        <ele>1452.0</ele>
        <time>2016-03-13T13:32:43Z</time>
      </trkpt>
      <trkpt lat="40.294883" lon="-4.819833">
        <ele>1452.0</ele>
        <time>2016-03-13T13:32:44Z</time>
      </trkpt>
      <trkpt lat="40.294983" lon="-4.819883">
        <ele>1454.0</ele>
        <time>2016-03-13T13:32:45Z</time>
      </trkpt>
      <trkpt lat="40.295067" lon="-4.819967">
        <ele>1457.0</ele>
        <time>2016-03-13T13:32:46Z</time>
      </trkpt>
      <trkpt lat="40.295117" lon="-4.820067">
        <ele>1459.0</ele>
        <time>2016-03-13T13:32:47Z</time>
      </trkpt>
      <trkpt lat="40.295150" lon="-4.820167">
        <ele>1462.0</ele>
        <time>2016-03-13T13:32:48Z</time>
      </trkpt>
      <trkpt lat="40.295150" lon="-4.820250">
        <ele>1464.0</ele>
        <time>2016-03-13T13:32:49Z</time>
      </trkpt>
      <trkpt lat="40.295133" lon="-4.820333">
        <ele>1466.0</ele>
        <time>2016-03-13T13:32:50Z</time>
      </trkpt>
      <trkpt lat="40.295083" lon="-4.820383">
        <ele>1467.0</ele>
        <time>2016-03-13T13:32:51Z</time>
      </trkpt>
      <trkpt lat="40.295017" lon="-4.820433">
        <ele>1467.0</ele>
        <time>2016-03-13T13:32:52Z</time>
      </trkpt>
      <trkpt lat="40.294933" lon="-4.820433">
        <ele>1467.0</ele>
        <time>2016-03-13T13:32:53Z</time>
      </trkpt>
      <trkpt lat="40.294850" lon="-4.820417">
        <ele>1467.0</ele>
        <time>2016-03-13T13:32:54Z</time>
      </trkpt>
      <trkpt lat="40.294750" lon="-4.820350">
        <ele>1467.0</ele>
        <time>2016-03-13T13:32:55Z</time>
      </trkpt>
      <trkpt lat="40.294650" lon="-4.820250">
        <ele>1467.0</ele>
        <time>2016-03-13T13:32:56Z</time>
      </trkpt>
      <trkpt lat="40.294583" lon="-4.820133">
        <ele>1469.0</ele>
        <time>2016-03-13T13:32:57Z</time>
      </trkpt>
      <trkpt lat="40.294567" lon="-4.819983">
        <ele>1470.0</ele>
        <time>2016-03-13T13:32:58Z</time>
      </trkpt>
      <trkpt lat="40.294567" lon="-4.819833">
        <ele>1472.0</ele>
        <time>2016-03-13T13:32:59Z</time>
      </trkpt>
      <trkpt lat="40.294567" lon="-4.819717">
        <ele>1474.0</ele>
        <time>2016-03-13T13:33:00Z</time>
      </trkpt>
      <trkpt lat="40.294583" lon="-4.819583">
        <ele>1475.0</ele>
        <time>2016-03-13T13:33:01Z</time>
      </trkpt>
      <trkpt lat="40.294600" lon="-4.819467">
        <ele>1475.0</ele>
        <time>2016-03-13T13:33:02Z</time>
      </trkpt>
      <trkpt lat="40.294617" lon="-4.819350">
        <ele>1475.0</ele>
        <time>2016-03-13T13:33:03Z</time>
      </trkpt>
      <trkpt lat="40.294667" lon="-4.819233">
        <ele>1474.0</ele>
        <time>2016-03-13T13:33:04Z</time>
      </trkpt>
      <trkpt lat="40.294717" lon="-4.819117">
        <ele>1473.0</ele>
        <time>2016-03-13T13:33:05Z</time>
      </trkpt>
      <trkpt lat="40.294767" lon="-4.819000">
        <ele>1473.0</ele>
        <time>2016-03-13T13:33:06Z</time>
      </trkpt>
      <trkpt lat="40.294833" lon="-4.818900">
        <ele>1473.0</ele>
        <time>2016-03-13T13:33:07Z</time>
      </trkpt>
      <trkpt lat="40.294900" lon="-4.818783">
        <ele>1472.0</ele>
        <time>2016-03-13T13:33:08Z</time>
      </trkpt>
      <trkpt lat="40.294967" lon="-4.818683">
        <ele>1471.0</ele>
        <time>2016-03-13T13:33:09Z</time>
      </trkpt>
      <trkpt lat="40.295033" lon="-4.818583">
        <ele>1469.0</ele>
        <time>2016-03-13T13:33:10Z</time>
      </trkpt>
      <trkpt lat="40.295100" lon="-4.818467">
        <ele>1467.0</ele>
        <time>2016-03-13T13:33:11Z</time>
      </trkpt>
      <trkpt lat="40.295150" lon="-4.818333">
        <ele>1466.0</ele>
        <time>2016-03-13T13:33:12Z</time>
      </trkpt>
      <trkpt lat="40.295217" lon="-4.818217">
        <ele>1465.0</ele>
        <time>2016-03-13T13:33:13Z</time>
      </trkpt>
      <trkpt lat="40.295283" lon="-4.818083">
        <ele>1466.0</ele>
        <time>2016-03-13T13:33:14Z</time>
      </trkpt>
      <trkpt lat="40.295350" lon="-4.817950">
        <ele>1468.0</ele>
        <time>2016-03-13T13:33:15Z</time>
      </trkpt>
      <trkpt lat="40.295433" lon="-4.817850">
        <ele>1471.0</ele>
        <time>2016-03-13T13:33:16Z</time>
      </trkpt>
      <trkpt lat="40.295500" lon="-4.817750">
        <ele>1473.0</ele>
        <time>2016-03-13T13:33:17Z</time>
      </trkpt>
      <trkpt lat="40.295550" lon="-4.817650">
        <ele>1474.0</ele>
        <time>2016-03-13T13:33:18Z</time>
      </trkpt>
      <trkpt lat="40.295583" lon="-4.817533">
        <ele>1474.0</ele>
        <time>2016-03-13T13:33:19Z</time>
      </trkpt>
      <trkpt lat="40.295600" lon="-4.817417">
        <ele>1472.0</ele>
        <time>2016-03-13T13:33:20Z</time>
      </trkpt>
      <trkpt lat="40.295583" lon="-4.817300">
        <ele>1470.0</ele>
        <time>2016-03-13T13:33:21Z</time>
      </trkpt>
      <trkpt lat="40.295533" lon="-4.817200">
        <ele>1467.0</ele>
        <time>2016-03-13T13:33:22Z</time>
      </trkpt>
      <trkpt lat="40.295500" lon="-4.817083">
        <ele>1465.0</ele>
        <time>2016-03-13T13:33:23Z</time>
      </trkpt>
      <trkpt lat="40.295467" lon="-4.816950">
        <ele>1464.0</ele>
        <time>2016-03-13T13:33:24Z</time>
      </trkpt>
      <trkpt lat="40.295450" lon="-4.816817">
        <ele>1464.0</ele>
        <time>2016-03-13T13:33:25Z</time>
      </trkpt>
      <trkpt lat="40.295433" lon="-4.816683">
        <ele>1464.0</ele>
        <time>2016-03-13T13:33:26Z</time>
      </trkpt>
      <trkpt lat="40.295450" lon="-4.816550">
        <ele>1464.0</ele>
        <time>2016-03-13T13:33:27Z</time>
      </trkpt>
      <trkpt lat="40.295483" lon="-4.816433">
        <ele>1463.0</ele>
        <time>2016-03-13T13:33:28Z</time>
      </trkpt>
      <trkpt lat="40.295517" lon="-4.816317">
        <ele>1461.0</ele>
        <time>2016-03-13T13:33:29Z</time>
      </trkpt>
      <trkpt lat="40.295583" lon="-4.816200">
        <ele>1459.0</ele>
        <time>2016-03-13T13:33:30Z</time>
      </trkpt>
      <trkpt lat="40.295650" lon="-4.816067">
        <ele>1457.0</ele>
        <time>2016-03-13T13:33:31Z</time>
      </trkpt>
      <trkpt lat="40.295733" lon="-4.815933">
        <ele>1457.0</ele>
        <time>2016-03-13T13:33:32Z</time>
      </trkpt>
      <trkpt lat="40.295800" lon="-4.815817">
        <ele>1457.0</ele>
        <time>2016-03-13T13:33:33Z</time>
      </trkpt>
      <trkpt lat="40.295867" lon="-4.815700">
        <ele>1456.0</ele>
        <time>2016-03-13T13:33:34Z</time>
      </trkpt>
      <trkpt lat="40.295933" lon="-4.815600">
        <ele>1455.0</ele>
        <time>2016-03-13T13:33:35Z</time>
      </trkpt>
      <trkpt lat="40.295983" lon="-4.815483">
        <ele>1452.0</ele>
        <time>2016-03-13T13:33:36Z</time>
      </trkpt>
      <trkpt lat="40.296050" lon="-4.815367">
        <ele>1450.0</ele>
        <time>2016-03-13T13:33:37Z</time>
      </trkpt>
      <trkpt lat="40.296117" lon="-4.815233">
        <ele>1447.0</ele>
        <time>2016-03-13T13:33:38Z</time>
      </trkpt>
      <trkpt lat="40.296167" lon="-4.815083">
        <ele>1444.0</ele>
        <time>2016-03-13T13:33:39Z</time>
      </trkpt>
      <trkpt lat="40.296233" lon="-4.814933">
        <ele>1441.0</ele>
        <time>2016-03-13T13:33:40Z</time>
      </trkpt>
      <trkpt lat="40.296283" lon="-4.814767">
        <ele>1439.0</ele>
        <time>2016-03-13T13:33:41Z</time>
      </trkpt>
      <trkpt lat="40.296350" lon="-4.814633">
        <ele>1439.0</ele>
        <time>2016-03-13T13:33:42Z</time>
      </trkpt>
      <trkpt lat="40.296417" lon="-4.814483">
        <ele>1438.0</ele>
        <time>2016-03-13T13:33:43Z</time>
      </trkpt>
      <trkpt lat="40.296483" lon="-4.814350">
        <ele>1438.0</ele>
        <time>2016-03-13T13:33:44Z</time>
      </trkpt>
      <trkpt lat="40.296533" lon="-4.814217">
        <ele>1437.0</ele>
        <time>2016-03-13T13:33:45Z</time>
      </trkpt>
      <trkpt lat="40.296583" lon="-4.814067">
        <ele>1436.0</ele>
        <time>2016-03-13T13:33:46Z</time>
      </trkpt>
      <trkpt lat="40.296650" lon="-4.813900">
        <ele>1436.0</ele>
        <time>2016-03-13T13:33:47Z</time>
      </trkpt>
      <trkpt lat="40.296717" lon="-4.813733">
        <ele>1438.0</ele>
        <time>2016-03-13T13:33:48Z</time>
      </trkpt>
      <trkpt lat="40.296767" lon="-4.813600">
        <ele>1442.0</ele>
        <time>2016-03-13T13:33:49Z</time>
      </trkpt>
      <trkpt lat="40.296833" lon="-4.813467">
        <ele>1445.0</ele>
        <time>2016-03-13T13:33:50Z</time>
      </trkpt>
      <trkpt lat="40.296883" lon="-4.813350">
        <ele>1447.0</ele>
        <time>2016-03-13T13:33:51Z</time>
      </trkpt>
      <trkpt lat="40.296917" lon="-4.813217">
        <ele>1448.0</ele>
        <time>2016-03-13T13:33:52Z</time>
      </trkpt>
      <trkpt lat="40.296933" lon="-4.813067">
        <ele>1448.0</ele>
        <time>2016-03-13T13:33:53Z</time>
      </trkpt>
      <trkpt lat="40.296933" lon="-4.812900">
        <ele>1448.0</ele>
        <time>2016-03-13T13:33:54Z</time>
      </trkpt>
      <trkpt lat="40.296900" lon="-4.812733">
        <ele>1449.0</ele>
        <time>2016-03-13T13:33:55Z</time>
      </trkpt>
      <trkpt lat="40.296817" lon="-4.812600">
        <ele>1453.0</ele>
        <time>2016-03-13T13:33:56Z</time>
      </trkpt>
      <trkpt lat="40.296750" lon="-4.812533">
        <ele>1457.0</ele>
        <time>2016-03-13T13:33:57Z</time>
      </trkpt>
      <trkpt lat="40.296667" lon="-4.812500">
        <ele>1460.0</ele>
        <time>2016-03-13T13:33:58Z</time>
      </trkpt>
      <trkpt lat="40.296600" lon="-4.812500">
        <ele>1460.0</ele>
        <time>2016-03-13T13:33:59Z</time>
      </trkpt>
      <trkpt lat="40.296533" lon="-4.812550">
        <ele>1459.0</ele>
        <time>2016-03-13T13:34:00Z</time>
      </trkpt>
      <trkpt lat="40.296500" lon="-4.812633">
        <ele>1459.0</ele>
        <time>2016-03-13T13:34:01Z</time>
      </trkpt>
      <trkpt lat="40.296500" lon="-4.812750">
        <ele>1460.0</ele>
        <time>2016-03-13T13:34:02Z</time>
      </trkpt>
      <trkpt lat="40.296550" lon="-4.812833">
        <ele>1462.0</ele>
        <time>2016-03-13T13:34:03Z</time>
      </trkpt>
      <trkpt lat="40.296633" lon="-4.812900">
        <ele>1464.0</ele>
        <time>2016-03-13T13:34:04Z</time>
      </trkpt>
      <trkpt lat="40.296717" lon="-4.812900">
        <ele>1467.0</ele>
        <time>2016-03-13T13:34:05Z</time>
      </trkpt>
      <trkpt lat="40.296800" lon="-4.812833">
        <ele>1470.0</ele>
        <time>2016-03-13T13:34:06Z</time>
      </trkpt>
      <trkpt lat="40.296867" lon="-4.812717">
        <ele>1471.0</ele>
        <time>2016-03-13T13:34:07Z</time>
      </trkpt>
      <trkpt lat="40.296883" lon="-4.812550">
        <ele>1471.0</ele>
        <time>2016-03-13T13:34:08Z</time>
      </trkpt>
      <trkpt lat="40.296867" lon="-4.812383">
        <ele>1471.0</ele>
        <time>2016-03-13T13:34:09Z</time>
      </trkpt>
      <trkpt lat="40.296800" lon="-4.812233">
        <ele>1472.0</ele>
        <time>2016-03-13T13:34:10Z</time>
      </trkpt>
      <trkpt lat="40.296717" lon="-4.812117">
        <ele>1476.0</ele>
        <time>2016-03-13T13:34:11Z</time>
      </trkpt>
      <trkpt lat="40.296633" lon="-4.812067">
        <ele>1480.0</ele>
        <time>2016-03-13T13:34:12Z</time>
      </trkpt>
      <trkpt lat="40.296567" lon="-4.812050">
        <ele>1481.0</ele>
        <time>2016-03-13T13:34:13Z</time>
      </trkpt>
      <trkpt lat="40.296500" lon="-4.812067">
        <ele>1481.0</ele>
        <time>2016-03-13T13:34:14Z</time>
      </trkpt>
      <trkpt lat="40.296433" lon="-4.812100">
        <ele>1481.0</ele>
        <time>2016-03-13T13:34:15Z</time>
      </trkpt>
      <trkpt lat="40.296367" lon="-4.812150">
        <ele>1480.0</ele>
        <time>2016-03-13T13:34:16Z</time>
      </trkpt>
      <trkpt lat="40.296333" lon="-4.812250">
        <ele>1480.0</ele>
        <time>2016-03-13T13:34:17Z</time>
      </trkpt>
      <trkpt lat="40.296350" lon="-4.812367">
        <ele>1480.0</ele>
        <time>2016-03-13T13:34:18Z</time>
      </trkpt>
      <trkpt lat="40.296417" lon="-4.812450">
        <ele>1482.0</ele>
        <time>2016-03-13T13:34:19Z</time>
      </trkpt>
      <trkpt lat="40.296483" lon="-4.812517">
        <ele>1485.0</ele>
        <time>2016-03-13T13:34:20Z</time>
      </trkpt>
      <trkpt lat="40.296567" lon="-4.812533">
        <ele>1491.0</ele>
        <time>2016-03-13T13:34:21Z</time>
      </trkpt>
      <trkpt lat="40.296633" lon="-4.812517">
        <ele>1496.0</ele>
        <time>2016-03-13T13:34:22Z</time>
      </trkpt>
      <trkpt lat="40.296700" lon="-4.812467">
        <ele>1499.0</ele>
        <time>2016-03-13T13:34:23Z</time>
      </trkpt>
      <trkpt lat="40.296750" lon="-4.812400">
        <ele>1499.0</ele>
        <time>2016-03-13T13:34:24Z</time>
      </trkpt>
      <trkpt lat="40.296817" lon="-4.812300">
        <ele>1498.0</ele>
        <time>2016-03-13T13:34:25Z</time>
      </trkpt>
      <trkpt lat="40.296883" lon="-4.812183">
        <ele>1497.0</ele>
        <time>2016-03-13T13:34:26Z</time>
      </trkpt>
      <trkpt lat="40.296933" lon="-4.812050">
        <ele>1497.0</ele>
        <time>2016-03-13T13:34:27Z</time>
      </trkpt>
      <trkpt lat="40.296967" lon="-4.811883">
        <ele>1498.0</ele>
        <time>2016-03-13T13:34:28Z</time>
      </trkpt>
      <trkpt lat="40.296950" lon="-4.811717">
        <ele>1499.0</ele>
        <time>2016-03-13T13:34:29Z</time>
      </trkpt>
      <trkpt lat="40.296900" lon="-4.811567">
        <ele>1500.0</ele>
        <time>2016-03-13T13:34:30Z</time>
      </trkpt>
      <trkpt lat="40.296833" lon="-4.811467">
        <ele>1501.0</ele>
        <time>2016-03-13T13:34:31Z</time>
      </trkpt>
      <trkpt lat="40.296750" lon="-4.811400">
        <ele>1502.0</ele>
        <time>2016-03-13T13:34:32Z</time>
      </trkpt>
      <trkpt lat="40.296667" lon="-4.811383">
        <ele>1503.0</ele>
        <time>2016-03-13T13:34:33Z</time>
      </trkpt>
      <trkpt lat="40.296600" lon="-4.811383">
        <ele>1503.0</ele>
        <time>2016-03-13T13:34:34Z</time>
      </trkpt>
      <trkpt lat="40.296533" lon="-4.811433">
        <ele>1504.0</ele>
        <time>2016-03-13T13:34:35Z</time>
      </trkpt>
      <trkpt lat="40.296483" lon="-4.811483">
        <ele>1504.0</ele>
        <time>2016-03-13T13:34:36Z</time>
      </trkpt>
      <trkpt lat="40.296450" lon="-4.811567">
        <ele>1504.0</ele>
        <time>2016-03-13T13:34:37Z</time>
      </trkpt>
      <trkpt lat="40.296450" lon="-4.811667">
        <ele>1504.0</ele>
        <time>2016-03-13T13:34:38Z</time>
      </trkpt>
      <trkpt lat="40.296467" lon="-4.811767">
        <ele>1504.0</ele>
        <time>2016-03-13T13:34:39Z</time>
      </trkpt>
      <trkpt lat="40.296500" lon="-4.811850">
        <ele>1505.0</ele>
        <time>2016-03-13T13:34:40Z</time>
      </trkpt>
      <trkpt lat="40.296533" lon="-4.811933">
        <ele>1508.0</ele>
        <time>2016-03-13T13:34:41Z</time>
      </trkpt>
      <trkpt lat="40.296567" lon="-4.811983">
        <ele>1511.0</ele>
        <time>2016-03-13T13:34:42Z</time>
      </trkpt>
      <trkpt lat="40.296583" lon="-4.812033">
        <ele>1514.0</ele>
        <time>2016-03-13T13:34:43Z</time>
      </trkpt>
      <trkpt lat="40.296617" lon="-4.812067">
        <ele>1515.0</ele>
        <time>2016-03-13T13:34:44Z</time>
      </trkpt>
      <trkpt lat="40.296650" lon="-4.812117">
        <ele>1514.0</ele>
        <time>2016-03-13T13:34:45Z</time>
      </trkpt>
      <trkpt lat="40.296717" lon="-4.812167">
        <ele>1513.0</ele>
        <time>2016-03-13T13:34:46Z</time>
      </trkpt>
      <trkpt lat="40.296817" lon="-4.812217">
        <ele>1513.0</ele>
        <time>2016-03-13T13:34:47Z</time>
      </trkpt>
      <trkpt lat="40.296917" lon="-4.812217">
        <ele>1515.0</ele>
        <time>2016-03-13T13:34:48Z</time>
      </trkpt>
      <trkpt lat="40.297033" lon="-4.812150">
        <ele>1517.0</ele>
        <time>2016-03-13T13:34:49Z</time>
      </trkpt>
      <trkpt lat="40.297117" lon="-4.812050">
        <ele>1518.0</ele>
        <time>2016-03-13T13:34:50Z</time>
      </trkpt>
      <trkpt lat="40.297167" lon="-4.811900">
        <ele>1518.0</ele>
        <time>2016-03-13T13:34:51Z</time>
      </trkpt>
      <trkpt lat="40.297167" lon="-4.811733">
        <ele>1517.0</ele>
        <time>2016-03-13T13:34:52Z</time>
      </trkpt>
      <trkpt lat="40.297133" lon="-4.811550">
        <ele>1516.0</ele>
        <time>2016-03-13T13:34:53Z</time>
      </trkpt>
      <trkpt lat="40.297067" lon="-4.811400">
        <ele>1519.0</ele>
        <time>2016-03-13T13:34:54Z</time>
      </trkpt>
      <trkpt lat="40.297000" lon="-4.811300">
        <ele>1522.0</ele>
        <time>2016-03-13T13:34:55Z</time>
      </trkpt>
      <trkpt lat="40.296950" lon="-4.811250">
        <ele>1524.0</ele>
        <time>2016-03-13T13:34:56Z</time>
      </trkpt>
      <trkpt lat="40.296883" lon="-4.811250">
        <ele>1525.0</ele>
        <time>2016-03-13T13:34:57Z</time>
      </trkpt>
      <trkpt lat="40.296817" lon="-4.811267">
        <ele>1524.0</ele>
        <time>2016-03-13T13:34:58Z</time>
      </trkpt>
      <trkpt lat="40.296750" lon="-4.811300">
        <ele>1524.0</ele>
        <time>2016-03-13T13:34:59Z</time>
      </trkpt>
      <trkpt lat="40.296700" lon="-4.811350">
        <ele>1524.0</ele>
        <time>2016-03-13T13:35:00Z</time>
      </trkpt>
      <trkpt lat="40.296667" lon="-4.811450">
        <ele>1525.0</ele>
        <time>2016-03-13T13:35:01Z</time>
      </trkpt>
      <trkpt lat="40.296667" lon="-4.811533">
        <ele>1526.0</ele>
        <time>2016-03-13T13:35:02Z</time>
      </trkpt>
      <trkpt lat="40.296700" lon="-4.811633">
        <ele>1528.0</ele>
        <time>2016-03-13T13:35:03Z</time>
      </trkpt>
      <trkpt lat="40.296750" lon="-4.811683">
        <ele>1530.0</ele>
        <time>2016-03-13T13:35:04Z</time>
      </trkpt>
      <trkpt lat="40.296800" lon="-4.811733">
        <ele>1531.0</ele>
        <time>2016-03-13T13:35:05Z</time>
      </trkpt>
      <trkpt lat="40.296850" lon="-4.811767">
        <ele>1532.0</ele>
        <time>2016-03-13T13:35:06Z</time>
      </trkpt>
      <trkpt lat="40.296933" lon="-4.811800">
        <ele>1532.0</ele>
        <time>2016-03-13T13:35:07Z</time>
      </trkpt>
      <trkpt lat="40.297017" lon="-4.811833">
        <ele>1532.0</ele>
        <time>2016-03-13T13:35:08Z</time>
      </trkpt>
      <trkpt lat="40.297117" lon="-4.811850">
        <ele>1533.0</ele>
        <time>2016-03-13T13:35:09Z</time>
      </trkpt>
      <trkpt lat="40.297233" lon="-4.811800">
        <ele>1534.0</ele>
        <time>2016-03-13T13:35:10Z</time>
      </trkpt>
      <trkpt lat="40.297333" lon="-4.811683">
        <ele>1534.0</ele>
        <time>2016-03-13T13:35:11Z</time>
      </trkpt>
      <trkpt lat="40.297417" lon="-4.811550">
        <ele>1537.0</ele>
        <time>2016-03-13T13:35:12Z</time>
      </trkpt>
      <trkpt lat="40.297467" lon="-4.811383">
        <ele>1540.0</ele>
        <time>2016-03-13T13:35:13Z</time>
      </trkpt>
      <trkpt lat="40.297467" lon="-4.811250">
        <ele>1542.0</ele>
        <time>2016-03-13T13:35:14Z</time>
      </trkpt>
      <trkpt lat="40.297450" lon="-4.811117">
        <ele>1543.0</ele>
        <time>2016-03-13T13:35:15Z</time>
      </trkpt>
      <trkpt lat="40.297400" lon="-4.811000">
        <ele>1541.0</ele>
        <time>2016-03-13T13:35:16Z</time>
      </trkpt>
      <trkpt lat="40.297333" lon="-4.810917">
        <ele>1540.0</ele>
        <time>2016-03-13T13:35:17Z</time>
      </trkpt>
      <trkpt lat="40.297233" lon="-4.810867">
        <ele>1539.0</ele>
        <time>2016-03-13T13:35:18Z</time>
      </trkpt>
      <trkpt lat="40.297150" lon="-4.810850">
        <ele>1538.0</ele>
        <time>2016-03-13T13:35:19Z</time>
      </trkpt>
      <trkpt lat="40.297050" lon="-4.810867">
        <ele>1538.0</ele>
        <time>2016-03-13T13:35:20Z</time>
      </trkpt>
      <trkpt lat="40.296983" lon="-4.810917">
        <ele>1538.0</ele>
        <time>2016-03-13T13:35:21Z</time>
      </trkpt>
      <trkpt lat="40.296933" lon="-4.811017">
        <ele>1539.0</ele>
        <time>2016-03-13T13:35:22Z</time>
      </trkpt>
      <trkpt lat="40.296917" lon="-4.811117">
        <ele>1539.0</ele>
        <time>2016-03-13T13:35:23Z</time>
      </trkpt>
      <trkpt lat="40.296933" lon="-4.811250">
        <ele>1539.0</ele>
        <time>2016-03-13T13:35:24Z</time>
      </trkpt>
      <trkpt lat="40.296967" lon="-4.811367">
        <ele>1540.0</ele>
        <time>2016-03-13T13:35:25Z</time>
      </trkpt>
      <trkpt lat="40.297000" lon="-4.811483">
        <ele>1542.0</ele>
        <time>2016-03-13T13:35:26Z</time>
      </trkpt>
      <trkpt lat="40.297017" lon="-4.811600">
        <ele>1545.0</ele>
        <time>2016-03-13T13:35:27Z</time>
      </trkpt>
      <trkpt lat="40.297017" lon="-4.811683">
        <ele>1548.0</ele>
        <time>2016-03-13T13:35:28Z</time>
      </trkpt>
      <trkpt lat="40.297050" lon="-4.811750">
        <ele>1549.0</ele>
        <time>2016-03-13T13:35:29Z</time>
      </trkpt>
      <trkpt lat="40.297083" lon="-4.811833">
        <ele>1549.0</ele>
        <time>2016-03-13T13:35:30Z</time>
      </trkpt>
      <trkpt lat="40.297167" lon="-4.811900">
        <ele>1548.0</ele>
        <time>2016-03-13T13:35:31Z</time>
      </trkpt>
      <trkpt lat="40.297250" lon="-4.811933">
        <ele>1547.0</ele>
        <time>2016-03-13T13:35:32Z</time>
      </trkpt>
      <trkpt lat="40.297367" lon="-4.811950">
        <ele>1548.0</ele>
        <time>2016-03-13T13:35:33Z</time>
      </trkpt>
      <trkpt lat="40.297467" lon="-4.811917">
        <ele>1549.0</ele>
        <time>2016-03-13T13:35:34Z</time>
      </trkpt>
      <trkpt lat="40.297550" lon="-4.811850">
        <ele>1550.0</ele>
        <time>2016-03-13T13:35:35Z</time>
      </trkpt>
      <trkpt lat="40.297633" lon="-4.811767">
        <ele>1552.0</ele>
        <time>2016-03-13T13:35:36Z</time>
      </trkpt>
      <trkpt lat="40.297683" lon="-4.811650">
        <ele>1553.0</ele>
        <time>2016-03-13T13:35:37Z</time>
      </trkpt>
      <trkpt lat="40.297700" lon="-4.811517">
        <ele>1554.0</ele>
        <time>2016-03-13T13:35:38Z</time>
      </trkpt>
      <trkpt lat="40.297700" lon="-4.811383">
        <ele>1554.0</ele>
        <time>2016-03-13T13:35:39Z</time>
      </trkpt>
      <trkpt lat="40.297650" lon="-4.811267">
        <ele>1555.0</ele>
        <time>2016-03-13T13:35:40Z</time>
      </trkpt>
      <trkpt lat="40.297600" lon="-4.811167">
        <ele>1557.0</ele>
        <time>2016-03-13T13:35:41Z</time>
      </trkpt>
      <trkpt lat="40.297517" lon="-4.811117">
        <ele>1558.0</ele>
        <time>2016-03-13T13:35:42Z</time>
      </trkpt>
      <trkpt lat="40.297433" lon="-4.811100">
        <ele>1558.0</ele>
        <time>2016-03-13T13:35:43Z</time>
      </trkpt>
      <trkpt lat="40.297350" lon="-4.811133">
        <ele>1559.0</ele>
        <time>2016-03-13T13:35:44Z</time>
      </trkpt>
      <trkpt lat="40.297283" lon="-4.811200">
        <ele>1559.0</ele>
        <time>2016-03-13T13:35:45Z</time>
      </trkpt>
      <trkpt lat="40.297217" lon="-4.811300">
        <ele>1560.0</ele>
        <time>2016-03-13T13:35:46Z</time>
      </trkpt>
      <trkpt lat="40.297200" lon="-4.811400">
        <ele>1561.0</ele>
        <time>2016-03-13T13:35:47Z</time>
      </trkpt>
      <trkpt lat="40.297200" lon="-4.811517">
        <ele>1562.0</ele>
        <time>2016-03-13T13:35:48Z</time>
      </trkpt>
      <trkpt lat="40.297233" lon="-4.811600">
        <ele>1563.0</ele>
        <time>2016-03-13T13:35:49Z</time>
      </trkpt>
      <trkpt lat="40.297283" lon="-4.811683">
        <ele>1564.0</ele>
        <time>2016-03-13T13:35:50Z</time>
      </trkpt>
      <trkpt lat="40.297350" lon="-4.811750">
        <ele>1565.0</ele>
        <time>2016-03-13T13:35:51Z</time>
      </trkpt>
      <trkpt lat="40.297433" lon="-4.811783">
        <ele>1567.0</ele>
        <time>2016-03-13T13:35:52Z</time>
      </trkpt>
      <trkpt lat="40.297517" lon="-4.811800">
        <ele>1568.0</ele>
        <time>2016-03-13T13:35:53Z</time>
      </trkpt>
      <trkpt lat="40.297600" lon="-4.811800">
        <ele>1569.0</ele>
        <time>2016-03-13T13:35:54Z</time>
      </trkpt>
      <trkpt lat="40.297700" lon="-4.811750">
        <ele>1569.0</ele>
        <time>2016-03-13T13:35:55Z</time>
      </trkpt>
      <trkpt lat="40.297783" lon="-4.811650">
        <ele>1569.0</ele>
        <time>2016-03-13T13:35:56Z</time>
      </trkpt>
      <trkpt lat="40.297833" lon="-4.811533">
        <ele>1569.0</ele>
        <time>2016-03-13T13:35:57Z</time>
      </trkpt>
      <trkpt lat="40.297867" lon="-4.811400">
        <ele>1570.0</ele>
        <time>2016-03-13T13:35:58Z</time>
      </trkpt>
      <trkpt lat="40.297867" lon="-4.811267">
        <ele>1572.0</ele>
        <time>2016-03-13T13:35:59Z</time>
      </trkpt>
      <trkpt lat="40.297867" lon="-4.811150">
        <ele>1574.0</ele>
        <time>2016-03-13T13:36:00Z</time>
      </trkpt>
      <trkpt lat="40.297833" lon="-4.811050">
        <ele>1575.0</ele>
        <time>2016-03-13T13:36:01Z</time>
      </trkpt>
      <trkpt lat="40.297783" lon="-4.810933">
        <ele>1576.0</ele>
        <time>2016-03-13T13:36:02Z</time>
      </trkpt>
      <trkpt lat="40.297717" lon="-4.810850">
        <ele>1575.0</ele>
        <time>2016-03-13T13:36:03Z</time>
      </trkpt>
      <trkpt lat="40.297633" lon="-4.810800">
        <ele>1575.0</ele>
        <time>2016-03-13T13:36:04Z</time>
      </trkpt>
      <trkpt lat="40.297533" lon="-4.810800">
        <ele>1574.0</ele>
        <time>2016-03-13T13:36:05Z</time>
      </trkpt>
      <trkpt lat="40.297450" lon="-4.810833">
        <ele>1574.0</ele>
        <time>2016-03-13T13:36:06Z</time>
      </trkpt>
      <trkpt lat="40.297367" lon="-4.810900">
        <ele>1575.0</ele>
        <time>2016-03-13T13:36:07Z</time>
      </trkpt>
      <trkpt lat="40.297300" lon="-4.811000">
        <ele>1576.0</ele>
        <time>2016-03-13T13:36:08Z</time>
      </trkpt>
      <trkpt lat="40.297267" lon="-4.811100">
        <ele>1576.0</ele>
        <time>2016-03-13T13:36:09Z</time>
      </trkpt>
      <trkpt lat="40.297250" lon="-4.811217">
        <ele>1576.0</ele>
        <time>2016-03-13T13:36:10Z</time>
      </trkpt>
      <trkpt lat="40.297267" lon="-4.811317">
        <ele>1577.0</ele>
        <time>2016-03-13T13:36:11Z</time>
      </trkpt>
      <trkpt lat="40.297317" lon="-4.811417">
        <ele>1578.0</ele>
        <time>2016-03-13T13:36:12Z</time>
      </trkpt>
      <trkpt lat="40.297400" lon="-4.811500">
        <ele>1579.0</ele>
        <time>2016-03-13T13:36:13Z</time>
      </trkpt>
      <trkpt lat="40.297467" lon="-4.811567">
        <ele>1581.0</ele>
        <time>2016-03-13T13:36:14Z</time>
      </trkpt>
      <trkpt lat="40.297550" lon="-4.811600">
        <ele>1582.0</ele>
        <time>2016-03-13T13:36:15Z</time>
      </trkpt>
      <trkpt lat="40.297617" lon="-4.811617">
        <ele>1583.0</ele>
        <time>2016-03-13T13:36:16Z</time>
      </trkpt>
      <trkpt lat="40.297700" lon="-4.811583">
        <ele>1582.0</ele>
        <time>2016-03-13T13:36:17Z</time>
      </trkpt>
      <trkpt lat="40.297783" lon="-4.811533">
        <ele>1581.0</ele>
        <time>2016-03-13T13:36:18Z</time>
      </trkpt>
      <trkpt lat="40.297867" lon="-4.811450">
        <ele>1580.0</ele>
        <time>2016-03-13T13:36:19Z</time>
      </trkpt>
      <trkpt lat="40.297933" lon="-4.811333">
        <ele>1581.0</ele>
        <time>2016-03-13T13:36:20Z</time>
      </trkpt>
      <trkpt lat="40.297950" lon="-4.811217">
        <ele>1581.0</ele>
        <time>2016-03-13T13:36:21Z</time>
      </trkpt>
      <trkpt lat="40.297967" lon="-4.811083">
        <ele>1582.0</ele>
        <time>2016-03-13T13:36:22Z</time>
      </trkpt>
      <trkpt lat="40.297967" lon="-4.810967">
        <ele>1582.0</ele>
        <time>2016-03-13T13:36:23Z</time>
      </trkpt>
      <trkpt lat="40.297983" lon="-4.810833">
        <ele>1581.0</ele>
        <time>2016-03-13T13:36:24Z</time>
      </trkpt>
      <trkpt lat="40.298017" lon="-4.810717">
        <ele>1581.0</ele>
        <time>2016-03-13T13:36:25Z</time>
      </trkpt>
      <trkpt lat="40.298050" lon="-4.810583">
        <ele>1580.0</ele>
        <time>2016-03-13T13:36:26Z</time>
      </trkpt>
      <trkpt lat="40.298067" lon="-4.810450">
        <ele>1581.0</ele>
        <time>2016-03-13T13:36:27Z</time>
      </trkpt>
      <trkpt lat="40.298083" lon="-4.810317">
        <ele>1581.0</ele>
        <time>2016-03-13T13:36:28Z</time>
      </trkpt>
      <trkpt lat="40.298083" lon="-4.810167">
        <ele>1580.0</ele>
        <time>2016-03-13T13:36:29Z</time>
      </trkpt>
      <trkpt lat="40.298100" lon="-4.810033">
        <ele>1578.0</ele>
        <time>2016-03-13T13:36:30Z</time>
      </trkpt>
      <trkpt lat="40.298100" lon="-4.809900">
        <ele>1576.0</ele>
        <time>2016-03-13T13:36:31Z</time>
      </trkpt>
      <trkpt lat="40.298117" lon="-4.809750">
        <ele>1574.0</ele>
        <time>2016-03-13T13:36:32Z</time>
      </trkpt>
      <trkpt lat="40.298133" lon="-4.809617">
        <ele>1571.0</ele>
        <time>2016-03-13T13:36:33Z</time>
      </trkpt>
      <trkpt lat="40.298150" lon="-4.809467">
        <ele>1568.0</ele>
        <time>2016-03-13T13:36:34Z</time>
      </trkpt>
      <trkpt lat="40.298167" lon="-4.809317">
        <ele>1567.0</ele>
        <time>2016-03-13T13:36:35Z</time>
      </trkpt>
      <trkpt lat="40.298183" lon="-4.809167">
        <ele>1566.0</ele>
        <time>2016-03-13T13:36:36Z</time>
      </trkpt>
      <trkpt lat="40.298200" lon="-4.809017">
        <ele>1566.0</ele>
        <time>2016-03-13T13:36:37Z</time>
      </trkpt>
      <trkpt lat="40.298217" lon="-4.808883">
        <ele>1565.0</ele>
        <time>2016-03-13T13:36:38Z</time>
      </trkpt>
      <trkpt lat="40.298233" lon="-4.808733">
        <ele>1562.0</ele>
        <time>2016-03-13T13:36:39Z</time>
      </trkpt>
      <trkpt lat="40.298250" lon="-4.808583">
        <ele>1558.0</ele>
        <time>2016-03-13T13:36:40Z</time>
      </trkpt>
      <trkpt lat="40.298283" lon="-4.808433">
        <ele>1556.0</ele>
        <time>2016-03-13T13:36:41Z</time>
      </trkpt>
      <trkpt lat="40.298300" lon="-4.808283">
        <ele>1554.0</ele>
        <time>2016-03-13T13:36:42Z</time>
      </trkpt>
      <trkpt lat="40.298333" lon="-4.808117">
        <ele>1552.0</ele>
        <time>2016-03-13T13:36:43Z</time>
      </trkpt>
      <trkpt lat="40.298350" lon="-4.807983">
        <ele>1550.0</ele>
        <time>2016-03-13T13:36:44Z</time>
      </trkpt>
      <trkpt lat="40.298367" lon="-4.807833">
        <ele>1548.0</ele>
        <time>2016-03-13T13:36:45Z</time>
      </trkpt>
      <trkpt lat="40.298400" lon="-4.807683">
        <ele>1546.0</ele>
        <time>2016-03-13T13:36:46Z</time>
      </trkpt>
      <trkpt lat="40.298433" lon="-4.807533">
        <ele>1544.0</ele>
        <time>2016-03-13T13:36:47Z</time>
      </trkpt>
      <trkpt lat="40.298450" lon="-4.807383">
        <ele>1543.0</ele>
        <time>2016-03-13T13:36:48Z</time>
      </trkpt>
      <trkpt lat="40.298483" lon="-4.807217">
        <ele>1542.0</ele>
        <time>2016-03-13T13:36:49Z</time>
      </trkpt>
      <trkpt lat="40.298517" lon="-4.807067">
        <ele>1542.0</ele>
        <time>2016-03-13T13:36:50Z</time>
      </trkpt>
      <trkpt lat="40.298550" lon="-4.806917">
        <ele>1542.0</ele>
        <time>2016-03-13T13:36:51Z</time>
      </trkpt>
      <trkpt lat="40.298583" lon="-4.806783">
        <ele>1541.0</ele>
        <time>2016-03-13T13:36:52Z</time>
      </trkpt>
      <trkpt lat="40.298600" lon="-4.806633">
        <ele>1540.0</ele>
        <time>2016-03-13T13:36:53Z</time>
      </trkpt>
      <trkpt lat="40.298633" lon="-4.806500">
        <ele>1539.0</ele>
        <time>2016-03-13T13:36:54Z</time>
      </trkpt>
      <trkpt lat="40.298667" lon="-4.806350">
        <ele>1538.0</ele>
        <time>2016-03-13T13:36:55Z</time>
      </trkpt>
      <trkpt lat="40.298700" lon="-4.806200">
        <ele>1537.0</ele>
        <time>2016-03-13T13:36:56Z</time>
      </trkpt>
      <trkpt lat="40.298717" lon="-4.806033">
        <ele>1536.0</ele>
        <time>2016-03-13T13:36:57Z</time>
      </trkpt>
      <trkpt lat="40.298733" lon="-4.805867">
        <ele>1536.0</ele>
        <time>2016-03-13T13:36:58Z</time>
      </trkpt>
      <trkpt lat="40.298750" lon="-4.805700">
        <ele>1537.0</ele>
        <time>2016-03-13T13:36:59Z</time>
      </trkpt>
      <trkpt lat="40.298750" lon="-4.805550">
        <ele>1539.0</ele>
        <time>2016-03-13T13:37:00Z</time>
      </trkpt>
      <trkpt lat="40.298767" lon="-4.805417">
        <ele>1539.0</ele>
        <time>2016-03-13T13:37:01Z</time>
      </trkpt>
      <trkpt lat="40.298767" lon="-4.805283">
        <ele>1539.0</ele>
        <time>2016-03-13T13:37:02Z</time>
      </trkpt>
      <trkpt lat="40.298800" lon="-4.805150">
        <ele>1538.0</ele>
        <time>2016-03-13T13:37:03Z</time>
      </trkpt>
      <trkpt lat="40.298833" lon="-4.805017">
        <ele>1537.0</ele>
        <time>2016-03-13T13:37:04Z</time>
      </trkpt>
      <trkpt lat="40.298883" lon="-4.804900">
        <ele>1536.0</ele>
        <time>2016-03-13T13:37:05Z</time>
      </trkpt>
      <trkpt lat="40.298917" lon="-4.804783">
        <ele>1536.0</ele>
        <time>2016-03-13T13:37:06Z</time>
      </trkpt>
      <trkpt lat="40.298967" lon="-4.804667">
        <ele>1535.0</ele>
        <time>2016-03-13T13:37:07Z</time>
      </trkpt>
      <trkpt lat="40.299000" lon="-4.804567">
        <ele>1534.0</ele>
        <time>2016-03-13T13:37:08Z</time>
      </trkpt>
      <trkpt lat="40.299033" lon="-4.804450">
        <ele>1532.0</ele>
        <time>2016-03-13T13:37:09Z</time>
      </trkpt>
      <trkpt lat="40.299067" lon="-4.804350">
        <ele>1530.0</ele>
        <time>2016-03-13T13:37:10Z</time>
      </trkpt>
      <trkpt lat="40.299117" lon="-4.804233">
        <ele>1529.0</ele>
        <time>2016-03-13T13:37:11Z</time>
      </trkpt>
      <trkpt lat="40.299167" lon="-4.804133">
        <ele>1527.0</ele>
        <time>2016-03-13T13:37:12Z</time>
      </trkpt>
      <trkpt lat="40.299200" lon="-4.804017">
        <ele>1525.0</ele>
        <time>2016-03-13T13:37:13Z</time>
      </trkpt>
      <trkpt lat="40.299250" lon="-4.803900">
        <ele>1523.0</ele>
        <time>2016-03-13T13:37:14Z</time>
      </trkpt>
      <trkpt lat="40.299283" lon="-4.803767">
        <ele>1521.0</ele>
        <time>2016-03-13T13:37:15Z</time>
      </trkpt>
      <trkpt lat="40.299317" lon="-4.803650">
        <ele>1520.0</ele>
        <time>2016-03-13T13:37:16Z</time>
      </trkpt>
      <trkpt lat="40.299333" lon="-4.803533">
        <ele>1519.0</ele>
        <time>2016-03-13T13:37:17Z</time>
      </trkpt>
      <trkpt lat="40.299367" lon="-4.803417">
        <ele>1517.0</ele>
        <time>2016-03-13T13:37:18Z</time>
      </trkpt>
      <trkpt lat="40.299400" lon="-4.803300">
        <ele>1516.0</ele>
        <time>2016-03-13T13:37:19Z</time>
      </trkpt>
      <trkpt lat="40.299417" lon="-4.803183">
        <ele>1514.0</ele>
        <time>2016-03-13T13:37:20Z</time>
      </trkpt>
      <trkpt lat="40.299433" lon="-4.803067">
        <ele>1511.0</ele>
        <time>2016-03-13T13:37:21Z</time>
      </trkpt>
      <trkpt lat="40.299450" lon="-4.802950">
        <ele>1508.0</ele>
        <time>2016-03-13T13:37:22Z</time>
      </trkpt>
      <trkpt lat="40.299483" lon="-4.802817">
        <ele>1505.0</ele>
        <time>2016-03-13T13:37:23Z</time>
      </trkpt>
      <trkpt lat="40.299517" lon="-4.802683">
        <ele>1502.0</ele>
        <time>2016-03-13T13:37:24Z</time>
      </trkpt>
      <trkpt lat="40.299533" lon="-4.802567">
        <ele>1500.0</ele>
        <time>2016-03-13T13:37:25Z</time>
      </trkpt>
      <trkpt lat="40.299567" lon="-4.802433">
        <ele>1498.0</ele>
        <time>2016-03-13T13:37:26Z</time>
      </trkpt>
      <trkpt lat="40.299583" lon="-4.802300">
        <ele>1497.0</ele>
        <time>2016-03-13T13:37:27Z</time>
      </trkpt>
      <trkpt lat="40.299617" lon="-4.802167">
        <ele>1496.0</ele>
        <time>2016-03-13T13:37:28Z</time>
      </trkpt>
      <trkpt lat="40.299633" lon="-4.802033">
        <ele>1495.0</ele>
        <time>2016-03-13T13:37:29Z</time>
      </trkpt>
      <trkpt lat="40.299667" lon="-4.801917">
        <ele>1493.0</ele>
        <time>2016-03-13T13:37:30Z</time>
      </trkpt>
      <trkpt lat="40.299683" lon="-4.801783">
        <ele>1491.0</ele>
        <time>2016-03-13T13:37:31Z</time>
      </trkpt>
      <trkpt lat="40.299717" lon="-4.801650">
        <ele>1489.0</ele>
        <time>2016-03-13T13:37:32Z</time>
      </trkpt>
      <trkpt lat="40.299767" lon="-4.801517">
        <ele>1487.0</ele>
        <time>2016-03-13T13:37:33Z</time>
      </trkpt>
      <trkpt lat="40.299800" lon="-4.801383">
        <ele>1485.0</ele>
        <time>2016-03-13T13:37:34Z</time>
      </trkpt>
      <trkpt lat="40.299833" lon="-4.801250">
        <ele>1483.0</ele>
        <time>2016-03-13T13:37:35Z</time>
      </trkpt>
      <trkpt lat="40.299867" lon="-4.801117">
        <ele>1480.0</ele>
        <time>2016-03-13T13:37:36Z</time>
      </trkpt>
      <trkpt lat="40.299917" lon="-4.800983">
        <ele>1477.0</ele>
        <time>2016-03-13T13:37:37Z</time>
      </trkpt>
      <trkpt lat="40.299967" lon="-4.800850">
        <ele>1475.0</ele>
        <time>2016-03-13T13:37:38Z</time>
      </trkpt>
      <trkpt lat="40.300017" lon="-4.800717">
        <ele>1473.0</ele>
        <time>2016-03-13T13:37:39Z</time>
      </trkpt>
      <trkpt lat="40.300050" lon="-4.800567">
        <ele>1471.0</ele>
        <time>2016-03-13T13:37:40Z</time>
      </trkpt>
      <trkpt lat="40.300083" lon="-4.800433">
        <ele>1470.0</ele>
        <time>2016-03-13T13:37:41Z</time>
      </trkpt>
      <trkpt lat="40.300133" lon="-4.800300">
        <ele>1469.0</ele>
        <time>2016-03-13T13:37:42Z</time>
      </trkpt>
      <trkpt lat="40.300167" lon="-4.800167">
        <ele>1467.0</ele>
        <time>2016-03-13T13:37:43Z</time>
      </trkpt>
      <trkpt lat="40.300200" lon="-4.800017">
        <ele>1466.0</ele>
        <time>2016-03-13T13:37:44Z</time>
      </trkpt>
      <trkpt lat="40.300233" lon="-4.799883">
        <ele>1464.0</ele>
        <time>2016-03-13T13:37:45Z</time>
      </trkpt>
      <trkpt lat="40.300250" lon="-4.799750">
        <ele>1463.0</ele>
        <time>2016-03-13T13:37:46Z</time>
      </trkpt>
      <trkpt lat="40.300267" lon="-4.799617">
        <ele>1460.0</ele>
        <time>2016-03-13T13:37:47Z</time>
      </trkpt>
      <trkpt lat="40.300283" lon="-4.799483">
        <ele>1458.0</ele>
        <time>2016-03-13T13:37:48Z</time>
      </trkpt>
      <trkpt lat="40.300283" lon="-4.799333">
        <ele>1455.0</ele>
        <time>2016-03-13T13:37:49Z</time>
      </trkpt>
      <trkpt lat="40.300300" lon="-4.799183">
        <ele>1452.0</ele>
        <time>2016-03-13T13:37:50Z</time>
      </trkpt>
      <trkpt lat="40.300317" lon="-4.799033">
        <ele>1449.0</ele>
        <time>2016-03-13T13:37:51Z</time>
      </trkpt>
      <trkpt lat="40.300333" lon="-4.798883">
        <ele>1447.0</ele>
        <time>2016-03-13T13:37:52Z</time>
      </trkpt>
      <trkpt lat="40.300350" lon="-4.798733">
        <ele>1445.0</ele>
        <time>2016-03-13T13:37:53Z</time>
      </trkpt>
      <trkpt lat="40.300367" lon="-4.798583">
        <ele>1443.0</ele>
        <time>2016-03-13T13:37:54Z</time>
      </trkpt>
      <trkpt lat="40.300400" lon="-4.798433">
        <ele>1441.0</ele>
        <time>2016-03-13T13:37:55Z</time>
      </trkpt>
      <trkpt lat="40.300433" lon="-4.798283">
        <ele>1439.0</ele>
        <time>2016-03-13T13:37:56Z</time>
      </trkpt>
      <trkpt lat="40.300467" lon="-4.798133">
        <ele>1437.0</ele>
        <time>2016-03-13T13:37:57Z</time>
      </trkpt>
      <trkpt lat="40.300500" lon="-4.797983">
        <ele>1436.0</ele>
        <time>2016-03-13T13:37:58Z</time>
      </trkpt>
      <trkpt lat="40.300533" lon="-4.797833">
        <ele>1434.0</ele>
        <time>2016-03-13T13:37:59Z</time>
      </trkpt>
      <trkpt lat="40.300567" lon="-4.797700">
        <ele>1433.0</ele>
        <time>2016-03-13T13:38:00Z</time>
      </trkpt>
      <trkpt lat="40.300617" lon="-4.797567">
        <ele>1431.0</ele>
        <time>2016-03-13T13:38:01Z</time>
      </trkpt>
      <trkpt lat="40.300667" lon="-4.797450">
        <ele>1427.0</ele>
        <time>2016-03-13T13:38:02Z</time>
      </trkpt>
      <trkpt lat="40.300733" lon="-4.797300">
        <ele>1423.0</ele>
        <time>2016-03-13T13:38:03Z</time>
      </trkpt>
      <trkpt lat="40.300817" lon="-4.797167">
        <ele>1420.0</ele>
        <time>2016-03-13T13:38:04Z</time>
      </trkpt>
      <trkpt lat="40.300883" lon="-4.797017">
        <ele>1417.0</ele>
        <time>2016-03-13T13:38:05Z</time>
      </trkpt>
      <trkpt lat="40.300950" lon="-4.796867">
        <ele>1416.0</ele>
        <time>2016-03-13T13:38:06Z</time>
      </trkpt>
      <trkpt lat="40.301000" lon="-4.796733">
        <ele>1415.0</ele>
        <time>2016-03-13T13:38:07Z</time>
      </trkpt>
      <trkpt lat="40.301067" lon="-4.796583">
        <ele>1413.0</ele>
        <time>2016-03-13T13:38:08Z</time>
      </trkpt>
      <trkpt lat="40.301133" lon="-4.796450">
        <ele>1411.0</ele>
        <time>2016-03-13T13:38:09Z</time>
      </trkpt>
      <trkpt lat="40.301200" lon="-4.796300">
        <ele>1409.0</ele>
        <time>2016-03-13T13:38:10Z</time>
      </trkpt>
      <trkpt lat="40.301283" lon="-4.796167">
        <ele>1407.0</ele>
        <time>2016-03-13T13:38:11Z</time>
      </trkpt>
      <trkpt lat="40.301383" lon="-4.796033">
        <ele>1406.0</ele>
        <time>2016-03-13T13:38:12Z</time>
      </trkpt>
      <trkpt lat="40.301467" lon="-4.795917">
        <ele>1404.0</ele>
        <time>2016-03-13T13:38:13Z</time>
      </trkpt>
      <trkpt lat="40.301567" lon="-4.795783">
        <ele>1403.0</ele>
        <time>2016-03-13T13:38:14Z</time>
      </trkpt>
      <trkpt lat="40.301667" lon="-4.795667">
        <ele>1401.0</ele>
        <time>2016-03-13T13:38:15Z</time>
      </trkpt>
      <trkpt lat="40.301783" lon="-4.795550">
        <ele>1401.0</ele>
        <time>2016-03-13T13:38:16Z</time>
      </trkpt>
      <trkpt lat="40.301883" lon="-4.795433">
        <ele>1401.0</ele>
        <time>2016-03-13T13:38:17Z</time>
      </trkpt>
      <trkpt lat="40.301967" lon="-4.795317">
        <ele>1401.0</ele>
        <time>2016-03-13T13:38:18Z</time>
      </trkpt>
      <trkpt lat="40.302050" lon="-4.795183">
        <ele>1400.0</ele>
        <time>2016-03-13T13:38:19Z</time>
      </trkpt>
      <trkpt lat="40.302117" lon="-4.795050">
        <ele>1399.0</ele>
        <time>2016-03-13T13:38:20Z</time>
      </trkpt>
      <trkpt lat="40.302200" lon="-4.794933">
        <ele>1397.0</ele>
        <time>2016-03-13T13:38:21Z</time>
      </trkpt>
      <trkpt lat="40.302283" lon="-4.794800">
        <ele>1395.0</ele>
        <time>2016-03-13T13:38:22Z</time>
      </trkpt>
      <trkpt lat="40.302383" lon="-4.794683">
        <ele>1394.0</ele>
        <time>2016-03-13T13:38:23Z</time>
      </trkpt>
      <trkpt lat="40.302467" lon="-4.794550">
        <ele>1392.0</ele>
        <time>2016-03-13T13:38:24Z</time>
      </trkpt>
      <trkpt lat="40.302533" lon="-4.794417">
        <ele>1391.0</ele>
        <time>2016-03-13T13:38:25Z</time>
      </trkpt>
      <trkpt lat="40.302600" lon="-4.794283">
        <ele>1389.0</ele>
        <time>2016-03-13T13:38:26Z</time>
      </trkpt>
      <trkpt lat="40.302683" lon="-4.794150">
        <ele>1388.0</ele>
        <time>2016-03-13T13:38:27Z</time>
      </trkpt>
      <trkpt lat="40.302750" lon="-4.794000">
        <ele>1388.0</ele>
        <time>2016-03-13T13:38:28Z</time>
      </trkpt>
      <trkpt lat="40.302833" lon="-4.793867">
        <ele>1387.0</ele>
        <time>2016-03-13T13:38:29Z</time>
      </trkpt>
      <trkpt lat="40.302883" lon="-4.793717">
        <ele>1388.0</ele>
        <time>2016-03-13T13:38:30Z</time>
      </trkpt>
      <trkpt lat="40.302950" lon="-4.793600">
        <ele>1388.0</ele>
        <time>2016-03-13T13:38:31Z</time>
      </trkpt>
      <trkpt lat="40.303017" lon="-4.793483">
        <ele>1387.0</ele>
        <time>2016-03-13T13:38:32Z</time>
      </trkpt>
      <trkpt lat="40.303083" lon="-4.793350">
        <ele>1385.0</ele>
        <time>2016-03-13T13:38:33Z</time>
      </trkpt>
      <trkpt lat="40.303167" lon="-4.793233">
        <ele>1383.0</ele>
        <time>2016-03-13T13:38:34Z</time>
      </trkpt>
      <trkpt lat="40.303250" lon="-4.793100">
        <ele>1381.0</ele>
        <time>2016-03-13T13:38:35Z</time>
      </trkpt>
      <trkpt lat="40.303317" lon="-4.792983">
        <ele>1380.0</ele>
        <time>2016-03-13T13:38:36Z</time>
      </trkpt>
      <trkpt lat="40.303383" lon="-4.792867">
        <ele>1378.0</ele>
        <time>2016-03-13T13:38:37Z</time>
      </trkpt>
      <trkpt lat="40.303450" lon="-4.792750">
        <ele>1376.0</ele>
        <time>2016-03-13T13:38:38Z</time>
      </trkpt>
      <trkpt lat="40.303550" lon="-4.792617">
        <ele>1374.0</ele>
        <time>2016-03-13T13:38:39Z</time>
      </trkpt>
      <trkpt lat="40.303650" lon="-4.792500">
        <ele>1374.0</ele>
        <time>2016-03-13T13:38:40Z</time>
      </trkpt>
      <trkpt lat="40.303750" lon="-4.792383">
        <ele>1374.0</ele>
        <time>2016-03-13T13:38:41Z</time>
      </trkpt>
      <trkpt lat="40.303833" lon="-4.792283">
        <ele>1373.0</ele>
        <time>2016-03-13T13:38:42Z</time>
      </trkpt>
      <trkpt lat="40.303900" lon="-4.792167">
        <ele>1371.0</ele>
        <time>2016-03-13T13:38:43Z</time>
      </trkpt>
      <trkpt lat="40.303967" lon="-4.792050">
        <ele>1368.0</ele>
        <time>2016-03-13T13:38:44Z</time>
      </trkpt>
      <trkpt lat="40.304050" lon="-4.791900">
        <ele>1365.0</ele>
        <time>2016-03-13T13:38:45Z</time>
      </trkpt>
      <trkpt lat="40.304133" lon="-4.791767">
        <ele>1363.0</ele>
        <time>2016-03-13T13:38:46Z</time>
      </trkpt>
      <trkpt lat="40.304200" lon="-4.791650">
        <ele>1361.0</ele>
        <time>2016-03-13T13:38:47Z</time>
      </trkpt>
      <trkpt lat="40.304283" lon="-4.791517">
        <ele>1360.0</ele>
        <time>2016-03-13T13:38:48Z</time>
      </trkpt>
      <trkpt lat="40.304367" lon="-4.791400">
        <ele>1359.0</ele>
        <time>2016-03-13T13:38:49Z</time>
      </trkpt>
      <trkpt lat="40.304433" lon="-4.791283">
        <ele>1358.0</ele>
        <time>2016-03-13T13:38:50Z</time>
      </trkpt>
      <trkpt lat="40.304517" lon="-4.791167">
        <ele>1356.0</ele>
        <time>2016-03-13T13:38:51Z</time>
      </trkpt>
      <trkpt lat="40.304600" lon="-4.791033">
        <ele>1353.0</ele>
        <time>2016-03-13T13:38:52Z</time>
      </trkpt>
      <trkpt lat="40.304700" lon="-4.790917">
        <ele>1352.0</ele>
        <time>2016-03-13T13:38:53Z</time>
      </trkpt>
      <trkpt lat="40.304783" lon="-4.790800">
        <ele>1352.0</ele>
        <time>2016-03-13T13:38:54Z</time>
      </trkpt>
      <trkpt lat="40.304867" lon="-4.790683">
        <ele>1352.0</ele>
        <time>2016-03-13T13:38:55Z</time>
      </trkpt>
      <trkpt lat="40.304950" lon="-4.790567">
        <ele>1351.0</ele>
        <time>2016-03-13T13:38:56Z</time>
      </trkpt>
      <trkpt lat="40.305033" lon="-4.790450">
        <ele>1350.0</ele>
        <time>2016-03-13T13:38:57Z</time>
      </trkpt>
      <trkpt lat="40.305117" lon="-4.790333">
        <ele>1349.0</ele>
        <time>2016-03-13T13:38:58Z</time>
      </trkpt>
      <trkpt lat="40.305200" lon="-4.790200">
        <ele>1348.0</ele>
        <time>2016-03-13T13:38:59Z</time>
      </trkpt>
      <trkpt lat="40.305283" lon="-4.790067">
        <ele>1347.0</ele>
        <time>2016-03-13T13:39:00Z</time>
      </trkpt>
      <trkpt lat="40.305367" lon="-4.789950">
        <ele>1346.0</ele>
        <time>2016-03-13T13:39:01Z</time>
      </trkpt>
      <trkpt lat="40.305450" lon="-4.789817">
        <ele>1346.0</ele>
        <time>2016-03-13T13:39:02Z</time>
      </trkpt>
      <trkpt lat="40.305533" lon="-4.789683">
        <ele>1346.0</ele>
        <time>2016-03-13T13:39:03Z</time>
      </trkpt>
      <trkpt lat="40.305617" lon="-4.789567">
        <ele>1346.0</ele>
        <time>2016-03-13T13:39:04Z</time>
      </trkpt>
      <trkpt lat="40.305700" lon="-4.789433">
        <ele>1345.0</ele>
        <time>2016-03-13T13:39:05Z</time>
      </trkpt>
      <trkpt lat="40.305767" lon="-4.789300">
        <ele>1345.0</ele>
        <time>2016-03-13T13:39:06Z</time>
      </trkpt>
      <trkpt lat="40.305817" lon="-4.789167">
        <ele>1344.0</ele>
        <time>2016-03-13T13:39:07Z</time>
      </trkpt>
      <trkpt lat="40.305883" lon="-4.789033">
        <ele>1343.0</ele>
        <time>2016-03-13T13:39:08Z</time>
      </trkpt>
      <trkpt lat="40.305933" lon="-4.788900">
        <ele>1341.0</ele>
        <time>2016-03-13T13:39:09Z</time>
      </trkpt>
      <trkpt lat="40.306000" lon="-4.788750">
        <ele>1339.0</ele>
        <time>2016-03-13T13:39:10Z</time>
      </trkpt>
      <trkpt lat="40.306067" lon="-4.788617">
        <ele>1337.0</ele>
        <time>2016-03-13T13:39:11Z</time>
      </trkpt>
      <trkpt lat="40.306133" lon="-4.788483">
        <ele>1336.0</ele>
        <time>2016-03-13T13:39:12Z</time>
      </trkpt>
      <trkpt lat="40.306200" lon="-4.788350">
        <ele>1334.0</ele>
        <time>2016-03-13T13:39:13Z</time>
      </trkpt>
      <trkpt lat="40.306250" lon="-4.788217">
        <ele>1332.0</ele>
        <time>2016-03-13T13:39:14Z</time>
      </trkpt>
      <trkpt lat="40.306300" lon="-4.788067">
        <ele>1331.0</ele>
        <time>2016-03-13T13:39:15Z</time>
      </trkpt>
      <trkpt lat="40.306317" lon="-4.787917">
        <ele>1328.0</ele>
        <time>2016-03-13T13:39:16Z</time>
      </trkpt>
      <trkpt lat="40.306333" lon="-4.787767">
        <ele>1325.0</ele>
        <time>2016-03-13T13:39:17Z</time>
      </trkpt>
      <trkpt lat="40.306333" lon="-4.787633">
        <ele>1324.0</ele>
        <time>2016-03-13T13:39:18Z</time>
      </trkpt>
      <trkpt lat="40.306317" lon="-4.787500">
        <ele>1324.0</ele>
        <time>2016-03-13T13:39:19Z</time>
      </trkpt>
      <trkpt lat="40.306317" lon="-4.787383">
        <ele>1322.0</ele>
        <time>2016-03-13T13:39:20Z</time>
      </trkpt>
      <trkpt lat="40.306317" lon="-4.787267">
        <ele>1320.0</ele>
        <time>2016-03-13T13:39:21Z</time>
      </trkpt>
      <trkpt lat="40.306300" lon="-4.787150">
        <ele>1316.0</ele>
        <time>2016-03-13T13:39:22Z</time>
      </trkpt>
      <trkpt lat="40.306267" lon="-4.787017">
        <ele>1313.0</ele>
        <time>2016-03-13T13:39:23Z</time>
      </trkpt>
      <trkpt lat="40.306250" lon="-4.786883">
        <ele>1310.0</ele>
        <time>2016-03-13T13:39:24Z</time>
      </trkpt>
      <trkpt lat="40.306233" lon="-4.786767">
        <ele>1308.0</ele>
        <time>2016-03-13T13:39:25Z</time>
      </trkpt>
      <trkpt lat="40.306233" lon="-4.786650">
        <ele>1306.0</ele>
        <time>2016-03-13T13:39:26Z</time>
      </trkpt>
      <trkpt lat="40.306217" lon="-4.786533">
        <ele>1304.0</ele>
        <time>2016-03-13T13:39:27Z</time>
      </trkpt>
      <trkpt lat="40.306200" lon="-4.786417">
        <ele>1301.0</ele>
        <time>2016-03-13T13:39:28Z</time>
      </trkpt>
      <trkpt lat="40.306183" lon="-4.786300">
        <ele>1298.0</ele>
        <time>2016-03-13T13:39:29Z</time>
      </trkpt>
      <trkpt lat="40.306183" lon="-4.786167">
        <ele>1295.0</ele>
        <time>2016-03-13T13:39:30Z</time>
      </trkpt>
      <trkpt lat="40.306200" lon="-4.786017">
        <ele>1293.0</ele>
        <time>2016-03-13T13:39:31Z</time>
      </trkpt>
      <trkpt lat="40.306217" lon="-4.785867">
        <ele>1290.0</ele>
        <time>2016-03-13T13:39:32Z</time>
      </trkpt>
      <trkpt lat="40.306250" lon="-4.785717">
        <ele>1289.0</ele>
        <time>2016-03-13T13:39:33Z</time>
      </trkpt>
      <trkpt lat="40.306267" lon="-4.785583">
        <ele>1288.0</ele>
        <time>2016-03-13T13:39:34Z</time>
      </trkpt>
      <trkpt lat="40.306300" lon="-4.785433">
        <ele>1288.0</ele>
        <time>2016-03-13T13:39:35Z</time>
      </trkpt>
      <trkpt lat="40.306350" lon="-4.785300">
        <ele>1287.0</ele>
        <time>2016-03-13T13:39:36Z</time>
      </trkpt>
      <trkpt lat="40.306400" lon="-4.785150">
        <ele>1287.0</ele>
        <time>2016-03-13T13:39:37Z</time>
      </trkpt>
      <trkpt lat="40.306467" lon="-4.785017">
        <ele>1286.0</ele>
        <time>2016-03-13T13:39:38Z</time>
      </trkpt>
      <trkpt lat="40.306517" lon="-4.784867">
        <ele>1286.0</ele>
        <time>2016-03-13T13:39:39Z</time>
      </trkpt>
      <trkpt lat="40.306583" lon="-4.784717">
        <ele>1286.0</ele>
        <time>2016-03-13T13:39:40Z</time>
      </trkpt>
      <trkpt lat="40.306650" lon="-4.784583">
        <ele>1287.0</ele>
        <time>2016-03-13T13:39:41Z</time>
      </trkpt>
      <trkpt lat="40.306717" lon="-4.784450">
        <ele>1288.0</ele>
        <time>2016-03-13T13:39:42Z</time>
      </trkpt>
      <trkpt lat="40.306800" lon="-4.784333">
        <ele>1289.0</ele>
        <time>2016-03-13T13:39:43Z</time>
      </trkpt>
      <trkpt lat="40.306850" lon="-4.784233">
        <ele>1291.0</ele>
        <time>2016-03-13T13:39:44Z</time>
      </trkpt>
      <trkpt lat="40.306900" lon="-4.784117">
        <ele>1292.0</ele>
        <time>2016-03-13T13:39:45Z</time>
      </trkpt>
      <trkpt lat="40.306950" lon="-4.783983">
        <ele>1294.0</ele>
        <time>2016-03-13T13:39:46Z</time>
      </trkpt>
      <trkpt lat="40.307017" lon="-4.783867">
        <ele>1296.0</ele>
        <time>2016-03-13T13:39:47Z</time>
      </trkpt>
      <trkpt lat="40.307100" lon="-4.783783">
        <ele>1297.0</ele>
        <time>2016-03-13T13:39:48Z</time>
      </trkpt>
      <trkpt lat="40.307217" lon="-4.783733">
        <ele>1296.0</ele>
        <time>2016-03-13T13:39:49Z</time>
      </trkpt>
      <trkpt lat="40.307333" lon="-4.783750">
        <ele>1296.0</ele>
        <time>2016-03-13T13:39:50Z</time>
      </trkpt>
      <trkpt lat="40.307433" lon="-4.783800">
        <ele>1296.0</ele>
        <time>2016-03-13T13:39:51Z</time>
      </trkpt>
      <trkpt lat="40.307483" lon="-4.783883">
        <ele>1295.0</ele>
        <time>2016-03-13T13:39:52Z</time>
      </trkpt>
      <trkpt lat="40.307517" lon="-4.783983">
        <ele>1294.0</ele>
        <time>2016-03-13T13:39:53Z</time>
      </trkpt>
      <trkpt lat="40.307500" lon="-4.784100">
        <ele>1294.0</ele>
        <time>2016-03-13T13:39:54Z</time>
      </trkpt>
      <trkpt lat="40.307450" lon="-4.784200">
        <ele>1295.0</ele>
        <time>2016-03-13T13:39:55Z</time>
      </trkpt>
      <trkpt lat="40.307383" lon="-4.784283">
        <ele>1297.0</ele>
        <time>2016-03-13T13:39:56Z</time>
      </trkpt>
      <trkpt lat="40.307317" lon="-4.784317">
        <ele>1300.0</ele>
        <time>2016-03-13T13:39:57Z</time>
      </trkpt>
      <trkpt lat="40.307267" lon="-4.784317">
        <ele>1302.0</ele>
        <time>2016-03-13T13:39:58Z</time>
      </trkpt>
      <trkpt lat="40.307200" lon="-4.784283">
        <ele>1302.0</ele>
        <time>2016-03-13T13:39:59Z</time>
      </trkpt>
      <trkpt lat="40.307167" lon="-4.784200">
        <ele>1301.0</ele>
        <time>2016-03-13T13:40:00Z</time>
      </trkpt>
      <trkpt lat="40.307117" lon="-4.784100">
        <ele>1301.0</ele>
        <time>2016-03-13T13:40:01Z</time>
      </trkpt>
      <trkpt lat="40.307100" lon="-4.783983">
        <ele>1302.0</ele>
        <time>2016-03-13T13:40:02Z</time>
      </trkpt>
      <trkpt lat="40.307100" lon="-4.783850">
        <ele>1303.0</ele>
        <time>2016-03-13T13:40:03Z</time>
      </trkpt>
      <trkpt lat="40.307133" lon="-4.783717">
        <ele>1303.0</ele>
        <time>2016-03-13T13:40:04Z</time>
      </trkpt>
      <trkpt lat="40.307200" lon="-4.783600">
        <ele>1303.0</ele>
        <time>2016-03-13T13:40:05Z</time>
      </trkpt>
      <trkpt lat="40.307300" lon="-4.783500">
        <ele>1303.0</ele>
        <time>2016-03-13T13:40:06Z</time>
      </trkpt>
      <trkpt lat="40.307383" lon="-4.783400">
        <ele>1304.0</ele>
        <time>2016-03-13T13:40:07Z</time>
      </trkpt>
      <trkpt lat="40.307483" lon="-4.783317">
        <ele>1305.0</ele>
        <time>2016-03-13T13:40:08Z</time>
      </trkpt>
      <trkpt lat="40.307567" lon="-4.783233">
        <ele>1307.0</ele>
        <time>2016-03-13T13:40:09Z</time>
      </trkpt>
      <trkpt lat="40.307633" lon="-4.783117">
        <ele>1307.0</ele>
        <time>2016-03-13T13:40:10Z</time>
      </trkpt>
      <trkpt lat="40.307683" lon="-4.782983">
        <ele>1307.0</ele>
        <time>2016-03-13T13:40:11Z</time>
      </trkpt>
      <trkpt lat="40.307683" lon="-4.782850">
        <ele>1306.0</ele>
        <time>2016-03-13T13:40:12Z</time>
      </trkpt>
      <trkpt lat="40.307650" lon="-4.782733">
        <ele>1305.0</ele>
        <time>2016-03-13T13:40:13Z</time>
      </trkpt>
      <trkpt lat="40.307583" lon="-4.782633">
        <ele>1304.0</ele>
        <time>2016-03-13T13:40:14Z</time>
      </trkpt>
      <trkpt lat="40.307517" lon="-4.782600">
        <ele>1303.0</ele>
        <time>2016-03-13T13:40:15Z</time>
      </trkpt>
      <trkpt lat="40.307450" lon="-4.782617">
        <ele>1301.0</ele>
        <time>2016-03-13T13:40:16Z</time>
      </trkpt>
      <trkpt lat="40.307400" lon="-4.782683">
        <ele>1299.0</ele>
        <time>2016-03-13T13:40:17Z</time>
      </trkpt>
      <trkpt lat="40.307400" lon="-4.782817">
        <ele>1297.0</ele>
        <time>2016-03-13T13:40:18Z</time>
      </trkpt>
      <trkpt lat="40.307417" lon="-4.782950">
        <ele>1297.0</ele>
        <time>2016-03-13T13:40:19Z</time>
      </trkpt>
      <trkpt lat="40.307450" lon="-4.783050">
        <ele>1299.0</ele>
        <time>2016-03-13T13:40:20Z</time>
      </trkpt>
      <trkpt lat="40.307483" lon="-4.783133">
        <ele>1301.0</ele>
        <time>2016-03-13T13:40:21Z</time>
      </trkpt>
      <trkpt lat="40.307517" lon="-4.783200">
        <ele>1302.0</ele>
        <time>2016-03-13T13:40:22Z</time>
      </trkpt>
      <trkpt lat="40.307583" lon="-4.783267">
        <ele>1302.0</ele>
        <time>2016-03-13T13:40:23Z</time>
      </trkpt>
      <trkpt lat="40.307650" lon="-4.783300">
        <ele>1301.0</ele>
        <time>2016-03-13T13:40:24Z</time>
      </trkpt>
      <trkpt lat="40.307733" lon="-4.783333">
        <ele>1301.0</ele>
        <time>2016-03-13T13:40:25Z</time>
      </trkpt>
      <trkpt lat="40.307817" lon="-4.783333">
        <ele>1301.0</ele>
        <time>2016-03-13T13:40:26Z</time>
      </trkpt>
      <trkpt lat="40.307917" lon="-4.783317">
        <ele>1300.0</ele>
        <time>2016-03-13T13:40:27Z</time>
      </trkpt>
      <trkpt lat="40.308000" lon="-4.783267">
        <ele>1300.0</ele>
        <time>2016-03-13T13:40:28Z</time>
      </trkpt>
      <trkpt lat="40.308083" lon="-4.783183">
        <ele>1299.0</ele>
        <time>2016-03-13T13:40:29Z</time>
      </trkpt>
      <trkpt lat="40.308167" lon="-4.783083">
        <ele>1298.0</ele>
        <time>2016-03-13T13:40:30Z</time>
      </trkpt>
      <trkpt lat="40.308233" lon="-4.782983">
        <ele>1297.0</ele>
        <time>2016-03-13T13:40:31Z</time>
      </trkpt>
      <trkpt lat="40.308267" lon="-4.782867">
        <ele>1297.0</ele>
        <time>2016-03-13T13:40:32Z</time>
      </trkpt>
      <trkpt lat="40.308300" lon="-4.782767">
        <ele>1296.0</ele>
        <time>2016-03-13T13:40:33Z</time>
      </trkpt>
      <trkpt lat="40.308333" lon="-4.782667">
        <ele>1296.0</ele>
        <time>2016-03-13T13:40:34Z</time>
      </trkpt>
      <trkpt lat="40.308383" lon="-4.782550">
        <ele>1294.0</ele>
        <time>2016-03-13T13:40:35Z</time>
      </trkpt>
      <trkpt lat="40.308433" lon="-4.782450">
        <ele>1293.0</ele>
        <time>2016-03-13T13:40:36Z</time>
      </trkpt>
      <trkpt lat="40.308483" lon="-4.782350">
        <ele>1291.0</ele>
        <time>2016-03-13T13:40:37Z</time>
      </trkpt>
      <trkpt lat="40.308550" lon="-4.782250">
        <ele>1289.0</ele>
        <time>2016-03-13T13:40:38Z</time>
      </trkpt>
      <trkpt lat="40.308633" lon="-4.782150">
        <ele>1287.0</ele>
        <time>2016-03-13T13:40:39Z</time>
      </trkpt>
      <trkpt lat="40.308717" lon="-4.782050">
        <ele>1286.0</ele>
        <time>2016-03-13T13:40:40Z</time>
      </trkpt>
      <trkpt lat="40.308783" lon="-4.781933">
        <ele>1285.0</ele>
        <time>2016-03-13T13:40:41Z</time>
      </trkpt>
      <trkpt lat="40.308850" lon="-4.781833">
        <ele>1284.0</ele>
        <time>2016-03-13T13:40:42Z</time>
      </trkpt>
      <trkpt lat="40.308900" lon="-4.781733">
        <ele>1283.0</ele>
        <time>2016-03-13T13:40:43Z</time>
      </trkpt>
      <trkpt lat="40.308950" lon="-4.781633">
        <ele>1282.0</ele>
        <time>2016-03-13T13:40:44Z</time>
      </trkpt>
      <trkpt lat="40.309017" lon="-4.781533">
        <ele>1279.0</ele>
        <time>2016-03-13T13:40:45Z</time>
      </trkpt>
      <trkpt lat="40.309083" lon="-4.781417">
        <ele>1277.0</ele>
        <time>2016-03-13T13:40:46Z</time>
      </trkpt>
      <trkpt lat="40.309150" lon="-4.781300">
        <ele>1277.0</ele>
        <time>2016-03-13T13:40:47Z</time>
      </trkpt>
      <trkpt lat="40.309217" lon="-4.781183">
        <ele>1278.0</ele>
        <time>2016-03-13T13:40:48Z</time>
      </trkpt>
      <trkpt lat="40.309283" lon="-4.781067">
        <ele>1279.0</ele>
        <time>2016-03-13T13:40:49Z</time>
      </trkpt>
      <trkpt lat="40.309333" lon="-4.780950">
        <ele>1281.0</ele>
        <time>2016-03-13T13:40:50Z</time>
      </trkpt>
      <trkpt lat="40.309383" lon="-4.780850">
        <ele>1282.0</ele>
        <time>2016-03-13T13:40:51Z</time>
      </trkpt>
      <trkpt lat="40.309433" lon="-4.780750">
        <ele>1281.0</ele>
        <time>2016-03-13T13:40:52Z</time>
      </trkpt>
      <trkpt lat="40.309483" lon="-4.780667">
        <ele>1280.0</ele>
        <time>2016-03-13T13:40:53Z</time>
      </trkpt>
      <trkpt lat="40.309517" lon="-4.780550">
        <ele>1279.0</ele>
        <time>2016-03-13T13:40:54Z</time>
      </trkpt>
      <trkpt lat="40.309550" lon="-4.780450">
        <ele>1277.0</ele>
        <time>2016-03-13T13:40:55Z</time>
      </trkpt>
      <trkpt lat="40.309567" lon="-4.780317">
        <ele>1275.0</ele>
        <time>2016-03-13T13:40:56Z</time>
      </trkpt>
      <trkpt lat="40.309583" lon="-4.780183">
        <ele>1273.0</ele>
        <time>2016-03-13T13:40:57Z</time>
      </trkpt>
      <trkpt lat="40.309617" lon="-4.780050">
        <ele>1271.0</ele>
        <time>2016-03-13T13:40:58Z</time>
      </trkpt>
      <trkpt lat="40.309667" lon="-4.779933">
        <ele>1270.0</ele>
        <time>2016-03-13T13:40:59Z</time>
      </trkpt>
      <trkpt lat="40.309717" lon="-4.779800">
        <ele>1268.0</ele>
        <time>2016-03-13T13:41:00Z</time>
      </trkpt>
      <trkpt lat="40.309750" lon="-4.779667">
        <ele>1266.0</ele>
        <time>2016-03-13T13:41:01Z</time>
      </trkpt>
      <trkpt lat="40.309817" lon="-4.779550">
        <ele>1264.0</ele>
        <time>2016-03-13T13:41:02Z</time>
      </trkpt>
      <trkpt lat="40.309867" lon="-4.779417">
        <ele>1261.0</ele>
        <time>2016-03-13T13:41:03Z</time>
      </trkpt>
      <trkpt lat="40.309917" lon="-4.779300">
        <ele>1258.0</ele>
        <time>2016-03-13T13:41:04Z</time>
      </trkpt>
      <trkpt lat="40.309983" lon="-4.779167">
        <ele>1255.0</ele>
        <time>2016-03-13T13:41:05Z</time>
      </trkpt>
      <trkpt lat="40.310033" lon="-4.779033">
        <ele>1251.0</ele>
        <time>2016-03-13T13:41:06Z</time>
      </trkpt>
      <trkpt lat="40.310100" lon="-4.778900">
        <ele>1249.0</ele>
        <time>2016-03-13T13:41:07Z</time>
      </trkpt>
      <trkpt lat="40.310167" lon="-4.778783">
        <ele>1246.0</ele>
        <time>2016-03-13T13:41:08Z</time>
      </trkpt>
      <trkpt lat="40.310233" lon="-4.778667">
        <ele>1243.0</ele>
        <time>2016-03-13T13:41:09Z</time>
      </trkpt>
      <trkpt lat="40.310317" lon="-4.778533">
        <ele>1240.0</ele>
        <time>2016-03-13T13:41:10Z</time>
      </trkpt>
      <trkpt lat="40.310383" lon="-4.778400">
        <ele>1236.0</ele>
        <time>2016-03-13T13:41:11Z</time>
      </trkpt>
      <trkpt lat="40.310450" lon="-4.778250">
        <ele>1233.0</ele>
        <time>2016-03-13T13:41:12Z</time>
      </trkpt>
      <trkpt lat="40.310500" lon="-4.778100">
        <ele>1231.0</ele>
        <time>2016-03-13T13:41:13Z</time>
      </trkpt>
      <trkpt lat="40.310550" lon="-4.777950">
        <ele>1230.0</ele>
        <time>2016-03-13T13:41:14Z</time>
      </trkpt>
      <trkpt lat="40.310633" lon="-4.777817">
        <ele>1230.0</ele>
        <time>2016-03-13T13:41:15Z</time>
      </trkpt>
      <trkpt lat="40.310700" lon="-4.777700">
        <ele>1231.0</ele>
        <time>2016-03-13T13:41:16Z</time>
      </trkpt>
      <trkpt lat="40.310783" lon="-4.777583">
        <ele>1232.0</ele>
        <time>2016-03-13T13:41:17Z</time>
      </trkpt>
      <trkpt lat="40.310850" lon="-4.777483">
        <ele>1233.0</ele>
        <time>2016-03-13T13:41:18Z</time>
      </trkpt>
      <trkpt lat="40.310900" lon="-4.777350">
        <ele>1233.0</ele>
        <time>2016-03-13T13:41:19Z</time>
      </trkpt>
      <trkpt lat="40.310933" lon="-4.777233">
        <ele>1233.0</ele>
        <time>2016-03-13T13:41:20Z</time>
      </trkpt>
      <trkpt lat="40.310967" lon="-4.777117">
        <ele>1231.0</ele>
        <time>2016-03-13T13:41:21Z</time>
      </trkpt>
      <trkpt lat="40.311000" lon="-4.777000">
        <ele>1230.0</ele>
        <time>2016-03-13T13:41:22Z</time>
      </trkpt>
      <trkpt lat="40.311033" lon="-4.776867">
        <ele>1228.0</ele>
        <time>2016-03-13T13:41:23Z</time>
      </trkpt>
      <trkpt lat="40.311067" lon="-4.776750">
        <ele>1226.0</ele>
        <time>2016-03-13T13:41:24Z</time>
      </trkpt>
      <trkpt lat="40.311133" lon="-4.776650">
        <ele>1223.0</ele>
        <time>2016-03-13T13:41:25Z</time>
      </trkpt>
      <trkpt lat="40.311200" lon="-4.776533">
        <ele>1221.0</ele>
        <time>2016-03-13T13:41:26Z</time>
      </trkpt>
      <trkpt lat="40.311267" lon="-4.776433">
        <ele>1219.0</ele>
        <time>2016-03-13T13:41:27Z</time>
      </trkpt>
      <trkpt lat="40.311333" lon="-4.776333">
        <ele>1218.0</ele>
        <time>2016-03-13T13:41:28Z</time>
      </trkpt>
      <trkpt lat="40.311383" lon="-4.776233">
        <ele>1217.0</ele>
        <time>2016-03-13T13:41:29Z</time>
      </trkpt>
      <trkpt lat="40.311450" lon="-4.776133">
        <ele>1215.0</ele>
        <time>2016-03-13T13:41:30Z</time>
      </trkpt>
      <trkpt lat="40.311500" lon="-4.776050">
        <ele>1213.0</ele>
        <time>2016-03-13T13:41:31Z</time>
      </trkpt>
      <trkpt lat="40.311567" lon="-4.775933">
        <ele>1210.0</ele>
        <time>2016-03-13T13:41:32Z</time>
      </trkpt>
      <trkpt lat="40.311633" lon="-4.775833">
        <ele>1207.0</ele>
        <time>2016-03-13T13:41:33Z</time>
      </trkpt>
      <trkpt lat="40.311700" lon="-4.775717">
        <ele>1205.0</ele>
        <time>2016-03-13T13:41:34Z</time>
      </trkpt>
      <trkpt lat="40.311750" lon="-4.775600">
        <ele>1203.0</ele>
        <time>2016-03-13T13:41:35Z</time>
      </trkpt>
      <trkpt lat="40.311817" lon="-4.775483">
        <ele>1201.0</ele>
        <time>2016-03-13T13:41:36Z</time>
      </trkpt>
      <trkpt lat="40.311867" lon="-4.775383">
        <ele>1199.0</ele>
        <time>2016-03-13T13:41:37Z</time>
      </trkpt>
      <trkpt lat="40.311933" lon="-4.775283">
        <ele>1197.0</ele>
        <time>2016-03-13T13:41:38Z</time>
      </trkpt>
      <trkpt lat="40.312000" lon="-4.775167">
        <ele>1195.0</ele>
        <time>2016-03-13T13:41:39Z</time>
      </trkpt>
      <trkpt lat="40.312050" lon="-4.775050">
        <ele>1192.0</ele>
        <time>2016-03-13T13:41:40Z</time>
      </trkpt>
      <trkpt lat="40.312100" lon="-4.774933">
        <ele>1190.0</ele>
        <time>2016-03-13T13:41:41Z</time>
      </trkpt>
      <trkpt lat="40.312167" lon="-4.774817">
        <ele>1187.0</ele>
        <time>2016-03-13T13:41:42Z</time>
      </trkpt>
      <trkpt lat="40.312233" lon="-4.774700">
        <ele>1185.0</ele>
        <time>2016-03-13T13:41:43Z</time>
      </trkpt>
      <trkpt lat="40.312300" lon="-4.774583">
        <ele>1184.0</ele>
        <time>2016-03-13T13:41:44Z</time>
      </trkpt>
      <trkpt lat="40.312367" lon="-4.774483">
        <ele>1182.0</ele>
        <time>2016-03-13T13:41:45Z</time>
      </trkpt>
      <trkpt lat="40.312417" lon="-4.774367">
        <ele>1180.0</ele>
        <time>2016-03-13T13:41:46Z</time>
      </trkpt>
      <trkpt lat="40.312483" lon="-4.774233">
        <ele>1177.0</ele>
        <time>2016-03-13T13:41:47Z</time>
      </trkpt>
      <trkpt lat="40.312533" lon="-4.774117">
        <ele>1174.0</ele>
        <time>2016-03-13T13:41:48Z</time>
      </trkpt>
      <trkpt lat="40.312600" lon="-4.773983">
        <ele>1172.0</ele>
        <time>2016-03-13T13:41:49Z</time>
      </trkpt>
      <trkpt lat="40.312667" lon="-4.773850">
        <ele>1170.0</ele>
        <time>2016-03-13T13:41:50Z</time>
      </trkpt>
      <trkpt lat="40.312717" lon="-4.773733">
        <ele>1168.0</ele>
        <time>2016-03-13T13:41:51Z</time>
      </trkpt>
      <trkpt lat="40.312767" lon="-4.773600">
        <ele>1166.0</ele>
        <time>2016-03-13T13:41:52Z</time>
      </trkpt>
      <trkpt lat="40.312833" lon="-4.773467">
        <ele>1164.0</ele>
        <time>2016-03-13T13:41:53Z</time>
      </trkpt>
      <trkpt lat="40.312883" lon="-4.773350">
        <ele>1162.0</ele>
        <time>2016-03-13T13:41:54Z</time>
      </trkpt>
      <trkpt lat="40.312933" lon="-4.773233">
        <ele>1161.0</ele>
        <time>2016-03-13T13:41:55Z</time>
      </trkpt>
      <trkpt lat="40.313000" lon="-4.773100">
        <ele>1160.0</ele>
        <time>2016-03-13T13:41:56Z</time>
      </trkpt>
      <trkpt lat="40.313050" lon="-4.772983">
        <ele>1159.0</ele>
        <time>2016-03-13T13:41:57Z</time>
      </trkpt>
      <trkpt lat="40.313100" lon="-4.772883">
        <ele>1158.0</ele>
        <time>2016-03-13T13:41:58Z</time>
      </trkpt>
      <trkpt lat="40.313167" lon="-4.772783">
        <ele>1157.0</ele>
        <time>2016-03-13T13:41:59Z</time>
      </trkpt>
      <trkpt lat="40.313233" lon="-4.772667">
        <ele>1155.0</ele>
        <time>2016-03-13T13:42:00Z</time>
      </trkpt>
      <trkpt lat="40.313317" lon="-4.772550">
        <ele>1153.0</ele>
        <time>2016-03-13T13:42:01Z</time>
      </trkpt>
      <trkpt lat="40.313400" lon="-4.772433">
        <ele>1151.0</ele>
        <time>2016-03-13T13:42:02Z</time>
      </trkpt>
      <trkpt lat="40.313483" lon="-4.772300">
        <ele>1150.0</ele>
        <time>2016-03-13T13:42:03Z</time>
      </trkpt>
      <trkpt lat="40.313567" lon="-4.772183">
        <ele>1149.0</ele>
        <time>2016-03-13T13:42:04Z</time>
      </trkpt>
      <trkpt lat="40.313650" lon="-4.772067">
        <ele>1148.0</ele>
        <time>2016-03-13T13:42:05Z</time>
      </trkpt>
      <trkpt lat="40.313733" lon="-4.771967">
        <ele>1148.0</ele>
        <time>2016-03-13T13:42:06Z</time>
      </trkpt>
      <trkpt lat="40.313800" lon="-4.771850">
        <ele>1146.0</ele>
        <time>2016-03-13T13:42:07Z</time>
      </trkpt>
      <trkpt lat="40.313883" lon="-4.771750">
        <ele>1144.0</ele>
        <time>2016-03-13T13:42:08Z</time>
      </trkpt>
      <trkpt lat="40.313983" lon="-4.771617">
        <ele>1142.0</ele>
        <time>2016-03-13T13:42:09Z</time>
      </trkpt>
      <trkpt lat="40.314067" lon="-4.771500">
        <ele>1140.0</ele>
        <time>2016-03-13T13:42:10Z</time>
      </trkpt>
      <trkpt lat="40.314133" lon="-4.771367">
        <ele>1140.0</ele>
        <time>2016-03-13T13:42:11Z</time>
      </trkpt>
      <trkpt lat="40.314183" lon="-4.771233">
        <ele>1139.0</ele>
        <time>2016-03-13T13:42:12Z</time>
      </trkpt>
      <trkpt lat="40.314250" lon="-4.771100">
        <ele>1138.0</ele>
        <time>2016-03-13T13:42:13Z</time>
      </trkpt>
      <trkpt lat="40.314300" lon="-4.770983">
        <ele>1137.0</ele>
        <time>2016-03-13T13:42:14Z</time>
      </trkpt>
      <trkpt lat="40.314367" lon="-4.770833">
        <ele>1135.0</ele>
        <time>2016-03-13T13:42:15Z</time>
      </trkpt>
      <trkpt lat="40.314433" lon="-4.770700">
        <ele>1134.0</ele>
        <time>2016-03-13T13:42:16Z</time>
      </trkpt>
      <trkpt lat="40.314483" lon="-4.770550">
        <ele>1132.0</ele>
        <time>2016-03-13T13:42:17Z</time>
      </trkpt>
      <trkpt lat="40.314550" lon="-4.770383">
        <ele>1130.0</ele>
        <time>2016-03-13T13:42:18Z</time>
      </trkpt>
      <trkpt lat="40.314600" lon="-4.770233">
        <ele>1130.0</ele>
        <time>2016-03-13T13:42:19Z</time>
      </trkpt>
      <trkpt lat="40.314667" lon="-4.770100">
        <ele>1129.0</ele>
        <time>2016-03-13T13:42:20Z</time>
      </trkpt>
      <trkpt lat="40.314750" lon="-4.769983">
        <ele>1128.0</ele>
        <time>2016-03-13T13:42:21Z</time>
      </trkpt>
      <trkpt lat="40.314817" lon="-4.769850">
        <ele>1127.0</ele>
        <time>2016-03-13T13:42:22Z</time>
      </trkpt>
      <trkpt lat="40.314883" lon="-4.769717">
        <ele>1125.0</ele>
        <time>2016-03-13T13:42:23Z</time>
      </trkpt>
      <trkpt lat="40.314950" lon="-4.769583">
        <ele>1124.0</ele>
        <time>2016-03-13T13:42:24Z</time>
      </trkpt>
      <trkpt lat="40.315033" lon="-4.769450">
        <ele>1124.0</ele>
        <time>2016-03-13T13:42:25Z</time>
      </trkpt>
      <trkpt lat="40.315117" lon="-4.769333">
        <ele>1124.0</ele>
        <time>2016-03-13T13:42:26Z</time>
      </trkpt>
      <trkpt lat="40.315200" lon="-4.769233">
        <ele>1125.0</ele>
        <time>2016-03-13T13:42:27Z</time>
      </trkpt>
      <trkpt lat="40.315267" lon="-4.769150">
        <ele>1125.0</ele>
        <time>2016-03-13T13:42:28Z</time>
      </trkpt>
      <trkpt lat="40.315350" lon="-4.769067">
        <ele>1124.0</ele>
        <time>2016-03-13T13:42:29Z</time>
      </trkpt>
      <trkpt lat="40.315433" lon="-4.768967">
        <ele>1124.0</ele>
        <time>2016-03-13T13:42:30Z</time>
      </trkpt>
      <trkpt lat="40.315517" lon="-4.768850">
        <ele>1123.0</ele>
        <time>2016-03-13T13:42:31Z</time>
      </trkpt>
      <trkpt lat="40.315583" lon="-4.768750">
        <ele>1124.0</ele>
        <time>2016-03-13T13:42:32Z</time>
      </trkpt>
      <trkpt lat="40.315667" lon="-4.768633">
        <ele>1125.0</ele>
        <time>2016-03-13T13:42:33Z</time>
      </trkpt>
      <trkpt lat="40.315750" lon="-4.768533">
        <ele>1126.0</ele>
        <time>2016-03-13T13:42:34Z</time>
      </trkpt>
      <trkpt lat="40.315833" lon="-4.768433">
        <ele>1127.0</ele>
        <time>2016-03-13T13:42:35Z</time>
      </trkpt>
      <trkpt lat="40.315917" lon="-4.768333">
        <ele>1128.0</ele>
        <time>2016-03-13T13:42:36Z</time>
      </trkpt>
      <trkpt lat="40.315983" lon="-4.768233">
        <ele>1130.0</ele>
        <time>2016-03-13T13:42:37Z</time>
      </trkpt>
      <trkpt lat="40.316033" lon="-4.768133">
        <ele>1130.0</ele>
        <time>2016-03-13T13:42:38Z</time>
      </trkpt>
      <trkpt lat="40.316033" lon="-4.768017">
        <ele>1130.0</ele>
        <time>2016-03-13T13:42:39Z</time>
      </trkpt>
      <trkpt lat="40.316000" lon="-4.767917">
        <ele>1130.0</ele>
        <time>2016-03-13T13:42:40Z</time>
      </trkpt>
      <trkpt lat="40.315950" lon="-4.767867">
        <ele>1130.0</ele>
        <time>2016-03-13T13:42:41Z</time>
      </trkpt>
      <trkpt lat="40.315900" lon="-4.767850">
        <ele>1130.0</ele>
        <time>2016-03-13T13:42:42Z</time>
      </trkpt>
      <trkpt lat="40.315833" lon="-4.767900">
        <ele>1130.0</ele>
        <time>2016-03-13T13:42:43Z</time>
      </trkpt>
      <trkpt lat="40.315783" lon="-4.767983">
        <ele>1130.0</ele>
        <time>2016-03-13T13:42:44Z</time>
      </trkpt>
      <trkpt lat="40.315783" lon="-4.768100">
        <ele>1130.0</ele>
        <time>2016-03-13T13:42:45Z</time>
      </trkpt>
      <trkpt lat="40.315800" lon="-4.768233">
        <ele>1130.0</ele>
        <time>2016-03-13T13:42:46Z</time>
      </trkpt>
      <trkpt lat="40.315867" lon="-4.768333">
        <ele>1131.0</ele>
        <time>2016-03-13T13:42:47Z</time>
      </trkpt>
      <trkpt lat="40.315950" lon="-4.768400">
        <ele>1132.0</ele>
        <time>2016-03-13T13:42:48Z</time>
      </trkpt>
      <trkpt lat="40.316050" lon="-4.768417">
        <ele>1132.0</ele>
        <time>2016-03-13T13:42:49Z</time>
      </trkpt>
      <trkpt lat="40.316150" lon="-4.768417">
        <ele>1132.0</ele>
        <time>2016-03-13T13:42:50Z</time>
      </trkpt>
      <trkpt lat="40.316267" lon="-4.768367">
        <ele>1132.0</ele>
        <time>2016-03-13T13:42:51Z</time>
      </trkpt>
      <trkpt lat="40.316383" lon="-4.768300">
        <ele>1133.0</ele>
        <time>2016-03-13T13:42:52Z</time>
      </trkpt>
      <trkpt lat="40.316467" lon="-4.768200">
        <ele>1134.0</ele>
        <time>2016-03-13T13:42:53Z</time>
      </trkpt>
      <trkpt lat="40.316517" lon="-4.768100">
        <ele>1135.0</ele>
        <time>2016-03-13T13:42:54Z</time>
      </trkpt>
      <trkpt lat="40.316567" lon="-4.767983">
        <ele>1136.0</ele>
        <time>2016-03-13T13:42:55Z</time>
      </trkpt>
      <trkpt lat="40.316583" lon="-4.767883">
        <ele>1136.0</ele>
        <time>2016-03-13T13:42:56Z</time>
      </trkpt>
      <trkpt lat="40.316600" lon="-4.767783">
        <ele>1136.0</ele>
        <time>2016-03-13T13:42:57Z</time>
      </trkpt>
      <trkpt lat="40.316583" lon="-4.767683">
        <ele>1135.0</ele>
        <time>2016-03-13T13:42:58Z</time>
      </trkpt>
      <trkpt lat="40.316550" lon="-4.767617">
        <ele>1135.0</ele>
        <time>2016-03-13T13:42:59Z</time>
      </trkpt>
      <trkpt lat="40.316483" lon="-4.767600">
        <ele>1135.0</ele>
        <time>2016-03-13T13:43:00Z</time>
      </trkpt>
      <trkpt lat="40.316433" lon="-4.767633">
        <ele>1135.0</ele>
        <time>2016-03-13T13:43:01Z</time>
      </trkpt>
      <trkpt lat="40.316383" lon="-4.767700">
        <ele>1136.0</ele>
        <time>2016-03-13T13:43:02Z</time>
      </trkpt>
      <trkpt lat="40.316333" lon="-4.767767">
        <ele>1137.0</ele>
        <time>2016-03-13T13:43:03Z</time>
      </trkpt>
      <trkpt lat="40.316283" lon="-4.767800">
        <ele>1138.0</ele>
        <time>2016-03-13T13:43:04Z</time>
      </trkpt>
      <trkpt lat="40.316217" lon="-4.767833">
        <ele>1139.0</ele>
        <time>2016-03-13T13:43:05Z</time>
      </trkpt>
      <trkpt lat="40.316150" lon="-4.767850">
        <ele>1139.0</ele>
        <time>2016-03-13T13:43:06Z</time>
      </trkpt>
      <trkpt lat="40.316083" lon="-4.767883">
        <ele>1140.0</ele>
        <time>2016-03-13T13:43:07Z</time>
      </trkpt>
      <trkpt lat="40.316033" lon="-4.767950">
        <ele>1140.0</ele>
        <time>2016-03-13T13:43:08Z</time>
      </trkpt>
      <trkpt lat="40.315967" lon="-4.768017">
        <ele>1140.0</ele>
        <time>2016-03-13T13:43:09Z</time>
      </trkpt>
      <trkpt lat="40.315883" lon="-4.768050">
        <ele>1141.0</ele>
        <time>2016-03-13T13:43:10Z</time>
      </trkpt>
      <trkpt lat="40.315817" lon="-4.768033">
        <ele>1141.0</ele>
        <time>2016-03-13T13:43:11Z</time>
      </trkpt>
      <trkpt lat="40.315750" lon="-4.767950">
        <ele>1141.0</ele>
        <time>2016-03-13T13:43:12Z</time>
      </trkpt>
      <trkpt lat="40.315750" lon="-4.767833">
        <ele>1139.0</ele>
        <time>2016-03-13T13:43:13Z</time>
      </trkpt>
      <trkpt lat="40.315783" lon="-4.767717">
        <ele>1138.0</ele>
        <time>2016-03-13T13:43:14Z</time>
      </trkpt>
      <trkpt lat="40.315850" lon="-4.767600">
        <ele>1137.0</ele>
        <time>2016-03-13T13:43:15Z</time>
      </trkpt>
      <trkpt lat="40.315967" lon="-4.767517">
        <ele>1136.0</ele>
        <time>2016-03-13T13:43:16Z</time>
      </trkpt>
      <trkpt lat="40.316083" lon="-4.767483">
        <ele>1136.0</ele>
        <time>2016-03-13T13:43:17Z</time>
      </trkpt>
      <trkpt lat="40.316217" lon="-4.767500">
        <ele>1137.0</ele>
        <time>2016-03-13T13:43:18Z</time>
      </trkpt>
      <trkpt lat="40.316317" lon="-4.767550">
        <ele>1139.0</ele>
        <time>2016-03-13T13:43:19Z</time>
      </trkpt>
      <trkpt lat="40.316400" lon="-4.767650">
        <ele>1140.0</ele>
        <time>2016-03-13T13:43:20Z</time>
      </trkpt>
      <trkpt lat="40.316433" lon="-4.767767">
        <ele>1140.0</ele>
        <time>2016-03-13T13:43:21Z</time>
      </trkpt>
      <trkpt lat="40.316450" lon="-4.767900">
        <ele>1139.0</ele>
        <time>2016-03-13T13:43:22Z</time>
      </trkpt>
      <trkpt lat="40.316417" lon="-4.768017">
        <ele>1139.0</ele>
        <time>2016-03-13T13:43:23Z</time>
      </trkpt>
      <trkpt lat="40.316367" lon="-4.768117">
        <ele>1140.0</ele>
        <time>2016-03-13T13:43:24Z</time>
      </trkpt>
      <trkpt lat="40.316317" lon="-4.768200">
        <ele>1141.0</ele>
        <time>2016-03-13T13:43:25Z</time>
      </trkpt>
      <trkpt lat="40.316300" lon="-4.768283">
        <ele>1142.0</ele>
        <time>2016-03-13T13:43:26Z</time>
      </trkpt>
      <trkpt lat="40.316283" lon="-4.768367">
        <ele>1143.0</ele>
        <time>2016-03-13T13:43:27Z</time>
      </trkpt>
      <trkpt lat="40.316267" lon="-4.768467">
        <ele>1142.0</ele>
        <time>2016-03-13T13:43:28Z</time>
      </trkpt>
      <trkpt lat="40.316233" lon="-4.768533">
        <ele>1142.0</ele>
        <time>2016-03-13T13:43:29Z</time>
      </trkpt>
      <trkpt lat="40.316183" lon="-4.768583">
        <ele>1140.0</ele>
        <time>2016-03-13T13:43:30Z</time>
      </trkpt>
      <trkpt lat="40.316100" lon="-4.768567">
        <ele>1137.0</ele>
        <time>2016-03-13T13:43:31Z</time>
      </trkpt>
      <trkpt lat="40.316033" lon="-4.768483">
        <ele>1134.0</ele>
        <time>2016-03-13T13:43:32Z</time>
      </trkpt>
      <trkpt lat="40.315967" lon="-4.768383">
        <ele>1133.0</ele>
        <time>2016-03-13T13:43:33Z</time>
      </trkpt>
      <trkpt lat="40.315933" lon="-4.768250">
        <ele>1133.0</ele>
        <time>2016-03-13T13:43:34Z</time>
      </trkpt>
      <trkpt lat="40.315950" lon="-4.768133">
        <ele>1133.0</ele>
        <time>2016-03-13T13:43:35Z</time>
      </trkpt>
      <trkpt lat="40.315983" lon="-4.768000">
        <ele>1132.0</ele>
        <time>2016-03-13T13:43:36Z</time>
      </trkpt>
      <trkpt lat="40.316050" lon="-4.767883">
        <ele>1130.0</ele>
        <time>2016-03-13T13:43:37Z</time>
      </trkpt>
      <trkpt lat="40.316133" lon="-4.767783">
        <ele>1129.0</ele>
        <time>2016-03-13T13:43:38Z</time>
      </trkpt>
      <trkpt lat="40.316250" lon="-4.767683">
        <ele>1127.0</ele>
        <time>2016-03-13T13:43:39Z</time>
      </trkpt>
      <trkpt lat="40.316333" lon="-4.767600">
        <ele>1127.0</ele>
        <time>2016-03-13T13:43:40Z</time>
      </trkpt>
      <trkpt lat="40.316417" lon="-4.767483">
        <ele>1126.0</ele>
        <time>2016-03-13T13:43:41Z</time>
      </trkpt>
      <trkpt lat="40.316483" lon="-4.767367">
        <ele>1124.0</ele>
        <time>2016-03-13T13:43:42Z</time>
      </trkpt>
      <trkpt lat="40.316550" lon="-4.767250">
        <ele>1124.0</ele>
        <time>2016-03-13T13:43:43Z</time>
      </trkpt>
      <trkpt lat="40.316617" lon="-4.767117">
        <ele>1124.0</ele>
        <time>2016-03-13T13:43:44Z</time>
      </trkpt>
      <trkpt lat="40.316683" lon="-4.766983">
        <ele>1124.0</ele>
        <time>2016-03-13T13:43:45Z</time>
      </trkpt>
      <trkpt lat="40.316767" lon="-4.766867">
        <ele>1125.0</ele>
        <time>2016-03-13T13:43:46Z</time>
      </trkpt>
      <trkpt lat="40.316833" lon="-4.766733">
        <ele>1126.0</ele>
        <time>2016-03-13T13:43:47Z</time>
      </trkpt>
      <trkpt lat="40.316900" lon="-4.766600">
        <ele>1127.0</ele>
        <time>2016-03-13T13:43:48Z</time>
      </trkpt>
      <trkpt lat="40.316950" lon="-4.766467">
        <ele>1128.0</ele>
        <time>2016-03-13T13:43:49Z</time>
      </trkpt>
      <trkpt lat="40.317017" lon="-4.766317">
        <ele>1129.0</ele>
        <time>2016-03-13T13:43:50Z</time>
      </trkpt>
      <trkpt lat="40.317083" lon="-4.766183">
        <ele>1130.0</ele>
        <time>2016-03-13T13:43:51Z</time>
      </trkpt>
      <trkpt lat="40.317150" lon="-4.766050">
        <ele>1131.0</ele>
        <time>2016-03-13T13:43:52Z</time>
      </trkpt>
      <trkpt lat="40.317217" lon="-4.765917">
        <ele>1133.0</ele>
        <time>2016-03-13T13:43:53Z</time>
      </trkpt>
      <trkpt lat="40.317267" lon="-4.765800">
        <ele>1135.0</ele>
        <time>2016-03-13T13:43:54Z</time>
      </trkpt>
      <trkpt lat="40.317300" lon="-4.765667">
        <ele>1136.0</ele>
        <time>2016-03-13T13:43:55Z</time>
      </trkpt>
      <trkpt lat="40.317317" lon="-4.765550">
        <ele>1135.0</ele>
        <time>2016-03-13T13:43:56Z</time>
      </trkpt>
      <trkpt lat="40.317300" lon="-4.765450">
        <ele>1133.0</ele>
        <time>2016-03-13T13:43:57Z</time>
      </trkpt>
      <trkpt lat="40.317250" lon="-4.765367">
        <ele>1132.0</ele>
        <time>2016-03-13T13:43:58Z</time>
      </trkpt>
      <trkpt lat="40.317167" lon="-4.765317">
        <ele>1130.0</ele>
        <time>2016-03-13T13:43:59Z</time>
      </trkpt>
      <trkpt lat="40.317100" lon="-4.765317">
        <ele>1129.0</ele>
        <time>2016-03-13T13:44:00Z</time>
      </trkpt>
      <trkpt lat="40.317033" lon="-4.765367">
        <ele>1128.0</ele>
        <time>2016-03-13T13:44:01Z</time>
      </trkpt>
      <trkpt lat="40.316967" lon="-4.765450">
        <ele>1129.0</ele>
        <time>2016-03-13T13:44:02Z</time>
      </trkpt>
      <trkpt lat="40.316950" lon="-4.765533">
        <ele>1132.0</ele>
        <time>2016-03-13T13:44:03Z</time>
      </trkpt>
      <trkpt lat="40.316933" lon="-4.765633">
        <ele>1134.0</ele>
        <time>2016-03-13T13:44:04Z</time>
      </trkpt>
      <trkpt lat="40.316950" lon="-4.765700">
        <ele>1136.0</ele>
        <time>2016-03-13T13:44:05Z</time>
      </trkpt>
      <trkpt lat="40.316983" lon="-4.765783">
        <ele>1136.0</ele>
        <time>2016-03-13T13:44:06Z</time>
      </trkpt>
      <trkpt lat="40.317017" lon="-4.765850">
        <ele>1136.0</ele>
        <time>2016-03-13T13:44:07Z</time>
      </trkpt>
      <trkpt lat="40.317083" lon="-4.765950">
        <ele>1136.0</ele>
        <time>2016-03-13T13:44:08Z</time>
      </trkpt>
      <trkpt lat="40.317150" lon="-4.766033">
        <ele>1136.0</ele>
        <time>2016-03-13T13:44:09Z</time>
      </trkpt>
      <trkpt lat="40.317233" lon="-4.766100">
        <ele>1138.0</ele>
        <time>2016-03-13T13:44:10Z</time>
      </trkpt>
      <trkpt lat="40.317333" lon="-4.766150">
        <ele>1139.0</ele>
        <time>2016-03-13T13:44:11Z</time>
      </trkpt>
      <trkpt lat="40.317433" lon="-4.766167">
        <ele>1140.0</ele>
        <time>2016-03-13T13:44:12Z</time>
      </trkpt>
      <trkpt lat="40.317533" lon="-4.766167">
        <ele>1141.0</ele>
        <time>2016-03-13T13:44:13Z</time>
      </trkpt>
      <trkpt lat="40.317617" lon="-4.766133">
        <ele>1142.0</ele>
        <time>2016-03-13T13:44:14Z</time>
      </trkpt>
      <trkpt lat="40.317700" lon="-4.766083">
        <ele>1142.0</ele>
        <time>2016-03-13T13:44:15Z</time>
      </trkpt>
      <trkpt lat="40.317783" lon="-4.766017">
        <ele>1142.0</ele>
        <time>2016-03-13T13:44:16Z</time>
      </trkpt>
      <trkpt lat="40.317850" lon="-4.765933">
        <ele>1143.0</ele>
        <time>2016-03-13T13:44:17Z</time>
      </trkpt>
      <trkpt lat="40.317917" lon="-4.765833">
        <ele>1143.0</ele>
        <time>2016-03-13T13:44:18Z</time>
      </trkpt>
      <trkpt lat="40.317933" lon="-4.765700">
        <ele>1142.0</ele>
        <time>2016-03-13T13:44:19Z</time>
      </trkpt>
      <trkpt lat="40.317917" lon="-4.765583">
        <ele>1142.0</ele>
        <time>2016-03-13T13:44:20Z</time>
      </trkpt>
      <trkpt lat="40.317867" lon="-4.765467">
        <ele>1143.0</ele>
        <time>2016-03-13T13:44:21Z</time>
      </trkpt>
      <trkpt lat="40.317800" lon="-4.765383">
        <ele>1144.0</ele>
        <time>2016-03-13T13:44:22Z</time>
      </trkpt>
      <trkpt lat="40.317750" lon="-4.765317">
        <ele>1143.0</ele>
        <time>2016-03-13T13:44:23Z</time>
      </trkpt>
      <trkpt lat="40.317700" lon="-4.765317">
        <ele>1143.0</ele>
        <time>2016-03-13T13:44:24Z</time>
      </trkpt>
      <trkpt lat="40.317633" lon="-4.765350">
        <ele>1142.0</ele>
        <time>2016-03-13T13:44:25Z</time>
      </trkpt>
      <trkpt lat="40.317583" lon="-4.765417">
        <ele>1142.0</ele>
        <time>2016-03-13T13:44:26Z</time>
      </trkpt>
      <trkpt lat="40.317567" lon="-4.765483">
        <ele>1145.0</ele>
        <time>2016-03-13T13:44:27Z</time>
      </trkpt>
      <trkpt lat="40.317567" lon="-4.765567">
        <ele>1146.0</ele>
        <time>2016-03-13T13:44:28Z</time>
      </trkpt>
      <trkpt lat="40.317567" lon="-4.765650">
        <ele>1148.0</ele>
        <time>2016-03-13T13:44:29Z</time>
      </trkpt>
      <trkpt lat="40.317550" lon="-4.765700">
        <ele>1148.0</ele>
        <time>2016-03-13T13:44:30Z</time>
      </trkpt>
      <trkpt lat="40.317517" lon="-4.765717">
        <ele>1147.0</ele>
        <time>2016-03-13T13:44:31Z</time>
      </trkpt>
      <trkpt lat="40.317450" lon="-4.765700">
        <ele>1147.0</ele>
        <time>2016-03-13T13:44:32Z</time>
      </trkpt>
      <trkpt lat="40.317367" lon="-4.765633">
        <ele>1147.0</ele>
        <time>2016-03-13T13:44:33Z</time>
      </trkpt>
      <trkpt lat="40.317317" lon="-4.765533">
        <ele>1148.0</ele>
        <time>2016-03-13T13:44:34Z</time>
      </trkpt>
      <trkpt lat="40.317317" lon="-4.765400">
        <ele>1149.0</ele>
        <time>2016-03-13T13:44:35Z</time>
      </trkpt>
      <trkpt lat="40.317350" lon="-4.765267">
        <ele>1149.0</ele>
        <time>2016-03-13T13:44:36Z</time>
      </trkpt>
      <trkpt lat="40.317417" lon="-4.765150">
        <ele>1148.0</ele>
        <time>2016-03-13T13:44:37Z</time>
      </trkpt>
      <trkpt lat="40.317483" lon="-4.765017">
        <ele>1147.0</ele>
        <time>2016-03-13T13:44:38Z</time>
      </trkpt>
      <trkpt lat="40.317583" lon="-4.764917">
        <ele>1146.0</ele>
        <time>2016-03-13T13:44:39Z</time>
      </trkpt>
      <trkpt lat="40.317700" lon="-4.764867">
        <ele>1145.0</ele>
        <time>2016-03-13T13:44:40Z</time>
      </trkpt>
      <trkpt lat="40.317833" lon="-4.764833">
        <ele>1142.0</ele>
        <time>2016-03-13T13:44:41Z</time>
      </trkpt>
      <trkpt lat="40.317950" lon="-4.764850">
        <ele>1141.0</ele>
        <time>2016-03-13T13:44:42Z</time>
      </trkpt>
      <trkpt lat="40.318067" lon="-4.764900">
        <ele>1141.0</ele>
        <time>2016-03-13T13:44:43Z</time>
      </trkpt>
      <trkpt lat="40.318167" lon="-4.764983">
        <ele>1141.0</ele>
        <time>2016-03-13T13:44:44Z</time>
      </trkpt>
      <trkpt lat="40.318217" lon="-4.765067">
        <ele>1141.0</ele>
        <time>2016-03-13T13:44:45Z</time>
      </trkpt>
      <trkpt lat="40.318267" lon="-4.765167">
        <ele>1140.0</ele>
        <time>2016-03-13T13:44:46Z</time>
      </trkpt>
      <trkpt lat="40.318267" lon="-4.765267">
        <ele>1139.0</ele>
        <time>2016-03-13T13:44:47Z</time>
      </trkpt>
      <trkpt lat="40.318250" lon="-4.765350">
        <ele>1138.0</ele>
        <time>2016-03-13T13:44:48Z</time>
      </trkpt>
      <trkpt lat="40.318217" lon="-4.765417">
        <ele>1138.0</ele>
        <time>2016-03-13T13:44:49Z</time>
      </trkpt>
      <trkpt lat="40.318167" lon="-4.765450">
        <ele>1138.0</ele>
        <time>2016-03-13T13:44:50Z</time>
      </trkpt>
      <trkpt lat="40.318117" lon="-4.765467">
        <ele>1140.0</ele>
        <time>2016-03-13T13:44:51Z</time>
      </trkpt>
      <trkpt lat="40.318067" lon="-4.765467">
        <ele>1141.0</ele>
        <time>2016-03-13T13:44:52Z</time>
      </trkpt>
      <trkpt lat="40.318033" lon="-4.765467">
        <ele>1142.0</ele>
        <time>2016-03-13T13:44:53Z</time>
      </trkpt>
      <trkpt lat="40.318000" lon="-4.765433">
        <ele>1142.0</ele>
        <time>2016-03-13T13:44:54Z</time>
      </trkpt>
      <trkpt lat="40.317967" lon="-4.765400">
        <ele>1141.0</ele>
        <time>2016-03-13T13:44:55Z</time>
      </trkpt>
      <trkpt lat="40.317933" lon="-4.765350">
        <ele>1141.0</ele>
        <time>2016-03-13T13:44:56Z</time>
      </trkpt>
      <trkpt lat="40.317900" lon="-4.765300">
        <ele>1140.0</ele>
        <time>2016-03-13T13:44:57Z</time>
      </trkpt>
      <trkpt lat="40.317883" lon="-4.765217">
        <ele>1141.0</ele>
        <time>2016-03-13T13:44:58Z</time>
      </trkpt>
      <trkpt lat="40.317850" lon="-4.765133">
        <ele>1140.0</ele>
        <time>2016-03-13T13:44:59Z</time>
      </trkpt>
      <trkpt lat="40.317833" lon="-4.765033">
        <ele>1140.0</ele>
        <time>2016-03-13T13:45:00Z</time>
      </trkpt>
      <trkpt lat="40.317817" lon="-4.764933">
        <ele>1140.0</ele>
        <time>2016-03-13T13:45:01Z</time>
      </trkpt>
      <trkpt lat="40.317800" lon="-4.764833">
        <ele>1140.0</ele>
        <time>2016-03-13T13:45:02Z</time>
      </trkpt>
      <trkpt lat="40.317783" lon="-4.764750">
        <ele>1140.0</ele>
        <time>2016-03-13T13:45:03Z</time>
      </trkpt>
      <trkpt lat="40.317767" lon="-4.764667">
        <ele>1138.0</ele>
        <time>2016-03-13T13:45:04Z</time>
      </trkpt>
      <trkpt lat="40.317750" lon="-4.764567">
        <ele>1136.0</ele>
        <time>2016-03-13T13:45:05Z</time>
      </trkpt>
      <trkpt lat="40.317750" lon="-4.764483">
        <ele>1134.0</ele>
        <time>2016-03-13T13:45:06Z</time>
      </trkpt>
      <trkpt lat="40.317750" lon="-4.764367">
        <ele>1131.0</ele>
        <time>2016-03-13T13:45:07Z</time>
      </trkpt>
      <trkpt lat="40.317750" lon="-4.764267">
        <ele>1129.0</ele>
        <time>2016-03-13T13:45:08Z</time>
      </trkpt>
      <trkpt lat="40.317783" lon="-4.764150">
        <ele>1127.0</ele>
        <time>2016-03-13T13:45:09Z</time>
      </trkpt>
      <trkpt lat="40.317833" lon="-4.764033">
        <ele>1124.0</ele>
        <time>2016-03-13T13:45:10Z</time>
      </trkpt>
      <trkpt lat="40.317883" lon="-4.763917">
        <ele>1121.0</ele>
        <time>2016-03-13T13:45:11Z</time>
      </trkpt>
      <trkpt lat="40.317967" lon="-4.763817">
        <ele>1119.0</ele>
        <time>2016-03-13T13:45:12Z</time>
      </trkpt>
      <trkpt lat="40.318033" lon="-4.763733">
        <ele>1116.0</ele>
        <time>2016-03-13T13:45:13Z</time>
      </trkpt>
      <trkpt lat="40.318117" lon="-4.763633">
        <ele>1113.0</ele>
        <time>2016-03-13T13:45:14Z</time>
      </trkpt>
      <trkpt lat="40.318200" lon="-4.763517">
        <ele>1110.0</ele>
        <time>2016-03-13T13:45:15Z</time>
      </trkpt>
      <trkpt lat="40.318267" lon="-4.763417">
        <ele>1107.0</ele>
        <time>2016-03-13T13:45:16Z</time>
      </trkpt>
      <trkpt lat="40.318333" lon="-4.763300">
        <ele>1104.0</ele>
        <time>2016-03-13T13:45:17Z</time>
      </trkpt>
      <trkpt lat="40.318400" lon="-4.763183">
        <ele>1101.0</ele>
        <time>2016-03-13T13:45:18Z</time>
      </trkpt>
      <trkpt lat="40.318467" lon="-4.763067">
        <ele>1099.0</ele>
        <time>2016-03-13T13:45:19Z</time>
      </trkpt>
      <trkpt lat="40.318517" lon="-4.762950">
        <ele>1096.0</ele>
        <time>2016-03-13T13:45:20Z</time>
      </trkpt>
      <trkpt lat="40.318567" lon="-4.762817">
        <ele>1094.0</ele>
        <time>2016-03-13T13:45:21Z</time>
      </trkpt>
      <trkpt lat="40.318617" lon="-4.762700">
        <ele>1092.0</ele>
        <time>2016-03-13T13:45:22Z</time>
      </trkpt>
      <trkpt lat="40.318650" lon="-4.762567">
        <ele>1090.0</ele>
        <time>2016-03-13T13:45:23Z</time>
      </trkpt>
      <trkpt lat="40.318700" lon="-4.762450">
        <ele>1088.0</ele>
        <time>2016-03-13T13:45:24Z</time>
      </trkpt>
      <trkpt lat="40.318733" lon="-4.762317">
        <ele>1088.0</ele>
        <time>2016-03-13T13:45:25Z</time>
      </trkpt>
      <trkpt lat="40.318767" lon="-4.762183">
        <ele>1089.0</ele>
        <time>2016-03-13T13:45:26Z</time>
      </trkpt>
      <trkpt lat="40.318800" lon="-4.762067">
        <ele>1089.0</ele>
        <time>2016-03-13T13:45:27Z</time>
      </trkpt>
      <trkpt lat="40.318817" lon="-4.761950">
        <ele>1089.0</ele>
        <time>2016-03-13T13:45:28Z</time>
      </trkpt>
      <trkpt lat="40.318850" lon="-4.761833">
        <ele>1089.0</ele>
        <time>2016-03-13T13:45:29Z</time>
      </trkpt>
      <trkpt lat="40.318900" lon="-4.761700">
        <ele>1089.0</ele>
        <time>2016-03-13T13:45:30Z</time>
      </trkpt>
      <trkpt lat="40.318967" lon="-4.761583">
        <ele>1089.0</ele>
        <time>2016-03-13T13:45:31Z</time>
      </trkpt>
      <trkpt lat="40.319050" lon="-4.761483">
        <ele>1090.0</ele>
        <time>2016-03-13T13:45:32Z</time>
      </trkpt>
      <trkpt lat="40.319150" lon="-4.761417">
        <ele>1092.0</ele>
        <time>2016-03-13T13:45:33Z</time>
      </trkpt>
      <trkpt lat="40.319233" lon="-4.761350">
        <ele>1094.0</ele>
        <time>2016-03-13T13:45:34Z</time>
      </trkpt>
      <trkpt lat="40.319333" lon="-4.761300">
        <ele>1096.0</ele>
        <time>2016-03-13T13:45:35Z</time>
      </trkpt>
      <trkpt lat="40.319400" lon="-4.761267">
        <ele>1097.0</ele>
        <time>2016-03-13T13:45:36Z</time>
      </trkpt>
      <trkpt lat="40.319467" lon="-4.761200">
        <ele>1097.0</ele>
        <time>2016-03-13T13:45:37Z</time>
      </trkpt>
      <trkpt lat="40.319533" lon="-4.761117">
        <ele>1095.0</ele>
        <time>2016-03-13T13:45:38Z</time>
      </trkpt>
      <trkpt lat="40.319583" lon="-4.761017">
        <ele>1094.0</ele>
        <time>2016-03-13T13:45:39Z</time>
      </trkpt>
      <trkpt lat="40.319600" lon="-4.760900">
        <ele>1094.0</ele>
        <time>2016-03-13T13:45:40Z</time>
      </trkpt>
      <trkpt lat="40.319583" lon="-4.760817">
        <ele>1094.0</ele>
        <time>2016-03-13T13:45:41Z</time>
      </trkpt>
      <trkpt lat="40.319533" lon="-4.760767">
        <ele>1095.0</ele>
        <time>2016-03-13T13:45:42Z</time>
      </trkpt>
      <trkpt lat="40.319467" lon="-4.760783">
        <ele>1095.0</ele>
        <time>2016-03-13T13:45:43Z</time>
      </trkpt>
      <trkpt lat="40.319400" lon="-4.760850">
        <ele>1095.0</ele>
        <time>2016-03-13T13:45:44Z</time>
      </trkpt>
      <trkpt lat="40.319350" lon="-4.760950">
        <ele>1095.0</ele>
        <time>2016-03-13T13:45:45Z</time>
      </trkpt>
      <trkpt lat="40.319333" lon="-4.761050">
        <ele>1097.0</ele>
        <time>2016-03-13T13:45:46Z</time>
      </trkpt>
      <trkpt lat="40.319333" lon="-4.761150">
        <ele>1097.0</ele>
        <time>2016-03-13T13:45:47Z</time>
      </trkpt>
      <trkpt lat="40.319367" lon="-4.761267">
        <ele>1097.0</ele>
        <time>2016-03-13T13:45:48Z</time>
      </trkpt>
      <trkpt lat="40.319400" lon="-4.761367">
        <ele>1097.0</ele>
        <time>2016-03-13T13:45:49Z</time>
      </trkpt>
      <trkpt lat="40.319467" lon="-4.761467">
        <ele>1097.0</ele>
        <time>2016-03-13T13:45:50Z</time>
      </trkpt>
      <trkpt lat="40.319533" lon="-4.761567">
        <ele>1097.0</ele>
        <time>2016-03-13T13:45:51Z</time>
      </trkpt>
      <trkpt lat="40.319600" lon="-4.761650">
        <ele>1097.0</ele>
        <time>2016-03-13T13:45:52Z</time>
      </trkpt>
      <trkpt lat="40.319667" lon="-4.761750">
        <ele>1097.0</ele>
        <time>2016-03-13T13:45:53Z</time>
      </trkpt>
      <trkpt lat="40.319683" lon="-4.761883">
        <ele>1097.0</ele>
        <time>2016-03-13T13:45:54Z</time>
      </trkpt>
      <trkpt lat="40.319700" lon="-4.762000">
        <ele>1098.0</ele>
        <time>2016-03-13T13:45:55Z</time>
      </trkpt>
      <trkpt lat="40.319683" lon="-4.762117">
        <ele>1101.0</ele>
        <time>2016-03-13T13:45:56Z</time>
      </trkpt>
      <trkpt lat="40.319683" lon="-4.762217">
        <ele>1102.0</ele>
        <time>2016-03-13T13:45:57Z</time>
      </trkpt>
      <trkpt lat="40.319700" lon="-4.762283">
        <ele>1101.0</ele>
        <time>2016-03-13T13:45:58Z</time>
      </trkpt>
      <trkpt lat="40.319717" lon="-4.762367">
        <ele>1100.0</ele>
        <time>2016-03-13T13:45:59Z</time>
      </trkpt>
      <trkpt lat="40.319700" lon="-4.762433">
        <ele>1097.0</ele>
        <time>2016-03-13T13:46:00Z</time>
      </trkpt>
      <trkpt lat="40.319667" lon="-4.762517">
        <ele>1093.0</ele>
        <time>2016-03-13T13:46:01Z</time>
      </trkpt>
      <trkpt lat="40.319583" lon="-4.762550">
        <ele>1090.0</ele>
        <time>2016-03-13T13:46:02Z</time>
      </trkpt>
      <trkpt lat="40.319500" lon="-4.762500">
        <ele>1088.0</ele>
        <time>2016-03-13T13:46:03Z</time>
      </trkpt>
      <trkpt lat="40.319450" lon="-4.762400">
        <ele>1085.0</ele>
        <time>2016-03-13T13:46:04Z</time>
      </trkpt>
      <trkpt lat="40.319417" lon="-4.762267">
        <ele>1083.0</ele>
        <time>2016-03-13T13:46:05Z</time>
      </trkpt>
      <trkpt lat="40.319400" lon="-4.762117">
        <ele>1083.0</ele>
        <time>2016-03-13T13:46:06Z</time>
      </trkpt>
      <trkpt lat="40.319400" lon="-4.762000">
        <ele>1084.0</ele>
        <time>2016-03-13T13:46:07Z</time>
      </trkpt>
      <trkpt lat="40.319383" lon="-4.761867">
        <ele>1085.0</ele>
        <time>2016-03-13T13:46:08Z</time>
      </trkpt>
      <trkpt lat="40.319383" lon="-4.761750">
        <ele>1087.0</ele>
        <time>2016-03-13T13:46:09Z</time>
      </trkpt>
      <trkpt lat="40.319383" lon="-4.761633">
        <ele>1089.0</ele>
        <time>2016-03-13T13:46:10Z</time>
      </trkpt>
      <trkpt lat="40.319400" lon="-4.761533">
        <ele>1091.0</ele>
        <time>2016-03-13T13:46:11Z</time>
      </trkpt>
      <trkpt lat="40.319417" lon="-4.761433">
        <ele>1092.0</ele>
        <time>2016-03-13T13:46:12Z</time>
      </trkpt>
      <trkpt lat="40.319433" lon="-4.761333">
        <ele>1093.0</ele>
        <time>2016-03-13T13:46:13Z</time>
      </trkpt>
      <trkpt lat="40.319400" lon="-4.761267">
        <ele>1093.0</ele>
        <time>2016-03-13T13:46:14Z</time>
      </trkpt>
      <trkpt lat="40.319367" lon="-4.761217">
        <ele>1092.0</ele>
        <time>2016-03-13T13:46:15Z</time>
      </trkpt>
      <trkpt lat="40.319300" lon="-4.761200">
        <ele>1091.0</ele>
        <time>2016-03-13T13:46:16Z</time>
      </trkpt>
      <trkpt lat="40.319250" lon="-4.761167">
        <ele>1091.0</ele>
        <time>2016-03-13T13:46:17Z</time>
      </trkpt>
      <trkpt lat="40.319200" lon="-4.761117">
        <ele>1091.0</ele>
        <time>2016-03-13T13:46:18Z</time>
      </trkpt>
      <trkpt lat="40.319183" lon="-4.761033">
        <ele>1090.0</ele>
        <time>2016-03-13T13:46:19Z</time>
      </trkpt>
      <trkpt lat="40.319167" lon="-4.760917">
        <ele>1090.0</ele>
        <time>2016-03-13T13:46:20Z</time>
      </trkpt>
      <trkpt lat="40.319167" lon="-4.760800">
        <ele>1090.0</ele>
        <time>2016-03-13T13:46:21Z</time>
      </trkpt>
      <trkpt lat="40.319183" lon="-4.760683">
        <ele>1090.0</ele>
        <time>2016-03-13T13:46:22Z</time>
      </trkpt>
      <trkpt lat="40.319200" lon="-4.760583">
        <ele>1091.0</ele>
        <time>2016-03-13T13:46:23Z</time>
      </trkpt>
      <trkpt lat="40.319233" lon="-4.760483">
        <ele>1092.0</ele>
        <time>2016-03-13T13:46:24Z</time>
      </trkpt>
      <trkpt lat="40.319267" lon="-4.760383">
        <ele>1091.0</ele>
        <time>2016-03-13T13:46:25Z</time>
      </trkpt>
      <trkpt lat="40.319300" lon="-4.760267">
        <ele>1091.0</ele>
        <time>2016-03-13T13:46:26Z</time>
      </trkpt>
      <trkpt lat="40.319333" lon="-4.760150">
        <ele>1090.0</ele>
        <time>2016-03-13T13:46:27Z</time>
      </trkpt>
      <trkpt lat="40.319383" lon="-4.760050">
        <ele>1089.0</ele>
        <time>2016-03-13T13:46:28Z</time>
      </trkpt>
      <trkpt lat="40.319417" lon="-4.759933">
        <ele>1089.0</ele>
        <time>2016-03-13T13:46:29Z</time>
      </trkpt>
      <trkpt lat="40.319450" lon="-4.759833">
        <ele>1089.0</ele>
        <time>2016-03-13T13:46:30Z</time>
      </trkpt>
      <trkpt lat="40.319483" lon="-4.759733">
        <ele>1088.0</ele>
        <time>2016-03-13T13:46:31Z</time>
      </trkpt>
      <trkpt lat="40.319517" lon="-4.759633">
        <ele>1088.0</ele>
        <time>2016-03-13T13:46:32Z</time>
      </trkpt>
      <trkpt lat="40.319567" lon="-4.759517">
        <ele>1088.0</ele>
        <time>2016-03-13T13:46:33Z</time>
      </trkpt>
      <trkpt lat="40.319617" lon="-4.759400">
        <ele>1090.0</ele>
        <time>2016-03-13T13:46:34Z</time>
      </trkpt>
      <trkpt lat="40.319683" lon="-4.759267">
        <ele>1091.0</ele>
        <time>2016-03-13T13:46:35Z</time>
      </trkpt>
      <trkpt lat="40.319717" lon="-4.759150">
        <ele>1092.0</ele>
        <time>2016-03-13T13:46:36Z</time>
      </trkpt>
      <trkpt lat="40.319733" lon="-4.759033">
        <ele>1093.0</ele>
        <time>2016-03-13T13:46:37Z</time>
      </trkpt>
      <trkpt lat="40.319717" lon="-4.758950">
        <ele>1094.0</ele>
        <time>2016-03-13T13:46:38Z</time>
      </trkpt>
      <trkpt lat="40.319683" lon="-4.758900">
        <ele>1094.0</ele>
        <time>2016-03-13T13:46:39Z</time>
      </trkpt>
      <trkpt lat="40.319633" lon="-4.758883">
        <ele>1094.0</ele>
        <time>2016-03-13T13:46:40Z</time>
      </trkpt>
      <trkpt lat="40.319583" lon="-4.758933">
        <ele>1093.0</ele>
        <time>2016-03-13T13:46:41Z</time>
      </trkpt>
      <trkpt lat="40.319550" lon="-4.759033">
        <ele>1091.0</ele>
        <time>2016-03-13T13:46:42Z</time>
      </trkpt>
      <trkpt lat="40.319550" lon="-4.759167">
        <ele>1090.0</ele>
        <time>2016-03-13T13:46:43Z</time>
      </trkpt>
      <trkpt lat="40.319617" lon="-4.759317">
        <ele>1091.0</ele>
        <time>2016-03-13T13:46:44Z</time>
      </trkpt>
      <trkpt lat="40.319700" lon="-4.759433">
        <ele>1094.0</ele>
        <time>2016-03-13T13:46:45Z</time>
      </trkpt>
      <trkpt lat="40.319783" lon="-4.759517">
        <ele>1098.0</ele>
        <time>2016-03-13T13:46:46Z</time>
      </trkpt>
      <trkpt lat="40.319883" lon="-4.759567">
        <ele>1101.0</ele>
        <time>2016-03-13T13:46:47Z</time>
      </trkpt>
      <trkpt lat="40.319983" lon="-4.759583">
        <ele>1103.0</ele>
        <time>2016-03-13T13:46:48Z</time>
      </trkpt>
      <trkpt lat="40.320083" lon="-4.759567">
        <ele>1104.0</ele>
        <time>2016-03-13T13:46:49Z</time>
      </trkpt>
      <trkpt lat="40.320183" lon="-4.759533">
        <ele>1105.0</ele>
        <time>2016-03-13T13:46:50Z</time>
      </trkpt>
      <trkpt lat="40.320250" lon="-4.759450">
        <ele>1105.0</ele>
        <time>2016-03-13T13:46:51Z</time>
      </trkpt>
      <trkpt lat="40.320283" lon="-4.759350">
        <ele>1104.0</ele>
        <time>2016-03-13T13:46:52Z</time>
      </trkpt>
      <trkpt lat="40.320283" lon="-4.759267">
        <ele>1104.0</ele>
        <time>2016-03-13T13:46:53Z</time>
      </trkpt>
      <trkpt lat="40.320250" lon="-4.759200">
        <ele>1103.0</ele>
        <time>2016-03-13T13:46:54Z</time>
      </trkpt>
      <trkpt lat="40.320183" lon="-4.759183">
        <ele>1102.0</ele>
        <time>2016-03-13T13:46:55Z</time>
      </trkpt>
      <trkpt lat="40.320100" lon="-4.759217">
        <ele>1101.0</ele>
        <time>2016-03-13T13:46:56Z</time>
      </trkpt>
      <trkpt lat="40.320033" lon="-4.759250">
        <ele>1103.0</ele>
        <time>2016-03-13T13:46:57Z</time>
      </trkpt>
      <trkpt lat="40.319983" lon="-4.759300">
        <ele>1106.0</ele>
        <time>2016-03-13T13:46:58Z</time>
      </trkpt>
      <trkpt lat="40.319917" lon="-4.759317">
        <ele>1108.0</ele>
        <time>2016-03-13T13:46:59Z</time>
      </trkpt>
      <trkpt lat="40.319867" lon="-4.759300">
        <ele>1109.0</ele>
        <time>2016-03-13T13:47:00Z</time>
      </trkpt>
      <trkpt lat="40.319817" lon="-4.759267">
        <ele>1109.0</ele>
        <time>2016-03-13T13:47:01Z</time>
      </trkpt>
      <trkpt lat="40.319767" lon="-4.759200">
        <ele>1109.0</ele>
        <time>2016-03-13T13:47:02Z</time>
      </trkpt>
      <trkpt lat="40.319717" lon="-4.759167">
        <ele>1110.0</ele>
        <time>2016-03-13T13:47:03Z</time>
      </trkpt>
      <trkpt lat="40.319650" lon="-4.759150">
        <ele>1112.0</ele>
        <time>2016-03-13T13:47:04Z</time>
      </trkpt>
      <trkpt lat="40.319600" lon="-4.759183">
        <ele>1113.0</ele>
        <time>2016-03-13T13:47:05Z</time>
      </trkpt>
      <trkpt lat="40.319533" lon="-4.759250">
        <ele>1113.0</ele>
        <time>2016-03-13T13:47:06Z</time>
      </trkpt>
      <trkpt lat="40.319500" lon="-4.759350">
        <ele>1115.0</ele>
        <time>2016-03-13T13:47:07Z</time>
      </trkpt>
      <trkpt lat="40.319483" lon="-4.759467">
        <ele>1116.0</ele>
        <time>2016-03-13T13:47:08Z</time>
      </trkpt>
      <trkpt lat="40.319500" lon="-4.759583">
        <ele>1116.0</ele>
        <time>2016-03-13T13:47:09Z</time>
      </trkpt>
      <trkpt lat="40.319550" lon="-4.759717">
        <ele>1115.0</ele>
        <time>2016-03-13T13:47:10Z</time>
      </trkpt>
      <trkpt lat="40.319633" lon="-4.759833">
        <ele>1113.0</ele>
        <time>2016-03-13T13:47:11Z</time>
      </trkpt>
      <trkpt lat="40.319733" lon="-4.759933">
        <ele>1110.0</ele>
        <time>2016-03-13T13:47:12Z</time>
      </trkpt>
      <trkpt lat="40.319867" lon="-4.760000">
        <ele>1109.0</ele>
        <time>2016-03-13T13:47:13Z</time>
      </trkpt>
      <trkpt lat="40.320017" lon="-4.760017">
        <ele>1108.0</ele>
        <time>2016-03-13T13:47:14Z</time>
      </trkpt>
      <trkpt lat="40.320133" lon="-4.759950">
        <ele>1108.0</ele>
        <time>2016-03-13T13:47:15Z</time>
      </trkpt>
      <trkpt lat="40.320217" lon="-4.759817">
        <ele>1107.0</ele>
        <time>2016-03-13T13:47:16Z</time>
      </trkpt>
      <trkpt lat="40.320267" lon="-4.759683">
        <ele>1108.0</ele>
        <time>2016-03-13T13:47:17Z</time>
      </trkpt>
      <trkpt lat="40.320283" lon="-4.759567">
        <ele>1110.0</ele>
        <time>2016-03-13T13:47:18Z</time>
      </trkpt>
      <trkpt lat="40.320317" lon="-4.759467">
        <ele>1113.0</ele>
        <time>2016-03-13T13:47:19Z</time>
      </trkpt>
      <trkpt lat="40.320333" lon="-4.759383">
        <ele>1116.0</ele>
        <time>2016-03-13T13:47:20Z</time>
      </trkpt>
      <trkpt lat="40.320367" lon="-4.759283">
        <ele>1117.0</ele>
        <time>2016-03-13T13:47:21Z</time>
      </trkpt>
      <trkpt lat="40.320400" lon="-4.759183">
        <ele>1117.0</ele>
        <time>2016-03-13T13:47:22Z</time>
      </trkpt>
      <trkpt lat="40.320417" lon="-4.759083">
        <ele>1117.0</ele>
        <time>2016-03-13T13:47:23Z</time>
      </trkpt>
      <trkpt lat="40.320417" lon="-4.758967">
        <ele>1118.0</ele>
        <time>2016-03-13T13:47:24Z</time>
      </trkpt>
      <trkpt lat="40.320400" lon="-4.758867">
        <ele>1118.0</ele>
        <time>2016-03-13T13:47:25Z</time>
      </trkpt>
      <trkpt lat="40.320350" lon="-4.758817">
        <ele>1117.0</ele>
        <time>2016-03-13T13:47:26Z</time>
      </trkpt>
      <trkpt lat="40.320283" lon="-4.758817">
        <ele>1117.0</ele>
        <time>2016-03-13T13:47:27Z</time>
      </trkpt>
      <trkpt lat="40.320217" lon="-4.758867">
        <ele>1117.0</ele>
        <time>2016-03-13T13:47:28Z</time>
      </trkpt>
      <trkpt lat="40.320183" lon="-4.758967">
        <ele>1119.0</ele>
        <time>2016-03-13T13:47:29Z</time>
      </trkpt>
      <trkpt lat="40.320183" lon="-4.759083">
        <ele>1120.0</ele>
        <time>2016-03-13T13:47:30Z</time>
      </trkpt>
      <trkpt lat="40.320233" lon="-4.759217">
        <ele>1120.0</ele>
        <time>2016-03-13T13:47:31Z</time>
      </trkpt>
      <trkpt lat="40.320317" lon="-4.759333">
        <ele>1120.0</ele>
        <time>2016-03-13T13:47:32Z</time>
      </trkpt>
      <trkpt lat="40.320433" lon="-4.759417">
        <ele>1120.0</ele>
        <time>2016-03-13T13:47:33Z</time>
      </trkpt>
      <trkpt lat="40.320567" lon="-4.759450">
        <ele>1119.0</ele>
        <time>2016-03-13T13:47:34Z</time>
      </trkpt>
      <trkpt lat="40.320700" lon="-4.759433">
        <ele>1120.0</ele>
        <time>2016-03-13T13:47:35Z</time>
      </trkpt>
      <trkpt lat="40.320817" lon="-4.759367">
        <ele>1121.0</ele>
        <time>2016-03-13T13:47:36Z</time>
      </trkpt>
      <trkpt lat="40.320883" lon="-4.759267">
        <ele>1122.0</ele>
        <time>2016-03-13T13:47:37Z</time>
      </trkpt>
      <trkpt lat="40.320917" lon="-4.759150">
        <ele>1123.0</ele>
        <time>2016-03-13T13:47:38Z</time>
      </trkpt>
      <trkpt lat="40.320917" lon="-4.759050">
        <ele>1124.0</ele>
        <time>2016-03-13T13:47:39Z</time>
      </trkpt>
      <trkpt lat="40.320883" lon="-4.758983">
        <ele>1124.0</ele>
        <time>2016-03-13T13:47:40Z</time>
      </trkpt>
      <trkpt lat="40.320850" lon="-4.758933">
        <ele>1124.0</ele>
        <time>2016-03-13T13:47:41Z</time>
      </trkpt>
      <trkpt lat="40.320800" lon="-4.758917">
        <ele>1123.0</ele>
        <time>2016-03-13T13:47:42Z</time>
      </trkpt>
      <trkpt lat="40.320750" lon="-4.758933">
        <ele>1123.0</ele>
        <time>2016-03-13T13:47:43Z</time>
      </trkpt>
      <trkpt lat="40.320683" lon="-4.758967">
        <ele>1122.0</ele>
        <time>2016-03-13T13:47:44Z</time>
      </trkpt>
      <trkpt lat="40.320633" lon="-4.759017">
        <ele>1123.0</ele>
        <time>2016-03-13T13:47:45Z</time>
      </trkpt>
      <trkpt lat="40.320583" lon="-4.759067">
        <ele>1124.0</ele>
        <time>2016-03-13T13:47:46Z</time>
      </trkpt>
      <trkpt lat="40.320550" lon="-4.759117">
        <ele>1124.0</ele>
        <time>2016-03-13T13:47:47Z</time>
      </trkpt>
      <trkpt lat="40.320500" lon="-4.759200">
        <ele>1124.0</ele>
        <time>2016-03-13T13:47:48Z</time>
      </trkpt>
      <trkpt lat="40.320467" lon="-4.759283">
        <ele>1124.0</ele>
        <time>2016-03-13T13:47:49Z</time>
      </trkpt>
      <trkpt lat="40.320433" lon="-4.759400">
        <ele>1125.0</ele>
        <time>2016-03-13T13:47:50Z</time>
      </trkpt>
      <trkpt lat="40.320400" lon="-4.759500">
        <ele>1128.0</ele>
        <time>2016-03-13T13:47:51Z</time>
      </trkpt>
      <trkpt lat="40.320367" lon="-4.759583">
        <ele>1129.0</ele>
        <time>2016-03-13T13:47:52Z</time>
      </trkpt>
      <trkpt lat="40.320350" lon="-4.759667">
        <ele>1129.0</ele>
        <time>2016-03-13T13:47:53Z</time>
      </trkpt>
      <trkpt lat="40.320317" lon="-4.759733">
        <ele>1129.0</ele>
        <time>2016-03-13T13:47:54Z</time>
      </trkpt>
      <trkpt lat="40.320300" lon="-4.759817">
        <ele>1128.0</ele>
        <time>2016-03-13T13:47:55Z</time>
      </trkpt>
      <trkpt lat="40.320267" lon="-4.759900">
        <ele>1127.0</ele>
        <time>2016-03-13T13:47:56Z</time>
      </trkpt>
      <trkpt lat="40.320250" lon="-4.759983">
        <ele>1123.0</ele>
        <time>2016-03-13T13:47:57Z</time>
      </trkpt>
      <trkpt lat="40.320217" lon="-4.760067">
        <ele>1120.0</ele>
        <time>2016-03-13T13:47:58Z</time>
      </trkpt>
      <trkpt lat="40.320150" lon="-4.760117">
        <ele>1116.0</ele>
        <time>2016-03-13T13:47:59Z</time>
      </trkpt>
      <trkpt lat="40.320083" lon="-4.760117">
        <ele>1111.0</ele>
        <time>2016-03-13T13:48:00Z</time>
      </trkpt>
      <trkpt lat="40.320033" lon="-4.760033">
        <ele>1106.0</ele>
        <time>2016-03-13T13:48:01Z</time>
      </trkpt>
      <trkpt lat="40.320000" lon="-4.759900">
        <ele>1103.0</ele>
        <time>2016-03-13T13:48:02Z</time>
      </trkpt>
      <trkpt lat="40.320017" lon="-4.759750">
        <ele>1103.0</ele>
        <time>2016-03-13T13:48:03Z</time>
      </trkpt>
      <trkpt lat="40.320067" lon="-4.759650">
        <ele>1103.0</ele>
        <time>2016-03-13T13:48:04Z</time>
      </trkpt>
      <trkpt lat="40.320133" lon="-4.759567">
        <ele>1102.0</ele>
        <time>2016-03-13T13:48:05Z</time>
      </trkpt>
      <trkpt lat="40.320183" lon="-4.759483">
        <ele>1100.0</ele>
        <time>2016-03-13T13:48:06Z</time>
      </trkpt>
      <trkpt lat="40.320250" lon="-4.759383">
        <ele>1098.0</ele>
        <time>2016-03-13T13:48:07Z</time>
      </trkpt>
      <trkpt lat="40.320317" lon="-4.759267">
        <ele>1096.0</ele>
        <time>2016-03-13T13:48:08Z</time>
      </trkpt>
      <trkpt lat="40.320367" lon="-4.759117">
        <ele>1097.0</ele>
        <time>2016-03-13T13:48:09Z</time>
      </trkpt>
      <trkpt lat="40.320383" lon="-4.758983">
        <ele>1097.0</ele>
        <time>2016-03-13T13:48:10Z</time>
      </trkpt>
      <trkpt lat="40.320383" lon="-4.758867">
        <ele>1099.0</ele>
        <time>2016-03-13T13:48:11Z</time>
      </trkpt>
      <trkpt lat="40.320400" lon="-4.758750">
        <ele>1102.0</ele>
        <time>2016-03-13T13:48:12Z</time>
      </trkpt>
      <trkpt lat="40.320450" lon="-4.758633">
        <ele>1105.0</ele>
        <time>2016-03-13T13:48:13Z</time>
      </trkpt>
      <trkpt lat="40.320500" lon="-4.758517">
        <ele>1106.0</ele>
        <time>2016-03-13T13:48:14Z</time>
      </trkpt>
      <trkpt lat="40.320567" lon="-4.758417">
        <ele>1109.0</ele>
        <time>2016-03-13T13:48:15Z</time>
      </trkpt>
      <trkpt lat="40.320650" lon="-4.758333">
        <ele>1110.0</ele>
        <time>2016-03-13T13:48:16Z</time>
      </trkpt>
      <trkpt lat="40.320767" lon="-4.758283">
        <ele>1112.0</ele>
        <time>2016-03-13T13:48:17Z</time>
      </trkpt>
      <trkpt lat="40.320883" lon="-4.758233">
        <ele>1112.0</ele>
        <time>2016-03-13T13:48:18Z</time>
      </trkpt>
      <trkpt lat="40.321000" lon="-4.758250">
        <ele>1114.0</ele>
        <time>2016-03-13T13:48:19Z</time>
      </trkpt>
      <trkpt lat="40.321100" lon="-4.758300">
        <ele>1113.0</ele>
        <time>2016-03-13T13:48:20Z</time>
      </trkpt>
      <trkpt lat="40.321200" lon="-4.758417">
        <ele>1114.0</ele>
        <time>2016-03-13T13:48:21Z</time>
      </trkpt>
      <trkpt lat="40.321250" lon="-4.758533">
        <ele>1114.0</ele>
        <time>2016-03-13T13:48:22Z</time>
      </trkpt>
      <trkpt lat="40.321283" lon="-4.758667">
        <ele>1116.0</ele>
        <time>2016-03-13T13:48:23Z</time>
      </trkpt>
      <trkpt lat="40.321267" lon="-4.758800">
        <ele>1117.0</ele>
        <time>2016-03-13T13:48:24Z</time>
      </trkpt>
      <trkpt lat="40.321233" lon="-4.758900">
        <ele>1118.0</ele>
        <time>2016-03-13T13:48:25Z</time>
      </trkpt>
      <trkpt lat="40.321183" lon="-4.758950">
        <ele>1120.0</ele>
        <time>2016-03-13T13:48:26Z</time>
      </trkpt>
      <trkpt lat="40.321133" lon="-4.758950">
        <ele>1122.0</ele>
        <time>2016-03-13T13:48:27Z</time>
      </trkpt>
      <trkpt lat="40.321083" lon="-4.758917">
        <ele>1123.0</ele>
        <time>2016-03-13T13:48:28Z</time>
      </trkpt>
      <trkpt lat="40.321050" lon="-4.758833">
        <ele>1124.0</ele>
        <time>2016-03-13T13:48:29Z</time>
      </trkpt>
      <trkpt lat="40.321033" lon="-4.758700">
        <ele>1125.0</ele>
        <time>2016-03-13T13:48:30Z</time>
      </trkpt>
      <trkpt lat="40.321067" lon="-4.758550">
        <ele>1128.0</ele>
        <time>2016-03-13T13:48:31Z</time>
      </trkpt>
      <trkpt lat="40.321117" lon="-4.758433">
        <ele>1132.0</ele>
        <time>2016-03-13T13:48:32Z</time>
      </trkpt>
      <trkpt lat="40.321167" lon="-4.758367">
        <ele>1137.0</ele>
        <time>2016-03-13T13:48:33Z</time>
      </trkpt>
      <trkpt lat="40.321233" lon="-4.758317">
        <ele>1139.0</ele>
        <time>2016-03-13T13:48:34Z</time>
      </trkpt>
      <trkpt lat="40.321283" lon="-4.758267">
        <ele>1139.0</ele>
        <time>2016-03-13T13:48:35Z</time>
      </trkpt>
      <trkpt lat="40.321367" lon="-4.758200">
        <ele>1139.0</ele>
        <time>2016-03-13T13:48:36Z</time>
      </trkpt>
      <trkpt lat="40.321467" lon="-4.758133">
        <ele>1138.0</ele>
        <time>2016-03-13T13:48:37Z</time>
      </trkpt>
      <trkpt lat="40.321550" lon="-4.758033">
        <ele>1137.0</ele>
        <time>2016-03-13T13:48:38Z</time>
      </trkpt>
      <trkpt lat="40.321600" lon="-4.757917">
        <ele>1138.0</ele>
        <time>2016-03-13T13:48:39Z</time>
      </trkpt>
      <trkpt lat="40.321633" lon="-4.757783">
        <ele>1138.0</ele>
        <time>2016-03-13T13:48:40Z</time>
      </trkpt>
      <trkpt lat="40.321600" lon="-4.757700">
        <ele>1138.0</ele>
        <time>2016-03-13T13:48:41Z</time>
      </trkpt>
      <trkpt lat="40.321550" lon="-4.757667">
        <ele>1137.0</ele>
        <time>2016-03-13T13:48:42Z</time>
      </trkpt>
      <trkpt lat="40.321483" lon="-4.757700">
        <ele>1136.0</ele>
        <time>2016-03-13T13:48:43Z</time>
      </trkpt>
      <trkpt lat="40.321417" lon="-4.757783">
        <ele>1136.0</ele>
        <time>2016-03-13T13:48:44Z</time>
      </trkpt>
      <trkpt lat="40.321367" lon="-4.757883">
        <ele>1137.0</ele>
        <time>2016-03-13T13:48:45Z</time>
      </trkpt>
      <trkpt lat="40.321333" lon="-4.757983">
        <ele>1140.0</ele>
        <time>2016-03-13T13:48:46Z</time>
      </trkpt>
      <trkpt lat="40.321300" lon="-4.758050">
        <ele>1142.0</ele>
        <time>2016-03-13T13:48:47Z</time>
      </trkpt>
      <trkpt lat="40.321250" lon="-4.758117">
        <ele>1143.0</ele>
        <time>2016-03-13T13:48:48Z</time>
      </trkpt>
      <trkpt lat="40.321200" lon="-4.758167">
        <ele>1144.0</ele>
        <time>2016-03-13T13:48:49Z</time>
      </trkpt>
      <trkpt lat="40.321133" lon="-4.758233">
        <ele>1144.0</ele>
        <time>2016-03-13T13:48:50Z</time>
      </trkpt>
      <trkpt lat="40.321083" lon="-4.758317">
        <ele>1145.0</ele>
        <time>2016-03-13T13:48:51Z</time>
      </trkpt>
      <trkpt lat="40.321050" lon="-4.758400">
        <ele>1148.0</ele>
        <time>2016-03-13T13:48:52Z</time>
      </trkpt>
      <trkpt lat="40.321033" lon="-4.758500">
        <ele>1151.0</ele>
        <time>2016-03-13T13:48:53Z</time>
      </trkpt>
      <trkpt lat="40.321050" lon="-4.758600">
        <ele>1153.0</ele>
        <time>2016-03-13T13:48:54Z</time>
      </trkpt>
      <trkpt lat="40.321100" lon="-4.758700">
        <ele>1155.0</ele>
        <time>2016-03-13T13:48:55Z</time>
      </trkpt>
      <trkpt lat="40.321150" lon="-4.758767">
        <ele>1157.0</ele>
        <time>2016-03-13T13:48:56Z</time>
      </trkpt>
      <trkpt lat="40.321233" lon="-4.758833">
        <ele>1158.0</ele>
        <time>2016-03-13T13:48:57Z</time>
      </trkpt>
      <trkpt lat="40.321333" lon="-4.758867">
        <ele>1157.0</ele>
        <time>2016-03-13T13:48:58Z</time>
      </trkpt>
      <trkpt lat="40.321450" lon="-4.758883">
        <ele>1155.0</ele>
        <time>2016-03-13T13:48:59Z</time>
      </trkpt>
      <trkpt lat="40.321600" lon="-4.758883">
        <ele>1156.0</ele>
        <time>2016-03-13T13:49:00Z</time>
      </trkpt>
      <trkpt lat="40.321733" lon="-4.758800">
        <ele>1157.0</ele>
        <time>2016-03-13T13:49:01Z</time>
      </trkpt>
      <trkpt lat="40.321783" lon="-4.758667">
        <ele>1158.0</ele>
        <time>2016-03-13T13:49:02Z</time>
      </trkpt>
      <trkpt lat="40.321767" lon="-4.758533">
        <ele>1158.0</ele>
        <time>2016-03-13T13:49:03Z</time>
      </trkpt>
      <trkpt lat="40.321700" lon="-4.758433">
        <ele>1160.0</ele>
        <time>2016-03-13T13:49:04Z</time>
      </trkpt>
      <trkpt lat="40.321633" lon="-4.758367">
        <ele>1164.0</ele>
        <time>2016-03-13T13:49:05Z</time>
      </trkpt>
      <trkpt lat="40.321600" lon="-4.758300">
        <ele>1169.0</ele>
        <time>2016-03-13T13:49:06Z</time>
      </trkpt>
      <trkpt lat="40.321583" lon="-4.758233">
        <ele>1171.0</ele>
        <time>2016-03-13T13:49:07Z</time>
      </trkpt>
      <trkpt lat="40.321583" lon="-4.758150">
        <ele>1171.0</ele>
        <time>2016-03-13T13:49:08Z</time>
      </trkpt>
      <trkpt lat="40.321583" lon="-4.758050">
        <ele>1170.0</ele>
        <time>2016-03-13T13:49:09Z</time>
      </trkpt>
      <trkpt lat="40.321583" lon="-4.757950">
        <ele>1170.0</ele>
        <time>2016-03-13T13:49:10Z</time>
      </trkpt>
      <trkpt lat="40.321600" lon="-4.757817">
        <ele>1169.0</ele>
        <time>2016-03-13T13:49:11Z</time>
      </trkpt>
      <trkpt lat="40.321633" lon="-4.757683">
        <ele>1169.0</ele>
        <time>2016-03-13T13:49:12Z</time>
      </trkpt>
      <trkpt lat="40.321667" lon="-4.757550">
        <ele>1170.0</ele>
        <time>2016-03-13T13:49:13Z</time>
      </trkpt>
      <trkpt lat="40.321667" lon="-4.757450">
        <ele>1171.0</ele>
        <time>2016-03-13T13:49:14Z</time>
      </trkpt>
      <trkpt lat="40.321617" lon="-4.757383">
        <ele>1171.0</ele>
        <time>2016-03-13T13:49:15Z</time>
      </trkpt>
      <trkpt lat="40.321550" lon="-4.757350">
        <ele>1170.0</ele>
        <time>2016-03-13T13:49:16Z</time>
      </trkpt>
      <trkpt lat="40.321483" lon="-4.757350">
        <ele>1170.0</ele>
        <time>2016-03-13T13:49:17Z</time>
      </trkpt>
      <trkpt lat="40.321417" lon="-4.757417">
        <ele>1170.0</ele>
        <time>2016-03-13T13:49:18Z</time>
      </trkpt>
      <trkpt lat="40.321383" lon="-4.757500">
        <ele>1170.0</ele>
        <time>2016-03-13T13:49:19Z</time>
      </trkpt>
      <trkpt lat="40.321417" lon="-4.757633">
        <ele>1170.0</ele>
        <time>2016-03-13T13:49:20Z</time>
      </trkpt>
      <trkpt lat="40.321467" lon="-4.757750">
        <ele>1171.0</ele>
        <time>2016-03-13T13:49:21Z</time>
      </trkpt>
      <trkpt lat="40.321567" lon="-4.757867">
        <ele>1173.0</ele>
        <time>2016-03-13T13:49:22Z</time>
      </trkpt>
      <trkpt lat="40.321683" lon="-4.757933">
        <ele>1175.0</ele>
        <time>2016-03-13T13:49:23Z</time>
      </trkpt>
      <trkpt lat="40.321817" lon="-4.757933">
        <ele>1178.0</ele>
        <time>2016-03-13T13:49:24Z</time>
      </trkpt>
      <trkpt lat="40.321933" lon="-4.757867">
        <ele>1180.0</ele>
        <time>2016-03-13T13:49:25Z</time>
      </trkpt>
      <trkpt lat="40.322017" lon="-4.757767">
        <ele>1180.0</ele>
        <time>2016-03-13T13:49:26Z</time>
      </trkpt>
      <trkpt lat="40.322083" lon="-4.757617">
        <ele>1179.0</ele>
        <time>2016-03-13T13:49:27Z</time>
      </trkpt>
      <trkpt lat="40.322083" lon="-4.757483">
        <ele>1180.0</ele>
        <time>2016-03-13T13:49:28Z</time>
      </trkpt>
      <trkpt lat="40.322033" lon="-4.757400">
        <ele>1181.0</ele>
        <time>2016-03-13T13:49:29Z</time>
      </trkpt>
      <trkpt lat="40.321967" lon="-4.757350">
        <ele>1183.0</ele>
        <time>2016-03-13T13:49:30Z</time>
      </trkpt>
      <trkpt lat="40.321933" lon="-4.757333">
        <ele>1185.0</ele>
        <time>2016-03-13T13:49:31Z</time>
      </trkpt>
      <trkpt lat="40.321900" lon="-4.757333">
        <ele>1186.0</ele>
        <time>2016-03-13T13:49:32Z</time>
      </trkpt>
      <trkpt lat="40.321850" lon="-4.757350">
        <ele>1185.0</ele>
        <time>2016-03-13T13:49:33Z</time>
      </trkpt>
      <trkpt lat="40.321800" lon="-4.757383">
        <ele>1183.0</ele>
        <time>2016-03-13T13:49:34Z</time>
      </trkpt>
      <trkpt lat="40.321750" lon="-4.757467">
        <ele>1183.0</ele>
        <time>2016-03-13T13:49:35Z</time>
      </trkpt>
      <trkpt lat="40.321717" lon="-4.757583">
        <ele>1184.0</ele>
        <time>2016-03-13T13:49:36Z</time>
      </trkpt>
      <trkpt lat="40.321733" lon="-4.757683">
        <ele>1185.0</ele>
        <time>2016-03-13T13:49:37Z</time>
      </trkpt>
      <trkpt lat="40.321767" lon="-4.757800">
        <ele>1185.0</ele>
        <time>2016-03-13T13:49:38Z</time>
      </trkpt>
      <trkpt lat="40.321850" lon="-4.757900">
        <ele>1184.0</ele>
        <time>2016-03-13T13:49:39Z</time>
      </trkpt>
      <trkpt lat="40.321933" lon="-4.758000">
        <ele>1184.0</ele>
        <time>2016-03-13T13:49:40Z</time>
      </trkpt>
      <trkpt lat="40.322017" lon="-4.758100">
        <ele>1185.0</ele>
        <time>2016-03-13T13:49:41Z</time>
      </trkpt>
      <trkpt lat="40.322083" lon="-4.758200">
        <ele>1186.0</ele>
        <time>2016-03-13T13:49:42Z</time>
      </trkpt>
      <trkpt lat="40.322100" lon="-4.758283">
        <ele>1187.0</ele>
        <time>2016-03-13T13:49:43Z</time>
      </trkpt>
      <trkpt lat="40.322100" lon="-4.758350">
        <ele>1186.0</ele>
        <time>2016-03-13T13:49:44Z</time>
      </trkpt>
      <trkpt lat="40.322067" lon="-4.758417">
        <ele>1185.0</ele>
        <time>2016-03-13T13:49:45Z</time>
      </trkpt>
      <trkpt lat="40.322017" lon="-4.758467">
        <ele>1184.0</ele>
        <time>2016-03-13T13:49:46Z</time>
      </trkpt>
      <trkpt lat="40.321967" lon="-4.758517">
        <ele>1184.0</ele>
        <time>2016-03-13T13:49:47Z</time>
      </trkpt>
      <trkpt lat="40.321933" lon="-4.758567">
        <ele>1183.0</ele>
        <time>2016-03-13T13:49:48Z</time>
      </trkpt>
      <trkpt lat="40.321883" lon="-4.758617">
        <ele>1182.0</ele>
        <time>2016-03-13T13:49:49Z</time>
      </trkpt>
      <trkpt lat="40.321850" lon="-4.758683">
        <ele>1181.0</ele>
        <time>2016-03-13T13:49:50Z</time>
      </trkpt>
      <trkpt lat="40.321800" lon="-4.758733">
        <ele>1179.0</ele>
        <time>2016-03-13T13:49:51Z</time>
      </trkpt>
      <trkpt lat="40.321750" lon="-4.758800">
        <ele>1178.0</ele>
        <time>2016-03-13T13:49:52Z</time>
      </trkpt>
      <trkpt lat="40.321683" lon="-4.758867">
        <ele>1176.0</ele>
        <time>2016-03-13T13:49:53Z</time>
      </trkpt>
      <trkpt lat="40.321633" lon="-4.758933">
        <ele>1175.0</ele>
        <time>2016-03-13T13:49:54Z</time>
      </trkpt>
      <trkpt lat="40.321583" lon="-4.758983">
        <ele>1174.0</ele>
        <time>2016-03-13T13:49:55Z</time>
      </trkpt>
      <trkpt lat="40.321517" lon="-4.759033">
        <ele>1172.0</ele>
        <time>2016-03-13T13:49:56Z</time>
      </trkpt>
      <trkpt lat="40.321467" lon="-4.759083">
        <ele>1171.0</ele>
        <time>2016-03-13T13:49:57Z</time>
      </trkpt>
      <trkpt lat="40.321400" lon="-4.759117">
        <ele>1169.0</ele>
        <time>2016-03-13T13:49:58Z</time>
      </trkpt>
      <trkpt lat="40.321333" lon="-4.759150">
        <ele>1167.0</ele>
        <time>2016-03-13T13:49:59Z</time>
      </trkpt>
      <trkpt lat="40.321283" lon="-4.759200">
        <ele>1165.0</ele>
        <time>2016-03-13T13:50:00Z</time>
      </trkpt>
      <trkpt lat="40.321217" lon="-4.759250">
        <ele>1163.0</ele>
        <time>2016-03-13T13:50:01Z</time>
      </trkpt>
      <trkpt lat="40.321167" lon="-4.759300">
        <ele>1161.0</ele>
        <time>2016-03-13T13:50:02Z</time>
      </trkpt>
      <trkpt lat="40.321100" lon="-4.759367">
        <ele>1158.0</ele>
        <time>2016-03-13T13:50:03Z</time>
      </trkpt>
      <trkpt lat="40.321050" lon="-4.759417">
        <ele>1156.0</ele>
        <time>2016-03-13T13:50:04Z</time>
      </trkpt>
      <trkpt lat="40.320983" lon="-4.759500">
        <ele>1153.0</ele>
        <time>2016-03-13T13:50:05Z</time>
      </trkpt>
      <trkpt lat="40.320917" lon="-4.759583">
        <ele>1151.0</ele>
        <time>2016-03-13T13:50:06Z</time>
      </trkpt>
      <trkpt lat="40.320850" lon="-4.759683">
        <ele>1149.0</ele>
        <time>2016-03-13T13:50:07Z</time>
      </trkpt>
      <trkpt lat="40.320783" lon="-4.759783">
        <ele>1148.0</ele>
        <time>2016-03-13T13:50:08Z</time>
      </trkpt>
      <trkpt lat="40.320717" lon="-4.759867">
        <ele>1148.0</ele>
        <time>2016-03-13T13:50:09Z</time>
      </trkpt>
      <trkpt lat="40.320650" lon="-4.759933">
        <ele>1149.0</ele>
        <time>2016-03-13T13:50:10Z</time>
      </trkpt>
      <trkpt lat="40.320617" lon="-4.759983">
        <ele>1149.0</ele>
        <time>2016-03-13T13:50:11Z</time>
      </trkpt>
      <trkpt lat="40.320567" lon="-4.760033">
        <ele>1148.0</ele>
        <time>2016-03-13T13:50:12Z</time>
      </trkpt>
      <trkpt lat="40.320533" lon="-4.760083">
        <ele>1146.0</ele>
        <time>2016-03-13T13:50:13Z</time>
      </trkpt>
      <trkpt lat="40.320483" lon="-4.760133">
        <ele>1145.0</ele>
        <time>2016-03-13T13:50:14Z</time>
      </trkpt>
      <trkpt lat="40.320433" lon="-4.760150">
        <ele>1144.0</ele>
        <time>2016-03-13T13:50:15Z</time>
      </trkpt>
      <trkpt lat="40.320367" lon="-4.760167">
        <ele>1143.0</ele>
        <time>2016-03-13T13:50:16Z</time>
      </trkpt>
      <trkpt lat="40.320317" lon="-4.760167">
        <ele>1143.0</ele>
        <time>2016-03-13T13:50:17Z</time>
      </trkpt>
      <trkpt lat="40.320250" lon="-4.760183">
        <ele>1143.0</ele>
        <time>2016-03-13T13:50:18Z</time>
      </trkpt>
      <trkpt lat="40.320200" lon="-4.760183">
        <ele>1142.0</ele>
        <time>2016-03-13T13:50:19Z</time>
      </trkpt>
      <trkpt lat="40.320150" lon="-4.760183">
        <ele>1141.0</ele>
        <time>2016-03-13T13:50:20Z</time>
      </trkpt>
      <trkpt lat="40.320100" lon="-4.760183">
        <ele>1140.0</ele>
        <time>2016-03-13T13:50:21Z</time>
      </trkpt>
      <trkpt lat="40.320050" lon="-4.760167">
        <ele>1139.0</ele>
        <time>2016-03-13T13:50:22Z</time>
      </trkpt>
      <trkpt lat="40.320000" lon="-4.760167">
        <ele>1137.0</ele>
        <time>2016-03-13T13:50:23Z</time>
      </trkpt>
      <trkpt lat="40.319950" lon="-4.760183">
        <ele>1137.0</ele>
        <time>2016-03-13T13:50:24Z</time>
      </trkpt>
      <trkpt lat="40.319917" lon="-4.760250">
        <ele>1138.0</ele>
        <time>2016-03-13T13:50:25Z</time>
      </trkpt>
      <trkpt lat="40.319900" lon="-4.760333">
        <ele>1140.0</ele>
        <time>2016-03-13T13:50:26Z</time>
      </trkpt>
      <trkpt lat="40.319900" lon="-4.760417">
        <ele>1141.0</ele>
        <time>2016-03-13T13:50:27Z</time>
      </trkpt>
      <trkpt lat="40.319883" lon="-4.760483">
        <ele>1142.0</ele>
        <time>2016-03-13T13:50:28Z</time>
      </trkpt>
      <trkpt lat="40.319850" lon="-4.760533">
        <ele>1143.0</ele>
        <time>2016-03-13T13:50:29Z</time>
      </trkpt>
      <trkpt lat="40.319850" lon="-4.760583">
        <ele>1144.0</ele>
        <time>2016-03-13T13:50:30Z</time>
      </trkpt>
      <trkpt lat="40.319867" lon="-4.760650">
        <ele>1145.0</ele>
        <time>2016-03-13T13:50:31Z</time>
      </trkpt>
      <trkpt lat="40.319900" lon="-4.760733">
        <ele>1143.0</ele>
        <time>2016-03-13T13:50:32Z</time>
      </trkpt>
      <trkpt lat="40.319983" lon="-4.760833">
        <ele>1142.0</ele>
        <time>2016-03-13T13:50:33Z</time>
      </trkpt>
      <trkpt lat="40.320083" lon="-4.760900">
        <ele>1141.0</ele>
        <time>2016-03-13T13:50:34Z</time>
      </trkpt>
      <trkpt lat="40.320217" lon="-4.760933">
        <ele>1140.0</ele>
        <time>2016-03-13T13:50:35Z</time>
      </trkpt>
      <trkpt lat="40.320367" lon="-4.760883">
        <ele>1140.0</ele>
        <time>2016-03-13T13:50:36Z</time>
      </trkpt>
      <trkpt lat="40.320500" lon="-4.760783">
        <ele>1141.0</ele>
        <time>2016-03-13T13:50:37Z</time>
      </trkpt>
      <trkpt lat="40.320600" lon="-4.760617">
        <ele>1142.0</ele>
        <time>2016-03-13T13:50:38Z</time>
      </trkpt>
      <trkpt lat="40.320650" lon="-4.760450">
        <ele>1143.0</ele>
        <time>2016-03-13T13:50:39Z</time>
      </trkpt>
      <trkpt lat="40.320683" lon="-4.760333">
        <ele>1145.0</ele>
        <time>2016-03-13T13:50:40Z</time>
      </trkpt>
      <trkpt lat="40.320683" lon="-4.760233">
        <ele>1146.0</ele>
        <time>2016-03-13T13:50:41Z</time>
      </trkpt>
      <trkpt lat="40.320667" lon="-4.760167">
        <ele>1147.0</ele>
        <time>2016-03-13T13:50:42Z</time>
      </trkpt>
      <trkpt lat="40.320650" lon="-4.760083">
        <ele>1147.0</ele>
        <time>2016-03-13T13:50:43Z</time>
      </trkpt>
      <trkpt lat="40.320633" lon="-4.760000">
        <ele>1147.0</ele>
        <time>2016-03-13T13:50:44Z</time>
      </trkpt>
      <trkpt lat="40.320600" lon="-4.759983">
        <ele>1148.0</ele>
        <time>2016-03-13T13:50:45Z</time>
      </trkpt>
      <trkpt lat="40.320550" lon="-4.760000">
        <ele>1147.0</ele>
        <time>2016-03-13T13:50:46Z</time>
      </trkpt>
      <trkpt lat="40.320517" lon="-4.760100">
        <ele>1146.0</ele>
        <time>2016-03-13T13:50:47Z</time>
      </trkpt>
      <trkpt lat="40.320550" lon="-4.760217">
        <ele>1146.0</ele>
        <time>2016-03-13T13:50:48Z</time>
      </trkpt>
      <trkpt lat="40.320617" lon="-4.760333">
        <ele>1146.0</ele>
        <time>2016-03-13T13:50:49Z</time>
      </trkpt>
      <trkpt lat="40.320733" lon="-4.760400">
        <ele>1147.0</ele>
        <time>2016-03-13T13:50:50Z</time>
      </trkpt>
      <trkpt lat="40.320883" lon="-4.760383">
        <ele>1146.0</ele>
        <time>2016-03-13T13:50:51Z</time>
      </trkpt>
      <trkpt lat="40.321033" lon="-4.760350">
        <ele>1145.0</ele>
        <time>2016-03-13T13:50:52Z</time>
      </trkpt>
      <trkpt lat="40.321167" lon="-4.760283">
        <ele>1145.0</ele>
        <time>2016-03-13T13:50:53Z</time>
      </trkpt>
      <trkpt lat="40.321300" lon="-4.760233">
        <ele>1145.0</ele>
        <time>2016-03-13T13:50:54Z</time>
      </trkpt>
      <trkpt lat="40.321417" lon="-4.760167">
        <ele>1145.0</ele>
        <time>2016-03-13T13:50:55Z</time>
      </trkpt>
      <trkpt lat="40.321500" lon="-4.760100">
        <ele>1144.0</ele>
        <time>2016-03-13T13:50:56Z</time>
      </trkpt>
      <trkpt lat="40.321583" lon="-4.760000">
        <ele>1142.0</ele>
        <time>2016-03-13T13:50:57Z</time>
      </trkpt>
      <trkpt lat="40.321650" lon="-4.759883">
        <ele>1141.0</ele>
        <time>2016-03-13T13:50:58Z</time>
      </trkpt>
      <trkpt lat="40.321700" lon="-4.759767">
        <ele>1139.0</ele>
        <time>2016-03-13T13:50:59Z</time>
      </trkpt>
      <trkpt lat="40.321733" lon="-4.759650">
        <ele>1138.0</ele>
        <time>2016-03-13T13:51:00Z</time>
      </trkpt>
      <trkpt lat="40.321750" lon="-4.759550">
        <ele>1136.0</ele>
        <time>2016-03-13T13:51:01Z</time>
      </trkpt>
      <trkpt lat="40.321750" lon="-4.759450">
        <ele>1134.0</ele>
        <time>2016-03-13T13:51:02Z</time>
      </trkpt>
      <trkpt lat="40.321733" lon="-4.759367">
        <ele>1130.0</ele>
        <time>2016-03-13T13:51:03Z</time>
      </trkpt>
      <trkpt lat="40.321700" lon="-4.759283">
        <ele>1127.0</ele>
        <time>2016-03-13T13:51:04Z</time>
      </trkpt>
      <trkpt lat="40.321650" lon="-4.759217">
        <ele>1124.0</ele>
        <time>2016-03-13T13:51:05Z</time>
      </trkpt>
      <trkpt lat="40.321583" lon="-4.759167">
        <ele>1121.0</ele>
        <time>2016-03-13T13:51:06Z</time>
      </trkpt>
      <trkpt lat="40.321517" lon="-4.759150">
        <ele>1120.0</ele>
        <time>2016-03-13T13:51:07Z</time>
      </trkpt>
      <trkpt lat="40.321433" lon="-4.759133">
        <ele>1118.0</ele>
        <time>2016-03-13T13:51:08Z</time>
      </trkpt>
      <trkpt lat="40.321367" lon="-4.759167">
        <ele>1116.0</ele>
        <time>2016-03-13T13:51:09Z</time>
      </trkpt>
      <trkpt lat="40.321300" lon="-4.759200">
        <ele>1117.0</ele>
        <time>2016-03-13T13:51:10Z</time>
      </trkpt>
      <trkpt lat="40.321233" lon="-4.759250">
        <ele>1117.0</ele>
        <time>2016-03-13T13:51:11Z</time>
      </trkpt>
      <trkpt lat="40.321183" lon="-4.759283">
        <ele>1116.0</ele>
        <time>2016-03-13T13:51:12Z</time>
      </trkpt>
      <trkpt lat="40.321133" lon="-4.759300">
        <ele>1115.0</ele>
        <time>2016-03-13T13:51:13Z</time>
      </trkpt>
      <trkpt lat="40.321067" lon="-4.759333">
        <ele>1113.0</ele>
        <time>2016-03-13T13:51:14Z</time>
      </trkpt>
      <trkpt lat="40.320983" lon="-4.759333">
        <ele>1112.0</ele>
        <time>2016-03-13T13:51:15Z</time>
      </trkpt>
      <trkpt lat="40.320900" lon="-4.759333">
        <ele>1112.0</ele>
        <time>2016-03-13T13:51:16Z</time>
      </trkpt>
      <trkpt lat="40.320833" lon="-4.759300">
        <ele>1115.0</ele>
        <time>2016-03-13T13:51:17Z</time>
      </trkpt>
      <trkpt lat="40.320767" lon="-4.759283">
        <ele>1117.0</ele>
        <time>2016-03-13T13:51:18Z</time>
      </trkpt>
      <trkpt lat="40.320717" lon="-4.759267">
        <ele>1118.0</ele>
        <time>2016-03-13T13:51:19Z</time>
      </trkpt>
      <trkpt lat="40.320650" lon="-4.759267">
        <ele>1118.0</ele>
        <time>2016-03-13T13:51:20Z</time>
      </trkpt>
      <trkpt lat="40.320567" lon="-4.759250">
        <ele>1118.0</ele>
        <time>2016-03-13T13:51:21Z</time>
      </trkpt>
      <trkpt lat="40.320500" lon="-4.759233">
        <ele>1118.0</ele>
        <time>2016-03-13T13:51:22Z</time>
      </trkpt>
      <trkpt lat="40.320417" lon="-4.759200">
        <ele>1118.0</ele>
        <time>2016-03-13T13:51:23Z</time>
      </trkpt>
      <trkpt lat="40.320333" lon="-4.759150">
        <ele>1118.0</ele>
        <time>2016-03-13T13:51:24Z</time>
      </trkpt>
      <trkpt lat="40.320250" lon="-4.759133">
        <ele>1120.0</ele>
        <time>2016-03-13T13:51:25Z</time>
      </trkpt>
      <trkpt lat="40.320200" lon="-4.759167">
        <ele>1122.0</ele>
        <time>2016-03-13T13:51:26Z</time>
      </trkpt>
      <trkpt lat="40.320167" lon="-4.759233">
        <ele>1122.0</ele>
        <time>2016-03-13T13:51:27Z</time>
      </trkpt>
      <trkpt lat="40.320183" lon="-4.759333">
        <ele>1121.0</ele>
        <time>2016-03-13T13:51:28Z</time>
      </trkpt>
      <trkpt lat="40.320233" lon="-4.759450">
        <ele>1120.0</ele>
        <time>2016-03-13T13:51:29Z</time>
      </trkpt>
      <trkpt lat="40.320300" lon="-4.759567">
        <ele>1121.0</ele>
        <time>2016-03-13T13:51:30Z</time>
      </trkpt>
      <trkpt lat="40.320383" lon="-4.759650">
        <ele>1123.0</ele>
        <time>2016-03-13T13:51:31Z</time>
      </trkpt>
      <trkpt lat="40.320500" lon="-4.759667">
        <ele>1123.0</ele>
        <time>2016-03-13T13:51:32Z</time>
      </trkpt>
      <trkpt lat="40.320617" lon="-4.759633">
        <ele>1122.0</ele>
        <time>2016-03-13T13:51:33Z</time>
      </trkpt>
      <trkpt lat="40.320733" lon="-4.759517">
        <ele>1121.0</ele>
        <time>2016-03-13T13:51:34Z</time>
      </trkpt>
      <trkpt lat="40.320817" lon="-4.759367">
        <ele>1122.0</ele>
        <time>2016-03-13T13:51:35Z</time>
      </trkpt>
      <trkpt lat="40.320883" lon="-4.759217">
        <ele>1125.0</ele>
        <time>2016-03-13T13:51:36Z</time>
      </trkpt>
      <trkpt lat="40.320917" lon="-4.759100">
        <ele>1129.0</ele>
        <time>2016-03-13T13:51:37Z</time>
      </trkpt>
      <trkpt lat="40.320967" lon="-4.758983">
        <ele>1131.0</ele>
        <time>2016-03-13T13:51:38Z</time>
      </trkpt>
      <trkpt lat="40.321000" lon="-4.758900">
        <ele>1131.0</ele>
        <time>2016-03-13T13:51:39Z</time>
      </trkpt>
      <trkpt lat="40.321050" lon="-4.758783">
        <ele>1131.0</ele>
        <time>2016-03-13T13:51:40Z</time>
      </trkpt>
      <trkpt lat="40.321067" lon="-4.758667">
        <ele>1129.0</ele>
        <time>2016-03-13T13:51:41Z</time>
      </trkpt>
      <trkpt lat="40.321050" lon="-4.758550">
        <ele>1127.0</ele>
        <time>2016-03-13T13:51:42Z</time>
      </trkpt>
      <trkpt lat="40.320983" lon="-4.758483">
        <ele>1125.0</ele>
        <time>2016-03-13T13:51:43Z</time>
      </trkpt>
      <trkpt lat="40.320900" lon="-4.758467">
        <ele>1122.0</ele>
        <time>2016-03-13T13:51:44Z</time>
      </trkpt>
      <trkpt lat="40.320817" lon="-4.758500">
        <ele>1120.0</ele>
        <time>2016-03-13T13:51:45Z</time>
      </trkpt>
      <trkpt lat="40.320767" lon="-4.758583">
        <ele>1118.0</ele>
        <time>2016-03-13T13:51:46Z</time>
      </trkpt>
      <trkpt lat="40.320717" lon="-4.758683">
        <ele>1117.0</ele>
        <time>2016-03-13T13:51:47Z</time>
      </trkpt>
      <trkpt lat="40.320700" lon="-4.758800">
        <ele>1116.0</ele>
        <time>2016-03-13T13:51:48Z</time>
      </trkpt>
      <trkpt lat="40.320700" lon="-4.758917">
        <ele>1115.0</ele>
        <time>2016-03-13T13:51:49Z</time>
      </trkpt>
      <trkpt lat="40.320700" lon="-4.759067">
        <ele>1113.0</ele>
        <time>2016-03-13T13:51:50Z</time>
      </trkpt>
      <trkpt lat="40.320700" lon="-4.759200">
        <ele>1111.0</ele>
        <time>2016-03-13T13:51:51Z</time>
      </trkpt>
      <trkpt lat="40.320683" lon="-4.759350">
        <ele>1110.0</ele>
        <time>2016-03-13T13:51:52Z</time>
      </trkpt>
      <trkpt lat="40.320650" lon="-4.759467">
        <ele>1111.0</ele>
        <time>2016-03-13T13:51:53Z</time>
      </trkpt>
      <trkpt lat="40.320617" lon="-4.759567">
        <ele>1112.0</ele>
        <time>2016-03-13T13:51:54Z</time>
      </trkpt>
      <trkpt lat="40.320583" lon="-4.759650">
        <ele>1112.0</ele>
        <time>2016-03-13T13:51:55Z</time>
      </trkpt>
      <trkpt lat="40.320550" lon="-4.759733">
        <ele>1112.0</ele>
        <time>2016-03-13T13:51:56Z</time>
      </trkpt>
      <trkpt lat="40.320517" lon="-4.759833">
        <ele>1111.0</ele>
        <time>2016-03-13T13:51:57Z</time>
      </trkpt>
      <trkpt lat="40.320483" lon="-4.759933">
        <ele>1110.0</ele>
        <time>2016-03-13T13:51:58Z</time>
      </trkpt>
      <trkpt lat="40.320450" lon="-4.760067">
        <ele>1109.0</ele>
        <time>2016-03-13T13:51:59Z</time>
      </trkpt>
      <trkpt lat="40.320400" lon="-4.760167">
        <ele>1110.0</ele>
        <time>2016-03-13T13:52:00Z</time>
      </trkpt>
      <trkpt lat="40.320350" lon="-4.760250">
        <ele>1111.0</ele>
        <time>2016-03-13T13:52:01Z</time>
      </trkpt>
      <trkpt lat="40.320317" lon="-4.760333">
        <ele>1112.0</ele>
        <time>2016-03-13T13:52:02Z</time>
      </trkpt>
      <trkpt lat="40.320250" lon="-4.760383">
        <ele>1114.0</ele>
        <time>2016-03-13T13:52:03Z</time>
      </trkpt>
      <trkpt lat="40.320183" lon="-4.760450">
        <ele>1115.0</ele>
        <time>2016-03-13T13:52:04Z</time>
      </trkpt>
      <trkpt lat="40.320117" lon="-4.760517">
        <ele>1115.0</ele>
        <time>2016-03-13T13:52:05Z</time>
      </trkpt>
      <trkpt lat="40.320033" lon="-4.760583">
        <ele>1117.0</ele>
        <time>2016-03-13T13:52:06Z</time>
      </trkpt>
      <trkpt lat="40.319967" lon="-4.760633">
        <ele>1119.0</ele>
        <time>2016-03-13T13:52:07Z</time>
      </trkpt>
      <trkpt lat="40.319917" lon="-4.760617">
        <ele>1120.0</ele>
        <time>2016-03-13T13:52:08Z</time>
      </trkpt>
      <trkpt lat="40.319883" lon="-4.760567">
        <ele>1120.0</ele>
        <time>2016-03-13T13:52:09Z</time>
      </trkpt>
      <trkpt lat="40.319850" lon="-4.760500">
        <ele>1120.0</ele>
        <time>2016-03-13T13:52:10Z</time>
      </trkpt>
      <trkpt lat="40.319833" lon="-4.760417">
        <ele>1119.0</ele>
        <time>2016-03-13T13:52:11Z</time>
      </trkpt>
      <trkpt lat="40.319850" lon="-4.760317">
        <ele>1119.0</ele>
        <time>2016-03-13T13:52:12Z</time>
      </trkpt>
      <trkpt lat="40.319883" lon="-4.760200">
        <ele>1117.0</ele>
        <time>2016-03-13T13:52:13Z</time>
      </trkpt>
      <trkpt lat="40.319967" lon="-4.760100">
        <ele>1117.0</ele>
        <time>2016-03-13T13:52:14Z</time>
      </trkpt>
      <trkpt lat="40.320067" lon="-4.760033">
        <ele>1116.0</ele>
        <time>2016-03-13T13:52:15Z</time>
      </trkpt>
      <trkpt lat="40.320200" lon="-4.760000">
        <ele>1115.0</ele>
        <time>2016-03-13T13:52:16Z</time>
      </trkpt>
      <trkpt lat="40.320317" lon="-4.760033">
        <ele>1116.0</ele>
        <time>2016-03-13T13:52:17Z</time>
      </trkpt>
      <trkpt lat="40.320417" lon="-4.760100">
        <ele>1116.0</ele>
        <time>2016-03-13T13:52:18Z</time>
      </trkpt>
      <trkpt lat="40.320500" lon="-4.760200">
        <ele>1116.0</ele>
        <time>2016-03-13T13:52:19Z</time>
      </trkpt>
      <trkpt lat="40.320533" lon="-4.760333">
        <ele>1115.0</ele>
        <time>2016-03-13T13:52:20Z</time>
      </trkpt>
      <trkpt lat="40.320517" lon="-4.760467">
        <ele>1113.0</ele>
        <time>2016-03-13T13:52:21Z</time>
      </trkpt>
      <trkpt lat="40.320467" lon="-4.760567">
        <ele>1111.0</ele>
        <time>2016-03-13T13:52:22Z</time>
      </trkpt>
      <trkpt lat="40.320383" lon="-4.760617">
        <ele>1111.0</ele>
        <time>2016-03-13T13:52:23Z</time>
      </trkpt>
      <trkpt lat="40.320300" lon="-4.760633">
        <ele>1112.0</ele>
        <time>2016-03-13T13:52:24Z</time>
      </trkpt>
      <trkpt lat="40.320217" lon="-4.760633">
        <ele>1114.0</ele>
        <time>2016-03-13T13:52:25Z</time>
      </trkpt>
      <trkpt lat="40.320150" lon="-4.760650">
        <ele>1117.0</ele>
        <time>2016-03-13T13:52:26Z</time>
      </trkpt>
      <trkpt lat="40.320117" lon="-4.760683">
        <ele>1118.0</ele>
        <time>2016-03-13T13:52:27Z</time>
      </trkpt>
      <trkpt lat="40.320067" lon="-4.760700">
        <ele>1119.0</ele>
        <time>2016-03-13T13:52:28Z</time>
      </trkpt>
      <trkpt lat="40.320017" lon="-4.760733">
        <ele>1118.0</ele>
        <time>2016-03-13T13:52:29Z</time>
      </trkpt>
      <trkpt lat="40.319950" lon="-4.760750">
        <ele>1117.0</ele>
        <time>2016-03-13T13:52:30Z</time>
      </trkpt>
      <trkpt lat="40.319883" lon="-4.760783">
        <ele>1116.0</ele>
        <time>2016-03-13T13:52:31Z</time>
      </trkpt>
      <trkpt lat="40.319817" lon="-4.760800">
        <ele>1116.0</ele>
        <time>2016-03-13T13:52:32Z</time>
      </trkpt>
      <trkpt lat="40.319767" lon="-4.760833">
        <ele>1116.0</ele>
        <time>2016-03-13T13:52:33Z</time>
      </trkpt>
      <trkpt lat="40.319700" lon="-4.760867">
        <ele>1116.0</ele>
        <time>2016-03-13T13:52:34Z</time>
      </trkpt>
      <trkpt lat="40.319650" lon="-4.760917">
        <ele>1115.0</ele>
        <time>2016-03-13T13:52:35Z</time>
      </trkpt>
      <trkpt lat="40.319583" lon="-4.760967">
        <ele>1114.0</ele>
        <time>2016-03-13T13:52:36Z</time>
      </trkpt>
      <trkpt lat="40.319533" lon="-4.761017">
        <ele>1112.0</ele>
        <time>2016-03-13T13:52:37Z</time>
      </trkpt>
      <trkpt lat="40.319467" lon="-4.761033">
        <ele>1111.0</ele>
        <time>2016-03-13T13:52:38Z</time>
      </trkpt>
      <trkpt lat="40.319400" lon="-4.761050">
        <ele>1110.0</ele>
        <time>2016-03-13T13:52:39Z</time>
      </trkpt>
      <trkpt lat="40.319333" lon="-4.761067">
        <ele>1110.0</ele>
        <time>2016-03-13T13:52:40Z</time>
      </trkpt>
      <trkpt lat="40.319250" lon="-4.761067">
        <ele>1111.0</ele>
        <time>2016-03-13T13:52:41Z</time>
      </trkpt>
      <trkpt lat="40.319183" lon="-4.761067">
        <ele>1113.0</ele>
        <time>2016-03-13T13:52:42Z</time>
      </trkpt>
      <trkpt lat="40.319117" lon="-4.761067">
        <ele>1115.0</ele>
        <time>2016-03-13T13:52:43Z</time>
      </trkpt>
      <trkpt lat="40.319050" lon="-4.761083">
        <ele>1116.0</ele>
        <time>2016-03-13T13:52:44Z</time>
      </trkpt>
      <trkpt lat="40.318983" lon="-4.761100">
        <ele>1118.0</ele>
        <time>2016-03-13T13:52:45Z</time>
      </trkpt>
      <trkpt lat="40.318933" lon="-4.761100">
        <ele>1120.0</ele>
        <time>2016-03-13T13:52:46Z</time>
      </trkpt>
      <trkpt lat="40.318867" lon="-4.761100">
        <ele>1121.0</ele>
        <time>2016-03-13T13:52:47Z</time>
      </trkpt>
      <trkpt lat="40.318817" lon="-4.761117">
        <ele>1122.0</ele>
        <time>2016-03-13T13:52:48Z</time>
      </trkpt>
      <trkpt lat="40.318767" lon="-4.761150">
        <ele>1121.0</ele>
        <time>2016-03-13T13:52:49Z</time>
      </trkpt>
      <trkpt lat="40.318700" lon="-4.761167">
        <ele>1120.0</ele>
        <time>2016-03-13T13:52:50Z</time>
      </trkpt>
      <trkpt lat="40.318617" lon="-4.761183">
        <ele>1119.0</ele>
        <time>2016-03-13T13:52:51Z</time>
      </trkpt>
      <trkpt lat="40.318533" lon="-4.761200">
        <ele>1119.0</ele>
        <time>2016-03-13T13:52:52Z</time>
      </trkpt>
      <trkpt lat="40.318467" lon="-4.761233">
        <ele>1119.0</ele>
        <time>2016-03-13T13:52:53Z</time>
      </trkpt>
      <trkpt lat="40.318400" lon="-4.761267">
        <ele>1120.0</ele>
        <time>2016-03-13T13:52:54Z</time>
      </trkpt>
      <trkpt lat="40.318350" lon="-4.761300">
        <ele>1120.0</ele>
        <time>2016-03-13T13:52:55Z</time>
      </trkpt>
      <trkpt lat="40.318283" lon="-4.761350">
        <ele>1119.0</ele>
        <time>2016-03-13T13:52:56Z</time>
      </trkpt>
      <trkpt lat="40.318233" lon="-4.761400">
        <ele>1119.0</ele>
        <time>2016-03-13T13:52:57Z</time>
      </trkpt>
      <trkpt lat="40.318183" lon="-4.761433">
        <ele>1118.0</ele>
        <time>2016-03-13T13:52:58Z</time>
      </trkpt>
      <trkpt lat="40.318117" lon="-4.761467">
        <ele>1118.0</ele>
        <time>2016-03-13T13:52:59Z</time>
      </trkpt>
      <trkpt lat="40.318050" lon="-4.761483">
        <ele>1119.0</ele>
        <time>2016-03-13T13:53:00Z</time>
      </trkpt>
      <trkpt lat="40.318000" lon="-4.761500">
        <ele>1121.0</ele>
        <time>2016-03-13T13:53:01Z</time>
      </trkpt>
      <trkpt lat="40.317950" lon="-4.761517">
        <ele>1122.0</ele>
        <time>2016-03-13T13:53:02Z</time>
      </trkpt>
      <trkpt lat="40.317917" lon="-4.761533">
        <ele>1123.0</ele>
        <time>2016-03-13T13:53:03Z</time>
      </trkpt>
      <trkpt lat="40.317867" lon="-4.761567">
        <ele>1123.0</ele>
        <time>2016-03-13T13:53:04Z</time>
      </trkpt>
      <trkpt lat="40.317800" lon="-4.761583">
        <ele>1123.0</ele>
        <time>2016-03-13T13:53:05Z</time>
      </trkpt>
      <trkpt lat="40.317733" lon="-4.761600">
        <ele>1123.0</ele>
        <time>2016-03-13T13:53:06Z</time>
      </trkpt>
      <trkpt lat="40.317667" lon="-4.761617">
        <ele>1125.0</ele>
        <time>2016-03-13T13:53:07Z</time>
      </trkpt>
      <trkpt lat="40.317600" lon="-4.761633">
        <ele>1127.0</ele>
        <time>2016-03-13T13:53:08Z</time>
      </trkpt>
      <trkpt lat="40.317550" lon="-4.761650">
        <ele>1129.0</ele>
        <time>2016-03-13T13:53:09Z</time>
      </trkpt>
      <trkpt lat="40.317500" lon="-4.761667">
        <ele>1129.0</ele>
        <time>2016-03-13T13:53:10Z</time>
      </trkpt>
      <trkpt lat="40.317467" lon="-4.761667">
        <ele>1127.0</ele>
        <time>2016-03-13T13:53:11Z</time>
      </trkpt>
      <trkpt lat="40.317433" lon="-4.761633">
        <ele>1124.0</ele>
        <time>2016-03-13T13:53:12Z</time>
      </trkpt>
      <trkpt lat="40.317383" lon="-4.761550">
        <ele>1121.0</ele>
        <time>2016-03-13T13:53:13Z</time>
      </trkpt>
      <trkpt lat="40.317333" lon="-4.761433">
        <ele>1120.0</ele>
        <time>2016-03-13T13:53:14Z</time>
      </trkpt>
      <trkpt lat="40.317333" lon="-4.761283">
        <ele>1121.0</ele>
        <time>2016-03-13T13:53:15Z</time>
      </trkpt>
      <trkpt lat="40.317367" lon="-4.761150">
        <ele>1123.0</ele>
        <time>2016-03-13T13:53:16Z</time>
      </trkpt>
      <trkpt lat="40.317433" lon="-4.761033">
        <ele>1123.0</ele>
        <time>2016-03-13T13:53:17Z</time>
      </trkpt>
      <trkpt lat="40.317517" lon="-4.760933">
        <ele>1124.0</ele>
        <time>2016-03-13T13:53:18Z</time>
      </trkpt>
      <trkpt lat="40.317633" lon="-4.760850">
        <ele>1123.0</ele>
        <time>2016-03-13T13:53:19Z</time>
      </trkpt>
      <trkpt lat="40.317733" lon="-4.760783">
        <ele>1123.0</ele>
        <time>2016-03-13T13:53:20Z</time>
      </trkpt>
      <trkpt lat="40.317867" lon="-4.760750">
        <ele>1123.0</ele>
        <time>2016-03-13T13:53:21Z</time>
      </trkpt>
      <trkpt lat="40.317983" lon="-4.760733">
        <ele>1122.0</ele>
        <time>2016-03-13T13:53:22Z</time>
      </trkpt>
      <trkpt lat="40.318117" lon="-4.760733">
        <ele>1122.0</ele>
        <time>2016-03-13T13:53:23Z</time>
      </trkpt>
      <trkpt lat="40.318217" lon="-4.760767">
        <ele>1121.0</ele>
        <time>2016-03-13T13:53:24Z</time>
      </trkpt>
      <trkpt lat="40.318317" lon="-4.760833">
        <ele>1121.0</ele>
        <time>2016-03-13T13:53:25Z</time>
      </trkpt>
      <trkpt lat="40.318400" lon="-4.760917">
        <ele>1120.0</ele>
        <time>2016-03-13T13:53:26Z</time>
      </trkpt>
      <trkpt lat="40.318450" lon="-4.761017">
        <ele>1118.0</ele>
        <time>2016-03-13T13:53:27Z</time>
      </trkpt>
      <trkpt lat="40.318500" lon="-4.761150">
        <ele>1118.0</ele>
        <time>2016-03-13T13:53:28Z</time>
      </trkpt>
      <trkpt lat="40.318517" lon="-4.761250">
        <ele>1118.0</ele>
        <time>2016-03-13T13:53:29Z</time>
      </trkpt>
      <trkpt lat="40.318533" lon="-4.761367">
        <ele>1118.0</ele>
        <time>2016-03-13T13:53:30Z</time>
      </trkpt>
      <trkpt lat="40.318550" lon="-4.761483">
        <ele>1119.0</ele>
        <time>2016-03-13T13:53:31Z</time>
      </trkpt>
      <trkpt lat="40.318567" lon="-4.761600">
        <ele>1119.0</ele>
        <time>2016-03-13T13:53:32Z</time>
      </trkpt>
      <trkpt lat="40.318600" lon="-4.761717">
        <ele>1119.0</ele>
        <time>2016-03-13T13:53:33Z</time>
      </trkpt>
      <trkpt lat="40.318617" lon="-4.761833">
        <ele>1120.0</ele>
        <time>2016-03-13T13:53:34Z</time>
      </trkpt>
      <trkpt lat="40.318617" lon="-4.761950">
        <ele>1120.0</ele>
        <time>2016-03-13T13:53:35Z</time>
      </trkpt>
      <trkpt lat="40.318617" lon="-4.762067">
        <ele>1120.0</ele>
        <time>2016-03-13T13:53:36Z</time>
      </trkpt>
      <trkpt lat="40.318617" lon="-4.762183">
        <ele>1121.0</ele>
        <time>2016-03-13T13:53:37Z</time>
      </trkpt>
      <trkpt lat="40.318583" lon="-4.762283">
        <ele>1122.0</ele>
        <time>2016-03-13T13:53:38Z</time>
      </trkpt>
      <trkpt lat="40.318550" lon="-4.762350">
        <ele>1122.0</ele>
        <time>2016-03-13T13:53:39Z</time>
      </trkpt>
      <trkpt lat="40.318483" lon="-4.762417">
        <ele>1122.0</ele>
        <time>2016-03-13T13:53:40Z</time>
      </trkpt>
      <trkpt lat="40.318417" lon="-4.762467">
        <ele>1122.0</ele>
        <time>2016-03-13T13:53:41Z</time>
      </trkpt>
      <trkpt lat="40.318333" lon="-4.762483">
        <ele>1123.0</ele>
        <time>2016-03-13T13:53:42Z</time>
      </trkpt>
      <trkpt lat="40.318267" lon="-4.762500">
        <ele>1124.0</ele>
        <time>2016-03-13T13:53:43Z</time>
      </trkpt>
      <trkpt lat="40.318200" lon="-4.762517">
        <ele>1125.0</ele>
        <time>2016-03-13T13:53:44Z</time>
      </trkpt>
      <trkpt lat="40.318133" lon="-4.762533">
        <ele>1124.0</ele>
        <time>2016-03-13T13:53:45Z</time>
      </trkpt>
      <trkpt lat="40.318067" lon="-4.762550">
        <ele>1122.0</ele>
        <time>2016-03-13T13:53:46Z</time>
      </trkpt>
      <trkpt lat="40.318017" lon="-4.762550">
        <ele>1120.0</ele>
        <time>2016-03-13T13:53:47Z</time>
      </trkpt>
      <trkpt lat="40.317950" lon="-4.762533">
        <ele>1118.0</ele>
        <time>2016-03-13T13:53:48Z</time>
      </trkpt>
      <trkpt lat="40.317883" lon="-4.762483">
        <ele>1116.0</ele>
        <time>2016-03-13T13:53:49Z</time>
      </trkpt>
      <trkpt lat="40.317817" lon="-4.762417">
        <ele>1115.0</ele>
        <time>2016-03-13T13:53:50Z</time>
      </trkpt>
      <trkpt lat="40.317750" lon="-4.762350">
        <ele>1115.0</ele>
        <time>2016-03-13T13:53:51Z</time>
      </trkpt>
      <trkpt lat="40.317683" lon="-4.762283">
        <ele>1115.0</ele>
        <time>2016-03-13T13:53:52Z</time>
      </trkpt>
      <trkpt lat="40.317600" lon="-4.762233">
        <ele>1115.0</ele>
        <time>2016-03-13T13:53:53Z</time>
      </trkpt>
      <trkpt lat="40.317533" lon="-4.762167">
        <ele>1115.0</ele>
        <time>2016-03-13T13:53:54Z</time>
      </trkpt>
      <trkpt lat="40.317483" lon="-4.762117">
        <ele>1115.0</ele>
        <time>2016-03-13T13:53:55Z</time>
      </trkpt>
      <trkpt lat="40.317433" lon="-4.762050">
        <ele>1116.0</ele>
        <time>2016-03-13T13:53:56Z</time>
      </trkpt>
      <trkpt lat="40.317400" lon="-4.761967">
        <ele>1115.0</ele>
        <time>2016-03-13T13:53:57Z</time>
      </trkpt>
      <trkpt lat="40.317367" lon="-4.761883">
        <ele>1114.0</ele>
        <time>2016-03-13T13:53:58Z</time>
      </trkpt>
      <trkpt lat="40.317350" lon="-4.761767">
        <ele>1112.0</ele>
        <time>2016-03-13T13:53:59Z</time>
      </trkpt>
      <trkpt lat="40.317350" lon="-4.761633">
        <ele>1110.0</ele>
        <time>2016-03-13T13:54:00Z</time>
      </trkpt>
      <trkpt lat="40.317367" lon="-4.761517">
        <ele>1110.0</ele>
        <time>2016-03-13T13:54:01Z</time>
      </trkpt>
      <trkpt lat="40.317383" lon="-4.761383">
        <ele>1109.0</ele>
        <time>2016-03-13T13:54:02Z</time>
      </trkpt>
      <trkpt lat="40.317400" lon="-4.761267">
        <ele>1109.0</ele>
        <time>2016-03-13T13:54:03Z</time>
      </trkpt>
      <trkpt lat="40.317450" lon="-4.761167">
        <ele>1109.0</ele>
        <time>2016-03-13T13:54:04Z</time>
      </trkpt>
      <trkpt lat="40.317500" lon="-4.761050">
        <ele>1108.0</ele>
        <time>2016-03-13T13:54:05Z</time>
      </trkpt>
      <trkpt lat="40.317567" lon="-4.760933">
        <ele>1106.0</ele>
        <time>2016-03-13T13:54:06Z</time>
      </trkpt>
      <trkpt lat="40.317633" lon="-4.760817">
        <ele>1105.0</ele>
        <time>2016-03-13T13:54:07Z</time>
      </trkpt>
      <trkpt lat="40.317733" lon="-4.760717">
        <ele>1104.0</ele>
        <time>2016-03-13T13:54:08Z</time>
      </trkpt>
      <trkpt lat="40.317850" lon="-4.760650">
        <ele>1102.0</ele>
        <time>2016-03-13T13:54:09Z</time>
      </trkpt>
      <trkpt lat="40.317967" lon="-4.760600">
        <ele>1101.0</ele>
        <time>2016-03-13T13:54:10Z</time>
      </trkpt>
      <trkpt lat="40.318083" lon="-4.760583">
        <ele>1100.0</ele>
        <time>2016-03-13T13:54:11Z</time>
      </trkpt>
      <trkpt lat="40.318217" lon="-4.760567">
        <ele>1100.0</ele>
        <time>2016-03-13T13:54:12Z</time>
      </trkpt>
      <trkpt lat="40.318317" lon="-4.760550">
        <ele>1100.0</ele>
        <time>2016-03-13T13:54:13Z</time>
      </trkpt>
      <trkpt lat="40.318417" lon="-4.760500">
        <ele>1099.0</ele>
        <time>2016-03-13T13:54:14Z</time>
      </trkpt>
      <trkpt lat="40.318533" lon="-4.760433">
        <ele>1098.0</ele>
        <time>2016-03-13T13:54:15Z</time>
      </trkpt>
      <trkpt lat="40.318650" lon="-4.760333">
        <ele>1097.0</ele>
        <time>2016-03-13T13:54:16Z</time>
      </trkpt>
      <trkpt lat="40.318733" lon="-4.760200">
        <ele>1099.0</ele>
        <time>2016-03-13T13:54:17Z</time>
      </trkpt>
      <trkpt lat="40.318800" lon="-4.760067">
        <ele>1101.0</ele>
        <time>2016-03-13T13:54:18Z</time>
      </trkpt>
      <trkpt lat="40.318833" lon="-4.759933">
        <ele>1105.0</ele>
        <time>2016-03-13T13:54:19Z</time>
      </trkpt>
      <trkpt lat="40.318867" lon="-4.759833">
        <ele>1108.0</ele>
        <time>2016-03-13T13:54:20Z</time>
      </trkpt>
      <trkpt lat="40.318900" lon="-4.759733">
        <ele>1109.0</ele>
        <time>2016-03-13T13:54:21Z</time>
      </trkpt>
      <trkpt lat="40.318950" lon="-4.759633">
        <ele>1110.0</ele>
        <time>2016-03-13T13:54:22Z</time>
      </trkpt>
      <trkpt lat="40.318967" lon="-4.759533">
        <ele>1110.0</ele>
        <time>2016-03-13T13:54:23Z</time>
      </trkpt>
      <trkpt lat="40.318967" lon="-4.759433">
        <ele>1110.0</ele>
        <time>2016-03-13T13:54:24Z</time>
      </trkpt>
      <trkpt lat="40.318917" lon="-4.759350">
        <ele>1109.0</ele>
        <time>2016-03-13T13:54:25Z</time>
      </trkpt>
      <trkpt lat="40.318850" lon="-4.759283">
        <ele>1108.0</ele>
        <time>2016-03-13T13:54:26Z</time>
      </trkpt>
      <trkpt lat="40.318783" lon="-4.759267">
        <ele>1108.0</ele>
        <time>2016-03-13T13:54:27Z</time>
      </trkpt>
      <trkpt lat="40.318717" lon="-4.759283">
        <ele>1108.0</ele>
        <time>2016-03-13T13:54:28Z</time>
      </trkpt>
      <trkpt lat="40.318633" lon="-4.759300">
        <ele>1109.0</ele>
        <time>2016-03-13T13:54:29Z</time>
      </trkpt>
      <trkpt lat="40.318583" lon="-4.759317">
        <ele>1112.0</ele>
        <time>2016-03-13T13:54:30Z</time>
      </trkpt>
      <trkpt lat="40.318517" lon="-4.759317">
        <ele>1115.0</ele>
        <time>2016-03-13T13:54:31Z</time>
      </trkpt>
      <trkpt lat="40.318483" lon="-4.759300">
        <ele>1118.0</ele>
        <time>2016-03-13T13:54:32Z</time>
      </trkpt>
      <trkpt lat="40.318433" lon="-4.759300">
        <ele>1121.0</ele>
        <time>2016-03-13T13:54:33Z</time>
      </trkpt>
      <trkpt lat="40.318417" lon="-4.759317">
        <ele>1122.0</ele>
        <time>2016-03-13T13:54:34Z</time>
      </trkpt>
      <trkpt lat="40.318400" lon="-4.759383">
        <ele>1121.0</ele>
        <time>2016-03-13T13:54:35Z</time>
      </trkpt>
      <trkpt lat="40.318433" lon="-4.759467">
        <ele>1119.0</ele>
        <time>2016-03-13T13:54:36Z</time>
      </trkpt>
      <trkpt lat="40.318483" lon="-4.759567">
        <ele>1119.0</ele>
        <time>2016-03-13T13:54:37Z</time>
      </trkpt>
      <trkpt lat="40.318567" lon="-4.759650">
        <ele>1118.0</ele>
        <time>2016-03-13T13:54:38Z</time>
      </trkpt>
      <trkpt lat="40.318683" lon="-4.759683">
        <ele>1117.0</ele>
        <time>2016-03-13T13:54:39Z</time>
      </trkpt>
      <trkpt lat="40.318800" lon="-4.759683">
        <ele>1117.0</ele>
        <time>2016-03-13T13:54:40Z</time>
      </trkpt>
      <trkpt lat="40.318933" lon="-4.759633">
        <ele>1118.0</ele>
        <time>2016-03-13T13:54:41Z</time>
      </trkpt>
      <trkpt lat="40.319050" lon="-4.759550">
        <ele>1121.0</ele>
        <time>2016-03-13T13:54:42Z</time>
      </trkpt>
      <trkpt lat="40.319133" lon="-4.759433">
        <ele>1125.0</ele>
        <time>2016-03-13T13:54:43Z</time>
      </trkpt>
      <trkpt lat="40.319200" lon="-4.759333">
        <ele>1129.0</ele>
        <time>2016-03-13T13:54:44Z</time>
      </trkpt>
      <trkpt lat="40.319233" lon="-4.759233">
        <ele>1131.0</ele>
        <time>2016-03-13T13:54:45Z</time>
      </trkpt>
      <trkpt lat="40.319267" lon="-4.759150">
        <ele>1132.0</ele>
        <time>2016-03-13T13:54:46Z</time>
      </trkpt>
      <trkpt lat="40.319300" lon="-4.759067">
        <ele>1131.0</ele>
        <time>2016-03-13T13:54:47Z</time>
      </trkpt>
      <trkpt lat="40.319317" lon="-4.758983">
        <ele>1130.0</ele>
        <time>2016-03-13T13:54:48Z</time>
      </trkpt>
      <trkpt lat="40.319317" lon="-4.758883">
        <ele>1128.0</ele>
        <time>2016-03-13T13:54:49Z</time>
      </trkpt>
      <trkpt lat="40.319300" lon="-4.758767">
        <ele>1125.0</ele>
        <time>2016-03-13T13:54:50Z</time>
      </trkpt>
      <trkpt lat="40.319267" lon="-4.758650">
        <ele>1123.0</ele>
        <time>2016-03-13T13:54:51Z</time>
      </trkpt>
      <trkpt lat="40.319250" lon="-4.758533">
        <ele>1122.0</ele>
        <time>2016-03-13T13:54:52Z</time>
      </trkpt>
      <trkpt lat="40.319250" lon="-4.758400">
        <ele>1120.0</ele>
        <time>2016-03-13T13:54:53Z</time>
      </trkpt>
      <trkpt lat="40.319250" lon="-4.758283">
        <ele>1120.0</ele>
        <time>2016-03-13T13:54:54Z</time>
      </trkpt>
      <trkpt lat="40.319267" lon="-4.758167">
        <ele>1119.0</ele>
        <time>2016-03-13T13:54:55Z</time>
      </trkpt>
      <trkpt lat="40.319300" lon="-4.758050">
        <ele>1119.0</ele>
        <time>2016-03-13T13:54:56Z</time>
      </trkpt>
      <trkpt lat="40.319333" lon="-4.757933">
        <ele>1118.0</ele>
        <time>2016-03-13T13:54:57Z</time>
      </trkpt>
      <trkpt lat="40.319367" lon="-4.757817">
        <ele>1118.0</ele>
        <time>2016-03-13T13:54:58Z</time>
      </trkpt>
      <trkpt lat="40.319400" lon="-4.757700">
        <ele>1116.0</ele>
        <time>2016-03-13T13:54:59Z</time>
      </trkpt>
      <trkpt lat="40.319433" lon="-4.757567">
        <ele>1115.0</ele>
        <time>2016-03-13T13:55:00Z</time>
      </trkpt>
      <trkpt lat="40.319467" lon="-4.757450">
        <ele>1115.0</ele>
        <time>2016-03-13T13:55:01Z</time>
      </trkpt>
      <trkpt lat="40.319500" lon="-4.757333">
        <ele>1114.0</ele>
        <time>2016-03-13T13:55:02Z</time>
      </trkpt>
      <trkpt lat="40.319533" lon="-4.757217">
        <ele>1114.0</ele>
        <time>2016-03-13T13:55:03Z</time>
      </trkpt>
      <trkpt lat="40.319533" lon="-4.757100">
        <ele>1112.0</ele>
        <time>2016-03-13T13:55:04Z</time>
      </trkpt>
      <trkpt lat="40.319550" lon="-4.757000">
        <ele>1110.0</ele>
        <time>2016-03-13T13:55:05Z</time>
      </trkpt>
      <trkpt lat="40.319567" lon="-4.756883">
        <ele>1108.0</ele>
        <time>2016-03-13T13:55:06Z</time>
      </trkpt>
      <trkpt lat="40.319600" lon="-4.756750">
        <ele>1106.0</ele>
        <time>2016-03-13T13:55:07Z</time>
      </trkpt>
      <trkpt lat="40.319617" lon="-4.756633">
        <ele>1103.0</ele>
        <time>2016-03-13T13:55:08Z</time>
      </trkpt>
      <trkpt lat="40.319633" lon="-4.756517">
        <ele>1101.0</ele>
        <time>2016-03-13T13:55:09Z</time>
      </trkpt>
      <trkpt lat="40.319650" lon="-4.756417">
        <ele>1099.0</ele>
        <time>2016-03-13T13:55:10Z</time>
      </trkpt>
      <trkpt lat="40.319650" lon="-4.756300">
        <ele>1097.0</ele>
        <time>2016-03-13T13:55:11Z</time>
      </trkpt>
      <trkpt lat="40.319667" lon="-4.756167">
        <ele>1095.0</ele>
        <time>2016-03-13T13:55:12Z</time>
      </trkpt>
      <trkpt lat="40.319667" lon="-4.756050">
        <ele>1093.0</ele>
        <time>2016-03-13T13:55:13Z</time>
      </trkpt>
      <trkpt lat="40.319683" lon="-4.755933">
        <ele>1091.0</ele>
        <time>2016-03-13T13:55:14Z</time>
      </trkpt>
      <trkpt lat="40.319683" lon="-4.755833">
        <ele>1089.0</ele>
        <time>2016-03-13T13:55:15Z</time>
      </trkpt>
      <trkpt lat="40.319700" lon="-4.755717">
        <ele>1087.0</ele>
        <time>2016-03-13T13:55:16Z</time>
      </trkpt>
      <trkpt lat="40.319717" lon="-4.755583">
        <ele>1084.0</ele>
        <time>2016-03-13T13:55:17Z</time>
      </trkpt>
      <trkpt lat="40.319750" lon="-4.755467">
        <ele>1081.0</ele>
        <time>2016-03-13T13:55:18Z</time>
      </trkpt>
      <trkpt lat="40.319767" lon="-4.755333">
        <ele>1078.0</ele>
        <time>2016-03-13T13:55:19Z</time>
      </trkpt>
      <trkpt lat="40.319767" lon="-4.755200">
        <ele>1077.0</ele>
        <time>2016-03-13T13:55:20Z</time>
      </trkpt>
      <trkpt lat="40.319783" lon="-4.755083">
        <ele>1075.0</ele>
        <time>2016-03-13T13:55:21Z</time>
      </trkpt>
      <trkpt lat="40.319800" lon="-4.754967">
        <ele>1074.0</ele>
        <time>2016-03-13T13:55:22Z</time>
      </trkpt>
      <trkpt lat="40.319817" lon="-4.754867">
        <ele>1072.0</ele>
        <time>2016-03-13T13:55:23Z</time>
      </trkpt>
      <trkpt lat="40.319850" lon="-4.754750">
        <ele>1070.0</ele>
        <time>2016-03-13T13:55:24Z</time>
      </trkpt>
      <trkpt lat="40.319867" lon="-4.754633">
        <ele>1067.0</ele>
        <time>2016-03-13T13:55:25Z</time>
      </trkpt>
      <trkpt lat="40.319883" lon="-4.754517">
        <ele>1065.0</ele>
        <time>2016-03-13T13:55:26Z</time>
      </trkpt>
      <trkpt lat="40.319867" lon="-4.754400">
        <ele>1063.0</ele>
        <time>2016-03-13T13:55:27Z</time>
      </trkpt>
      <trkpt lat="40.319833" lon="-4.754317">
        <ele>1062.0</ele>
        <time>2016-03-13T13:55:28Z</time>
      </trkpt>
      <trkpt lat="40.319767" lon="-4.754250">
        <ele>1060.0</ele>
        <time>2016-03-13T13:55:29Z</time>
      </trkpt>
      <trkpt lat="40.319667" lon="-4.754250">
        <ele>1057.0</ele>
        <time>2016-03-13T13:55:30Z</time>
      </trkpt>
      <trkpt lat="40.319583" lon="-4.754283">
        <ele>1055.0</ele>
        <time>2016-03-13T13:55:31Z</time>
      </trkpt>
      <trkpt lat="40.319517" lon="-4.754350">
        <ele>1054.0</ele>
        <time>2016-03-13T13:55:32Z</time>
      </trkpt>
      <trkpt lat="40.319467" lon="-4.754450">
        <ele>1052.0</ele>
        <time>2016-03-13T13:55:33Z</time>
      </trkpt>
      <trkpt lat="40.319433" lon="-4.754567">
        <ele>1051.0</ele>
        <time>2016-03-13T13:55:34Z</time>
      </trkpt>
      <trkpt lat="40.319433" lon="-4.754683">
        <ele>1049.0</ele>
        <time>2016-03-13T13:55:35Z</time>
      </trkpt>
      <trkpt lat="40.319433" lon="-4.754800">
        <ele>1048.0</ele>
        <time>2016-03-13T13:55:36Z</time>
      </trkpt>
      <trkpt lat="40.319450" lon="-4.754917">
        <ele>1046.0</ele>
        <time>2016-03-13T13:55:37Z</time>
      </trkpt>
      <trkpt lat="40.319467" lon="-4.755033">
        <ele>1043.0</ele>
        <time>2016-03-13T13:55:38Z</time>
      </trkpt>
      <trkpt lat="40.319483" lon="-4.755150">
        <ele>1041.0</ele>
        <time>2016-03-13T13:55:39Z</time>
      </trkpt>
      <trkpt lat="40.319483" lon="-4.755283">
        <ele>1038.0</ele>
        <time>2016-03-13T13:55:40Z</time>
      </trkpt>
      <trkpt lat="40.319483" lon="-4.755400">
        <ele>1036.0</ele>
        <time>2016-03-13T13:55:41Z</time>
      </trkpt>
      <trkpt lat="40.319467" lon="-4.755517">
        <ele>1033.0</ele>
        <time>2016-03-13T13:55:42Z</time>
      </trkpt>
      <trkpt lat="40.319450" lon="-4.755633">
        <ele>1031.0</ele>
        <time>2016-03-13T13:55:43Z</time>
      </trkpt>
      <trkpt lat="40.319450" lon="-4.755767">
        <ele>1030.0</ele>
        <time>2016-03-13T13:55:44Z</time>
      </trkpt>
      <trkpt lat="40.319467" lon="-4.755883">
        <ele>1028.0</ele>
        <time>2016-03-13T13:55:45Z</time>
      </trkpt>
      <trkpt lat="40.319467" lon="-4.756000">
        <ele>1026.0</ele>
        <time>2016-03-13T13:55:46Z</time>
      </trkpt>
      <trkpt lat="40.319467" lon="-4.756133">
        <ele>1024.0</ele>
        <time>2016-03-13T13:55:47Z</time>
      </trkpt>
      <trkpt lat="40.319467" lon="-4.756250">
        <ele>1021.0</ele>
        <time>2016-03-13T13:55:48Z</time>
      </trkpt>
      <trkpt lat="40.319467" lon="-4.756383">
        <ele>1019.0</ele>
        <time>2016-03-13T13:55:49Z</time>
      </trkpt>
      <trkpt lat="40.319467" lon="-4.756517">
        <ele>1017.0</ele>
        <time>2016-03-13T13:55:50Z</time>
      </trkpt>
      <trkpt lat="40.319467" lon="-4.756650">
        <ele>1016.0</ele>
        <time>2016-03-13T13:55:51Z</time>
      </trkpt>
      <trkpt lat="40.319450" lon="-4.756783">
        <ele>1015.0</ele>
        <time>2016-03-13T13:55:52Z</time>
      </trkpt>
      <trkpt lat="40.319433" lon="-4.756900">
        <ele>1013.0</ele>
        <time>2016-03-13T13:55:53Z</time>
      </trkpt>
      <trkpt lat="40.319400" lon="-4.757017">
        <ele>1011.0</ele>
        <time>2016-03-13T13:55:54Z</time>
      </trkpt>
      <trkpt lat="40.319367" lon="-4.757117">
        <ele>1009.0</ele>
        <time>2016-03-13T13:55:55Z</time>
      </trkpt>
      <trkpt lat="40.319300" lon="-4.757183">
        <ele>1007.0</ele>
        <time>2016-03-13T13:55:56Z</time>
      </trkpt>
      <trkpt lat="40.319217" lon="-4.757233">
        <ele>1004.0</ele>
        <time>2016-03-13T13:55:57Z</time>
      </trkpt>
      <trkpt lat="40.319117" lon="-4.757217">
        <ele>1002.0</ele>
        <time>2016-03-13T13:55:58Z</time>
      </trkpt>
      <trkpt lat="40.319050" lon="-4.757183">
        <ele>1001.0</ele>
        <time>2016-03-13T13:55:59Z</time>
      </trkpt>
      <trkpt lat="40.318983" lon="-4.757117">
        <ele>1000.0</ele>
        <time>2016-03-13T13:56:00Z</time>
      </trkpt>
      <trkpt lat="40.318950" lon="-4.757033">
        <ele>1000.0</ele>
        <time>2016-03-13T13:56:01Z</time>
      </trkpt>
      <trkpt lat="40.318933" lon="-4.756950">
        <ele>1000.0</ele>
        <time>2016-03-13T13:56:02Z</time>
      </trkpt>
      <trkpt lat="40.318933" lon="-4.756850">
        <ele>999.0</ele>
        <time>2016-03-13T13:56:03Z</time>
      </trkpt>
      <trkpt lat="40.318933" lon="-4.756750">
        <ele>999.0</ele>
        <time>2016-03-13T13:56:04Z</time>
      </trkpt>
      <trkpt lat="40.318917" lon="-4.756650">
        <ele>999.0</ele>
        <time>2016-03-13T13:56:05Z</time>
      </trkpt>
      <trkpt lat="40.318917" lon="-4.756550">
        <ele>999.0</ele>
        <time>2016-03-13T13:56:06Z</time>
      </trkpt>
      <trkpt lat="40.318900" lon="-4.756450">
        <ele>999.0</ele>
        <time>2016-03-13T13:56:07Z</time>
      </trkpt>
      <trkpt lat="40.318917" lon="-4.756350">
        <ele>999.0</ele>
        <time>2016-03-13T13:56:08Z</time>
      </trkpt>
      <trkpt lat="40.318917" lon="-4.756233">
        <ele>999.0</ele>
        <time>2016-03-13T13:56:09Z</time>
      </trkpt>
      <trkpt lat="40.318917" lon="-4.756133">
        <ele>999.0</ele>
        <time>2016-03-13T13:56:10Z</time>
      </trkpt>
      <trkpt lat="40.318917" lon="-4.756033">
        <ele>999.0</ele>
        <time>2016-03-13T13:56:11Z</time>
      </trkpt>
      <trkpt lat="40.318900" lon="-4.755950">
        <ele>999.0</ele>
        <time>2016-03-13T13:56:12Z</time>
      </trkpt>
      <trkpt lat="40.318883" lon="-4.755867">
        <ele>998.0</ele>
        <time>2016-03-13T13:56:13Z</time>
      </trkpt>
      <trkpt lat="40.318883" lon="-4.755783">
        <ele>997.0</ele>
        <time>2016-03-13T13:56:14Z</time>
      </trkpt>
      <trkpt lat="40.318883" lon="-4.755683">
        <ele>995.0</ele>
        <time>2016-03-13T13:56:15Z</time>
      </trkpt>
      <trkpt lat="40.318883" lon="-4.755567">
        <ele>993.0</ele>
        <time>2016-03-13T13:56:16Z</time>
      </trkpt>
      <trkpt lat="40.318900" lon="-4.755450">
        <ele>991.0</ele>
        <time>2016-03-13T13:56:17Z</time>
      </trkpt>
      <trkpt lat="40.318900" lon="-4.755317">
        <ele>990.0</ele>
        <time>2016-03-13T13:56:18Z</time>
      </trkpt>
      <trkpt lat="40.318917" lon="-4.755200">
        <ele>990.0</ele>
        <time>2016-03-13T13:56:19Z</time>
      </trkpt>
      <trkpt lat="40.318933" lon="-4.755083">
        <ele>989.0</ele>
        <time>2016-03-13T13:56:20Z</time>
      </trkpt>
      <trkpt lat="40.318950" lon="-4.754967">
        <ele>988.0</ele>
        <time>2016-03-13T13:56:21Z</time>
      </trkpt>
      <trkpt lat="40.318967" lon="-4.754850">
        <ele>985.0</ele>
        <time>2016-03-13T13:56:22Z</time>
      </trkpt>
      <trkpt lat="40.318967" lon="-4.754717">
        <ele>983.0</ele>
        <time>2016-03-13T13:56:23Z</time>
      </trkpt>
      <trkpt lat="40.318967" lon="-4.754600">
        <ele>980.0</ele>
        <time>2016-03-13T13:56:24Z</time>
      </trkpt>
      <trkpt lat="40.318967" lon="-4.754467">
        <ele>978.0</ele>
        <time>2016-03-13T13:56:25Z</time>
      </trkpt>
      <trkpt lat="40.318967" lon="-4.754333">
        <ele>976.0</ele>
        <time>2016-03-13T13:56:26Z</time>
      </trkpt>
      <trkpt lat="40.318967" lon="-4.754200">
        <ele>974.0</ele>
        <time>2016-03-13T13:56:27Z</time>
      </trkpt>
      <trkpt lat="40.318983" lon="-4.754083">
        <ele>972.0</ele>
        <time>2016-03-13T13:56:28Z</time>
      </trkpt>
      <trkpt lat="40.319000" lon="-4.753950">
        <ele>971.0</ele>
        <time>2016-03-13T13:56:29Z</time>
      </trkpt>
      <trkpt lat="40.319000" lon="-4.753817">
        <ele>969.0</ele>
        <time>2016-03-13T13:56:30Z</time>
      </trkpt>
      <trkpt lat="40.318983" lon="-4.753700">
        <ele>967.0</ele>
        <time>2016-03-13T13:56:31Z</time>
      </trkpt>
      <trkpt lat="40.318967" lon="-4.753583">
        <ele>966.0</ele>
        <time>2016-03-13T13:56:32Z</time>
      </trkpt>
      <trkpt lat="40.318967" lon="-4.753450">
        <ele>964.0</ele>
        <time>2016-03-13T13:56:33Z</time>
      </trkpt>
      <trkpt lat="40.318967" lon="-4.753333">
        <ele>962.0</ele>
        <time>2016-03-13T13:56:34Z</time>
      </trkpt>
      <trkpt lat="40.318950" lon="-4.753217">
        <ele>960.0</ele>
        <time>2016-03-13T13:56:35Z</time>
      </trkpt>
      <trkpt lat="40.318917" lon="-4.753100">
        <ele>958.0</ele>
        <time>2016-03-13T13:56:36Z</time>
      </trkpt>
      <trkpt lat="40.318883" lon="-4.752983">
        <ele>956.0</ele>
        <time>2016-03-13T13:56:37Z</time>
      </trkpt>
      <trkpt lat="40.318850" lon="-4.752883">
        <ele>954.0</ele>
        <time>2016-03-13T13:56:38Z</time>
      </trkpt>
      <trkpt lat="40.318817" lon="-4.752767">
        <ele>952.0</ele>
        <time>2016-03-13T13:56:39Z</time>
      </trkpt>
      <trkpt lat="40.318783" lon="-4.752667">
        <ele>950.0</ele>
        <time>2016-03-13T13:56:40Z</time>
      </trkpt>
      <trkpt lat="40.318733" lon="-4.752567">
        <ele>947.0</ele>
        <time>2016-03-13T13:56:41Z</time>
      </trkpt>
      <trkpt lat="40.318683" lon="-4.752467">
        <ele>945.0</ele>
        <time>2016-03-13T13:56:42Z</time>
      </trkpt>
      <trkpt lat="40.318633" lon="-4.752367">
        <ele>943.0</ele>
        <time>2016-03-13T13:56:43Z</time>
      </trkpt>
      <trkpt lat="40.318600" lon="-4.752267">
        <ele>941.0</ele>
        <time>2016-03-13T13:56:44Z</time>
      </trkpt>
      <trkpt lat="40.318567" lon="-4.752150">
        <ele>940.0</ele>
        <time>2016-03-13T13:56:45Z</time>
      </trkpt>
      <trkpt lat="40.318533" lon="-4.752050">
        <ele>939.0</ele>
        <time>2016-03-13T13:56:46Z</time>
      </trkpt>
      <trkpt lat="40.318483" lon="-4.751950">
        <ele>938.0</ele>
        <time>2016-03-13T13:56:47Z</time>
      </trkpt>
      <trkpt lat="40.318433" lon="-4.751833">
        <ele>937.0</ele>
        <time>2016-03-13T13:56:48Z</time>
      </trkpt>
      <trkpt lat="40.318400" lon="-4.751733">
        <ele>937.0</ele>
        <time>2016-03-13T13:56:49Z</time>
      </trkpt>
      <trkpt lat="40.318350" lon="-4.751617">
        <ele>937.0</ele>
        <time>2016-03-13T13:56:50Z</time>
      </trkpt>
      <trkpt lat="40.318300" lon="-4.751517">
        <ele>937.0</ele>
        <time>2016-03-13T13:56:51Z</time>
      </trkpt>
      <trkpt lat="40.318250" lon="-4.751417">
        <ele>937.0</ele>
        <time>2016-03-13T13:56:52Z</time>
      </trkpt>
      <trkpt lat="40.318200" lon="-4.751333">
        <ele>935.0</ele>
        <time>2016-03-13T13:56:53Z</time>
      </trkpt>
      <trkpt lat="40.318150" lon="-4.751250">
        <ele>933.0</ele>
        <time>2016-03-13T13:56:54Z</time>
      </trkpt>
      <trkpt lat="40.318117" lon="-4.751150">
        <ele>930.0</ele>
        <time>2016-03-13T13:56:55Z</time>
      </trkpt>
      <trkpt lat="40.318083" lon="-4.751033">
        <ele>926.0</ele>
        <time>2016-03-13T13:56:56Z</time>
      </trkpt>
      <trkpt lat="40.318067" lon="-4.750900">
        <ele>923.0</ele>
        <time>2016-03-13T13:56:57Z</time>
      </trkpt>
      <trkpt lat="40.318067" lon="-4.750767">
        <ele>920.0</ele>
        <time>2016-03-13T13:56:58Z</time>
      </trkpt>
      <trkpt lat="40.318083" lon="-4.750633">
        <ele>917.0</ele>
        <time>2016-03-13T13:56:59Z</time>
      </trkpt>
      <trkpt lat="40.318100" lon="-4.750500">
        <ele>914.0</ele>
        <time>2016-03-13T13:57:00Z</time>
      </trkpt>
      <trkpt lat="40.318117" lon="-4.750350">
        <ele>912.0</ele>
        <time>2016-03-13T13:57:01Z</time>
      </trkpt>
      <trkpt lat="40.318133" lon="-4.750200">
        <ele>910.0</ele>
        <time>2016-03-13T13:57:02Z</time>
      </trkpt>
      <trkpt lat="40.318167" lon="-4.750067">
        <ele>908.0</ele>
        <time>2016-03-13T13:57:03Z</time>
      </trkpt>
      <trkpt lat="40.318183" lon="-4.749917">
        <ele>906.0</ele>
        <time>2016-03-13T13:57:04Z</time>
      </trkpt>
      <trkpt lat="40.318217" lon="-4.749783">
        <ele>904.0</ele>
        <time>2016-03-13T13:57:05Z</time>
      </trkpt>
      <trkpt lat="40.318267" lon="-4.749650">
        <ele>902.0</ele>
        <time>2016-03-13T13:57:06Z</time>
      </trkpt>
      <trkpt lat="40.318317" lon="-4.749533">
        <ele>900.0</ele>
        <time>2016-03-13T13:57:07Z</time>
      </trkpt>
      <trkpt lat="40.318400" lon="-4.749433">
        <ele>896.0</ele>
        <time>2016-03-13T13:57:08Z</time>
      </trkpt>
      <trkpt lat="40.318500" lon="-4.749317">
        <ele>893.0</ele>
        <time>2016-03-13T13:57:09Z</time>
      </trkpt>
      <trkpt lat="40.318600" lon="-4.749233">
        <ele>891.0</ele>
        <time>2016-03-13T13:57:10Z</time>
      </trkpt>
      <trkpt lat="40.318700" lon="-4.749150">
        <ele>890.0</ele>
        <time>2016-03-13T13:57:11Z</time>
      </trkpt>
      <trkpt lat="40.318783" lon="-4.749083">
        <ele>889.0</ele>
        <time>2016-03-13T13:57:12Z</time>
      </trkpt>
      <trkpt lat="40.318867" lon="-4.749033">
        <ele>888.0</ele>
        <time>2016-03-13T13:57:13Z</time>
      </trkpt>
      <trkpt lat="40.318967" lon="-4.748983">
        <ele>886.0</ele>
        <time>2016-03-13T13:57:14Z</time>
      </trkpt>
      <trkpt lat="40.319067" lon="-4.748967">
        <ele>884.0</ele>
        <time>2016-03-13T13:57:15Z</time>
      </trkpt>
      <trkpt lat="40.319167" lon="-4.748967">
        <ele>882.0</ele>
        <time>2016-03-13T13:57:16Z</time>
      </trkpt>
      <trkpt lat="40.319267" lon="-4.748967">
        <ele>880.0</ele>
        <time>2016-03-13T13:57:17Z</time>
      </trkpt>
      <trkpt lat="40.319367" lon="-4.748950">
        <ele>879.0</ele>
        <time>2016-03-13T13:57:18Z</time>
      </trkpt>
      <trkpt lat="40.319467" lon="-4.748917">
        <ele>877.0</ele>
        <time>2016-03-13T13:57:19Z</time>
      </trkpt>
      <trkpt lat="40.319550" lon="-4.748883">
        <ele>875.0</ele>
        <time>2016-03-13T13:57:20Z</time>
      </trkpt>
      <trkpt lat="40.319633" lon="-4.748800">
        <ele>872.0</ele>
        <time>2016-03-13T13:57:21Z</time>
      </trkpt>
      <trkpt lat="40.319733" lon="-4.748717">
        <ele>869.0</ele>
        <time>2016-03-13T13:57:22Z</time>
      </trkpt>
      <trkpt lat="40.319817" lon="-4.748617">
        <ele>867.0</ele>
        <time>2016-03-13T13:57:23Z</time>
      </trkpt>
      <trkpt lat="40.319900" lon="-4.748500">
        <ele>866.0</ele>
        <time>2016-03-13T13:57:24Z</time>
      </trkpt>
      <trkpt lat="40.319950" lon="-4.748400">
        <ele>865.0</ele>
        <time>2016-03-13T13:57:25Z</time>
      </trkpt>
      <trkpt lat="40.319967" lon="-4.748267">
        <ele>863.0</ele>
        <time>2016-03-13T13:57:26Z</time>
      </trkpt>
      <trkpt lat="40.319950" lon="-4.748133">
        <ele>860.0</ele>
        <time>2016-03-13T13:57:27Z</time>
      </trkpt>
      <trkpt lat="40.319883" lon="-4.748033">
        <ele>855.0</ele>
        <time>2016-03-13T13:57:28Z</time>
      </trkpt>
      <trkpt lat="40.319783" lon="-4.748000">
        <ele>851.0</ele>
        <time>2016-03-13T13:57:29Z</time>
      </trkpt>
      <trkpt lat="40.319700" lon="-4.748000">
        <ele>848.0</ele>
        <time>2016-03-13T13:57:30Z</time>
      </trkpt>
      <trkpt lat="40.319617" lon="-4.748017">
        <ele>849.0</ele>
        <time>2016-03-13T13:57:31Z</time>
      </trkpt>
      <trkpt lat="40.319550" lon="-4.747983">
        <ele>849.0</ele>
        <time>2016-03-13T13:57:32Z</time>
      </trkpt>
      <trkpt lat="40.319500" lon="-4.747900">
        <ele>846.0</ele>
        <time>2016-03-13T13:57:33Z</time>
      </trkpt>
      <trkpt lat="40.319483" lon="-4.747767">
        <ele>841.0</ele>
        <time>2016-03-13T13:57:34Z</time>
      </trkpt>
      <trkpt lat="40.319483" lon="-4.747600">
        <ele>837.0</ele>
        <time>2016-03-13T13:57:35Z</time>
      </trkpt>
      <trkpt lat="40.319533" lon="-4.747433">
        <ele>834.0</ele>
        <time>2016-03-13T13:57:36Z</time>
      </trkpt>
      <trkpt lat="40.319600" lon="-4.747283">
        <ele>833.0</ele>
        <time>2016-03-13T13:57:37Z</time>
      </trkpt>
      <trkpt lat="40.319667" lon="-4.747167">
        <ele>834.0</ele>
        <time>2016-03-13T13:57:38Z</time>
      </trkpt>
      <trkpt lat="40.319700" lon="-4.747033">
        <ele>834.0</ele>
        <time>2016-03-13T13:57:39Z</time>
      </trkpt>
      <trkpt lat="40.319700" lon="-4.746917">
        <ele>831.0</ele>
        <time>2016-03-13T13:57:40Z</time>
      </trkpt>
      <trkpt lat="40.319650" lon="-4.746800">
        <ele>828.0</ele>
        <time>2016-03-13T13:57:41Z</time>
      </trkpt>
      <trkpt lat="40.319583" lon="-4.746700">
        <ele>825.0</ele>
        <time>2016-03-13T13:57:42Z</time>
      </trkpt>
      <trkpt lat="40.319500" lon="-4.746633">
        <ele>824.0</ele>
        <time>2016-03-13T13:57:43Z</time>
      </trkpt>
      <trkpt lat="40.319433" lon="-4.746617">
        <ele>826.0</ele>
        <time>2016-03-13T13:57:44Z</time>
      </trkpt>
      <trkpt lat="40.319400" lon="-4.746583">
        <ele>827.0</ele>
        <time>2016-03-13T13:57:45Z</time>
      </trkpt>
      <trkpt lat="40.319367" lon="-4.746533">
        <ele>826.0</ele>
        <time>2016-03-13T13:57:46Z</time>
      </trkpt>
      <trkpt lat="40.319300" lon="-4.746467">
        <ele>824.0</ele>
        <time>2016-03-13T13:57:47Z</time>
      </trkpt>
      <trkpt lat="40.319233" lon="-4.746383">
        <ele>820.0</ele>
        <time>2016-03-13T13:57:48Z</time>
      </trkpt>
      <trkpt lat="40.319117" lon="-4.746317">
        <ele>817.0</ele>
        <time>2016-03-13T13:57:49Z</time>
      </trkpt>
      <trkpt lat="40.319017" lon="-4.746233">
        <ele>817.0</ele>
        <time>2016-03-13T13:57:50Z</time>
      </trkpt>
      <trkpt lat="40.318967" lon="-4.746183">
        <ele>822.0</ele>
        <time>2016-03-13T13:57:51Z</time>
      </trkpt>
      <trkpt lat="40.318933" lon="-4.746133">
        <ele>823.0</ele>
        <time>2016-03-13T13:57:52Z</time>
      </trkpt>
      <trkpt lat="40.318900" lon="-4.746083">
        <ele>822.0</ele>
        <time>2016-03-13T13:57:53Z</time>
      </trkpt>
      <trkpt lat="40.318833" lon="-4.746033">
        <ele>820.0</ele>
        <time>2016-03-13T13:57:54Z</time>
      </trkpt>
      <trkpt lat="40.318750" lon="-4.746017">
        <ele>818.0</ele>
        <time>2016-03-13T13:57:55Z</time>
      </trkpt>
      <trkpt lat="40.318650" lon="-4.746000">
        <ele>816.0</ele>
        <time>2016-03-13T13:57:56Z</time>
      </trkpt>
      <trkpt lat="40.318617" lon="-4.746000">
        <ele>817.0</ele>
        <time>2016-03-13T13:57:57Z</time>
      </trkpt>
      <trkpt lat="40.318617" lon="-4.745983">
        <ele>817.0</ele>
        <time>2016-03-13T13:57:58Z</time>
      </trkpt>
      <trkpt lat="40.318650" lon="-4.745983">
        <ele>816.0</ele>
        <time>2016-03-13T13:57:59Z</time>
      </trkpt>
      <trkpt lat="40.318633" lon="-4.746000">
        <ele>815.0</ele>
        <time>2016-03-13T13:58:00Z</time>
      </trkpt>
      <trkpt lat="40.318633" lon="-4.745983">
        <ele>815.0</ele>
        <time>2016-03-13T13:58:01Z</time>
      </trkpt>
      <trkpt lat="40.318633" lon="-4.745983">
        <ele>815.0</ele>
        <time>2016-03-13T13:58:02Z</time>
      </trkpt>
      <trkpt lat="40.318633" lon="-4.745983">
        <ele>815.0</ele>
        <time>2016-03-13T13:58:03Z</time>
      </trkpt>
      <trkpt lat="40.318633" lon="-4.745983">
        <ele>815.0</ele>
        <time>2016-03-13T13:58:04Z</time>
      </trkpt>
      <trkpt lat="40.318633" lon="-4.745983">
        <ele>815.0</ele>
        <time>2016-03-13T13:58:05Z</time>
      </trkpt>
      <trkpt lat="40.318650" lon="-4.745983">
        <ele>815.0</ele>
        <time>2016-03-13T13:58:06Z</time>
      </trkpt>
      <trkpt lat="40.318650" lon="-4.745983">
        <ele>815.0</ele>
        <time>2016-03-13T13:58:07Z</time>
      </trkpt>
      <trkpt lat="40.318650" lon="-4.745983">
        <ele>815.0</ele>
        <time>2016-03-13T13:58:08Z</time>
      </trkpt>
      <trkpt lat="40.318650" lon="-4.745983">
        <ele>815.0</ele>
        <time>2016-03-13T13:58:09Z</time>
      </trkpt>
      <trkpt lat="40.318650" lon="-4.745983">
        <ele>814.0</ele>
        <time>2016-03-13T13:58:10Z</time>
      </trkpt>
      <trkpt lat="40.318650" lon="-4.745983">
        <ele>815.0</ele>
        <time>2016-03-13T13:58:11Z</time>
      </trkpt>
      <trkpt lat="40.318650" lon="-4.745983">
        <ele>814.0</ele>
        <time>2016-03-13T13:58:12Z</time>
      </trkpt>
      <trkpt lat="40.318650" lon="-4.745983">
        <ele>814.0</ele>
        <time>2016-03-13T13:58:13Z</time>
      </trkpt>
      <trkpt lat="40.318650" lon="-4.745983">
        <ele>814.0</ele>
        <time>2016-03-13T13:58:14Z</time>
      </trkpt>
      <trkpt lat="40.318650" lon="-4.745983">
        <ele>814.0</ele>
        <time>2016-03-13T13:58:15Z</time>
      </trkpt>
      <trkpt lat="40.318650" lon="-4.745983">
        <ele>814.0</ele>
        <time>2016-03-13T13:58:16Z</time>
      </trkpt>
      <trkpt lat="40.318650" lon="-4.746000">
        <ele>814.0</ele>
        <time>2016-03-13T13:58:17Z</time>
      </trkpt>
      <trkpt lat="40.318650" lon="-4.746000">
        <ele>813.0</ele>
        <time>2016-03-13T13:58:18Z</time>
      </trkpt>
      <trkpt lat="40.318667" lon="-4.746000">
        <ele>813.0</ele>
        <time>2016-03-13T13:58:19Z</time>
      </trkpt>
      <trkpt lat="40.318667" lon="-4.746000">
        <ele>812.0</ele>
        <time>2016-03-13T13:58:20Z</time>
      </trkpt>
      <trkpt lat="40.318667" lon="-4.746000">
        <ele>811.0</ele>
        <time>2016-03-13T13:58:21Z</time>
      </trkpt>
      <trkpt lat="40.318667" lon="-4.746000">
        <ele>811.0</ele>
        <time>2016-03-13T13:58:22Z</time>
      </trkpt>
      <trkpt lat="40.318667" lon="-4.745983">
        <ele>810.0</ele>
        <time>2016-03-13T13:58:23Z</time>
      </trkpt>
      <trkpt lat="40.318667" lon="-4.745983">
        <ele>809.0</ele>
        <time>2016-03-13T13:58:24Z</time>
      </trkpt>
      <trkpt lat="40.318667" lon="-4.745983">
        <ele>809.0</ele>
        <time>2016-03-13T13:58:25Z</time>
      </trkpt>
      <trkpt lat="40.318667" lon="-4.745983">
        <ele>809.0</ele>
        <time>2016-03-13T13:58:26Z</time>
      </trkpt>
      <trkpt lat="40.318667" lon="-4.745983">
        <ele>809.0</ele>
        <time>2016-03-13T13:58:27Z</time>
      </trkpt>
    </trkseg>
  </trk>
</gpx>
